<?xml version='1.0' encoding='UTF-8'?>
<gpx version="1.1" creator="https://www.komoot.de" xmlns="http://www.topografix.com/GPX/1/1" xmlns:xsi="http://www.w3.org/2001/XMLSchema-instance" xsi:schemaLocation="http://www.topografix.com/GPX/1/1 http://www.topografix.com/GPX/1/1/gpx.xsd">
  <metadata>
    <name>PDTS Gravel 200 v2024-05-25</name>
    <author>
      <link href="https://www.komoot.de">
        <text>komoot</text>
        <type>text/html</type>
      </link>
    </author>
  </metadata>
  <trk>
    <name>PDTS Gravel 200 v2024-05-25</name>
    <trkseg>
      <trkpt lat="48.892430" lon="2.262221">
        <ele>27.959741</ele>
        <time>2024-05-25T15:30:47.245Z</time>
      </trkpt>
      <trkpt lat="48.892357" lon="2.262301">
        <ele>27.959741</ele>
        <time>2024-05-25T15:30:49.870Z</time>
      </trkpt>
      <trkpt lat="48.892290" lon="2.262410">
        <ele>27.959741</ele>
        <time>2024-05-25T15:30:52.476Z</time>
      </trkpt>
      <trkpt lat="48.892131" lon="2.262743">
        <ele>27.959741</ele>
        <time>2024-05-25T15:31:00.106Z</time>
      </trkpt>
      <trkpt lat="48.892131" lon="2.262914">
        <ele>27.959741</ele>
        <time>2024-05-25T15:31:03.113Z</time>
      </trkpt>
      <trkpt lat="48.892569" lon="2.263671">
        <ele>28.337464</ele>
        <time>2024-05-25T15:31:22.292Z</time>
      </trkpt>
      <trkpt lat="48.892616" lon="2.263754">
        <ele>28.418726</ele>
        <time>2024-05-25T15:31:24.235Z</time>
      </trkpt>
      <trkpt lat="48.893033" lon="2.264481">
        <ele>29.134436</ele>
        <time>2024-05-25T15:31:42.641Z</time>
      </trkpt>
      <trkpt lat="48.893080" lon="2.264562">
        <ele>29.214580</ele>
        <time>2024-05-25T15:31:44.302Z</time>
      </trkpt>
      <trkpt lat="48.893466" lon="2.265274">
        <ele>29.899172</ele>
        <time>2024-05-25T15:32:01.493Z</time>
      </trkpt>
      <trkpt lat="48.893903" lon="2.266268">
        <ele>30.786218</ele>
        <time>2024-05-25T15:32:26.307Z</time>
      </trkpt>
      <trkpt lat="48.893930" lon="2.266331">
        <ele>30.842005</ele>
        <time>2024-05-25T15:32:27.815Z</time>
      </trkpt>
      <trkpt lat="48.894111" lon="2.266789">
        <ele>31.238417</ele>
        <time>2024-05-25T15:32:38.894Z</time>
      </trkpt>
      <trkpt lat="48.894150" lon="2.266889">
        <ele>31.324669</ele>
        <time>2024-05-25T15:32:41.424Z</time>
      </trkpt>
      <trkpt lat="48.894235" lon="2.267031">
        <ele>31.467127</ele>
        <time>2024-05-25T15:32:44.919Z</time>
      </trkpt>
      <trkpt lat="48.894571" lon="2.266675">
        <ele>31.929158</ele>
        <time>2024-05-25T15:32:55.134Z</time>
      </trkpt>
      <trkpt lat="48.894760" lon="2.266482">
        <ele>32.062190</ele>
        <time>2024-05-25T15:33:00.345Z</time>
      </trkpt>
      <trkpt lat="48.894887" lon="2.266352">
        <ele>32.107128</ele>
        <time>2024-05-25T15:33:03.384Z</time>
      </trkpt>
      <trkpt lat="48.895101" lon="2.266149">
        <ele>32.181163</ele>
        <time>2024-05-25T15:33:08.442Z</time>
      </trkpt>
      <trkpt lat="48.895261" lon="2.265993">
        <ele>32.236953</ele>
        <time>2024-05-25T15:33:12.006Z</time>
      </trkpt>
      <trkpt lat="48.895344" lon="2.265932">
        <ele>32.264013</ele>
        <time>2024-05-25T15:33:13.746Z</time>
      </trkpt>
      <trkpt lat="48.895432" lon="2.265861">
        <ele>32.293255</ele>
        <time>2024-05-25T15:33:15.659Z</time>
      </trkpt>
      <trkpt lat="48.895985" lon="2.265297">
        <ele>32.488703</ele>
        <time>2024-05-25T15:33:33.580Z</time>
      </trkpt>
      <trkpt lat="48.896302" lon="2.264953">
        <ele>33.206146</ele>
        <time>2024-05-25T15:33:46.018Z</time>
      </trkpt>
      <trkpt lat="48.896593" lon="2.264717">
        <ele>34.338749</ele>
        <time>2024-05-25T15:33:56.623Z</time>
      </trkpt>
      <trkpt lat="48.896735" lon="2.264568">
        <ele>34.931222</ele>
        <time>2024-05-25T15:34:02.679Z</time>
      </trkpt>
      <trkpt lat="48.896771" lon="2.264533">
        <ele>35.077960</ele>
        <time>2024-05-25T15:34:04.287Z</time>
      </trkpt>
      <trkpt lat="48.896828" lon="2.264475">
        <ele>35.313486</ele>
        <time>2024-05-25T15:34:06.942Z</time>
      </trkpt>
      <trkpt lat="48.896932" lon="2.264370">
        <ele>35.742187</ele>
        <time>2024-05-25T15:34:11.710Z</time>
      </trkpt>
      <trkpt lat="48.897419" lon="2.263822">
        <ele>37.822675</ele>
        <time>2024-05-25T15:34:37.192Z</time>
      </trkpt>
      <trkpt lat="48.897545" lon="2.263637">
        <ele>38.424121</ele>
        <time>2024-05-25T15:34:46.450Z</time>
      </trkpt>
      <trkpt lat="48.897742" lon="2.263434">
        <ele>39.192218</ele>
        <time>2024-05-25T15:34:58.156Z</time>
      </trkpt>
      <trkpt lat="48.897830" lon="2.263351">
        <ele>39.514070</ele>
        <time>2024-05-25T15:35:04.218Z</time>
      </trkpt>
      <trkpt lat="48.897937" lon="2.263244">
        <ele>39.912098</ele>
        <time>2024-05-25T15:35:10.914Z</time>
      </trkpt>
      <trkpt lat="48.897993" lon="2.263189">
        <ele>40.119296</ele>
        <time>2024-05-25T15:35:14.340Z</time>
      </trkpt>
      <trkpt lat="48.898200" lon="2.262985">
        <ele>40.885962</ele>
        <time>2024-05-25T15:35:26.774Z</time>
      </trkpt>
      <trkpt lat="48.898295" lon="2.262889">
        <ele>41.240478</ele>
        <time>2024-05-25T15:35:30.848Z</time>
      </trkpt>
      <trkpt lat="48.898752" lon="2.262416">
        <ele>42.958639</ele>
        <time>2024-05-25T15:35:51.003Z</time>
      </trkpt>
      <trkpt lat="48.899496" lon="2.261689">
        <ele>44.016375</ele>
        <time>2024-05-25T15:36:10.738Z</time>
      </trkpt>
      <trkpt lat="48.899868" lon="2.261311">
        <ele>43.718329</ele>
        <time>2024-05-25T15:36:20.319Z</time>
      </trkpt>
      <trkpt lat="48.900167" lon="2.261007">
        <ele>43.478728</ele>
        <time>2024-05-25T15:36:27.263Z</time>
      </trkpt>
      <trkpt lat="48.900284" lon="2.260896">
        <ele>43.386862</ele>
        <time>2024-05-25T15:36:29.840Z</time>
      </trkpt>
      <trkpt lat="48.900415" lon="2.260773">
        <ele>43.284300</ele>
        <time>2024-05-25T15:36:32.800Z</time>
      </trkpt>
      <trkpt lat="48.900568" lon="2.260744">
        <ele>43.181578</ele>
        <time>2024-05-25T15:36:35.613Z</time>
      </trkpt>
      <trkpt lat="48.900971" lon="2.260333">
        <ele>42.933656</ele>
        <time>2024-05-25T15:36:44.937Z</time>
      </trkpt>
      <trkpt lat="48.901311" lon="2.259981">
        <ele>42.739594</ele>
        <time>2024-05-25T15:36:53.297Z</time>
      </trkpt>
      <trkpt lat="48.901471" lon="2.259811">
        <ele>42.647505</ele>
        <time>2024-05-25T15:36:57.429Z</time>
      </trkpt>
      <trkpt lat="48.901865" lon="2.259421">
        <ele>42.425699</ele>
        <time>2024-05-25T15:37:09.245Z</time>
      </trkpt>
      <trkpt lat="48.901942" lon="2.259346">
        <ele>42.382557</ele>
        <time>2024-05-25T15:37:11.246Z</time>
      </trkpt>
      <trkpt lat="48.902035" lon="2.259264">
        <ele>42.331836</ele>
        <time>2024-05-25T15:37:13.483Z</time>
      </trkpt>
      <trkpt lat="48.902305" lon="2.259032">
        <ele>42.388539</ele>
        <time>2024-05-25T15:37:20.251Z</time>
      </trkpt>
      <trkpt lat="48.902338" lon="2.258861">
        <ele>42.469643</ele>
        <time>2024-05-25T15:37:22.804Z</time>
      </trkpt>
      <trkpt lat="48.902691" lon="2.258530">
        <ele>42.756723</ele>
        <time>2024-05-25T15:37:32.547Z</time>
      </trkpt>
      <trkpt lat="48.902994" lon="2.258223">
        <ele>43.008761</ele>
        <time>2024-05-25T15:37:42.794Z</time>
      </trkpt>
      <trkpt lat="48.903030" lon="2.258187">
        <ele>43.038586</ele>
        <time>2024-05-25T15:37:43.963Z</time>
      </trkpt>
      <trkpt lat="48.903282" lon="2.257941">
        <ele>43.245878</ele>
        <time>2024-05-25T15:37:52.603Z</time>
      </trkpt>
      <trkpt lat="48.903300" lon="2.257923">
        <ele>43.260791</ele>
        <time>2024-05-25T15:37:53.208Z</time>
      </trkpt>
      <trkpt lat="48.903633" lon="2.257614">
        <ele>43.530048</ele>
        <time>2024-05-25T15:38:04.174Z</time>
      </trkpt>
      <trkpt lat="48.904088" lon="2.257171">
        <ele>43.887563</ele>
        <time>2024-05-25T15:38:18.006Z</time>
      </trkpt>
      <trkpt lat="48.904213" lon="2.257045">
        <ele>43.986802</ele>
        <time>2024-05-25T15:38:21.373Z</time>
      </trkpt>
      <trkpt lat="48.904299" lon="2.256960">
        <ele>44.054675</ele>
        <time>2024-05-25T15:38:24.014Z</time>
      </trkpt>
      <trkpt lat="48.904552" lon="2.256712">
        <ele>44.253861</ele>
        <time>2024-05-25T15:38:30.601Z</time>
      </trkpt>
      <trkpt lat="48.904602" lon="2.256660">
        <ele>44.293945</ele>
        <time>2024-05-25T15:38:32.723Z</time>
      </trkpt>
      <trkpt lat="48.904771" lon="2.256596">
        <ele>44.409205</ele>
        <time>2024-05-25T15:38:36.925Z</time>
      </trkpt>
      <trkpt lat="48.905169" lon="2.256236">
        <ele>44.710425</ele>
        <time>2024-05-25T15:38:49.759Z</time>
      </trkpt>
      <trkpt lat="48.905281" lon="2.256174">
        <ele>44.755676</ele>
        <time>2024-05-25T15:38:53.202Z</time>
      </trkpt>
      <trkpt lat="48.905370" lon="2.256234">
        <ele>44.792635</ele>
        <time>2024-05-25T15:38:55.379Z</time>
      </trkpt>
      <trkpt lat="48.905425" lon="2.256235">
        <ele>44.813518</ele>
        <time>2024-05-25T15:38:56.639Z</time>
      </trkpt>
      <trkpt lat="48.905515" lon="2.256178">
        <ele>44.850531</ele>
        <time>2024-05-25T15:38:59.154Z</time>
      </trkpt>
      <trkpt lat="48.905575" lon="2.256057">
        <ele>44.888357</ele>
        <time>2024-05-25T15:39:01.873Z</time>
      </trkpt>
      <trkpt lat="48.905585" lon="2.255905">
        <ele>44.926479</ele>
        <time>2024-05-25T15:39:03.991Z</time>
      </trkpt>
      <trkpt lat="48.905680" lon="2.255825">
        <ele>44.967704</ele>
        <time>2024-05-25T15:39:06.333Z</time>
      </trkpt>
      <trkpt lat="48.905862" lon="2.255753">
        <ele>45.039102</ele>
        <time>2024-05-25T15:39:11.121Z</time>
      </trkpt>
      <trkpt lat="48.906051" lon="2.255751">
        <ele>45.110861</ele>
        <time>2024-05-25T15:39:15.391Z</time>
      </trkpt>
      <trkpt lat="48.906298" lon="2.255724">
        <ele>45.204881</ele>
        <time>2024-05-25T15:39:21.280Z</time>
      </trkpt>
      <trkpt lat="48.906375" lon="2.255715">
        <ele>45.234201</ele>
        <time>2024-05-25T15:39:23.057Z</time>
      </trkpt>
      <trkpt lat="48.906401" lon="2.255711">
        <ele>45.244123</ele>
        <time>2024-05-25T15:39:23.700Z</time>
      </trkpt>
      <trkpt lat="48.906623" lon="2.255676">
        <ele>45.328861</ele>
        <time>2024-05-25T15:39:28.498Z</time>
      </trkpt>
      <trkpt lat="48.907451" lon="2.255593">
        <ele>45.368435</ele>
        <time>2024-05-25T15:39:48.425Z</time>
      </trkpt>
      <trkpt lat="48.907875" lon="2.255547">
        <ele>45.357251</ele>
        <time>2024-05-25T15:39:57.751Z</time>
      </trkpt>
      <trkpt lat="48.908125" lon="2.255498">
        <ele>45.350619</ele>
        <time>2024-05-25T15:40:03.240Z</time>
      </trkpt>
      <trkpt lat="48.908307" lon="2.255446">
        <ele>45.345747</ele>
        <time>2024-05-25T15:40:07.031Z</time>
      </trkpt>
      <trkpt lat="48.908865" lon="2.255286">
        <ele>45.201427</ele>
        <time>2024-05-25T15:40:19.545Z</time>
      </trkpt>
      <trkpt lat="48.908934" lon="2.255268">
        <ele>45.170372</ele>
        <time>2024-05-25T15:40:20.985Z</time>
      </trkpt>
      <trkpt lat="48.909272" lon="2.255169">
        <ele>45.017681</ele>
        <time>2024-05-25T15:40:28.483Z</time>
      </trkpt>
      <trkpt lat="48.909576" lon="2.255080">
        <ele>44.880351</ele>
        <time>2024-05-25T15:40:34.929Z</time>
      </trkpt>
      <trkpt lat="48.909642" lon="2.255065">
        <ele>44.850749</ele>
        <time>2024-05-25T15:40:36.187Z</time>
      </trkpt>
      <trkpt lat="48.909716" lon="2.255049">
        <ele>44.817592</ele>
        <time>2024-05-25T15:40:37.646Z</time>
      </trkpt>
      <trkpt lat="48.910641" lon="2.254781">
        <ele>44.342563</ele>
        <time>2024-05-25T15:40:57.513Z</time>
      </trkpt>
      <trkpt lat="48.910808" lon="2.254729">
        <ele>44.236246</ele>
        <time>2024-05-25T15:41:00.884Z</time>
      </trkpt>
      <trkpt lat="48.911022" lon="2.254670">
        <ele>44.100601</ele>
        <time>2024-05-25T15:41:05.623Z</time>
      </trkpt>
      <trkpt lat="48.911172" lon="2.254631">
        <ele>44.005690</ele>
        <time>2024-05-25T15:41:08.667Z</time>
      </trkpt>
      <trkpt lat="48.911346" lon="2.254554">
        <ele>43.892669</ele>
        <time>2024-05-25T15:41:12.674Z</time>
      </trkpt>
      <trkpt lat="48.911432" lon="2.254509">
        <ele>43.835948</ele>
        <time>2024-05-25T15:41:14.570Z</time>
      </trkpt>
      <trkpt lat="48.911735" lon="2.254336">
        <ele>43.634100</ele>
        <time>2024-05-25T15:41:21.274Z</time>
      </trkpt>
      <trkpt lat="48.912267" lon="2.253990">
        <ele>43.208862</ele>
        <time>2024-05-25T15:41:32.537Z</time>
      </trkpt>
      <trkpt lat="48.912570" lon="2.253793">
        <ele>42.912727</ele>
        <time>2024-05-25T15:41:39.338Z</time>
      </trkpt>
      <trkpt lat="48.912704" lon="2.253710">
        <ele>42.782701</ele>
        <time>2024-05-25T15:41:42.481Z</time>
      </trkpt>
      <trkpt lat="48.913317" lon="2.253325">
        <ele>42.186690</ele>
        <time>2024-05-25T15:41:56.026Z</time>
      </trkpt>
      <trkpt lat="48.913391" lon="2.253322">
        <ele>42.120161</ele>
        <time>2024-05-25T15:41:57.445Z</time>
      </trkpt>
      <trkpt lat="48.913646" lon="2.253173">
        <ele>41.874667</ele>
        <time>2024-05-25T15:42:02.641Z</time>
      </trkpt>
      <trkpt lat="48.913703" lon="2.253150">
        <ele>41.821668</ele>
        <time>2024-05-25T15:42:03.751Z</time>
      </trkpt>
      <trkpt lat="48.913887" lon="2.253035">
        <ele>41.673262</ele>
        <time>2024-05-25T15:42:07.641Z</time>
      </trkpt>
      <trkpt lat="48.914026" lon="2.252996">
        <ele>41.570361</ele>
        <time>2024-05-25T15:42:10.305Z</time>
      </trkpt>
      <trkpt lat="48.914183" lon="2.252951">
        <ele>41.454052</ele>
        <time>2024-05-25T15:42:13.519Z</time>
      </trkpt>
      <trkpt lat="48.914512" lon="2.252899">
        <ele>41.213245</ele>
        <time>2024-05-25T15:42:20.194Z</time>
      </trkpt>
      <trkpt lat="48.914905" lon="2.252861">
        <ele>40.926556</ele>
        <time>2024-05-25T15:42:28.483Z</time>
      </trkpt>
      <trkpt lat="48.914964" lon="2.252857">
        <ele>40.883560</ele>
        <time>2024-05-25T15:42:29.741Z</time>
      </trkpt>
      <trkpt lat="48.915095" lon="2.252853">
        <ele>40.788170</ele>
        <time>2024-05-25T15:42:32.465Z</time>
      </trkpt>
      <trkpt lat="48.915490" lon="2.252782">
        <ele>40.498603</ele>
        <time>2024-05-25T15:42:41.259Z</time>
      </trkpt>
      <trkpt lat="48.915963" lon="2.252776">
        <ele>40.410109</ele>
        <time>2024-05-25T15:42:50.950Z</time>
      </trkpt>
      <trkpt lat="48.916279" lon="2.252754">
        <ele>40.353597</ele>
        <time>2024-05-25T15:42:57.519Z</time>
      </trkpt>
      <trkpt lat="48.916596" lon="2.252743">
        <ele>40.296951</ele>
        <time>2024-05-25T15:43:04.315Z</time>
      </trkpt>
      <trkpt lat="48.916739" lon="2.252737">
        <ele>40.271395</ele>
        <time>2024-05-25T15:43:07.481Z</time>
      </trkpt>
      <trkpt lat="48.916821" lon="2.252732">
        <ele>40.256734</ele>
        <time>2024-05-25T15:43:09.322Z</time>
      </trkpt>
      <trkpt lat="48.917355" lon="2.252710">
        <ele>40.199201</ele>
        <time>2024-05-25T15:43:22.083Z</time>
      </trkpt>
      <trkpt lat="48.917473" lon="2.252705">
        <ele>40.252879</ele>
        <time>2024-05-25T15:43:24.858Z</time>
      </trkpt>
      <trkpt lat="48.918114" lon="2.252688">
        <ele>40.544397</ele>
        <time>2024-05-25T15:43:40.175Z</time>
      </trkpt>
      <trkpt lat="48.918321" lon="2.252688">
        <ele>40.638524</ele>
        <time>2024-05-25T15:43:45.248Z</time>
      </trkpt>
      <trkpt lat="48.918699" lon="2.252670">
        <ele>40.810491</ele>
        <time>2024-05-25T15:43:54.777Z</time>
      </trkpt>
      <trkpt lat="48.918987" lon="2.252659">
        <ele>40.941491</ele>
        <time>2024-05-25T15:44:01.945Z</time>
      </trkpt>
      <trkpt lat="48.919044" lon="2.252660">
        <ele>40.967412</ele>
        <time>2024-05-25T15:44:03.330Z</time>
      </trkpt>
      <trkpt lat="48.919421" lon="2.252660">
        <ele>41.235002</ele>
        <time>2024-05-25T15:44:12.572Z</time>
      </trkpt>
      <trkpt lat="48.919479" lon="2.252658">
        <ele>41.278410</ele>
        <time>2024-05-25T15:44:13.990Z</time>
      </trkpt>
      <trkpt lat="48.919936" lon="2.252658">
        <ele>41.620353</ele>
        <time>2024-05-25T15:44:26.782Z</time>
      </trkpt>
      <trkpt lat="48.920180" lon="2.252667">
        <ele>41.802975</ele>
        <time>2024-05-25T15:44:33.743Z</time>
      </trkpt>
      <trkpt lat="48.920513" lon="2.252785">
        <ele>42.058802</ele>
        <time>2024-05-25T15:44:42.990Z</time>
      </trkpt>
      <trkpt lat="48.920718" lon="2.252789">
        <ele>42.212203</ele>
        <time>2024-05-25T15:44:47.685Z</time>
      </trkpt>
      <trkpt lat="48.920943" lon="2.252772">
        <ele>42.304470</ele>
        <time>2024-05-25T15:44:53.105Z</time>
      </trkpt>
      <trkpt lat="48.921233" lon="2.252648">
        <ele>42.148518</ele>
        <time>2024-05-25T15:45:00.522Z</time>
      </trkpt>
      <trkpt lat="48.921963" lon="2.252630">
        <ele>41.770535</ele>
        <time>2024-05-25T15:45:16.233Z</time>
      </trkpt>
      <trkpt lat="48.922054" lon="2.252628">
        <ele>41.723418</ele>
        <time>2024-05-25T15:45:17.988Z</time>
      </trkpt>
      <trkpt lat="48.922097" lon="2.252626">
        <ele>41.701146</ele>
        <time>2024-05-25T15:45:18.848Z</time>
      </trkpt>
      <trkpt lat="48.922336" lon="2.252614">
        <ele>41.577344</ele>
        <time>2024-05-25T15:45:23.838Z</time>
      </trkpt>
      <trkpt lat="48.922792" lon="2.252644">
        <ele>41.056390</ele>
        <time>2024-05-25T15:45:32.687Z</time>
      </trkpt>
      <trkpt lat="48.922801" lon="2.252642">
        <ele>41.030552</ele>
        <time>2024-05-25T15:45:32.850Z</time>
      </trkpt>
      <trkpt lat="48.922875" lon="2.252546">
        <ele>40.754320</ele>
        <time>2024-05-25T15:45:34.682Z</time>
      </trkpt>
      <trkpt lat="48.923061" lon="2.252468">
        <ele>40.206237</ele>
        <time>2024-05-25T15:45:38.103Z</time>
      </trkpt>
      <trkpt lat="48.923181" lon="2.252404">
        <ele>39.845013</ele>
        <time>2024-05-25T15:45:40.309Z</time>
      </trkpt>
      <trkpt lat="48.923335" lon="2.252461">
        <ele>39.394775</ele>
        <time>2024-05-25T15:45:43.067Z</time>
      </trkpt>
      <trkpt lat="48.923344" lon="2.252464">
        <ele>39.368602</ele>
        <time>2024-05-25T15:45:43.212Z</time>
      </trkpt>
      <trkpt lat="48.923916" lon="2.252612">
        <ele>37.720340</ele>
        <time>2024-05-25T15:45:53.146Z</time>
      </trkpt>
      <trkpt lat="48.924022" lon="2.252600">
        <ele>37.418382</ele>
        <time>2024-05-25T15:45:54.912Z</time>
      </trkpt>
      <trkpt lat="48.924074" lon="2.252661">
        <ele>37.231871</ele>
        <time>2024-05-25T15:45:56.024Z</time>
      </trkpt>
      <trkpt lat="48.924174" lon="2.252683">
        <ele>36.944837</ele>
        <time>2024-05-25T15:45:57.718Z</time>
      </trkpt>
      <trkpt lat="48.924276" lon="2.252662">
        <ele>36.652435</ele>
        <time>2024-05-25T15:45:59.468Z</time>
      </trkpt>
      <trkpt lat="48.924761" lon="2.252724">
        <ele>35.245636</ele>
        <time>2024-05-25T15:46:07.554Z</time>
      </trkpt>
      <trkpt lat="48.926086" lon="2.252986">
        <ele>31.360489</ele>
        <time>2024-05-25T15:46:30.647Z</time>
      </trkpt>
      <trkpt lat="48.926127" lon="2.253002">
        <ele>31.237415</ele>
        <time>2024-05-25T15:46:31.414Z</time>
      </trkpt>
      <trkpt lat="48.927070" lon="2.253453">
        <ele>29.977997</ele>
        <time>2024-05-25T15:46:50.596Z</time>
      </trkpt>
      <trkpt lat="48.927339" lon="2.253574">
        <ele>29.649871</ele>
        <time>2024-05-25T15:46:56.223Z</time>
      </trkpt>
      <trkpt lat="48.927635" lon="2.253725">
        <ele>29.284683</ele>
        <time>2024-05-25T15:47:02.514Z</time>
      </trkpt>
      <trkpt lat="48.928247" lon="2.254052">
        <ele>28.812747</ele>
        <time>2024-05-25T15:47:15.901Z</time>
      </trkpt>
      <trkpt lat="48.929204" lon="2.254604">
        <ele>28.405076</ele>
        <time>2024-05-25T15:47:37.720Z</time>
      </trkpt>
      <trkpt lat="48.929776" lon="2.254915">
        <ele>28.273846</ele>
        <time>2024-05-25T15:47:50.782Z</time>
      </trkpt>
      <trkpt lat="48.929842" lon="2.254943">
        <ele>28.283751</ele>
        <time>2024-05-25T15:47:52.261Z</time>
      </trkpt>
      <trkpt lat="48.929905" lon="2.254963">
        <ele>28.293055</ele>
        <time>2024-05-25T15:47:53.618Z</time>
      </trkpt>
      <trkpt lat="48.930277" lon="2.255080">
        <ele>28.347971</ele>
        <time>2024-05-25T15:48:02.166Z</time>
      </trkpt>
      <trkpt lat="48.930719" lon="2.255155">
        <ele>28.412266</ele>
        <time>2024-05-25T15:48:13.218Z</time>
      </trkpt>
      <trkpt lat="48.931674" lon="2.255251">
        <ele>28.513092</ele>
        <time>2024-05-25T15:48:36.031Z</time>
      </trkpt>
      <trkpt lat="48.931943" lon="2.255280">
        <ele>28.520428</ele>
        <time>2024-05-25T15:48:41.577Z</time>
      </trkpt>
      <trkpt lat="48.932211" lon="2.255308">
        <ele>28.527736</ele>
        <time>2024-05-25T15:48:47.194Z</time>
      </trkpt>
      <trkpt lat="48.932289" lon="2.255317">
        <ele>28.529864</ele>
        <time>2024-05-25T15:48:49.042Z</time>
      </trkpt>
      <trkpt lat="48.932397" lon="2.255342">
        <ele>28.532836</ele>
        <time>2024-05-25T15:48:51.684Z</time>
      </trkpt>
      <trkpt lat="48.932528" lon="2.255375">
        <ele>28.536449</ele>
        <time>2024-05-25T15:48:55.014Z</time>
      </trkpt>
      <trkpt lat="48.932725" lon="2.255443">
        <ele>28.541944</ele>
        <time>2024-05-25T15:48:59.703Z</time>
      </trkpt>
      <trkpt lat="48.933278" lon="2.255550">
        <ele>28.545015</ele>
        <time>2024-05-25T15:49:12.585Z</time>
      </trkpt>
      <trkpt lat="48.933791" lon="2.255733">
        <ele>28.513571</ele>
        <time>2024-05-25T15:49:24.249Z</time>
      </trkpt>
      <trkpt lat="48.933920" lon="2.255797">
        <ele>28.505474</ele>
        <time>2024-05-25T15:49:27.572Z</time>
      </trkpt>
      <trkpt lat="48.934328" lon="2.256047">
        <ele>28.479227</ele>
        <time>2024-05-25T15:49:36.674Z</time>
      </trkpt>
      <trkpt lat="48.934409" lon="2.256100">
        <ele>28.473966</ele>
        <time>2024-05-25T15:49:38.407Z</time>
      </trkpt>
      <trkpt lat="48.934539" lon="2.256160">
        <ele>28.465859</ele>
        <time>2024-05-25T15:49:41.325Z</time>
      </trkpt>
      <trkpt lat="48.934941" lon="2.256316">
        <ele>28.442966</ele>
        <time>2024-05-25T15:49:51.319Z</time>
      </trkpt>
      <trkpt lat="48.935110" lon="2.256406">
        <ele>28.436361</ele>
        <time>2024-05-25T15:49:55.317Z</time>
      </trkpt>
      <trkpt lat="48.935415" lon="2.256599">
        <ele>28.424176</ele>
        <time>2024-05-25T15:50:03.656Z</time>
      </trkpt>
      <trkpt lat="48.936063" lon="2.257080">
        <ele>28.397579</ele>
        <time>2024-05-25T15:50:19.144Z</time>
      </trkpt>
      <trkpt lat="48.936194" lon="2.257178">
        <ele>28.392195</ele>
        <time>2024-05-25T15:50:22.297Z</time>
      </trkpt>
      <trkpt lat="48.936631" lon="2.257499">
        <ele>28.403783</ele>
        <time>2024-05-25T15:50:32.858Z</time>
      </trkpt>
      <trkpt lat="48.937285" lon="2.257974">
        <ele>28.524792</ele>
        <time>2024-05-25T15:50:49.330Z</time>
      </trkpt>
      <trkpt lat="48.937428" lon="2.258199">
        <ele>28.559135</ele>
        <time>2024-05-25T15:50:54.268Z</time>
      </trkpt>
      <trkpt lat="48.937599" lon="2.258186">
        <ele>28.587727</ele>
        <time>2024-05-25T15:50:58.800Z</time>
      </trkpt>
      <trkpt lat="48.937759" lon="2.257989">
        <ele>28.622092</ele>
        <time>2024-05-25T15:51:03.878Z</time>
      </trkpt>
      <trkpt lat="48.937817" lon="2.257995">
        <ele>28.631800</ele>
        <time>2024-05-25T15:51:05.351Z</time>
      </trkpt>
      <trkpt lat="48.938543" lon="2.257090">
        <ele>28.604695</ele>
        <time>2024-05-25T15:51:26.143Z</time>
      </trkpt>
      <trkpt lat="48.939234" lon="2.256303">
        <ele>28.504679</ele>
        <time>2024-05-25T15:51:44.776Z</time>
      </trkpt>
      <trkpt lat="48.939249" lon="2.256284">
        <ele>28.502417</ele>
        <time>2024-05-25T15:51:45.180Z</time>
      </trkpt>
      <trkpt lat="48.939341" lon="2.256181">
        <ele>28.489182</ele>
        <time>2024-05-25T15:51:47.616Z</time>
      </trkpt>
      <trkpt lat="48.941256" lon="2.254152">
        <ele>28.638608</ele>
        <time>2024-05-25T15:52:38.333Z</time>
      </trkpt>
      <trkpt lat="48.941716" lon="2.253668">
        <ele>29.234238</ele>
        <time>2024-05-25T15:52:52.935Z</time>
      </trkpt>
      <trkpt lat="48.941838" lon="2.253588">
        <ele>29.375736</ele>
        <time>2024-05-25T15:52:56.889Z</time>
      </trkpt>
      <trkpt lat="48.941909" lon="2.253568">
        <ele>29.452650</ele>
        <time>2024-05-25T15:52:59.156Z</time>
      </trkpt>
      <trkpt lat="48.941979" lon="2.253549">
        <ele>29.528391</ele>
        <time>2024-05-25T15:53:01.312Z</time>
      </trkpt>
      <trkpt lat="48.942082" lon="2.253560">
        <ele>29.638378</ele>
        <time>2024-05-25T15:53:04.358Z</time>
      </trkpt>
      <trkpt lat="48.942092" lon="2.253486">
        <ele>29.691237</ele>
        <time>2024-05-25T15:53:05.922Z</time>
      </trkpt>
      <trkpt lat="48.942100" lon="2.253430">
        <ele>29.731334</ele>
        <time>2024-05-25T15:53:07.098Z</time>
      </trkpt>
      <trkpt lat="48.942110" lon="2.253357">
        <ele>29.783508</ele>
        <time>2024-05-25T15:53:10.498Z</time>
      </trkpt>
      <trkpt lat="48.942145" lon="2.253315">
        <ele>29.830979</ele>
        <time>2024-05-25T15:53:13.616Z</time>
      </trkpt>
      <trkpt lat="48.942165" lon="2.253291">
        <ele>29.858106</ele>
        <time>2024-05-25T15:53:15.342Z</time>
      </trkpt>
      <trkpt lat="48.942186" lon="2.253261">
        <ele>29.888781</ele>
        <time>2024-05-25T15:53:17.353Z</time>
      </trkpt>
      <trkpt lat="48.942201" lon="2.253240">
        <ele>29.910488</ele>
        <time>2024-05-25T15:53:18.786Z</time>
      </trkpt>
      <trkpt lat="48.942234" lon="2.253196">
        <ele>29.957214</ele>
        <time>2024-05-25T15:53:21.804Z</time>
      </trkpt>
      <trkpt lat="48.942190" lon="2.253102">
        <ele>30.037974</ele>
        <time>2024-05-25T15:53:24.172Z</time>
      </trkpt>
      <trkpt lat="48.942252" lon="2.253037">
        <ele>30.118161</ele>
        <time>2024-05-25T15:53:26.679Z</time>
      </trkpt>
      <trkpt lat="48.942481" lon="2.252778">
        <ele>30.699543</ele>
        <time>2024-05-25T15:53:36.202Z</time>
      </trkpt>
      <trkpt lat="48.942509" lon="2.252740">
        <ele>30.779870</ele>
        <time>2024-05-25T15:53:37.522Z</time>
      </trkpt>
      <trkpt lat="48.942571" lon="2.252655">
        <ele>30.958542</ele>
        <time>2024-05-25T15:53:40.399Z</time>
      </trkpt>
      <trkpt lat="48.942696" lon="2.252522">
        <ele>31.285123</ele>
        <time>2024-05-25T15:53:45.541Z</time>
      </trkpt>
      <trkpt lat="48.942819" lon="2.252436">
        <ele>31.574978</ele>
        <time>2024-05-25T15:53:50.098Z</time>
      </trkpt>
      <trkpt lat="48.942951" lon="2.252326">
        <ele>31.897232</ele>
        <time>2024-05-25T15:53:55.351Z</time>
      </trkpt>
      <trkpt lat="48.943154" lon="2.252754">
        <ele>32.639800</ele>
        <time>2024-05-25T15:54:07.253Z</time>
      </trkpt>
      <trkpt lat="48.944699" lon="2.251962">
        <ele>35.289866</ele>
        <time>2024-05-25T15:54:59.085Z</time>
      </trkpt>
      <trkpt lat="48.944786" lon="2.251879">
        <ele>35.422982</ele>
        <time>2024-05-25T15:55:01.914Z</time>
      </trkpt>
      <trkpt lat="48.945910" lon="2.250590">
        <ele>36.301306</ele>
        <time>2024-05-25T15:55:36.389Z</time>
      </trkpt>
      <trkpt lat="48.946276" lon="2.250155">
        <ele>36.281601</ele>
        <time>2024-05-25T15:55:46.351Z</time>
      </trkpt>
      <trkpt lat="48.946567" lon="2.249828">
        <ele>36.266251</ele>
        <time>2024-05-25T15:55:54.016Z</time>
      </trkpt>
      <trkpt lat="48.946626" lon="2.249763">
        <ele>36.263161</ele>
        <time>2024-05-25T15:55:55.521Z</time>
      </trkpt>
      <trkpt lat="48.946726" lon="2.249649">
        <ele>36.257859</ele>
        <time>2024-05-25T15:55:58.113Z</time>
      </trkpt>
      <trkpt lat="48.946877" lon="2.249475">
        <ele>36.230047</ele>
        <time>2024-05-25T15:56:02.202Z</time>
      </trkpt>
      <trkpt lat="48.947032" lon="2.249664">
        <ele>36.189179</ele>
        <time>2024-05-25T15:56:06.287Z</time>
      </trkpt>
      <trkpt lat="48.947171" lon="2.249935">
        <ele>36.142702</ele>
        <time>2024-05-25T15:56:11.093Z</time>
      </trkpt>
      <trkpt lat="48.948228" lon="2.252022">
        <ele>36.164950</ele>
        <time>2024-05-25T15:56:48.965Z</time>
      </trkpt>
      <trkpt lat="48.948605" lon="2.252773">
        <ele>36.529054</ele>
        <time>2024-05-25T15:57:04.371Z</time>
      </trkpt>
      <trkpt lat="48.948890" lon="2.253343">
        <ele>36.804998</ele>
        <time>2024-05-25T15:57:16.940Z</time>
      </trkpt>
      <trkpt lat="48.948981" lon="2.253503">
        <ele>36.886526</ele>
        <time>2024-05-25T15:57:20.845Z</time>
      </trkpt>
      <trkpt lat="48.949089" lon="2.253535">
        <ele>36.965565</ele>
        <time>2024-05-25T15:57:24.085Z</time>
      </trkpt>
      <trkpt lat="48.949279" lon="2.253535">
        <ele>37.219563</ele>
        <time>2024-05-25T15:57:29.569Z</time>
      </trkpt>
      <trkpt lat="48.949561" lon="2.253561">
        <ele>37.597240</ele>
        <time>2024-05-25T15:57:38.059Z</time>
      </trkpt>
      <trkpt lat="48.950874" lon="2.253710">
        <ele>39.359085</ele>
        <time>2024-05-25T15:58:16.353Z</time>
      </trkpt>
      <trkpt lat="48.951724" lon="2.253798">
        <ele>40.646590</ele>
        <time>2024-05-25T15:58:40.618Z</time>
      </trkpt>
      <trkpt lat="48.952084" lon="2.253837">
        <ele>41.192006</ele>
        <time>2024-05-25T15:58:51.509Z</time>
      </trkpt>
      <trkpt lat="48.952429" lon="2.253906">
        <ele>41.717855</ele>
        <time>2024-05-25T15:59:02.243Z</time>
      </trkpt>
      <trkpt lat="48.952649" lon="2.253965">
        <ele>42.055441</ele>
        <time>2024-05-25T15:59:09.269Z</time>
      </trkpt>
      <trkpt lat="48.953188" lon="2.254178">
        <ele>43.173043</ele>
        <time>2024-05-25T15:59:26.998Z</time>
      </trkpt>
      <trkpt lat="48.953569" lon="2.254322">
        <ele>43.962521</ele>
        <time>2024-05-25T15:59:39.577Z</time>
      </trkpt>
      <trkpt lat="48.953768" lon="2.254371">
        <ele>44.367928</ele>
        <time>2024-05-25T15:59:46.003Z</time>
      </trkpt>
      <trkpt lat="48.954082" lon="2.254568">
        <ele>45.050907</ele>
        <time>2024-05-25T15:59:57.156Z</time>
      </trkpt>
      <trkpt lat="48.954600" lon="2.254875">
        <ele>46.192454</ele>
        <time>2024-05-25T16:00:15.896Z</time>
      </trkpt>
      <trkpt lat="48.954858" lon="2.254849">
        <ele>46.737632</ele>
        <time>2024-05-25T16:00:24.633Z</time>
      </trkpt>
      <trkpt lat="48.955624" lon="2.254876">
        <ele>48.353160</ele>
        <time>2024-05-25T16:00:49.448Z</time>
      </trkpt>
      <trkpt lat="48.956016" lon="2.254899">
        <ele>49.180297</ele>
        <time>2024-05-25T16:01:01.973Z</time>
      </trkpt>
      <trkpt lat="48.956734" lon="2.254722">
        <ele>51.027420</ele>
        <time>2024-05-25T16:01:25.804Z</time>
      </trkpt>
      <trkpt lat="48.957288" lon="2.254559">
        <ele>52.517472</ele>
        <time>2024-05-25T16:01:45.777Z</time>
      </trkpt>
      <trkpt lat="48.957809" lon="2.254388">
        <ele>53.924913</ele>
        <time>2024-05-25T16:02:05.675Z</time>
      </trkpt>
      <trkpt lat="48.958423" lon="2.254304">
        <ele>55.886073</ele>
        <time>2024-05-25T16:02:29.560Z</time>
      </trkpt>
      <trkpt lat="48.958799" lon="2.254314">
        <ele>57.127753</ele>
        <time>2024-05-25T16:02:44.182Z</time>
      </trkpt>
      <trkpt lat="48.959012" lon="2.254382">
        <ele>57.846329</ele>
        <time>2024-05-25T16:02:52.603Z</time>
      </trkpt>
      <trkpt lat="48.959650" lon="2.254737">
        <ele>60.089089</ele>
        <time>2024-05-25T16:03:19.376Z</time>
      </trkpt>
      <trkpt lat="48.959893" lon="2.254924">
        <ele>60.969672</ele>
        <time>2024-05-25T16:03:29.940Z</time>
      </trkpt>
      <trkpt lat="48.960009" lon="2.255104">
        <ele>61.504321</ele>
        <time>2024-05-25T16:03:36.254Z</time>
      </trkpt>
      <trkpt lat="48.960078" lon="2.255009">
        <ele>61.804622</ele>
        <time>2024-05-25T16:03:40.128Z</time>
      </trkpt>
      <trkpt lat="48.960096" lon="2.255138">
        <ele>62.084183</ele>
        <time>2024-05-25T16:03:43.361Z</time>
      </trkpt>
      <trkpt lat="48.960161" lon="2.255219">
        <ele>62.355331</ele>
        <time>2024-05-25T16:03:46.583Z</time>
      </trkpt>
      <trkpt lat="48.960340" lon="2.255304">
        <ele>62.960675</ele>
        <time>2024-05-25T16:03:54.202Z</time>
      </trkpt>
      <trkpt lat="48.960510" lon="2.255385">
        <ele>63.535757</ele>
        <time>2024-05-25T16:04:00.569Z</time>
      </trkpt>
      <trkpt lat="48.960933" lon="2.255562">
        <ele>64.952028</ele>
        <time>2024-05-25T16:04:16.414Z</time>
      </trkpt>
      <trkpt lat="48.961679" lon="2.255990">
        <ele>67.869003</ele>
        <time>2024-05-25T16:04:47.570Z</time>
      </trkpt>
      <trkpt lat="48.962307" lon="2.256409">
        <ele>70.570213</ele>
        <time>2024-05-25T16:05:17.361Z</time>
      </trkpt>
      <trkpt lat="48.962399" lon="2.256472">
        <ele>70.967628</ele>
        <time>2024-05-25T16:05:21.874Z</time>
      </trkpt>
      <trkpt lat="48.962524" lon="2.255928">
        <ele>72.458497</ele>
        <time>2024-05-25T16:05:44.335Z</time>
      </trkpt>
      <trkpt lat="48.962747" lon="2.254955">
        <ele>74.968611</ele>
        <time>2024-05-25T16:06:22.702Z</time>
      </trkpt>
      <trkpt lat="48.962774" lon="2.254774">
        <ele>75.412628</ele>
        <time>2024-05-25T16:06:29.585Z</time>
      </trkpt>
      <trkpt lat="48.962771" lon="2.254624">
        <ele>75.771619</ele>
        <time>2024-05-25T16:06:35.164Z</time>
      </trkpt>
      <trkpt lat="48.962713" lon="2.254390">
        <ele>76.369948</ele>
        <time>2024-05-25T16:06:44.302Z</time>
      </trkpt>
      <trkpt lat="48.962623" lon="2.254249">
        <ele>76.840373</ele>
        <time>2024-05-25T16:06:51.789Z</time>
      </trkpt>
      <trkpt lat="48.962422" lon="2.254071">
        <ele>77.687516</ele>
        <time>2024-05-25T16:07:04.962Z</time>
      </trkpt>
      <trkpt lat="48.962240" lon="2.253820">
        <ele>78.582089</ele>
        <time>2024-05-25T16:07:18.470Z</time>
      </trkpt>
      <trkpt lat="48.962159" lon="2.253610">
        <ele>79.164726</ele>
        <time>2024-05-25T16:07:26.929Z</time>
      </trkpt>
      <trkpt lat="48.962057" lon="2.253085">
        <ele>80.220922</ele>
        <time>2024-05-25T16:07:45.131Z</time>
      </trkpt>
      <trkpt lat="48.962004" lon="2.252521">
        <ele>81.185288</ele>
        <time>2024-05-25T16:08:02.694Z</time>
      </trkpt>
      <trkpt lat="48.962020" lon="2.251084">
        <ele>83.617933</ele>
        <time>2024-05-25T16:08:46.906Z</time>
      </trkpt>
      <trkpt lat="48.961997" lon="2.250869">
        <ele>83.986645</ele>
        <time>2024-05-25T16:08:54.111Z</time>
      </trkpt>
      <trkpt lat="48.961748" lon="2.249517">
        <ele>88.659636</ele>
        <time>2024-05-25T16:09:48.327Z</time>
      </trkpt>
      <trkpt lat="48.961719" lon="2.249101">
        <ele>90.135049</ele>
        <time>2024-05-25T16:10:06.223Z</time>
      </trkpt>
      <trkpt lat="48.961749" lon="2.248921">
        <ele>90.790015</ele>
        <time>2024-05-25T16:10:14.325Z</time>
      </trkpt>
      <trkpt lat="48.961808" lon="2.248728">
        <ele>91.540860</ele>
        <time>2024-05-25T16:10:23.659Z</time>
      </trkpt>
      <trkpt lat="48.961860" lon="2.248647">
        <ele>91.940401</ele>
        <time>2024-05-25T16:10:28.888Z</time>
      </trkpt>
      <trkpt lat="48.962195" lon="2.248371">
        <ele>94.020467</ele>
        <time>2024-05-25T16:10:56.830Z</time>
      </trkpt>
      <trkpt lat="48.962748" lon="2.248086">
        <ele>98.492429</ele>
        <time>2024-05-25T16:11:41.462Z</time>
      </trkpt>
      <trkpt lat="48.962929" lon="2.248057">
        <ele>99.886557</ele>
        <time>2024-05-25T16:11:55.545Z</time>
      </trkpt>
      <trkpt lat="48.963077" lon="2.248070">
        <ele>101.022135</ele>
        <time>2024-05-25T16:12:06.526Z</time>
      </trkpt>
      <trkpt lat="48.963255" lon="2.248180">
        <ele>102.493586</ele>
        <time>2024-05-25T16:12:21.751Z</time>
      </trkpt>
      <trkpt lat="48.963340" lon="2.248303">
        <ele>103.391691</ele>
        <time>2024-05-25T16:12:30.901Z</time>
      </trkpt>
      <trkpt lat="48.963437" lon="2.248569">
        <ele>104.921950</ele>
        <time>2024-05-25T16:12:46.297Z</time>
      </trkpt>
      <trkpt lat="48.963482" lon="2.248880">
        <ele>106.523554</ele>
        <time>2024-05-25T16:13:01.631Z</time>
      </trkpt>
      <trkpt lat="48.963487" lon="2.249177">
        <ele>107.907138</ele>
        <time>2024-05-25T16:13:16.111Z</time>
      </trkpt>
      <trkpt lat="48.963391" lon="2.250041">
        <ele>110.854301</ele>
        <time>2024-05-25T16:13:58.830Z</time>
      </trkpt>
      <trkpt lat="48.963393" lon="2.250417">
        <ele>112.118923</ele>
        <time>2024-05-25T16:14:16.999Z</time>
      </trkpt>
      <trkpt lat="48.963418" lon="2.250644">
        <ele>112.893047</ele>
        <time>2024-05-25T16:14:26.664Z</time>
      </trkpt>
      <trkpt lat="48.963476" lon="2.251032">
        <ele>114.231382</ele>
        <time>2024-05-25T16:14:42.305Z</time>
      </trkpt>
      <trkpt lat="48.963490" lon="2.251162">
        <ele>114.674446</ele>
        <time>2024-05-25T16:14:46.343Z</time>
      </trkpt>
      <trkpt lat="48.963571" lon="2.251227">
        <ele>115.143448</ele>
        <time>2024-05-25T16:14:51.009Z</time>
      </trkpt>
      <trkpt lat="48.963621" lon="2.251262">
        <ele>115.425337</ele>
        <time>2024-05-25T16:14:53.703Z</time>
      </trkpt>
      <trkpt lat="48.964157" lon="2.251618">
        <ele>116.657732</ele>
        <time>2024-05-25T16:15:11.689Z</time>
      </trkpt>
      <trkpt lat="48.964396" lon="2.251782">
        <ele>116.446077</ele>
        <time>2024-05-25T16:15:19.562Z</time>
      </trkpt>
      <trkpt lat="48.965058" lon="2.252185">
        <ele>115.870447</ele>
        <time>2024-05-25T16:15:33.187Z</time>
      </trkpt>
      <trkpt lat="48.965381" lon="2.251238">
        <ele>115.624855</ele>
        <time>2024-05-25T16:15:44.998Z</time>
      </trkpt>
      <trkpt lat="48.965581" lon="2.251062">
        <ele>115.862489</ele>
        <time>2024-05-25T16:15:49.292Z</time>
      </trkpt>
      <trkpt lat="48.965969" lon="2.250905">
        <ele>116.275516</ele>
        <time>2024-05-25T16:15:57.545Z</time>
      </trkpt>
      <trkpt lat="48.966195" lon="2.250816">
        <ele>116.515674</ele>
        <time>2024-05-25T16:16:05.065Z</time>
      </trkpt>
      <trkpt lat="48.966343" lon="2.250819">
        <ele>116.667953</ele>
        <time>2024-05-25T16:16:09.205Z</time>
      </trkpt>
      <trkpt lat="48.966373" lon="2.250568">
        <ele>116.840271</ele>
        <time>2024-05-25T16:16:15.708Z</time>
      </trkpt>
      <trkpt lat="48.966365" lon="2.250460">
        <ele>116.913679</ele>
        <time>2024-05-25T16:16:18.927Z</time>
      </trkpt>
      <trkpt lat="48.966217" lon="2.249998">
        <ele>117.260892</ele>
        <time>2024-05-25T16:16:33.116Z</time>
      </trkpt>
      <trkpt lat="48.966204" lon="2.249663">
        <ele>118.505744</ele>
        <time>2024-05-25T16:16:42.639Z</time>
      </trkpt>
      <trkpt lat="48.966220" lon="2.249355">
        <ele>119.823540</ele>
        <time>2024-05-25T16:16:52.143Z</time>
      </trkpt>
      <trkpt lat="48.966251" lon="2.249163">
        <ele>120.666865</ele>
        <time>2024-05-25T16:16:58.911Z</time>
      </trkpt>
      <trkpt lat="48.966523" lon="2.248536">
        <ele>123.872272</ele>
        <time>2024-05-25T16:17:29.430Z</time>
      </trkpt>
      <trkpt lat="48.966568" lon="2.248230">
        <ele>125.209767</ele>
        <time>2024-05-25T16:17:43.427Z</time>
      </trkpt>
      <trkpt lat="48.966550" lon="2.248101">
        <ele>125.772267</ele>
        <time>2024-05-25T16:17:48.850Z</time>
      </trkpt>
      <trkpt lat="48.966612" lon="2.246598">
        <ele>131.619401</ele>
        <time>2024-05-25T16:18:43.514Z</time>
      </trkpt>
      <trkpt lat="48.966669" lon="2.245963">
        <ele>133.863004</ele>
        <time>2024-05-25T16:19:05.519Z</time>
      </trkpt>
      <trkpt lat="48.966712" lon="2.245591">
        <ele>135.185281</ele>
        <time>2024-05-25T16:19:18.128Z</time>
      </trkpt>
      <trkpt lat="48.966881" lon="2.244963">
        <ele>137.561221</ele>
        <time>2024-05-25T16:19:39.564Z</time>
      </trkpt>
      <trkpt lat="48.966960" lon="2.244260">
        <ele>138.915577</ele>
        <time>2024-05-25T16:19:58.749Z</time>
      </trkpt>
      <trkpt lat="48.967016" lon="2.243958">
        <ele>139.169299</ele>
        <time>2024-05-25T16:20:05.679Z</time>
      </trkpt>
      <trkpt lat="48.967084" lon="2.243691">
        <ele>139.400845</ele>
        <time>2024-05-25T16:20:10.967Z</time>
      </trkpt>
      <trkpt lat="48.967185" lon="2.243569">
        <ele>139.559594</ele>
        <time>2024-05-25T16:20:14.851Z</time>
      </trkpt>
      <trkpt lat="48.967210" lon="2.243538">
        <ele>139.599295</ele>
        <time>2024-05-25T16:20:15.677Z</time>
      </trkpt>
      <trkpt lat="48.967360" lon="2.243396">
        <ele>139.816796</ele>
        <time>2024-05-25T16:20:20.116Z</time>
      </trkpt>
      <trkpt lat="48.967576" lon="2.243137">
        <ele>140.155342</ele>
        <time>2024-05-25T16:20:27.481Z</time>
      </trkpt>
      <trkpt lat="48.967761" lon="2.242813">
        <ele>140.502514</ele>
        <time>2024-05-25T16:20:34.807Z</time>
      </trkpt>
      <trkpt lat="48.968004" lon="2.242151">
        <ele>140.175005</ele>
        <time>2024-05-25T16:20:45.649Z</time>
      </trkpt>
      <trkpt lat="48.968133" lon="2.241774">
        <ele>139.533245</ele>
        <time>2024-05-25T16:20:50.804Z</time>
      </trkpt>
      <trkpt lat="48.968475" lon="2.240535">
        <ele>137.504336</ele>
        <time>2024-05-25T16:21:05.766Z</time>
      </trkpt>
      <trkpt lat="48.968668" lon="2.239729">
        <ele>136.162396</ele>
        <time>2024-05-25T16:21:16.197Z</time>
      </trkpt>
      <trkpt lat="48.968689" lon="2.239656">
        <ele>136.029346</ele>
        <time>2024-05-25T16:21:17.228Z</time>
      </trkpt>
      <trkpt lat="48.968903" lon="2.238931">
        <ele>134.702348</ele>
        <time>2024-05-25T16:21:27.185Z</time>
      </trkpt>
      <trkpt lat="48.968970" lon="2.238714">
        <ele>134.302032</ele>
        <time>2024-05-25T16:21:30.156Z</time>
      </trkpt>
      <trkpt lat="48.969166" lon="2.238044">
        <ele>133.077542</ele>
        <time>2024-05-25T16:21:39.031Z</time>
      </trkpt>
      <trkpt lat="48.969451" lon="2.237100">
        <ele>130.678682</ele>
        <time>2024-05-25T16:21:51.649Z</time>
      </trkpt>
      <trkpt lat="48.969675" lon="2.236388">
        <ele>128.169221</ele>
        <time>2024-05-25T16:22:00.799Z</time>
      </trkpt>
      <trkpt lat="48.969763" lon="2.236157">
        <ele>127.320348</ele>
        <time>2024-05-25T16:22:03.647Z</time>
      </trkpt>
      <trkpt lat="48.969777" lon="2.236144">
        <ele>127.240964</ele>
        <time>2024-05-25T16:22:03.899Z</time>
      </trkpt>
      <trkpt lat="48.969789" lon="2.236128">
        <ele>127.163752</ele>
        <time>2024-05-25T16:22:04.156Z</time>
      </trkpt>
      <trkpt lat="48.969926" lon="2.236121">
        <ele>126.500068</ele>
        <time>2024-05-25T16:22:06.310Z</time>
      </trkpt>
      <trkpt lat="48.970083" lon="2.236218">
        <ele>125.679782</ele>
        <time>2024-05-25T16:22:08.955Z</time>
      </trkpt>
      <trkpt lat="48.970232" lon="2.236237">
        <ele>124.955848</ele>
        <time>2024-05-25T16:22:11.238Z</time>
      </trkpt>
      <trkpt lat="48.970751" lon="2.236136">
        <ele>121.604979</ele>
        <time>2024-05-25T16:22:19.047Z</time>
      </trkpt>
      <trkpt lat="48.970764" lon="2.236136">
        <ele>121.487687</ele>
        <time>2024-05-25T16:22:19.246Z</time>
      </trkpt>
      <trkpt lat="48.971133" lon="2.236159">
        <ele>118.155624</ele>
        <time>2024-05-25T16:22:24.628Z</time>
      </trkpt>
      <trkpt lat="48.971747" lon="2.236255">
        <ele>112.586748</ele>
        <time>2024-05-25T16:22:33.440Z</time>
      </trkpt>
      <trkpt lat="48.972761" lon="2.236487">
        <ele>103.551235</ele>
        <time>2024-05-25T16:22:47.983Z</time>
      </trkpt>
      <trkpt lat="48.973936" lon="2.236568">
        <ele>93.540864</ele>
        <time>2024-05-25T16:23:04.932Z</time>
      </trkpt>
      <trkpt lat="48.974314" lon="2.236647">
        <ele>91.635267</ele>
        <time>2024-05-25T16:23:10.835Z</time>
      </trkpt>
      <trkpt lat="48.974534" lon="2.236717">
        <ele>91.389012</ele>
        <time>2024-05-25T16:23:14.440Z</time>
      </trkpt>
      <trkpt lat="48.974894" lon="2.236995">
        <ele>90.946783</ele>
        <time>2024-05-25T16:23:21.608Z</time>
      </trkpt>
      <trkpt lat="48.974975" lon="2.237123">
        <ele>90.818910</ele>
        <time>2024-05-25T16:23:24.031Z</time>
      </trkpt>
      <trkpt lat="48.974995" lon="2.237205">
        <ele>90.755995</ele>
        <time>2024-05-25T16:23:25.110Z</time>
      </trkpt>
      <trkpt lat="48.975085" lon="2.237342">
        <ele>90.616594</ele>
        <time>2024-05-25T16:23:27.670Z</time>
      </trkpt>
      <trkpt lat="48.975192" lon="2.237369">
        <ele>90.497757</ele>
        <time>2024-05-25T16:23:30.603Z</time>
      </trkpt>
      <trkpt lat="48.975275" lon="2.237333">
        <ele>90.403200</ele>
        <time>2024-05-25T16:23:32.863Z</time>
      </trkpt>
      <trkpt lat="48.975327" lon="2.237268">
        <ele>90.329501</ele>
        <time>2024-05-25T16:23:34.453Z</time>
      </trkpt>
      <trkpt lat="48.975377" lon="2.237092">
        <ele>90.191575</ele>
        <time>2024-05-25T16:23:38.136Z</time>
      </trkpt>
      <trkpt lat="48.975352" lon="2.236914">
        <ele>90.060660</ele>
        <time>2024-05-25T16:23:42.624Z</time>
      </trkpt>
      <trkpt lat="48.975321" lon="2.236849">
        <ele>90.002875</ele>
        <time>2024-05-25T16:23:44.478Z</time>
      </trkpt>
      <trkpt lat="48.975318" lon="2.236653">
        <ele>89.867720</ele>
        <time>2024-05-25T16:23:49.088Z</time>
      </trkpt>
      <trkpt lat="48.975387" lon="2.236297">
        <ele>91.396668</ele>
        <time>2024-05-25T16:24:01.083Z</time>
      </trkpt>
      <trkpt lat="48.975793" lon="2.234783">
        <ele>98.133136</ele>
        <time>2024-05-25T16:25:02.570Z</time>
      </trkpt>
      <trkpt lat="48.975816" lon="2.234611">
        <ele>98.856146</ele>
        <time>2024-05-25T16:25:08.687Z</time>
      </trkpt>
      <trkpt lat="48.975810" lon="2.234279">
        <ele>100.224152</ele>
        <time>2024-05-25T16:25:22.376Z</time>
      </trkpt>
      <trkpt lat="48.975609" lon="2.232799">
        <ele>106.822360</ele>
        <time>2024-05-25T16:26:18.975Z</time>
      </trkpt>
      <trkpt lat="48.975598" lon="2.232531">
        <ele>108.006251</ele>
        <time>2024-05-25T16:26:29.047Z</time>
      </trkpt>
      <trkpt lat="48.975624" lon="2.232266">
        <ele>109.187588</ele>
        <time>2024-05-25T16:26:39.335Z</time>
      </trkpt>
      <trkpt lat="48.975889" lon="2.231499">
        <ele>113.009064</ele>
        <time>2024-05-25T16:27:10.929Z</time>
      </trkpt>
      <trkpt lat="48.975965" lon="2.231173">
        <ele>114.072388</ele>
        <time>2024-05-25T16:27:22.656Z</time>
      </trkpt>
      <trkpt lat="48.975978" lon="2.230980">
        <ele>114.624565</ele>
        <time>2024-05-25T16:27:28.963Z</time>
      </trkpt>
      <trkpt lat="48.975954" lon="2.230021">
        <ele>117.355934</ele>
        <time>2024-05-25T16:27:56.491Z</time>
      </trkpt>
      <trkpt lat="48.975973" lon="2.229727">
        <ele>118.196727</ele>
        <time>2024-05-25T16:28:03.587Z</time>
      </trkpt>
      <trkpt lat="48.976065" lon="2.229415">
        <ele>119.170191</ele>
        <time>2024-05-25T16:28:11.958Z</time>
      </trkpt>
      <trkpt lat="48.976149" lon="2.229268">
        <ele>119.724896</ele>
        <time>2024-05-25T16:28:17.284Z</time>
      </trkpt>
      <trkpt lat="48.976427" lon="2.228907">
        <ele>121.331158</ele>
        <time>2024-05-25T16:28:32.407Z</time>
      </trkpt>
      <trkpt lat="48.976742" lon="2.228632">
        <ele>123.031875</ele>
        <time>2024-05-25T16:28:47.572Z</time>
      </trkpt>
      <trkpt lat="48.976904" lon="2.228557">
        <ele>123.825031</ele>
        <time>2024-05-25T16:28:54.307Z</time>
      </trkpt>
      <trkpt lat="48.977006" lon="2.228529">
        <ele>124.310546</ele>
        <time>2024-05-25T16:28:58.687Z</time>
      </trkpt>
      <trkpt lat="48.977053" lon="2.228551">
        <ele>124.540876</ele>
        <time>2024-05-25T16:29:00.675Z</time>
      </trkpt>
      <trkpt lat="48.977150" lon="2.228532">
        <ele>124.999014</ele>
        <time>2024-05-25T16:29:04.310Z</time>
      </trkpt>
      <trkpt lat="48.977225" lon="2.228436">
        <ele>125.457890</ele>
        <time>2024-05-25T16:29:07.922Z</time>
      </trkpt>
      <trkpt lat="48.977246" lon="2.228368">
        <ele>125.688958</ele>
        <time>2024-05-25T16:29:10.118Z</time>
      </trkpt>
      <trkpt lat="48.977247" lon="2.228217">
        <ele>126.153265</ele>
        <time>2024-05-25T16:29:14.725Z</time>
      </trkpt>
      <trkpt lat="48.977215" lon="2.228122">
        <ele>126.481584</ele>
        <time>2024-05-25T16:29:17.906Z</time>
      </trkpt>
      <trkpt lat="48.977209" lon="2.227975">
        <ele>126.934442</ele>
        <time>2024-05-25T16:29:21.970Z</time>
      </trkpt>
      <trkpt lat="48.977215" lon="2.227760">
        <ele>127.596106</ele>
        <time>2024-05-25T16:29:28.761Z</time>
      </trkpt>
      <trkpt lat="48.977180" lon="2.227681">
        <ele>127.889166</ele>
        <time>2024-05-25T16:29:32.070Z</time>
      </trkpt>
      <trkpt lat="48.976866" lon="2.226941">
        <ele>131.074092</ele>
        <time>2024-05-25T16:30:04.032Z</time>
      </trkpt>
      <trkpt lat="48.976807" lon="2.226719">
        <ele>132.117020</ele>
        <time>2024-05-25T16:30:13.858Z</time>
      </trkpt>
      <trkpt lat="48.976768" lon="2.226414">
        <ele>133.470099</ele>
        <time>2024-05-25T16:30:26.072Z</time>
      </trkpt>
      <trkpt lat="48.976757" lon="2.226012">
        <ele>135.222116</ele>
        <time>2024-05-25T16:30:43.501Z</time>
      </trkpt>
      <trkpt lat="48.976830" lon="2.225125">
        <ele>139.114770</ele>
        <time>2024-05-25T16:31:16.639Z</time>
      </trkpt>
      <trkpt lat="48.976835" lon="2.225060">
        <ele>139.399747</ele>
        <time>2024-05-25T16:31:18.968Z</time>
      </trkpt>
      <trkpt lat="48.976847" lon="2.224870">
        <ele>140.230916</ele>
        <time>2024-05-25T16:31:25.537Z</time>
      </trkpt>
      <trkpt lat="48.976833" lon="2.222889">
        <ele>146.324369</ele>
        <time>2024-05-25T16:32:23.276Z</time>
      </trkpt>
      <trkpt lat="48.976763" lon="2.221465">
        <ele>150.433512</ele>
        <time>2024-05-25T16:33:01.471Z</time>
      </trkpt>
      <trkpt lat="48.976782" lon="2.220791">
        <ele>152.374753</ele>
        <time>2024-05-25T16:33:22.164Z</time>
      </trkpt>
      <trkpt lat="48.976942" lon="2.219559">
        <ele>155.988587</ele>
        <time>2024-05-25T16:33:58.947Z</time>
      </trkpt>
      <trkpt lat="48.977049" lon="2.219109">
        <ele>157.281846</ele>
        <time>2024-05-25T16:34:13.279Z</time>
      </trkpt>
      <trkpt lat="48.977187" lon="2.219310">
        <ele>157.778462</ele>
        <time>2024-05-25T16:34:24.457Z</time>
      </trkpt>
      <trkpt lat="48.977391" lon="2.219522">
        <ele>158.420802</ele>
        <time>2024-05-25T16:34:38.940Z</time>
      </trkpt>
      <trkpt lat="48.977503" lon="2.219499">
        <ele>158.714773</ele>
        <time>2024-05-25T16:34:45.338Z</time>
      </trkpt>
      <trkpt lat="48.977658" lon="2.219371">
        <ele>159.173380</ele>
        <time>2024-05-25T16:34:55.037Z</time>
      </trkpt>
      <trkpt lat="48.977910" lon="2.219433">
        <ele>159.837379</ele>
        <time>2024-05-25T16:35:07.473Z</time>
      </trkpt>
      <trkpt lat="48.977966" lon="2.219419">
        <ele>159.984996</ele>
        <time>2024-05-25T16:35:10.240Z</time>
      </trkpt>
      <trkpt lat="48.978120" lon="2.219265">
        <ele>160.464162</ele>
        <time>2024-05-25T16:35:18.172Z</time>
      </trkpt>
      <trkpt lat="48.978256" lon="2.218964">
        <ele>161.088055</ele>
        <time>2024-05-25T16:35:28.858Z</time>
      </trkpt>
      <trkpt lat="48.978449" lon="2.218755">
        <ele>161.703980</ele>
        <time>2024-05-25T16:35:38.037Z</time>
      </trkpt>
      <trkpt lat="48.978544" lon="2.218704">
        <ele>161.883109</ele>
        <time>2024-05-25T16:35:42.090Z</time>
      </trkpt>
      <trkpt lat="48.978738" lon="2.218671">
        <ele>162.062081</ele>
        <time>2024-05-25T16:35:50.174Z</time>
      </trkpt>
      <trkpt lat="48.978879" lon="2.218693">
        <ele>162.192031</ele>
        <time>2024-05-25T16:35:56.147Z</time>
      </trkpt>
      <trkpt lat="48.979056" lon="2.218795">
        <ele>162.365531</ele>
        <time>2024-05-25T16:36:04.011Z</time>
      </trkpt>
      <trkpt lat="48.979198" lon="2.218815">
        <ele>162.496277</ele>
        <time>2024-05-25T16:36:09.957Z</time>
      </trkpt>
      <trkpt lat="48.979290" lon="2.218803">
        <ele>162.580934</ele>
        <time>2024-05-25T16:36:13.819Z</time>
      </trkpt>
      <trkpt lat="48.979393" lon="2.218734">
        <ele>162.684093</ele>
        <time>2024-05-25T16:36:18.470Z</time>
      </trkpt>
      <trkpt lat="48.979442" lon="2.218662">
        <ele>162.746506</ele>
        <time>2024-05-25T16:36:21.238Z</time>
      </trkpt>
      <trkpt lat="48.979665" lon="2.217787">
        <ele>163.311337</ele>
        <time>2024-05-25T16:36:46.705Z</time>
      </trkpt>
      <trkpt lat="48.979825" lon="2.217540">
        <ele>163.522638</ele>
        <time>2024-05-25T16:36:56.011Z</time>
      </trkpt>
      <trkpt lat="48.980026" lon="2.217175">
        <ele>163.830739</ele>
        <time>2024-05-25T16:37:09.325Z</time>
      </trkpt>
      <trkpt lat="48.980092" lon="2.216976">
        <ele>163.974918</ele>
        <time>2024-05-25T16:37:16.177Z</time>
      </trkpt>
      <trkpt lat="48.980213" lon="2.216591">
        <ele>164.250947</ele>
        <time>2024-05-25T16:37:28.863Z</time>
      </trkpt>
      <trkpt lat="48.980400" lon="2.216259">
        <ele>164.533851</ele>
        <time>2024-05-25T16:37:41.406Z</time>
      </trkpt>
      <trkpt lat="48.980817" lon="2.215789">
        <ele>165.044894</ele>
        <time>2024-05-25T16:38:02.391Z</time>
      </trkpt>
      <trkpt lat="48.980912" lon="2.215579">
        <ele>165.209819</ele>
        <time>2024-05-25T16:38:08.580Z</time>
      </trkpt>
      <trkpt lat="48.981017" lon="2.215305">
        <ele>165.285690</ele>
        <time>2024-05-25T16:38:16.973Z</time>
      </trkpt>
      <trkpt lat="48.981148" lon="2.214856">
        <ele>165.339753</ele>
        <time>2024-05-25T16:38:29.634Z</time>
      </trkpt>
      <trkpt lat="48.981321" lon="2.214403">
        <ele>165.397419</ele>
        <time>2024-05-25T16:38:43.055Z</time>
      </trkpt>
      <trkpt lat="48.981394" lon="2.214160">
        <ele>165.426822</ele>
        <time>2024-05-25T16:38:49.575Z</time>
      </trkpt>
      <trkpt lat="48.981471" lon="2.213710">
        <ele>165.477988</ele>
        <time>2024-05-25T16:39:00.870Z</time>
      </trkpt>
      <trkpt lat="48.981625" lon="2.212966">
        <ele>165.549513</ele>
        <time>2024-05-25T16:39:19.611Z</time>
      </trkpt>
      <trkpt lat="48.981998" lon="2.211393">
        <ele>164.887512</ele>
        <time>2024-05-25T16:39:59.881Z</time>
      </trkpt>
      <trkpt lat="48.981959" lon="2.211193">
        <ele>164.804930</ele>
        <time>2024-05-25T16:40:04.595Z</time>
      </trkpt>
      <trkpt lat="48.981799" lon="2.211034">
        <ele>164.689727</ele>
        <time>2024-05-25T16:40:11.117Z</time>
      </trkpt>
      <trkpt lat="48.981762" lon="2.210907">
        <ele>164.634729</ele>
        <time>2024-05-25T16:40:14.220Z</time>
      </trkpt>
      <trkpt lat="48.981884" lon="2.210704">
        <ele>164.525781</ele>
        <time>2024-05-25T16:40:20.269Z</time>
      </trkpt>
      <trkpt lat="48.982082" lon="2.210614">
        <ele>164.291975</ele>
        <time>2024-05-25T16:40:27.211Z</time>
      </trkpt>
      <trkpt lat="48.982397" lon="2.210118">
        <ele>163.619942</ele>
        <time>2024-05-25T16:40:42.212Z</time>
      </trkpt>
      <trkpt lat="48.982515" lon="2.210156">
        <ele>163.441012</ele>
        <time>2024-05-25T16:40:46.126Z</time>
      </trkpt>
      <trkpt lat="48.982735" lon="2.210300">
        <ele>163.085782</ele>
        <time>2024-05-25T16:40:54.073Z</time>
      </trkpt>
      <trkpt lat="48.982853" lon="2.210318">
        <ele>162.909844</ele>
        <time>2024-05-25T16:40:57.947Z</time>
      </trkpt>
      <trkpt lat="48.982971" lon="2.210245">
        <ele>162.720902</ele>
        <time>2024-05-25T16:41:02.195Z</time>
      </trkpt>
      <trkpt lat="48.983124" lon="2.210058">
        <ele>162.429913</ele>
        <time>2024-05-25T16:41:08.657Z</time>
      </trkpt>
      <trkpt lat="48.983250" lon="2.209861">
        <ele>162.162080</ele>
        <time>2024-05-25T16:41:14.613Z</time>
      </trkpt>
      <trkpt lat="48.983335" lon="2.209730">
        <ele>161.982718</ele>
        <time>2024-05-25T16:41:18.774Z</time>
      </trkpt>
      <trkpt lat="48.983422" lon="2.209582">
        <ele>161.808201</ele>
        <time>2024-05-25T16:41:23.185Z</time>
      </trkpt>
      <trkpt lat="48.983541" lon="2.209297">
        <ele>161.820576</ele>
        <time>2024-05-25T16:41:30.986Z</time>
      </trkpt>
      <trkpt lat="48.983642" lon="2.208909">
        <ele>161.835868</ele>
        <time>2024-05-25T16:41:40.381Z</time>
      </trkpt>
      <trkpt lat="48.983689" lon="2.208475">
        <ele>161.851982</ele>
        <time>2024-05-25T16:41:50.960Z</time>
      </trkpt>
      <trkpt lat="48.983808" lon="2.207960">
        <ele>161.871985</ele>
        <time>2024-05-25T16:42:05.491Z</time>
      </trkpt>
      <trkpt lat="48.983808" lon="2.207608">
        <ele>161.884880</ele>
        <time>2024-05-25T16:42:15.113Z</time>
      </trkpt>
      <trkpt lat="48.983848" lon="2.207158">
        <ele>161.901516</ele>
        <time>2024-05-25T16:42:27.399Z</time>
      </trkpt>
      <trkpt lat="48.984303" lon="2.205845">
        <ele>162.375119</ele>
        <time>2024-05-25T16:43:07.572Z</time>
      </trkpt>
      <trkpt lat="48.984337" lon="2.205676">
        <ele>162.438158</ele>
        <time>2024-05-25T16:43:12.529Z</time>
      </trkpt>
      <trkpt lat="48.984326" lon="2.205362">
        <ele>162.550299</ele>
        <time>2024-05-25T16:43:21.218Z</time>
      </trkpt>
      <trkpt lat="48.984346" lon="2.205192">
        <ele>162.611893</ele>
        <time>2024-05-25T16:43:25.702Z</time>
      </trkpt>
      <trkpt lat="48.984380" lon="2.205029">
        <ele>162.672890</ele>
        <time>2024-05-25T16:43:30.279Z</time>
      </trkpt>
      <trkpt lat="48.984468" lon="2.204785">
        <ele>162.772182</ele>
        <time>2024-05-25T16:43:37.001Z</time>
      </trkpt>
      <trkpt lat="48.984505" lon="2.204585">
        <ele>162.846288</ele>
        <time>2024-05-25T16:43:41.922Z</time>
      </trkpt>
      <trkpt lat="48.984540" lon="2.204190">
        <ele>162.953295</ele>
        <time>2024-05-25T16:43:51.054Z</time>
      </trkpt>
      <trkpt lat="48.984541" lon="2.203814">
        <ele>163.041680</ele>
        <time>2024-05-25T16:43:59.820Z</time>
      </trkpt>
      <trkpt lat="48.984534" lon="2.203674">
        <ele>163.074685</ele>
        <time>2024-05-25T16:44:03.167Z</time>
      </trkpt>
      <trkpt lat="48.984449" lon="2.203555">
        <ele>163.116030</ele>
        <time>2024-05-25T16:44:07.621Z</time>
      </trkpt>
      <trkpt lat="48.984358" lon="2.203489">
        <ele>163.152128</ele>
        <time>2024-05-25T16:44:11.333Z</time>
      </trkpt>
      <trkpt lat="48.984305" lon="2.203374">
        <ele>163.185161</ele>
        <time>2024-05-25T16:44:15.037Z</time>
      </trkpt>
      <trkpt lat="48.984319" lon="2.203268">
        <ele>163.210577</ele>
        <time>2024-05-25T16:44:17.694Z</time>
      </trkpt>
      <trkpt lat="48.984232" lon="2.203089">
        <ele>163.262937</ele>
        <time>2024-05-25T16:44:23.889Z</time>
      </trkpt>
      <trkpt lat="48.984222" lon="2.202986">
        <ele>163.287412</ele>
        <time>2024-05-25T16:44:26.401Z</time>
      </trkpt>
      <trkpt lat="48.984325" lon="2.202753">
        <ele>163.353449</ele>
        <time>2024-05-25T16:44:34.217Z</time>
      </trkpt>
      <trkpt lat="48.984393" lon="2.202539">
        <ele>163.409340</ele>
        <time>2024-05-25T16:44:40.945Z</time>
      </trkpt>
      <trkpt lat="48.984460" lon="2.202326">
        <ele>163.464863</ele>
        <time>2024-05-25T16:44:47.411Z</time>
      </trkpt>
      <trkpt lat="48.984499" lon="2.201989">
        <ele>163.498875</ele>
        <time>2024-05-25T16:44:57.026Z</time>
      </trkpt>
      <trkpt lat="48.984423" lon="2.201662">
        <ele>163.339360</ele>
        <time>2024-05-25T16:45:06.664Z</time>
      </trkpt>
      <trkpt lat="48.984301" lon="2.201377">
        <ele>163.182893</ele>
        <time>2024-05-25T16:45:15.368Z</time>
      </trkpt>
      <trkpt lat="48.984202" lon="2.201144">
        <ele>163.055258</ele>
        <time>2024-05-25T16:45:22.008Z</time>
      </trkpt>
      <trkpt lat="48.984143" lon="2.200852">
        <ele>162.914767</ele>
        <time>2024-05-25T16:45:28.894Z</time>
      </trkpt>
      <trkpt lat="48.984030" lon="2.200666">
        <ele>162.798217</ele>
        <time>2024-05-25T16:45:34.643Z</time>
      </trkpt>
      <trkpt lat="48.984011" lon="2.200385">
        <ele>162.668320</ele>
        <time>2024-05-25T16:45:40.631Z</time>
      </trkpt>
      <trkpt lat="48.984096" lon="2.200222">
        <ele>162.572586</ele>
        <time>2024-05-25T16:45:45.162Z</time>
      </trkpt>
      <trkpt lat="48.984370" lon="2.200087">
        <ele>162.370814</ele>
        <time>2024-05-25T16:45:54.177Z</time>
      </trkpt>
      <trkpt lat="48.984645" lon="2.199953">
        <ele>162.103704</ele>
        <time>2024-05-25T16:46:03.912Z</time>
      </trkpt>
      <trkpt lat="48.985170" lon="2.199507">
        <ele>161.411786</ele>
        <time>2024-05-25T16:46:24.988Z</time>
      </trkpt>
      <trkpt lat="48.985296" lon="2.199433">
        <ele>161.256344</ele>
        <time>2024-05-25T16:46:29.794Z</time>
      </trkpt>
      <trkpt lat="48.985725" lon="2.199203">
        <ele>160.732835</ele>
        <time>2024-05-25T16:46:45.531Z</time>
      </trkpt>
      <trkpt lat="48.985752" lon="2.199129">
        <ele>160.668874</ele>
        <time>2024-05-25T16:46:47.695Z</time>
      </trkpt>
      <trkpt lat="48.985778" lon="2.199058">
        <ele>160.607453</ele>
        <time>2024-05-25T16:46:49.666Z</time>
      </trkpt>
      <trkpt lat="48.985814" lon="2.198815">
        <ele>160.419265</ele>
        <time>2024-05-25T16:46:55.180Z</time>
      </trkpt>
      <trkpt lat="48.985805" lon="2.198409">
        <ele>160.016964</ele>
        <time>2024-05-25T16:47:04.223Z</time>
      </trkpt>
      <trkpt lat="48.985583" lon="2.198154">
        <ele>159.343778</ele>
        <time>2024-05-25T16:47:13.356Z</time>
      </trkpt>
      <trkpt lat="48.985553" lon="2.197737">
        <ele>158.677157</ele>
        <time>2024-05-25T16:47:22.083Z</time>
      </trkpt>
      <trkpt lat="48.985598" lon="2.197613">
        <ele>158.451988</ele>
        <time>2024-05-25T16:47:25.325Z</time>
      </trkpt>
      <trkpt lat="48.985743" lon="2.197497">
        <ele>158.055428</ele>
        <time>2024-05-25T16:47:30.703Z</time>
      </trkpt>
      <trkpt lat="48.986338" lon="2.197153">
        <ele>156.514435</ele>
        <time>2024-05-25T16:47:51.697Z</time>
      </trkpt>
      <trkpt lat="48.986479" lon="2.197029">
        <ele>156.120228</ele>
        <time>2024-05-25T16:47:56.664Z</time>
      </trkpt>
      <trkpt lat="48.986577" lon="2.196888">
        <ele>155.689037</ele>
        <time>2024-05-25T16:48:00.723Z</time>
      </trkpt>
      <trkpt lat="48.986671" lon="2.196753">
        <ele>154.715587</ele>
        <time>2024-05-25T16:48:04.550Z</time>
      </trkpt>
      <trkpt lat="48.987073" lon="2.196173">
        <ele>150.543512</ele>
        <time>2024-05-25T16:48:19.639Z</time>
      </trkpt>
      <trkpt lat="48.987127" lon="2.196021">
        <ele>149.688703</ele>
        <time>2024-05-25T16:48:22.749Z</time>
      </trkpt>
      <trkpt lat="48.987170" lon="2.195526">
        <ele>147.219314</ele>
        <time>2024-05-25T16:48:31.368Z</time>
      </trkpt>
      <trkpt lat="48.987098" lon="2.195215">
        <ele>145.588348</ele>
        <time>2024-05-25T16:48:36.947Z</time>
      </trkpt>
      <trkpt lat="48.987026" lon="2.194904">
        <ele>143.957380</ele>
        <time>2024-05-25T16:48:42.720Z</time>
      </trkpt>
      <trkpt lat="48.987035" lon="2.194727">
        <ele>143.079397</ele>
        <time>2024-05-25T16:48:45.682Z</time>
      </trkpt>
      <trkpt lat="48.987095" lon="2.194496">
        <ele>141.678482</ele>
        <time>2024-05-25T16:48:49.944Z</time>
      </trkpt>
      <trkpt lat="48.987141" lon="2.194411">
        <ele>140.919141</ele>
        <time>2024-05-25T16:48:51.827Z</time>
      </trkpt>
      <trkpt lat="48.987192" lon="2.194373">
        <ele>140.322908</ele>
        <time>2024-05-25T16:48:53.294Z</time>
      </trkpt>
      <trkpt lat="48.987279" lon="2.194382">
        <ele>139.407079</ele>
        <time>2024-05-25T16:48:55.493Z</time>
      </trkpt>
      <trkpt lat="48.987385" lon="2.194737">
        <ele>136.719020</ele>
        <time>2024-05-25T16:49:02.195Z</time>
      </trkpt>
      <trkpt lat="48.987463" lon="2.194869">
        <ele>135.494789</ele>
        <time>2024-05-25T16:49:05.174Z</time>
      </trkpt>
      <trkpt lat="48.987778" lon="2.195210">
        <ele>131.436670</ele>
        <time>2024-05-25T16:49:15.047Z</time>
      </trkpt>
      <trkpt lat="48.988276" lon="2.195422">
        <ele>126.006128</ele>
        <time>2024-05-25T16:49:28.055Z</time>
      </trkpt>
      <trkpt lat="48.988280" lon="2.194588">
        <ele>120.448826</ele>
        <time>2024-05-25T16:49:41.822Z</time>
      </trkpt>
      <trkpt lat="48.988313" lon="2.194233">
        <ele>118.127866</ele>
        <time>2024-05-25T16:49:47.823Z</time>
      </trkpt>
      <trkpt lat="48.988326" lon="2.194153">
        <ele>117.594361</ele>
        <time>2024-05-25T16:49:49.182Z</time>
      </trkpt>
      <trkpt lat="48.988452" lon="2.193547">
        <ele>113.479351</ele>
        <time>2024-05-25T16:49:59.866Z</time>
      </trkpt>
      <trkpt lat="48.988470" lon="2.193457">
        <ele>112.870299</ele>
        <time>2024-05-25T16:50:01.467Z</time>
      </trkpt>
      <trkpt lat="48.988521" lon="2.193269">
        <ele>111.553435</ele>
        <time>2024-05-25T16:50:04.958Z</time>
      </trkpt>
      <trkpt lat="48.988555" lon="2.193236">
        <ele>111.155788</ele>
        <time>2024-05-25T16:50:06.009Z</time>
      </trkpt>
      <trkpt lat="48.988597" lon="2.193280">
        <ele>110.653016</ele>
        <time>2024-05-25T16:50:06.738Z</time>
      </trkpt>
      <trkpt lat="48.988677" lon="2.193366">
        <ele>109.687251</ele>
        <time>2024-05-25T16:50:08.159Z</time>
      </trkpt>
      <trkpt lat="48.988883" lon="2.193632">
        <ele>107.023731</ele>
        <time>2024-05-25T16:50:12.100Z</time>
      </trkpt>
      <trkpt lat="48.988953" lon="2.193710">
        <ele>106.168304</ele>
        <time>2024-05-25T16:50:13.373Z</time>
      </trkpt>
      <trkpt lat="48.989118" lon="2.193866">
        <ele>104.668140</ele>
        <time>2024-05-25T16:50:16.220Z</time>
      </trkpt>
      <trkpt lat="48.989231" lon="2.193978">
        <ele>103.732243</ele>
        <time>2024-05-25T16:50:18.172Z</time>
      </trkpt>
      <trkpt lat="48.989417" lon="2.194168">
        <ele>102.177567</ele>
        <time>2024-05-25T16:50:21.485Z</time>
      </trkpt>
      <trkpt lat="48.989673" lon="2.194389">
        <ele>100.134792</ele>
        <time>2024-05-25T16:50:25.820Z</time>
      </trkpt>
      <trkpt lat="48.989958" lon="2.194745">
        <ele>97.576271</ele>
        <time>2024-05-25T16:50:31.360Z</time>
      </trkpt>
      <trkpt lat="48.990185" lon="2.195125">
        <ele>95.235086</ele>
        <time>2024-05-25T16:50:36.537Z</time>
      </trkpt>
      <trkpt lat="48.990715" lon="2.196061">
        <ele>90.832463</ele>
        <time>2024-05-25T16:50:49.289Z</time>
      </trkpt>
      <trkpt lat="48.990776" lon="2.196174">
        <ele>90.395836</ele>
        <time>2024-05-25T16:50:50.842Z</time>
      </trkpt>
      <trkpt lat="48.990834" lon="2.196291">
        <ele>89.958285</ele>
        <time>2024-05-25T16:50:52.406Z</time>
      </trkpt>
      <trkpt lat="48.991066" lon="2.196675">
        <ele>88.400730</ele>
        <time>2024-05-25T16:50:57.912Z</time>
      </trkpt>
      <trkpt lat="48.991107" lon="2.196739">
        <ele>88.133837</ele>
        <time>2024-05-25T16:50:58.828Z</time>
      </trkpt>
      <trkpt lat="48.991516" lon="2.197296">
        <ele>85.639515</ele>
        <time>2024-05-25T16:51:07.723Z</time>
      </trkpt>
      <trkpt lat="48.991914" lon="2.197828">
        <ele>83.798106</ele>
        <time>2024-05-25T16:51:16.843Z</time>
      </trkpt>
      <trkpt lat="48.991944" lon="2.197865">
        <ele>83.679180</ele>
        <time>2024-05-25T16:51:17.508Z</time>
      </trkpt>
      <trkpt lat="48.991956" lon="2.197881">
        <ele>83.630048</ele>
        <time>2024-05-25T16:51:17.787Z</time>
      </trkpt>
      <trkpt lat="48.992066" lon="2.198025">
        <ele>83.183195</ele>
        <time>2024-05-25T16:51:20.323Z</time>
      </trkpt>
      <trkpt lat="48.992124" lon="2.198100">
        <ele>82.948800</ele>
        <time>2024-05-25T16:51:21.651Z</time>
      </trkpt>
      <trkpt lat="48.992339" lon="2.198171">
        <ele>82.270897</ele>
        <time>2024-05-25T16:51:25.394Z</time>
      </trkpt>
      <trkpt lat="48.992431" lon="2.198261">
        <ele>81.934017</ele>
        <time>2024-05-25T16:51:27.268Z</time>
      </trkpt>
      <trkpt lat="48.992450" lon="2.198372">
        <ele>81.702067</ele>
        <time>2024-05-25T16:51:28.559Z</time>
      </trkpt>
      <trkpt lat="48.992508" lon="2.198470">
        <ele>81.435218</ele>
        <time>2024-05-25T16:51:30.021Z</time>
      </trkpt>
      <trkpt lat="48.992591" lon="2.198511">
        <ele>81.166352</ele>
        <time>2024-05-25T16:51:31.516Z</time>
      </trkpt>
      <trkpt lat="48.992616" lon="2.198510">
        <ele>81.089287</ele>
        <time>2024-05-25T16:51:31.958Z</time>
      </trkpt>
      <trkpt lat="48.992900" lon="2.198752">
        <ele>80.086630</ele>
        <time>2024-05-25T16:51:37.583Z</time>
      </trkpt>
      <trkpt lat="48.992961" lon="2.198816">
        <ele>79.858421</ele>
        <time>2024-05-25T16:51:38.873Z</time>
      </trkpt>
      <trkpt lat="48.993178" lon="2.199038">
        <ele>79.243834</ele>
        <time>2024-05-25T16:51:43.463Z</time>
      </trkpt>
      <trkpt lat="48.993728" lon="2.199573">
        <ele>78.211078</ele>
        <time>2024-05-25T16:51:55.256Z</time>
      </trkpt>
      <trkpt lat="48.994647" lon="2.200551">
        <ele>76.584528</ele>
        <time>2024-05-25T16:52:17.439Z</time>
      </trkpt>
      <trkpt lat="48.994846" lon="2.200779">
        <ele>76.550663</ele>
        <time>2024-05-25T16:52:22.787Z</time>
      </trkpt>
      <trkpt lat="48.994847" lon="2.200840">
        <ele>76.545217</ele>
        <time>2024-05-25T16:52:23.680Z</time>
      </trkpt>
      <trkpt lat="48.994883" lon="2.200954">
        <ele>76.533926</ele>
        <time>2024-05-25T16:52:25.689Z</time>
      </trkpt>
      <trkpt lat="48.994988" lon="2.201030">
        <ele>76.518114</ele>
        <time>2024-05-25T16:52:28.254Z</time>
      </trkpt>
      <trkpt lat="48.995065" lon="2.201002">
        <ele>76.507346</ele>
        <time>2024-05-25T16:52:29.919Z</time>
      </trkpt>
      <trkpt lat="48.995237" lon="2.201163">
        <ele>76.479890</ele>
        <time>2024-05-25T16:52:34.728Z</time>
      </trkpt>
      <trkpt lat="48.995655" lon="2.201656">
        <ele>76.407995</ele>
        <time>2024-05-25T16:52:46.368Z</time>
      </trkpt>
      <trkpt lat="48.995969" lon="2.202046">
        <ele>76.351452</ele>
        <time>2024-05-25T16:52:55.784Z</time>
      </trkpt>
      <trkpt lat="48.996433" lon="2.202612">
        <ele>76.132495</ele>
        <time>2024-05-25T16:53:09.218Z</time>
      </trkpt>
      <trkpt lat="48.996706" lon="2.202936">
        <ele>76.005020</ele>
        <time>2024-05-25T16:53:16.633Z</time>
      </trkpt>
      <trkpt lat="48.996826" lon="2.203080">
        <ele>75.948751</ele>
        <time>2024-05-25T16:53:19.897Z</time>
      </trkpt>
      <trkpt lat="48.997347" lon="2.203635">
        <ele>75.714569</ele>
        <time>2024-05-25T16:53:32.919Z</time>
      </trkpt>
      <trkpt lat="48.997383" lon="2.203668">
        <ele>75.699092</ele>
        <time>2024-05-25T16:53:33.751Z</time>
      </trkpt>
      <trkpt lat="48.997814" lon="2.204048">
        <ele>74.960641</ele>
        <time>2024-05-25T16:53:43.664Z</time>
      </trkpt>
      <trkpt lat="48.998082" lon="2.204258">
        <ele>74.498388</ele>
        <time>2024-05-25T16:53:49.522Z</time>
      </trkpt>
      <trkpt lat="48.998150" lon="2.204308">
        <ele>74.382574</ele>
        <time>2024-05-25T16:53:50.967Z</time>
      </trkpt>
      <trkpt lat="48.998267" lon="2.204393">
        <ele>74.183754</ele>
        <time>2024-05-25T16:53:53.427Z</time>
      </trkpt>
      <trkpt lat="48.998359" lon="2.204508">
        <ele>74.001238</ele>
        <time>2024-05-25T16:53:55.680Z</time>
      </trkpt>
      <trkpt lat="48.998403" lon="2.204545">
        <ele>73.924153</ele>
        <time>2024-05-25T16:53:56.628Z</time>
      </trkpt>
      <trkpt lat="48.998587" lon="2.204645">
        <ele>73.624494</ele>
        <time>2024-05-25T16:54:00.217Z</time>
      </trkpt>
      <trkpt lat="48.999070" lon="2.205054">
        <ele>72.688823</ele>
        <time>2024-05-25T16:54:10.350Z</time>
      </trkpt>
      <trkpt lat="48.999855" lon="2.205672">
        <ele>70.563593</ele>
        <time>2024-05-25T16:54:25.963Z</time>
      </trkpt>
      <trkpt lat="48.999959" lon="2.205752">
        <ele>70.283379</ele>
        <time>2024-05-25T16:54:28.034Z</time>
      </trkpt>
      <trkpt lat="49.000140" lon="2.205894">
        <ele>69.793717</ele>
        <time>2024-05-25T16:54:31.639Z</time>
      </trkpt>
      <trkpt lat="49.000332" lon="2.206099">
        <ele>69.229846</ele>
        <time>2024-05-25T16:54:35.792Z</time>
      </trkpt>
      <trkpt lat="49.000585" lon="2.206298">
        <ele>68.569321</ele>
        <time>2024-05-25T16:54:40.835Z</time>
      </trkpt>
      <trkpt lat="49.000666" lon="2.206402">
        <ele>68.416844</ele>
        <time>2024-05-25T16:54:42.733Z</time>
      </trkpt>
      <trkpt lat="49.000665" lon="2.206440">
        <ele>68.380923</ele>
        <time>2024-05-25T16:54:43.187Z</time>
      </trkpt>
      <trkpt lat="49.000711" lon="2.206545">
        <ele>68.261668</ele>
        <time>2024-05-25T16:54:44.672Z</time>
      </trkpt>
      <trkpt lat="49.000735" lon="2.206557">
        <ele>68.225303</ele>
        <time>2024-05-25T16:54:45.128Z</time>
      </trkpt>
      <trkpt lat="49.000810" lon="2.206524">
        <ele>68.112915</ele>
        <time>2024-05-25T16:54:46.544Z</time>
      </trkpt>
      <trkpt lat="49.000814" lon="2.206519">
        <ele>68.105467</ele>
        <time>2024-05-25T16:54:46.652Z</time>
      </trkpt>
      <trkpt lat="49.000910" lon="2.206545">
        <ele>67.965089</ele>
        <time>2024-05-25T16:54:48.425Z</time>
      </trkpt>
      <trkpt lat="49.000951" lon="2.206579">
        <ele>67.897890</ele>
        <time>2024-05-25T16:54:49.289Z</time>
      </trkpt>
      <trkpt lat="49.001144" lon="2.206804">
        <ele>67.548070</ele>
        <time>2024-05-25T16:54:53.809Z</time>
      </trkpt>
      <trkpt lat="49.002090" lon="2.207447">
        <ele>66.056820</ele>
        <time>2024-05-25T16:55:14.154Z</time>
      </trkpt>
      <trkpt lat="49.002773" lon="2.207978">
        <ele>66.022578</ele>
        <time>2024-05-25T16:55:30.983Z</time>
      </trkpt>
      <trkpt lat="49.003113" lon="2.208202">
        <ele>66.025886</ele>
        <time>2024-05-25T16:55:39.628Z</time>
      </trkpt>
      <trkpt lat="49.003220" lon="2.208230">
        <ele>66.026855</ele>
        <time>2024-05-25T16:55:42.131Z</time>
      </trkpt>
      <trkpt lat="49.003366" lon="2.208323">
        <ele>66.028268</ele>
        <time>2024-05-25T16:55:45.874Z</time>
      </trkpt>
      <trkpt lat="49.003537" lon="2.208446">
        <ele>66.029957</ele>
        <time>2024-05-25T16:55:50.333Z</time>
      </trkpt>
      <trkpt lat="49.003739" lon="2.208643">
        <ele>66.037031</ele>
        <time>2024-05-25T16:55:56.062Z</time>
      </trkpt>
      <trkpt lat="49.004221" lon="2.208995">
        <ele>66.497906</ele>
        <time>2024-05-25T16:56:09.146Z</time>
      </trkpt>
      <trkpt lat="49.004427" lon="2.209207">
        <ele>66.712236</ele>
        <time>2024-05-25T16:56:15.738Z</time>
      </trkpt>
      <trkpt lat="49.004480" lon="2.209230">
        <ele>66.759755</ele>
        <time>2024-05-25T16:56:17.192Z</time>
      </trkpt>
      <trkpt lat="49.004601" lon="2.209221">
        <ele>66.864220</ele>
        <time>2024-05-25T16:56:20.616Z</time>
      </trkpt>
      <trkpt lat="49.005004" lon="2.209558">
        <ele>67.260590</ele>
        <time>2024-05-25T16:56:33.496Z</time>
      </trkpt>
      <trkpt lat="49.005115" lon="2.209662">
        <ele>67.372941</ele>
        <time>2024-05-25T16:56:37.027Z</time>
      </trkpt>
      <trkpt lat="49.005129" lon="2.209803">
        <ele>67.453610</ele>
        <time>2024-05-25T16:56:39.646Z</time>
      </trkpt>
      <trkpt lat="49.005174" lon="2.209880">
        <ele>67.511945</ele>
        <time>2024-05-25T16:56:41.593Z</time>
      </trkpt>
      <trkpt lat="49.005228" lon="2.209915">
        <ele>67.562545</ele>
        <time>2024-05-25T16:56:43.226Z</time>
      </trkpt>
      <trkpt lat="49.005321" lon="2.209895">
        <ele>67.662268</ele>
        <time>2024-05-25T16:56:45.748Z</time>
      </trkpt>
      <trkpt lat="49.005444" lon="2.209953">
        <ele>67.807682</ele>
        <time>2024-05-25T16:56:49.315Z</time>
      </trkpt>
      <trkpt lat="49.005463" lon="2.209967">
        <ele>67.831516</ele>
        <time>2024-05-25T16:56:49.945Z</time>
      </trkpt>
      <trkpt lat="49.005405" lon="2.210345">
        <ele>68.119131</ele>
        <time>2024-05-25T16:57:00.856Z</time>
      </trkpt>
      <trkpt lat="49.005439" lon="2.210369">
        <ele>68.161448</ele>
        <time>2024-05-25T16:57:01.947Z</time>
      </trkpt>
      <trkpt lat="49.005479" lon="2.210598">
        <ele>68.337023</ele>
        <time>2024-05-25T16:57:08.789Z</time>
      </trkpt>
      <trkpt lat="49.005561" lon="2.210849">
        <ele>68.544771</ele>
        <time>2024-05-25T16:57:16.587Z</time>
      </trkpt>
      <trkpt lat="49.005682" lon="2.210994">
        <ele>68.718601</ele>
        <time>2024-05-25T16:57:23.447Z</time>
      </trkpt>
      <trkpt lat="49.005936" lon="2.211147">
        <ele>69.027059</ele>
        <time>2024-05-25T16:57:35.180Z</time>
      </trkpt>
      <trkpt lat="49.006080" lon="2.211299">
        <ele>69.224878</ele>
        <time>2024-05-25T16:57:42.823Z</time>
      </trkpt>
      <trkpt lat="49.006083" lon="2.211300">
        <ele>69.228347</ele>
        <time>2024-05-25T16:57:42.957Z</time>
      </trkpt>
      <trkpt lat="49.006248" lon="2.211393">
        <ele>69.427031</ele>
        <time>2024-05-25T16:57:50.445Z</time>
      </trkpt>
      <trkpt lat="49.006390" lon="2.211414">
        <ele>69.588162</ele>
        <time>2024-05-25T16:57:56.611Z</time>
      </trkpt>
      <trkpt lat="49.007005" lon="2.211748">
        <ele>69.869359</ele>
        <time>2024-05-25T16:58:23.118Z</time>
      </trkpt>
      <trkpt lat="49.007276" lon="2.211991">
        <ele>69.996644</ele>
        <time>2024-05-25T16:58:35.200Z</time>
      </trkpt>
      <trkpt lat="49.007381" lon="2.212104">
        <ele>70.048678</ele>
        <time>2024-05-25T16:58:40.126Z</time>
      </trkpt>
      <trkpt lat="49.007422" lon="2.212181">
        <ele>70.075015</ele>
        <time>2024-05-25T16:58:42.577Z</time>
      </trkpt>
      <trkpt lat="49.007462" lon="2.212258">
        <ele>70.101099</ele>
        <time>2024-05-25T16:58:45.026Z</time>
      </trkpt>
      <trkpt lat="49.007635" lon="2.212313">
        <ele>70.172644</ele>
        <time>2024-05-25T16:58:51.779Z</time>
      </trkpt>
      <trkpt lat="49.007829" lon="2.212470">
        <ele>70.261565</ele>
        <time>2024-05-25T16:59:00.042Z</time>
      </trkpt>
      <trkpt lat="49.007985" lon="2.212548">
        <ele>70.328031</ele>
        <time>2024-05-25T16:59:06.164Z</time>
      </trkpt>
      <trkpt lat="49.008140" lon="2.212638">
        <ele>70.318991</ele>
        <time>2024-05-25T16:59:12.277Z</time>
      </trkpt>
      <trkpt lat="49.008203" lon="2.212661">
        <ele>70.307172</ele>
        <time>2024-05-25T16:59:14.661Z</time>
      </trkpt>
      <trkpt lat="49.008349" lon="2.212784">
        <ele>70.276736</ele>
        <time>2024-05-25T16:59:20.751Z</time>
      </trkpt>
      <trkpt lat="49.008727" lon="2.213102">
        <ele>70.197964</ele>
        <time>2024-05-25T16:59:36.495Z</time>
      </trkpt>
      <trkpt lat="49.009063" lon="2.213293">
        <ele>70.132536</ele>
        <time>2024-05-25T16:59:49.629Z</time>
      </trkpt>
      <trkpt lat="49.009252" lon="2.213444">
        <ele>70.093603</ele>
        <time>2024-05-25T16:59:57.337Z</time>
      </trkpt>
      <trkpt lat="49.009562" lon="2.213665">
        <ele>70.031163</ele>
        <time>2024-05-25T17:00:09.680Z</time>
      </trkpt>
      <trkpt lat="49.009865" lon="2.213877">
        <ele>69.980990</ele>
        <time>2024-05-25T17:00:21.815Z</time>
      </trkpt>
      <trkpt lat="49.010064" lon="2.214017">
        <ele>69.950653</ele>
        <time>2024-05-25T17:00:29.815Z</time>
      </trkpt>
      <trkpt lat="49.010128" lon="2.213987">
        <ele>69.941384</ele>
        <time>2024-05-25T17:00:32.295Z</time>
      </trkpt>
      <trkpt lat="49.010220" lon="2.213999">
        <ele>69.928603</ele>
        <time>2024-05-25T17:00:35.708Z</time>
      </trkpt>
      <trkpt lat="49.010225" lon="2.213938">
        <ele>69.923021</ele>
        <time>2024-05-25T17:00:37.202Z</time>
      </trkpt>
      <trkpt lat="49.010230" lon="2.213874">
        <ele>69.917169</ele>
        <time>2024-05-25T17:00:38.736Z</time>
      </trkpt>
      <trkpt lat="49.010304" lon="2.213923">
        <ele>69.906001</ele>
        <time>2024-05-25T17:00:40.595Z</time>
      </trkpt>
      <trkpt lat="49.010545" lon="2.214087">
        <ele>69.869469</ele>
        <time>2024-05-25T17:00:46.705Z</time>
      </trkpt>
      <trkpt lat="49.010599" lon="2.214128">
        <ele>69.861118</ele>
        <time>2024-05-25T17:00:48.062Z</time>
      </trkpt>
      <trkpt lat="49.012005" lon="2.215184">
        <ele>70.074059</ele>
        <time>2024-05-25T17:01:23.682Z</time>
      </trkpt>
      <trkpt lat="49.012018" lon="2.215120">
        <ele>70.089526</ele>
        <time>2024-05-25T17:01:24.769Z</time>
      </trkpt>
      <trkpt lat="49.012201" lon="2.214672">
        <ele>70.211360</ele>
        <time>2024-05-25T17:01:34.073Z</time>
      </trkpt>
      <trkpt lat="49.012292" lon="2.214499">
        <ele>70.262552</ele>
        <time>2024-05-25T17:01:38.055Z</time>
      </trkpt>
      <trkpt lat="49.012324" lon="2.214431">
        <ele>70.281872</ele>
        <time>2024-05-25T17:01:39.577Z</time>
      </trkpt>
      <trkpt lat="49.012422" lon="2.214786">
        <ele>70.370784</ele>
        <time>2024-05-25T17:01:46.672Z</time>
      </trkpt>
      <trkpt lat="49.012513" lon="2.214898">
        <ele>70.433242</ele>
        <time>2024-05-25T17:01:50.041Z</time>
      </trkpt>
      <trkpt lat="49.013807" lon="2.215936">
        <ele>71.765854</ele>
        <time>2024-05-25T17:02:31.327Z</time>
      </trkpt>
      <trkpt lat="49.014963" lon="2.215844">
        <ele>72.156898</ele>
        <time>2024-05-25T17:03:01.656Z</time>
      </trkpt>
      <trkpt lat="49.015478" lon="2.215603">
        <ele>72.231562</ele>
        <time>2024-05-25T17:03:13.858Z</time>
      </trkpt>
      <trkpt lat="49.015768" lon="2.215391">
        <ele>72.276136</ele>
        <time>2024-05-25T17:03:20.909Z</time>
      </trkpt>
      <trkpt lat="49.016022" lon="2.215147">
        <ele>72.153468</ele>
        <time>2024-05-25T17:03:27.447Z</time>
      </trkpt>
      <trkpt lat="49.016304" lon="2.214395">
        <ele>71.810001</ele>
        <time>2024-05-25T17:03:39.763Z</time>
      </trkpt>
      <trkpt lat="49.016371" lon="2.214373">
        <ele>71.768567</ele>
        <time>2024-05-25T17:03:41.194Z</time>
      </trkpt>
      <trkpt lat="49.016823" lon="2.214104">
        <ele>71.475228</ele>
        <time>2024-05-25T17:03:51.537Z</time>
      </trkpt>
      <trkpt lat="49.016950" lon="2.214111">
        <ele>71.398399</ele>
        <time>2024-05-25T17:03:54.284Z</time>
      </trkpt>
      <trkpt lat="49.017746" lon="2.213497">
        <ele>71.093076</ele>
        <time>2024-05-25T17:04:13.514Z</time>
      </trkpt>
      <trkpt lat="49.017844" lon="2.213418">
        <ele>71.072094</ele>
        <time>2024-05-25T17:04:15.856Z</time>
      </trkpt>
      <trkpt lat="49.018716" lon="2.212792">
        <ele>70.889669</ele>
        <time>2024-05-25T17:04:38.014Z</time>
      </trkpt>
      <trkpt lat="49.018831" lon="2.212708">
        <ele>70.865533</ele>
        <time>2024-05-25T17:04:40.866Z</time>
      </trkpt>
      <trkpt lat="49.018835" lon="2.212538">
        <ele>70.933063</ele>
        <time>2024-05-25T17:04:44.521Z</time>
      </trkpt>
      <trkpt lat="49.018826" lon="2.212514">
        <ele>70.950102</ele>
        <time>2024-05-25T17:04:45.131Z</time>
      </trkpt>
      <trkpt lat="49.018861" lon="2.212454">
        <ele>70.999593</ele>
        <time>2024-05-25T17:04:46.733Z</time>
      </trkpt>
      <trkpt lat="49.018889" lon="2.212407">
        <ele>71.038728</ele>
        <time>2024-05-25T17:04:47.978Z</time>
      </trkpt>
      <trkpt lat="49.018898" lon="2.212393">
        <ele>71.050810</ele>
        <time>2024-05-25T17:04:48.363Z</time>
      </trkpt>
      <trkpt lat="49.018968" lon="2.212384">
        <ele>71.116829</ele>
        <time>2024-05-25T17:04:50.542Z</time>
      </trkpt>
      <trkpt lat="49.019006" lon="2.212424">
        <ele>71.160223</ele>
        <time>2024-05-25T17:04:51.939Z</time>
      </trkpt>
      <trkpt lat="49.019056" lon="2.212470">
        <ele>71.215102</ele>
        <time>2024-05-25T17:04:53.995Z</time>
      </trkpt>
      <trkpt lat="49.019075" lon="2.212489">
        <ele>71.236455</ele>
        <time>2024-05-25T17:04:54.795Z</time>
      </trkpt>
      <trkpt lat="49.019110" lon="2.212501">
        <ele>71.270169</ele>
        <time>2024-05-25T17:04:55.795Z</time>
      </trkpt>
      <trkpt lat="49.019955" lon="2.211889">
        <ele>72.149309</ele>
        <time>2024-05-25T17:05:21.810Z</time>
      </trkpt>
      <trkpt lat="49.020065" lon="2.211860">
        <ele>72.254219</ele>
        <time>2024-05-25T17:05:25.185Z</time>
      </trkpt>
      <trkpt lat="49.020149" lon="2.211897">
        <ele>72.336388</ele>
        <time>2024-05-25T17:05:27.897Z</time>
      </trkpt>
      <trkpt lat="49.020219" lon="2.211988">
        <ele>72.422834</ele>
        <time>2024-05-25T17:05:30.491Z</time>
      </trkpt>
      <trkpt lat="49.020337" lon="2.211971">
        <ele>72.534223</ele>
        <time>2024-05-25T17:05:34.034Z</time>
      </trkpt>
      <trkpt lat="49.020559" lon="2.211851">
        <ele>72.799691</ele>
        <time>2024-05-25T17:05:41.187Z</time>
      </trkpt>
      <trkpt lat="49.020802" lon="2.211535">
        <ele>73.164110</ele>
        <time>2024-05-25T17:05:50.391Z</time>
      </trkpt>
      <trkpt lat="49.020868" lon="2.211410">
        <ele>73.284199</ele>
        <time>2024-05-25T17:05:53.310Z</time>
      </trkpt>
      <trkpt lat="49.021123" lon="2.211225">
        <ele>73.606427</ele>
        <time>2024-05-25T17:06:01.519Z</time>
      </trkpt>
      <trkpt lat="49.021254" lon="2.211141">
        <ele>73.768587</ele>
        <time>2024-05-25T17:06:05.468Z</time>
      </trkpt>
      <trkpt lat="49.021386" lon="2.211192">
        <ele>73.923970</ele>
        <time>2024-05-25T17:06:09.343Z</time>
      </trkpt>
      <trkpt lat="49.021455" lon="2.211231">
        <ele>74.007939</ele>
        <time>2024-05-25T17:06:11.575Z</time>
      </trkpt>
      <trkpt lat="49.021472" lon="2.211177">
        <ele>74.052762</ele>
        <time>2024-05-25T17:06:12.616Z</time>
      </trkpt>
      <trkpt lat="49.021564" lon="2.210942">
        <ele>74.257563</ele>
        <time>2024-05-25T17:06:17.736Z</time>
      </trkpt>
      <trkpt lat="49.021672" lon="2.210806">
        <ele>74.417388</ele>
        <time>2024-05-25T17:06:21.746Z</time>
      </trkpt>
      <trkpt lat="49.022063" lon="2.210692">
        <ele>74.803052</ele>
        <time>2024-05-25T17:06:32.274Z</time>
      </trkpt>
      <trkpt lat="49.022298" lon="2.210497">
        <ele>75.030685</ele>
        <time>2024-05-25T17:06:39.677Z</time>
      </trkpt>
      <trkpt lat="49.022392" lon="2.210304">
        <ele>75.164821</ele>
        <time>2024-05-25T17:06:43.973Z</time>
      </trkpt>
      <trkpt lat="49.022788" lon="2.210000">
        <ele>75.542039</ele>
        <time>2024-05-25T17:06:56.567Z</time>
      </trkpt>
      <trkpt lat="49.023031" lon="2.209744">
        <ele>75.793333</ele>
        <time>2024-05-25T17:07:04.848Z</time>
      </trkpt>
      <trkpt lat="49.023299" lon="2.210143">
        <ele>76.112009</ele>
        <time>2024-05-25T17:07:14.922Z</time>
      </trkpt>
      <trkpt lat="49.023322" lon="2.210178">
        <ele>76.137868</ele>
        <time>2024-05-25T17:07:15.822Z</time>
      </trkpt>
      <trkpt lat="49.023357" lon="2.210230">
        <ele>76.169247</ele>
        <time>2024-05-25T17:07:17.105Z</time>
      </trkpt>
      <trkpt lat="49.023376" lon="2.210258">
        <ele>76.186215</ele>
        <time>2024-05-25T17:07:17.794Z</time>
      </trkpt>
      <trkpt lat="49.023573" lon="2.210550">
        <ele>76.362636</ele>
        <time>2024-05-25T17:07:24.677Z</time>
      </trkpt>
      <trkpt lat="49.023597" lon="2.210586">
        <ele>76.384254</ele>
        <time>2024-05-25T17:07:25.542Z</time>
      </trkpt>
      <trkpt lat="49.023649" lon="2.210662">
        <ele>76.430508</ele>
        <time>2024-05-25T17:07:27.807Z</time>
      </trkpt>
      <trkpt lat="49.023739" lon="2.210846">
        <ele>76.527172</ele>
        <time>2024-05-25T17:07:32.511Z</time>
      </trkpt>
      <trkpt lat="49.023873" lon="2.211096">
        <ele>76.663142</ele>
        <time>2024-05-25T17:07:39.383Z</time>
      </trkpt>
      <trkpt lat="49.023981" lon="2.211308">
        <ele>76.776191</ele>
        <time>2024-05-25T17:07:44.991Z</time>
      </trkpt>
      <trkpt lat="49.024104" lon="2.211526">
        <ele>76.897295</ele>
        <time>2024-05-25T17:07:50.131Z</time>
      </trkpt>
      <trkpt lat="49.024191" lon="2.211681">
        <ele>76.983212</ele>
        <time>2024-05-25T17:07:53.774Z</time>
      </trkpt>
      <trkpt lat="49.024552" lon="2.212297">
        <ele>77.345670</ele>
        <time>2024-05-25T17:08:08.269Z</time>
      </trkpt>
      <trkpt lat="49.024770" lon="2.212630">
        <ele>77.609863</ele>
        <time>2024-05-25T17:08:16.233Z</time>
      </trkpt>
      <trkpt lat="49.024810" lon="2.212691">
        <ele>77.658299</ele>
        <time>2024-05-25T17:08:17.689Z</time>
      </trkpt>
      <trkpt lat="49.025043" lon="2.213053">
        <ele>77.943100</ele>
        <time>2024-05-25T17:08:26.333Z</time>
      </trkpt>
      <trkpt lat="49.025408" lon="2.213789">
        <ele>78.461205</ele>
        <time>2024-05-25T17:08:42.534Z</time>
      </trkpt>
      <trkpt lat="49.025469" lon="2.213913">
        <ele>78.548239</ele>
        <time>2024-05-25T17:08:45.473Z</time>
      </trkpt>
      <trkpt lat="49.025509" lon="2.213854">
        <ele>78.595887</ele>
        <time>2024-05-25T17:08:47.141Z</time>
      </trkpt>
      <trkpt lat="49.025528" lon="2.213742">
        <ele>78.660840</ele>
        <time>2024-05-25T17:08:49.397Z</time>
      </trkpt>
      <trkpt lat="49.025934" lon="2.213165">
        <ele>79.436712</ele>
        <time>2024-05-25T17:09:06.182Z</time>
      </trkpt>
      <trkpt lat="49.026026" lon="2.213265">
        <ele>79.627719</ele>
        <time>2024-05-25T17:09:09.595Z</time>
      </trkpt>
      <trkpt lat="49.026394" lon="2.213815">
        <ele>80.498849</ele>
        <time>2024-05-25T17:09:25.791Z</time>
      </trkpt>
      <trkpt lat="49.026477" lon="2.213939">
        <ele>80.695288</ele>
        <time>2024-05-25T17:09:29.845Z</time>
      </trkpt>
      <trkpt lat="49.026625" lon="2.214160">
        <ele>81.045480</ele>
        <time>2024-05-25T17:09:36.644Z</time>
      </trkpt>
      <trkpt lat="49.026893" lon="2.214560">
        <ele>81.679465</ele>
        <time>2024-05-25T17:09:49.014Z</time>
      </trkpt>
      <trkpt lat="49.026950" lon="2.214584">
        <ele>81.779439</ele>
        <time>2024-05-25T17:09:50.980Z</time>
      </trkpt>
      <trkpt lat="49.027031" lon="2.214684">
        <ele>81.955803</ele>
        <time>2024-05-25T17:09:54.509Z</time>
      </trkpt>
      <trkpt lat="49.027207" lon="2.214900">
        <ele>82.338497</ele>
        <time>2024-05-25T17:10:01.669Z</time>
      </trkpt>
      <trkpt lat="49.027434" lon="2.215208">
        <ele>82.853195</ele>
        <time>2024-05-25T17:10:11.486Z</time>
      </trkpt>
      <trkpt lat="49.027618" lon="2.215411">
        <ele>83.237901</ele>
        <time>2024-05-25T17:10:19.044Z</time>
      </trkpt>
      <trkpt lat="49.027759" lon="2.215684">
        <ele>83.623911</ele>
        <time>2024-05-25T17:10:26.319Z</time>
      </trkpt>
      <trkpt lat="49.028061" lon="2.216059">
        <ele>84.283626</ele>
        <time>2024-05-25T17:10:38.495Z</time>
      </trkpt>
      <trkpt lat="49.028340" lon="2.216430">
        <ele>84.910677</ele>
        <time>2024-05-25T17:10:49.886Z</time>
      </trkpt>
      <trkpt lat="49.028360" lon="2.216457">
        <ele>84.935015</ele>
        <time>2024-05-25T17:10:50.692Z</time>
      </trkpt>
      <trkpt lat="49.028476" lon="2.216604">
        <ele>85.058927</ele>
        <time>2024-05-25T17:10:55.014Z</time>
      </trkpt>
      <trkpt lat="49.028567" lon="2.216510">
        <ele>85.149227</ele>
        <time>2024-05-25T17:10:58.345Z</time>
      </trkpt>
      <trkpt lat="49.028602" lon="2.216532">
        <ele>85.180330</ele>
        <time>2024-05-25T17:10:59.485Z</time>
      </trkpt>
      <trkpt lat="49.029153" lon="2.216003">
        <ele>85.715258</ele>
        <time>2024-05-25T17:11:16.506Z</time>
      </trkpt>
      <trkpt lat="49.030385" lon="2.214803">
        <ele>86.336367</ele>
        <time>2024-05-25T17:11:52.690Z</time>
      </trkpt>
      <trkpt lat="49.030614" lon="2.214649">
        <ele>86.314076</ele>
        <time>2024-05-25T17:11:58.588Z</time>
      </trkpt>
      <trkpt lat="49.030690" lon="2.214574">
        <ele>86.306014</ele>
        <time>2024-05-25T17:12:01.861Z</time>
      </trkpt>
      <trkpt lat="49.030885" lon="2.214429">
        <ele>86.286691</ele>
        <time>2024-05-25T17:12:09.784Z</time>
      </trkpt>
      <trkpt lat="49.031430" lon="2.213874">
        <ele>86.169152</ele>
        <time>2024-05-25T17:12:32.909Z</time>
      </trkpt>
      <trkpt lat="49.031451" lon="2.213970">
        <ele>86.086559</ele>
        <time>2024-05-25T17:12:34.748Z</time>
      </trkpt>
      <trkpt lat="49.031499" lon="2.214093">
        <ele>85.969742</ele>
        <time>2024-05-25T17:12:36.687Z</time>
      </trkpt>
      <trkpt lat="49.031651" lon="2.214411">
        <ele>85.648571</ele>
        <time>2024-05-25T17:12:42.059Z</time>
      </trkpt>
      <trkpt lat="49.031679" lon="2.213975">
        <ele>85.291044</ele>
        <time>2024-05-25T17:12:47.881Z</time>
      </trkpt>
      <trkpt lat="49.031722" lon="2.213905">
        <ele>85.212759</ele>
        <time>2024-05-25T17:12:49.195Z</time>
      </trkpt>
      <trkpt lat="49.031743" lon="2.213854">
        <ele>85.163610</ele>
        <time>2024-05-25T17:12:49.980Z</time>
      </trkpt>
      <trkpt lat="49.032555" lon="2.213049">
        <ele>83.958243</ele>
        <time>2024-05-25T17:13:09.187Z</time>
      </trkpt>
      <trkpt lat="49.033721" lon="2.211954">
        <ele>82.259439</ele>
        <time>2024-05-25T17:13:55.458Z</time>
      </trkpt>
      <trkpt lat="49.033770" lon="2.211939">
        <ele>82.197435</ele>
        <time>2024-05-25T17:13:57.143Z</time>
      </trkpt>
      <trkpt lat="49.033826" lon="2.211979">
        <ele>82.120718</ele>
        <time>2024-05-25T17:13:59.286Z</time>
      </trkpt>
      <trkpt lat="49.033940" lon="2.212288">
        <ele>81.832320</ele>
        <time>2024-05-25T17:14:07.442Z</time>
      </trkpt>
      <trkpt lat="49.033968" lon="2.212358">
        <ele>81.765622</ele>
        <time>2024-05-25T17:14:09.292Z</time>
      </trkpt>
      <trkpt lat="49.034168" lon="2.212154">
        <ele>81.544396</ele>
        <time>2024-05-25T17:14:14.195Z</time>
      </trkpt>
      <trkpt lat="49.034213" lon="2.212049">
        <ele>81.469052</ele>
        <time>2024-05-25T17:14:15.835Z</time>
      </trkpt>
      <trkpt lat="49.034586" lon="2.211786">
        <ele>81.092594</ele>
        <time>2024-05-25T17:14:24.044Z</time>
      </trkpt>
      <trkpt lat="49.034513" lon="2.211529">
        <ele>80.924371</ele>
        <time>2024-05-25T17:14:27.800Z</time>
      </trkpt>
      <trkpt lat="49.034753" lon="2.211333">
        <ele>80.674970</ele>
        <time>2024-05-25T17:14:33.358Z</time>
      </trkpt>
      <trkpt lat="49.034795" lon="2.211356">
        <ele>80.634088</ele>
        <time>2024-05-25T17:14:34.274Z</time>
      </trkpt>
      <trkpt lat="49.034853" lon="2.211372">
        <ele>80.580091</ele>
        <time>2024-05-25T17:14:35.514Z</time>
      </trkpt>
      <trkpt lat="49.035042" lon="2.211231">
        <ele>80.387343</ele>
        <time>2024-05-25T17:14:39.846Z</time>
      </trkpt>
      <trkpt lat="49.035023" lon="2.211184">
        <ele>80.354180</ele>
        <time>2024-05-25T17:14:40.582Z</time>
      </trkpt>
      <trkpt lat="49.035572" lon="2.210765">
        <ele>79.991931</ele>
        <time>2024-05-25T17:14:52.629Z</time>
      </trkpt>
      <trkpt lat="49.035606" lon="2.210683">
        <ele>79.969771</ele>
        <time>2024-05-25T17:14:53.937Z</time>
      </trkpt>
      <trkpt lat="49.035783" lon="2.210545">
        <ele>79.900518</ele>
        <time>2024-05-25T17:14:57.993Z</time>
      </trkpt>
      <trkpt lat="49.035855" lon="2.210485">
        <ele>79.871935</ele>
        <time>2024-05-25T17:14:59.687Z</time>
      </trkpt>
      <trkpt lat="49.035867" lon="2.210472">
        <ele>79.866807</ele>
        <time>2024-05-25T17:15:00.006Z</time>
      </trkpt>
      <trkpt lat="49.035895" lon="2.210429">
        <ele>79.852964</ele>
        <time>2024-05-25T17:15:00.853Z</time>
      </trkpt>
      <trkpt lat="49.035889" lon="2.210384">
        <ele>79.842476</ele>
        <time>2024-05-25T17:15:01.503Z</time>
      </trkpt>
      <trkpt lat="49.035897" lon="2.210306">
        <ele>79.824444</ele>
        <time>2024-05-25T17:15:02.603Z</time>
      </trkpt>
      <trkpt lat="49.036000" lon="2.210119">
        <ele>79.768660</ele>
        <time>2024-05-25T17:15:05.935Z</time>
      </trkpt>
      <trkpt lat="49.036062" lon="2.210012">
        <ele>79.736044</ele>
        <time>2024-05-25T17:15:07.947Z</time>
      </trkpt>
      <trkpt lat="49.036109" lon="2.209931">
        <ele>79.711338</ele>
        <time>2024-05-25T17:15:09.554Z</time>
      </trkpt>
      <trkpt lat="49.036180" lon="2.209846">
        <ele>79.679894</ele>
        <time>2024-05-25T17:15:11.420Z</time>
      </trkpt>
      <trkpt lat="49.036302" lon="2.209742">
        <ele>79.631203</ele>
        <time>2024-05-25T17:15:14.414Z</time>
      </trkpt>
      <trkpt lat="49.036325" lon="2.209722">
        <ele>79.621980</ele>
        <time>2024-05-25T17:15:14.986Z</time>
      </trkpt>
      <trkpt lat="49.036347" lon="2.209693">
        <ele>79.611850</ele>
        <time>2024-05-25T17:15:15.644Z</time>
      </trkpt>
      <trkpt lat="49.036418" lon="2.209668">
        <ele>79.586464</ele>
        <time>2024-05-25T17:15:17.333Z</time>
      </trkpt>
      <trkpt lat="49.036416" lon="2.209627">
        <ele>79.577074</ele>
        <time>2024-05-25T17:15:17.912Z</time>
      </trkpt>
      <trkpt lat="49.036407" lon="2.209539">
        <ele>79.556731</ele>
        <time>2024-05-25T17:15:19.175Z</time>
      </trkpt>
      <trkpt lat="49.036386" lon="2.209468">
        <ele>79.538941</ele>
        <time>2024-05-25T17:15:20.358Z</time>
      </trkpt>
      <trkpt lat="49.036455" lon="2.209388">
        <ele>79.508747</ele>
        <time>2024-05-25T17:15:22.457Z</time>
      </trkpt>
      <trkpt lat="49.036559" lon="2.209250">
        <ele>79.576664</ele>
        <time>2024-05-25T17:15:25.967Z</time>
      </trkpt>
      <trkpt lat="49.036548" lon="2.209173">
        <ele>79.634823</ele>
        <time>2024-05-25T17:15:27.268Z</time>
      </trkpt>
      <trkpt lat="49.036583" lon="2.209129">
        <ele>79.685880</ele>
        <time>2024-05-25T17:15:28.437Z</time>
      </trkpt>
      <trkpt lat="49.037449" lon="2.208173">
        <ele>80.889263</ele>
        <time>2024-05-25T17:15:59.034Z</time>
      </trkpt>
      <trkpt lat="49.037843" lon="2.207608">
        <ele>81.498013</ele>
        <time>2024-05-25T17:16:16.042Z</time>
      </trkpt>
      <trkpt lat="49.038274" lon="2.206972">
        <ele>82.538216</ele>
        <time>2024-05-25T17:16:35.124Z</time>
      </trkpt>
      <trkpt lat="49.038543" lon="2.206437">
        <ele>83.311000</ele>
        <time>2024-05-25T17:16:49.478Z</time>
      </trkpt>
      <trkpt lat="49.038694" lon="2.206122">
        <ele>83.758263</ele>
        <time>2024-05-25T17:16:57.638Z</time>
      </trkpt>
      <trkpt lat="49.038767" lon="2.205967">
        <ele>83.977009</ele>
        <time>2024-05-25T17:17:01.700Z</time>
      </trkpt>
      <trkpt lat="49.039198" lon="2.205439">
        <ele>84.891114</ele>
        <time>2024-05-25T17:17:19.149Z</time>
      </trkpt>
      <trkpt lat="49.039200" lon="2.205294">
        <ele>85.026896</ele>
        <time>2024-05-25T17:17:22.103Z</time>
      </trkpt>
      <trkpt lat="49.039272" lon="2.205035">
        <ele>85.290280</ele>
        <time>2024-05-25T17:17:28.120Z</time>
      </trkpt>
      <trkpt lat="49.039444" lon="2.204732">
        <ele>85.665530</ele>
        <time>2024-05-25T17:17:36.623Z</time>
      </trkpt>
      <trkpt lat="49.039596" lon="2.204568">
        <ele>85.931422</ele>
        <time>2024-05-25T17:17:42.715Z</time>
      </trkpt>
      <trkpt lat="49.040587" lon="2.202540">
        <ele>87.561428</ele>
        <time>2024-05-25T17:18:30.054Z</time>
      </trkpt>
      <trkpt lat="49.040709" lon="2.202291">
        <ele>87.652299</ele>
        <time>2024-05-25T17:18:34.980Z</time>
      </trkpt>
      <trkpt lat="49.040780" lon="2.202145">
        <ele>87.705438</ele>
        <time>2024-05-25T17:18:38.009Z</time>
      </trkpt>
      <trkpt lat="49.040880" lon="2.201858">
        <ele>87.800447</ele>
        <time>2024-05-25T17:18:43.009Z</time>
      </trkpt>
      <trkpt lat="49.041305" lon="2.201021">
        <ele>87.988006</ele>
        <time>2024-05-25T17:18:58.827Z</time>
      </trkpt>
      <trkpt lat="49.041357" lon="2.201065">
        <ele>87.974866</ele>
        <time>2024-05-25T17:19:00.187Z</time>
      </trkpt>
      <trkpt lat="49.041393" lon="2.201072">
        <ele>87.966847</ele>
        <time>2024-05-25T17:19:01.011Z</time>
      </trkpt>
      <trkpt lat="49.041498" lon="2.200836">
        <ele>87.925532</ele>
        <time>2024-05-25T17:19:05.126Z</time>
      </trkpt>
      <trkpt lat="49.041921" lon="2.200115">
        <ele>87.785375</ele>
        <time>2024-05-25T17:19:18.968Z</time>
      </trkpt>
      <trkpt lat="49.041963" lon="2.199984">
        <ele>87.764252</ele>
        <time>2024-05-25T17:19:21.118Z</time>
      </trkpt>
      <trkpt lat="49.042094" lon="2.199650">
        <ele>87.707873</ele>
        <time>2024-05-25T17:19:26.863Z</time>
      </trkpt>
      <trkpt lat="49.042187" lon="2.199497">
        <ele>87.677649</ele>
        <time>2024-05-25T17:19:30.011Z</time>
      </trkpt>
      <trkpt lat="49.042296" lon="2.199421">
        <ele>87.651167</ele>
        <time>2024-05-25T17:19:32.756Z</time>
      </trkpt>
      <trkpt lat="49.042475" lon="2.199156">
        <ele>87.694170</ele>
        <time>2024-05-25T17:19:38.694Z</time>
      </trkpt>
      <trkpt lat="49.042443" lon="2.199041">
        <ele>87.726946</ele>
        <time>2024-05-25T17:19:40.580Z</time>
      </trkpt>
      <trkpt lat="49.042433" lon="2.198918">
        <ele>87.759462</ele>
        <time>2024-05-25T17:19:42.463Z</time>
      </trkpt>
      <trkpt lat="49.042455" lon="2.198850">
        <ele>87.779356</ele>
        <time>2024-05-25T17:19:43.697Z</time>
      </trkpt>
      <trkpt lat="49.042977" lon="2.198260">
        <ele>88.039368</ele>
        <time>2024-05-25T17:19:59.764Z</time>
      </trkpt>
      <trkpt lat="49.043745" lon="2.197679">
        <ele>88.424570</ele>
        <time>2024-05-25T17:20:22.073Z</time>
      </trkpt>
      <trkpt lat="49.044169" lon="2.197475">
        <ele>88.839333</ele>
        <time>2024-05-25T17:20:34.746Z</time>
      </trkpt>
      <trkpt lat="49.044305" lon="2.197427">
        <ele>88.969561</ele>
        <time>2024-05-25T17:20:38.697Z</time>
      </trkpt>
      <trkpt lat="49.044798" lon="2.197294">
        <ele>89.436626</ele>
        <time>2024-05-25T17:20:53.598Z</time>
      </trkpt>
      <trkpt lat="49.045813" lon="2.197182">
        <ele>89.966404</ele>
        <time>2024-05-25T17:21:21.174Z</time>
      </trkpt>
      <trkpt lat="49.045923" lon="2.197179">
        <ele>89.948471</ele>
        <time>2024-05-25T17:21:23.856Z</time>
      </trkpt>
      <trkpt lat="49.046089" lon="2.197269">
        <ele>89.919756</ele>
        <time>2024-05-25T17:21:28.069Z</time>
      </trkpt>
      <trkpt lat="49.046226" lon="2.197260">
        <ele>89.897405</ele>
        <time>2024-05-25T17:21:33.172Z</time>
      </trkpt>
      <trkpt lat="49.046350" lon="2.197251">
        <ele>89.877171</ele>
        <time>2024-05-25T17:21:37.756Z</time>
      </trkpt>
      <trkpt lat="49.046401" lon="2.197191">
        <ele>89.866674</ele>
        <time>2024-05-25T17:21:40.115Z</time>
      </trkpt>
      <trkpt lat="49.046457" lon="2.197173">
        <ele>89.857346</ele>
        <time>2024-05-25T17:21:42.203Z</time>
      </trkpt>
      <trkpt lat="49.046513" lon="2.197188">
        <ele>89.848078</ele>
        <time>2024-05-25T17:21:44.294Z</time>
      </trkpt>
      <trkpt lat="49.046967" lon="2.197099">
        <ele>89.773470</ele>
        <time>2024-05-25T17:21:54.266Z</time>
      </trkpt>
      <trkpt lat="49.047869" lon="2.197046">
        <ele>89.004449</ele>
        <time>2024-05-25T17:22:12.402Z</time>
      </trkpt>
      <trkpt lat="49.048470" lon="2.196918">
        <ele>88.342778</ele>
        <time>2024-05-25T17:22:24.585Z</time>
      </trkpt>
      <trkpt lat="49.048993" lon="2.196722">
        <ele>87.781057</ele>
        <time>2024-05-25T17:22:35.812Z</time>
      </trkpt>
      <trkpt lat="49.050161" lon="2.196201">
        <ele>88.246141</ele>
        <time>2024-05-25T17:23:04.720Z</time>
      </trkpt>
      <trkpt lat="49.050657" lon="2.195901">
        <ele>88.450058</ele>
        <time>2024-05-25T17:23:20.519Z</time>
      </trkpt>
      <trkpt lat="49.050687" lon="2.195898">
        <ele>88.461549</ele>
        <time>2024-05-25T17:23:21.444Z</time>
      </trkpt>
      <trkpt lat="49.050831" lon="2.196034">
        <ele>88.544079</ele>
        <time>2024-05-25T17:23:26.511Z</time>
      </trkpt>
      <trkpt lat="49.050916" lon="2.195968">
        <ele>88.590606</ele>
        <time>2024-05-25T17:23:29.508Z</time>
      </trkpt>
      <trkpt lat="49.051077" lon="2.195828">
        <ele>88.681007</ele>
        <time>2024-05-25T17:23:35.092Z</time>
      </trkpt>
      <trkpt lat="49.051130" lon="2.195755">
        <ele>88.715839</ele>
        <time>2024-05-25T17:23:37.248Z</time>
      </trkpt>
      <trkpt lat="49.051067" lon="2.195589">
        <ele>88.777169</ele>
        <time>2024-05-25T17:23:41.179Z</time>
      </trkpt>
      <trkpt lat="49.051522" lon="2.195101">
        <ele>89.048485</ele>
        <time>2024-05-25T17:23:55.690Z</time>
      </trkpt>
      <trkpt lat="49.052148" lon="2.194140">
        <ele>88.847852</ele>
        <time>2024-05-25T17:24:14.340Z</time>
      </trkpt>
      <trkpt lat="49.053418" lon="2.192063">
        <ele>85.145196</ele>
        <time>2024-05-25T17:24:50.136Z</time>
      </trkpt>
      <trkpt lat="49.053409" lon="2.192015">
        <ele>85.037750</ele>
        <time>2024-05-25T17:24:50.705Z</time>
      </trkpt>
      <trkpt lat="49.053329" lon="2.191547">
        <ele>83.996862</ele>
        <time>2024-05-25T17:24:56.133Z</time>
      </trkpt>
      <trkpt lat="49.053324" lon="2.191464">
        <ele>83.817483</ele>
        <time>2024-05-25T17:24:57.067Z</time>
      </trkpt>
      <trkpt lat="49.053323" lon="2.191336">
        <ele>83.541993</ele>
        <time>2024-05-25T17:24:58.552Z</time>
      </trkpt>
      <trkpt lat="49.053470" lon="2.190241">
        <ele>81.136495</ele>
        <time>2024-05-25T17:25:10.809Z</time>
      </trkpt>
      <trkpt lat="49.053514" lon="2.190273">
        <ele>80.976431</ele>
        <time>2024-05-25T17:25:11.667Z</time>
      </trkpt>
      <trkpt lat="49.053849" lon="2.190449">
        <ele>79.533917</ele>
        <time>2024-05-25T17:25:17.728Z</time>
      </trkpt>
      <trkpt lat="49.054077" lon="2.190472">
        <ele>78.429292</ele>
        <time>2024-05-25T17:25:21.565Z</time>
      </trkpt>
      <trkpt lat="49.054210" lon="2.190422">
        <ele>77.767106</ele>
        <time>2024-05-25T17:25:23.881Z</time>
      </trkpt>
      <trkpt lat="49.054692" lon="2.190163">
        <ele>75.296724</ele>
        <time>2024-05-25T17:25:32.317Z</time>
      </trkpt>
      <trkpt lat="49.054991" lon="2.190043">
        <ele>73.802113</ele>
        <time>2024-05-25T17:25:37.447Z</time>
      </trkpt>
      <trkpt lat="49.055160" lon="2.189976">
        <ele>72.957995</ele>
        <time>2024-05-25T17:25:40.345Z</time>
      </trkpt>
      <trkpt lat="49.055706" lon="2.189897">
        <ele>70.642895</ele>
        <time>2024-05-25T17:25:49.465Z</time>
      </trkpt>
      <trkpt lat="49.056408" lon="2.189926">
        <ele>68.062136</ele>
        <time>2024-05-25T17:26:01.432Z</time>
      </trkpt>
      <trkpt lat="49.056558" lon="2.189852">
        <ele>67.482803</ele>
        <time>2024-05-25T17:26:04.263Z</time>
      </trkpt>
      <trkpt lat="49.056859" lon="2.189508">
        <ele>66.100815</ele>
        <time>2024-05-25T17:26:11.271Z</time>
      </trkpt>
      <trkpt lat="49.057022" lon="2.189290">
        <ele>65.304299</ele>
        <time>2024-05-25T17:26:15.391Z</time>
      </trkpt>
      <trkpt lat="49.057142" lon="2.189190">
        <ele>64.895173</ele>
        <time>2024-05-25T17:26:18.021Z</time>
      </trkpt>
      <trkpt lat="49.057330" lon="2.189110">
        <ele>64.403303</ele>
        <time>2024-05-25T17:26:21.733Z</time>
      </trkpt>
      <trkpt lat="49.057558" lon="2.189077">
        <ele>63.826123</ele>
        <time>2024-05-25T17:26:25.973Z</time>
      </trkpt>
      <trkpt lat="49.057743" lon="2.189168">
        <ele>63.336267</ele>
        <time>2024-05-25T17:26:29.539Z</time>
      </trkpt>
      <trkpt lat="49.057890" lon="2.189309">
        <ele>62.898697</ele>
        <time>2024-05-25T17:26:32.692Z</time>
      </trkpt>
      <trkpt lat="49.058026" lon="2.189564">
        <ele>62.355725</ele>
        <time>2024-05-25T17:26:36.672Z</time>
      </trkpt>
      <trkpt lat="49.058055" lon="2.189636">
        <ele>62.216155</ele>
        <time>2024-05-25T17:26:37.702Z</time>
      </trkpt>
      <trkpt lat="49.058167" lon="2.189505">
        <ele>61.860523</ele>
        <time>2024-05-25T17:26:40.205Z</time>
      </trkpt>
      <trkpt lat="49.058352" lon="2.189247">
        <ele>61.228927</ele>
        <time>2024-05-25T17:26:44.680Z</time>
      </trkpt>
      <trkpt lat="49.058472" lon="2.189091">
        <ele>60.831649</ele>
        <time>2024-05-25T17:26:47.511Z</time>
      </trkpt>
      <trkpt lat="49.058509" lon="2.189054">
        <ele>60.720165</ele>
        <time>2024-05-25T17:26:48.292Z</time>
      </trkpt>
      <trkpt lat="49.058607" lon="2.188961">
        <ele>60.368207</ele>
        <time>2024-05-25T17:26:50.384Z</time>
      </trkpt>
      <trkpt lat="49.058800" lon="2.188713">
        <ele>59.447922</ele>
        <time>2024-05-25T17:26:54.889Z</time>
      </trkpt>
      <trkpt lat="49.059010" lon="2.188484">
        <ele>58.506490</ele>
        <time>2024-05-25T17:26:59.450Z</time>
      </trkpt>
      <trkpt lat="49.059125" lon="2.188419">
        <ele>58.059183</ele>
        <time>2024-05-25T17:27:01.547Z</time>
      </trkpt>
      <trkpt lat="49.059274" lon="2.188433">
        <ele>57.514679</ele>
        <time>2024-05-25T17:27:04.059Z</time>
      </trkpt>
      <trkpt lat="49.059411" lon="2.188492">
        <ele>56.995458</ele>
        <time>2024-05-25T17:27:06.414Z</time>
      </trkpt>
      <trkpt lat="49.060024" lon="2.188982">
        <ele>54.471402</ele>
        <time>2024-05-25T17:27:17.570Z</time>
      </trkpt>
      <trkpt lat="49.060391" lon="2.189145">
        <ele>52.856051</ele>
        <time>2024-05-25T17:27:23.736Z</time>
      </trkpt>
      <trkpt lat="49.060625" lon="2.189211">
        <ele>51.781256</ele>
        <time>2024-05-25T17:27:27.585Z</time>
      </trkpt>
      <trkpt lat="49.060871" lon="2.189220">
        <ele>50.669841</ele>
        <time>2024-05-25T17:27:31.564Z</time>
      </trkpt>
      <trkpt lat="49.061087" lon="2.189171">
        <ele>49.683526</ele>
        <time>2024-05-25T17:27:35.090Z</time>
      </trkpt>
      <trkpt lat="49.061237" lon="2.189077">
        <ele>48.951135</ele>
        <time>2024-05-25T17:27:37.684Z</time>
      </trkpt>
      <trkpt lat="49.061532" lon="2.188772">
        <ele>47.341752</ele>
        <time>2024-05-25T17:27:43.429Z</time>
      </trkpt>
      <trkpt lat="49.061760" lon="2.188495">
        <ele>46.025496</ele>
        <time>2024-05-25T17:27:48.151Z</time>
      </trkpt>
      <trkpt lat="49.062810" lon="2.187220">
        <ele>40.158713</ele>
        <time>2024-05-25T17:28:09.904Z</time>
      </trkpt>
      <trkpt lat="49.063618" lon="2.186240">
        <ele>36.068799</ele>
        <time>2024-05-25T17:28:26.723Z</time>
      </trkpt>
      <trkpt lat="49.063685" lon="2.186160">
        <ele>35.762752</ele>
        <time>2024-05-25T17:28:28.116Z</time>
      </trkpt>
      <trkpt lat="49.063829" lon="2.185989">
        <ele>35.106344</ele>
        <time>2024-05-25T17:28:31.116Z</time>
      </trkpt>
      <trkpt lat="49.063935" lon="2.185862">
        <ele>34.621523</ele>
        <time>2024-05-25T17:28:33.338Z</time>
      </trkpt>
      <trkpt lat="49.064283" lon="2.185462">
        <ele>33.054194</ele>
        <time>2024-05-25T17:28:40.634Z</time>
      </trkpt>
      <trkpt lat="49.064383" lon="2.185342">
        <ele>32.596541</ele>
        <time>2024-05-25T17:28:42.820Z</time>
      </trkpt>
      <trkpt lat="49.064421" lon="2.185404">
        <ele>32.396419</ele>
        <time>2024-05-25T17:28:44.529Z</time>
      </trkpt>
      <trkpt lat="49.064812" lon="2.184939">
        <ele>31.320723</ele>
        <time>2024-05-25T17:28:53.218Z</time>
      </trkpt>
      <trkpt lat="49.069442" lon="2.179322">
        <ele>27.350045</ele>
        <time>2024-05-25T17:30:54.914Z</time>
      </trkpt>
      <trkpt lat="49.069414" lon="2.179272">
        <ele>27.358211</ele>
        <time>2024-05-25T17:30:55.939Z</time>
      </trkpt>
      <trkpt lat="49.069520" lon="2.179140">
        <ele>27.384134</ele>
        <time>2024-05-25T17:30:58.822Z</time>
      </trkpt>
      <trkpt lat="49.069631" lon="2.179001">
        <ele>27.411341</ele>
        <time>2024-05-25T17:31:02.009Z</time>
      </trkpt>
      <trkpt lat="49.069707" lon="2.178915">
        <ele>27.429269</ele>
        <time>2024-05-25T17:31:04.580Z</time>
      </trkpt>
      <trkpt lat="49.069914" lon="2.178666">
        <ele>27.479211</ele>
        <time>2024-05-25T17:31:11.139Z</time>
      </trkpt>
      <trkpt lat="49.070178" lon="2.178342">
        <ele>27.546560</ele>
        <time>2024-05-25T17:31:20.605Z</time>
      </trkpt>
      <trkpt lat="49.070541" lon="2.177922">
        <ele>28.656873</ele>
        <time>2024-05-25T17:31:35.746Z</time>
      </trkpt>
      <trkpt lat="49.070731" lon="2.177690">
        <ele>29.249965</ele>
        <time>2024-05-25T17:31:43.370Z</time>
      </trkpt>
      <trkpt lat="49.070995" lon="2.177371">
        <ele>30.070711</ele>
        <time>2024-05-25T17:31:54.376Z</time>
      </trkpt>
      <trkpt lat="49.071063" lon="2.177287">
        <ele>30.283944</ele>
        <time>2024-05-25T17:31:57.279Z</time>
      </trkpt>
      <trkpt lat="49.071190" lon="2.177126">
        <ele>30.686357</ele>
        <time>2024-05-25T17:32:03.578Z</time>
      </trkpt>
      <trkpt lat="49.071568" lon="2.176684">
        <ele>31.847038</ele>
        <time>2024-05-25T17:32:22.998Z</time>
      </trkpt>
      <trkpt lat="49.071652" lon="2.176339">
        <ele>32.230258</ele>
        <time>2024-05-25T17:32:33.037Z</time>
      </trkpt>
      <trkpt lat="49.071652" lon="2.176185">
        <ele>32.377036</ele>
        <time>2024-05-25T17:32:36.690Z</time>
      </trkpt>
      <trkpt lat="49.071596" lon="2.175827">
        <ele>32.727838</ele>
        <time>2024-05-25T17:32:45.570Z</time>
      </trkpt>
      <trkpt lat="49.071494" lon="2.175312">
        <ele>33.240627</ele>
        <time>2024-05-25T17:32:57.389Z</time>
      </trkpt>
      <trkpt lat="49.071493" lon="2.175289">
        <ele>33.262597</ele>
        <time>2024-05-25T17:32:57.884Z</time>
      </trkpt>
      <trkpt lat="49.071441" lon="2.174146">
        <ele>34.354619</ele>
        <time>2024-05-25T17:33:15.085Z</time>
      </trkpt>
      <trkpt lat="49.071345" lon="2.173625">
        <ele>34.532189</ele>
        <time>2024-05-25T17:33:22.162Z</time>
      </trkpt>
      <trkpt lat="49.071328" lon="2.173131">
        <ele>34.514772</ele>
        <time>2024-05-25T17:33:29.335Z</time>
      </trkpt>
      <trkpt lat="49.071311" lon="2.172502">
        <ele>34.492606</ele>
        <time>2024-05-25T17:33:38.935Z</time>
      </trkpt>
      <trkpt lat="49.071385" lon="2.171970">
        <ele>34.473457</ele>
        <time>2024-05-25T17:33:46.980Z</time>
      </trkpt>
      <trkpt lat="49.071419" lon="2.171809">
        <ele>34.467501</ele>
        <time>2024-05-25T17:33:49.309Z</time>
      </trkpt>
      <trkpt lat="49.071835" lon="2.170975">
        <ele>34.765794</ele>
        <time>2024-05-25T17:34:04.470Z</time>
      </trkpt>
      <trkpt lat="49.071877" lon="2.170935">
        <ele>34.815663</ele>
        <time>2024-05-25T17:34:05.575Z</time>
      </trkpt>
      <trkpt lat="49.072127" lon="2.170730">
        <ele>35.101540</ele>
        <time>2024-05-25T17:34:12.373Z</time>
      </trkpt>
      <trkpt lat="49.072557" lon="2.170388">
        <ele>35.589977</ele>
        <time>2024-05-25T17:34:26.292Z</time>
      </trkpt>
      <trkpt lat="49.072848" lon="2.170196">
        <ele>35.909330</ele>
        <time>2024-05-25T17:34:36.098Z</time>
      </trkpt>
      <trkpt lat="49.072987" lon="2.170117">
        <ele>36.058744</ele>
        <time>2024-05-25T17:34:40.639Z</time>
      </trkpt>
      <trkpt lat="49.073271" lon="2.169959">
        <ele>36.460526</ele>
        <time>2024-05-25T17:34:50.800Z</time>
      </trkpt>
      <trkpt lat="49.073759" lon="2.169777">
        <ele>37.440915</ele>
        <time>2024-05-25T17:35:08.542Z</time>
      </trkpt>
      <trkpt lat="49.073898" lon="2.169759">
        <ele>37.713161</ele>
        <time>2024-05-25T17:35:13.942Z</time>
      </trkpt>
      <trkpt lat="49.074283" lon="2.169861">
        <ele>38.475756</ele>
        <time>2024-05-25T17:35:27.447Z</time>
      </trkpt>
      <trkpt lat="49.074454" lon="2.169976">
        <ele>38.840428</ele>
        <time>2024-05-25T17:35:33.105Z</time>
      </trkpt>
      <trkpt lat="49.074593" lon="2.170120">
        <ele>39.168269</ele>
        <time>2024-05-25T17:35:38.721Z</time>
      </trkpt>
      <trkpt lat="49.074759" lon="2.170330">
        <ele>39.589018</ele>
        <time>2024-05-25T17:35:45.062Z</time>
      </trkpt>
      <trkpt lat="49.075209" lon="2.170682">
        <ele>39.885966</ele>
        <time>2024-05-25T17:36:00.060Z</time>
      </trkpt>
      <trkpt lat="49.075633" lon="2.170818">
        <ele>40.007943</ele>
        <time>2024-05-25T17:36:11.345Z</time>
      </trkpt>
      <trkpt lat="49.075973" lon="2.170875">
        <ele>40.104240</ele>
        <time>2024-05-25T17:36:19.674Z</time>
      </trkpt>
      <trkpt lat="49.076780" lon="2.170932">
        <ele>40.225959</ele>
        <time>2024-05-25T17:36:37.075Z</time>
      </trkpt>
      <trkpt lat="49.076935" lon="2.170970">
        <ele>40.186159</ele>
        <time>2024-05-25T17:36:40.302Z</time>
      </trkpt>
      <trkpt lat="49.077627" lon="2.171107">
        <ele>40.009253</ele>
        <time>2024-05-25T17:37:04.967Z</time>
      </trkpt>
      <trkpt lat="49.078047" lon="2.171283">
        <ele>39.898836</ele>
        <time>2024-05-25T17:37:20.830Z</time>
      </trkpt>
      <trkpt lat="49.079055" lon="2.171950">
        <ele>40.639191</ele>
        <time>2024-05-25T17:38:05.333Z</time>
      </trkpt>
      <trkpt lat="49.079230" lon="2.171838">
        <ele>40.836474</ele>
        <time>2024-05-25T17:38:13.238Z</time>
      </trkpt>
      <trkpt lat="49.079776" lon="2.171444">
        <ele>41.464352</ele>
        <time>2024-05-25T17:38:39.458Z</time>
      </trkpt>
      <trkpt lat="49.081400" lon="2.169676">
        <ele>45.186064</ele>
        <time>2024-05-25T17:40:12.565Z</time>
      </trkpt>
      <trkpt lat="49.082026" lon="2.168876">
        <ele>47.608690</ele>
        <time>2024-05-25T17:40:53.779Z</time>
      </trkpt>
      <trkpt lat="49.082317" lon="2.168181">
        <ele>49.226385</ele>
        <time>2024-05-25T17:41:22.406Z</time>
      </trkpt>
      <trkpt lat="49.082577" lon="2.168096">
        <ele>50.022527</ele>
        <time>2024-05-25T17:41:36.802Z</time>
      </trkpt>
      <trkpt lat="49.083110" lon="2.168209">
        <ele>51.832413</ele>
        <time>2024-05-25T17:42:06.440Z</time>
      </trkpt>
      <trkpt lat="49.083717" lon="2.168549">
        <ele>54.145175</ele>
        <time>2024-05-25T17:42:42.496Z</time>
      </trkpt>
      <trkpt lat="49.084385" lon="2.168754">
        <ele>56.582421</ele>
        <time>2024-05-25T17:43:20.906Z</time>
      </trkpt>
      <trkpt lat="49.085247" lon="2.168584">
        <ele>58.746952</ele>
        <time>2024-05-25T17:44:06.001Z</time>
      </trkpt>
      <trkpt lat="49.085761" lon="2.168244">
        <ele>60.035030</ele>
        <time>2024-05-25T17:44:32.639Z</time>
      </trkpt>
      <trkpt lat="49.085802" lon="2.168159">
        <ele>60.194011</ele>
        <time>2024-05-25T17:44:35.641Z</time>
      </trkpt>
      <trkpt lat="49.086100" lon="2.167543">
        <ele>61.264177</ele>
        <time>2024-05-25T17:44:57.745Z</time>
      </trkpt>
      <trkpt lat="49.086174" lon="2.166595">
        <ele>61.974797</ele>
        <time>2024-05-25T17:45:24.241Z</time>
      </trkpt>
      <trkpt lat="49.086438" lon="2.165540">
        <ele>62.815432</ele>
        <time>2024-05-25T17:45:54.909Z</time>
      </trkpt>
      <trkpt lat="49.086664" lon="2.164884">
        <ele>63.424475</ele>
        <time>2024-05-25T17:46:15.810Z</time>
      </trkpt>
      <trkpt lat="49.086700" lon="2.164836">
        <ele>63.501027</ele>
        <time>2024-05-25T17:46:17.929Z</time>
      </trkpt>
      <trkpt lat="49.087553" lon="2.163726">
        <ele>65.296158</ele>
        <time>2024-05-25T17:47:09.332Z</time>
      </trkpt>
      <trkpt lat="49.088340" lon="2.163111">
        <ele>66.521354</ele>
        <time>2024-05-25T17:47:49.639Z</time>
      </trkpt>
      <trkpt lat="49.088995" lon="2.162287">
        <ele>67.451275</ele>
        <time>2024-05-25T17:48:25.393Z</time>
      </trkpt>
      <trkpt lat="49.089764" lon="2.161572">
        <ele>68.429986</ele>
        <time>2024-05-25T17:49:01.718Z</time>
      </trkpt>
      <trkpt lat="49.090392" lon="2.161291">
        <ele>69.131396</ele>
        <time>2024-05-25T17:49:28.588Z</time>
      </trkpt>
      <trkpt lat="49.091036" lon="2.160839">
        <ele>69.891071</ele>
        <time>2024-05-25T17:49:59.464Z</time>
      </trkpt>
      <trkpt lat="49.092528" lon="2.160621">
        <ele>72.486065</ele>
        <time>2024-05-25T17:51:08.728Z</time>
      </trkpt>
      <trkpt lat="49.092679" lon="2.160384">
        <ele>72.872045</ele>
        <time>2024-05-25T17:51:18.736Z</time>
      </trkpt>
      <trkpt lat="49.092931" lon="2.160401">
        <ele>73.317929</ele>
        <time>2024-05-25T17:51:30.555Z</time>
      </trkpt>
      <trkpt lat="49.093815" lon="2.160171">
        <ele>74.861246</ele>
        <time>2024-05-25T17:52:11.980Z</time>
      </trkpt>
      <trkpt lat="49.094200" lon="2.160114">
        <ele>75.526951</ele>
        <time>2024-05-25T17:52:29.279Z</time>
      </trkpt>
      <trkpt lat="49.094786" lon="2.160250">
        <ele>76.562298</ele>
        <time>2024-05-25T17:52:56.100Z</time>
      </trkpt>
      <trkpt lat="49.096178" lon="2.160127">
        <ele>79.115234</ele>
        <time>2024-05-25T17:53:58.930Z</time>
      </trkpt>
      <trkpt lat="49.096604" lon="2.159809">
        <ele>80.237976</ele>
        <time>2024-05-25T17:54:22.429Z</time>
      </trkpt>
      <trkpt lat="49.097209" lon="2.160867">
        <ele>83.044898</ele>
        <time>2024-05-25T17:54:58.011Z</time>
      </trkpt>
      <trkpt lat="49.097516" lon="2.161633">
        <ele>84.839546</ele>
        <time>2024-05-25T17:55:21.828Z</time>
      </trkpt>
      <trkpt lat="49.098464" lon="2.163267">
        <ele>89.446015</ele>
        <time>2024-05-25T17:56:19.200Z</time>
      </trkpt>
      <trkpt lat="49.099105" lon="2.164475">
        <ele>92.444211</ele>
        <time>2024-05-25T17:56:56.654Z</time>
      </trkpt>
      <trkpt lat="49.099314" lon="2.165167">
        <ele>93.799148</ele>
        <time>2024-05-25T17:57:15.230Z</time>
      </trkpt>
      <trkpt lat="49.099351" lon="2.165267">
        <ele>94.003368</ele>
        <time>2024-05-25T17:57:18.060Z</time>
      </trkpt>
      <trkpt lat="49.099444" lon="2.165598">
        <ele>94.643768</ele>
        <time>2024-05-25T17:57:26.432Z</time>
      </trkpt>
      <trkpt lat="49.099967" lon="2.166857">
        <ele>96.820242</ele>
        <time>2024-05-25T17:58:00.904Z</time>
      </trkpt>
      <trkpt lat="49.101086" lon="2.169027">
        <ele>99.694133</ele>
        <time>2024-05-25T17:58:54.996Z</time>
      </trkpt>
      <trkpt lat="49.102138" lon="2.171220">
        <ele>101.780935</ele>
        <time>2024-05-25T17:59:41.021Z</time>
      </trkpt>
      <trkpt lat="49.102171" lon="2.171426">
        <ele>102.000137</ele>
        <time>2024-05-25T17:59:44.743Z</time>
      </trkpt>
      <trkpt lat="49.102301" lon="2.171358">
        <ele>102.217070</ele>
        <time>2024-05-25T17:59:49.031Z</time>
      </trkpt>
      <trkpt lat="49.103671" lon="2.170920">
        <ele>104.806613</ele>
        <time>2024-05-25T18:00:35.937Z</time>
      </trkpt>
      <trkpt lat="49.105752" lon="2.169993">
        <ele>109.818270</ele>
        <time>2024-05-25T18:01:54.639Z</time>
      </trkpt>
      <trkpt lat="49.106416" lon="2.169825">
        <ele>111.180859</ele>
        <time>2024-05-25T18:02:16.416Z</time>
      </trkpt>
      <trkpt lat="49.106699" lon="2.169750">
        <ele>111.762353</ele>
        <time>2024-05-25T18:02:25.202Z</time>
      </trkpt>
      <trkpt lat="49.107283" lon="2.169510">
        <ele>112.270200</ele>
        <time>2024-05-25T18:02:42.721Z</time>
      </trkpt>
      <trkpt lat="49.107954" lon="2.169112">
        <ele>112.803367</ele>
        <time>2024-05-25T18:03:01.728Z</time>
      </trkpt>
      <trkpt lat="49.108612" lon="2.168594">
        <ele>113.192881</ele>
        <time>2024-05-25T18:03:19.850Z</time>
      </trkpt>
      <trkpt lat="49.109233" lon="2.167985">
        <ele>113.205697</ele>
        <time>2024-05-25T18:03:47.322Z</time>
      </trkpt>
      <trkpt lat="49.109732" lon="2.167438">
        <ele>113.216364</ele>
        <time>2024-05-25T18:04:09.889Z</time>
      </trkpt>
      <trkpt lat="49.111351" lon="2.165171">
        <ele>113.331619</ele>
        <time>2024-05-25T18:05:31.184Z</time>
      </trkpt>
      <trkpt lat="49.112545" lon="2.164025">
        <ele>113.900369</ele>
        <time>2024-05-25T18:06:26.177Z</time>
      </trkpt>
      <trkpt lat="49.113118" lon="2.163306">
        <ele>114.416258</ele>
        <time>2024-05-25T18:06:56.445Z</time>
      </trkpt>
      <trkpt lat="49.116072" lon="2.159797">
        <ele>117.062407</ele>
        <time>2024-05-25T18:09:32.297Z</time>
      </trkpt>
      <trkpt lat="49.117727" lon="2.157458">
        <ele>116.196677</ele>
        <time>2024-05-25T18:10:52.197Z</time>
      </trkpt>
      <trkpt lat="49.118208" lon="2.156655">
        <ele>115.663901</ele>
        <time>2024-05-25T18:11:16.621Z</time>
      </trkpt>
      <trkpt lat="49.118189" lon="2.156615">
        <ele>115.645327</ele>
        <time>2024-05-25T18:11:17.274Z</time>
      </trkpt>
      <trkpt lat="49.118555" lon="2.156201">
        <ele>115.383860</ele>
        <time>2024-05-25T18:11:32.945Z</time>
      </trkpt>
      <trkpt lat="49.120454" lon="2.154279">
        <ele>114.680857</ele>
        <time>2024-05-25T18:12:55.120Z</time>
      </trkpt>
      <trkpt lat="49.121731" lon="2.153402">
        <ele>115.049827</ele>
        <time>2024-05-25T18:13:50.207Z</time>
      </trkpt>
      <trkpt lat="49.122910" lon="2.152786">
        <ele>115.756092</ele>
        <time>2024-05-25T18:14:40.386Z</time>
      </trkpt>
      <trkpt lat="49.124126" lon="2.152250">
        <ele>116.320063</ele>
        <time>2024-05-25T18:15:30.478Z</time>
      </trkpt>
      <trkpt lat="49.124573" lon="2.152085">
        <ele>116.524985</ele>
        <time>2024-05-25T18:15:48.437Z</time>
      </trkpt>
      <trkpt lat="49.125310" lon="2.151938">
        <ele>116.293272</ele>
        <time>2024-05-25T18:16:16.618Z</time>
      </trkpt>
      <trkpt lat="49.126025" lon="2.151883">
        <ele>116.055299</ele>
        <time>2024-05-25T18:16:42.883Z</time>
      </trkpt>
      <trkpt lat="49.127358" lon="2.154589">
        <ele>112.353562</ele>
        <time>2024-05-25T18:17:56.919Z</time>
      </trkpt>
      <trkpt lat="49.128906" lon="2.157017">
        <ele>102.155572</ele>
        <time>2024-05-25T18:19:00.912Z</time>
      </trkpt>
      <trkpt lat="49.129205" lon="2.157333">
        <ele>100.349749</ele>
        <time>2024-05-25T18:19:11.138Z</time>
      </trkpt>
      <trkpt lat="49.129453" lon="2.157516">
        <ele>98.981745</ele>
        <time>2024-05-25T18:19:18.868Z</time>
      </trkpt>
      <trkpt lat="49.130074" lon="2.157627">
        <ele>95.875963</ele>
        <time>2024-05-25T18:19:36.919Z</time>
      </trkpt>
      <trkpt lat="49.130791" lon="2.157810">
        <ele>94.476824</ele>
        <time>2024-05-25T18:19:59.253Z</time>
      </trkpt>
      <trkpt lat="49.130879" lon="2.157882">
        <ele>94.310205</ele>
        <time>2024-05-25T18:20:02.440Z</time>
      </trkpt>
      <trkpt lat="49.130933" lon="2.157880">
        <ele>94.220040</ele>
        <time>2024-05-25T18:20:04.197Z</time>
      </trkpt>
      <trkpt lat="49.131075" lon="2.157392">
        <ele>93.636702</ele>
        <time>2024-05-25T18:20:15.978Z</time>
      </trkpt>
      <trkpt lat="49.131284" lon="2.156001">
        <ele>92.990011</ele>
        <time>2024-05-25T18:20:51.605Z</time>
      </trkpt>
      <trkpt lat="49.131343" lon="2.155413">
        <ele>93.488783</ele>
        <time>2024-05-25T18:21:09.123Z</time>
      </trkpt>
      <trkpt lat="49.131380" lon="2.153900">
        <ele>94.758244</ele>
        <time>2024-05-25T18:21:54.823Z</time>
      </trkpt>
      <trkpt lat="49.131445" lon="2.152387">
        <ele>95.421426</ele>
        <time>2024-05-25T18:22:37.121Z</time>
      </trkpt>
      <trkpt lat="49.131412" lon="2.151725">
        <ele>95.678750</ele>
        <time>2024-05-25T18:22:54.179Z</time>
      </trkpt>
      <trkpt lat="49.131343" lon="2.151250">
        <ele>95.867335</ele>
        <time>2024-05-25T18:23:05.939Z</time>
      </trkpt>
      <trkpt lat="49.131143" lon="2.150209">
        <ele>95.359324</ele>
        <time>2024-05-25T18:23:31.373Z</time>
      </trkpt>
      <trkpt lat="49.131062" lon="2.149649">
        <ele>94.944141</ele>
        <time>2024-05-25T18:23:44.412Z</time>
      </trkpt>
      <trkpt lat="49.131065" lon="2.149112">
        <ele>94.555381</ele>
        <time>2024-05-25T18:23:56.343Z</time>
      </trkpt>
      <trkpt lat="49.131882" lon="2.148752">
        <ele>92.960338</ele>
        <time>2024-05-25T18:24:24.149Z</time>
      </trkpt>
      <trkpt lat="49.132270" lon="2.148731">
        <ele>91.748912</ele>
        <time>2024-05-25T18:24:36.455Z</time>
      </trkpt>
      <trkpt lat="49.133583" lon="2.148935">
        <ele>86.973759</ele>
        <time>2024-05-25T18:25:16.353Z</time>
      </trkpt>
      <trkpt lat="49.134233" lon="2.149069">
        <ele>83.087501</ele>
        <time>2024-05-25T18:25:35.185Z</time>
      </trkpt>
      <trkpt lat="49.134305" lon="2.148927">
        <ele>82.391042</ele>
        <time>2024-05-25T18:25:38.559Z</time>
      </trkpt>
      <trkpt lat="49.134477" lon="2.147899">
        <ele>78.277466</ele>
        <time>2024-05-25T18:25:57.445Z</time>
      </trkpt>
      <trkpt lat="49.134700" lon="2.147149">
        <ele>73.776904</ele>
        <time>2024-05-25T18:26:11.725Z</time>
      </trkpt>
      <trkpt lat="49.134860" lon="2.146806">
        <ele>71.329511</ele>
        <time>2024-05-25T18:26:18.952Z</time>
      </trkpt>
      <trkpt lat="49.135251" lon="2.146309">
        <ele>66.813739</ele>
        <time>2024-05-25T18:26:26.164Z</time>
      </trkpt>
      <trkpt lat="49.135647" lon="2.145918">
        <ele>62.627429</ele>
        <time>2024-05-25T18:26:32.973Z</time>
      </trkpt>
      <trkpt lat="49.135916" lon="2.145702">
        <ele>60.324273</ele>
        <time>2024-05-25T18:26:37.363Z</time>
      </trkpt>
      <trkpt lat="49.136415" lon="2.145402">
        <ele>56.605660</ele>
        <time>2024-05-25T18:26:45.197Z</time>
      </trkpt>
      <trkpt lat="49.136508" lon="2.145292">
        <ele>55.790150</ele>
        <time>2024-05-25T18:26:46.906Z</time>
      </trkpt>
      <trkpt lat="49.136696" lon="2.145031">
        <ele>54.028850</ele>
        <time>2024-05-25T18:26:50.787Z</time>
      </trkpt>
      <trkpt lat="49.136581" lon="2.144687">
        <ele>52.276094</ele>
        <time>2024-05-25T18:26:54.647Z</time>
      </trkpt>
      <trkpt lat="49.136840" lon="2.144450">
        <ele>50.182662</ele>
        <time>2024-05-25T18:26:59.307Z</time>
      </trkpt>
      <trkpt lat="49.136931" lon="2.144332">
        <ele>49.355073</ele>
        <time>2024-05-25T18:27:01.202Z</time>
      </trkpt>
      <trkpt lat="49.136985" lon="2.144213">
        <ele>49.138030</ele>
        <time>2024-05-25T18:27:02.679Z</time>
      </trkpt>
      <trkpt lat="49.136989" lon="2.144114">
        <ele>49.040622</ele>
        <time>2024-05-25T18:27:03.690Z</time>
      </trkpt>
      <trkpt lat="49.136863" lon="2.143889">
        <ele>48.749774</ele>
        <time>2024-05-25T18:27:06.983Z</time>
      </trkpt>
      <trkpt lat="49.136843" lon="2.143813">
        <ele>48.669327</ele>
        <time>2024-05-25T18:27:07.870Z</time>
      </trkpt>
      <trkpt lat="49.137625" lon="2.143297">
        <ele>47.390823</ele>
        <time>2024-05-25T18:27:23.942Z</time>
      </trkpt>
      <trkpt lat="49.137737" lon="2.143254">
        <ele>47.217487</ele>
        <time>2024-05-25T18:27:26.518Z</time>
      </trkpt>
      <trkpt lat="49.137809" lon="2.143261">
        <ele>47.109195</ele>
        <time>2024-05-25T18:27:28.248Z</time>
      </trkpt>
      <trkpt lat="49.137773" lon="2.143141">
        <ele>46.979553</ele>
        <time>2024-05-25T18:27:30.205Z</time>
      </trkpt>
      <trkpt lat="49.137814" lon="2.142369">
        <ele>47.415462</ele>
        <time>2024-05-25T18:27:45.314Z</time>
      </trkpt>
      <trkpt lat="49.137806" lon="2.141761">
        <ele>48.914636</ele>
        <time>2024-05-25T18:27:59.968Z</time>
      </trkpt>
      <trkpt lat="49.137772" lon="2.141433">
        <ele>49.733324</ele>
        <time>2024-05-25T18:28:09.269Z</time>
      </trkpt>
      <trkpt lat="49.137671" lon="2.141085">
        <ele>50.671858</ele>
        <time>2024-05-25T18:28:20.312Z</time>
      </trkpt>
      <trkpt lat="49.137669" lon="2.141005">
        <ele>50.869223</ele>
        <time>2024-05-25T18:28:22.863Z</time>
      </trkpt>
      <trkpt lat="49.137535" lon="2.140763">
        <ele>51.650806</ele>
        <time>2024-05-25T18:28:32.603Z</time>
      </trkpt>
      <trkpt lat="49.137524" lon="2.140523">
        <ele>52.243919</ele>
        <time>2024-05-25T18:28:42.657Z</time>
      </trkpt>
      <trkpt lat="49.137551" lon="2.140307">
        <ele>52.786047</ele>
        <time>2024-05-25T18:28:51.679Z</time>
      </trkpt>
      <trkpt lat="49.137814" lon="2.140183">
        <ele>54.076619</ele>
        <time>2024-05-25T18:29:09.197Z</time>
      </trkpt>
      <trkpt lat="49.138726" lon="2.140126">
        <ele>59.310337</ele>
        <time>2024-05-25T18:30:07.800Z</time>
      </trkpt>
      <trkpt lat="49.139163" lon="2.140166">
        <ele>61.820555</ele>
        <time>2024-05-25T18:30:36.391Z</time>
      </trkpt>
      <trkpt lat="49.139984" lon="2.140587">
        <ele>67.296746</ele>
        <time>2024-05-25T18:31:37.455Z</time>
      </trkpt>
      <trkpt lat="49.140654" lon="2.140735">
        <ele>71.810747</ele>
        <time>2024-05-25T18:32:27.146Z</time>
      </trkpt>
      <trkpt lat="49.140949" lon="2.140745">
        <ele>73.778305</ele>
        <time>2024-05-25T18:32:48.634Z</time>
      </trkpt>
      <trkpt lat="49.141190" lon="2.140619">
        <ele>75.476702</ele>
        <time>2024-05-25T18:33:06.807Z</time>
      </trkpt>
      <trkpt lat="49.141345" lon="2.140291">
        <ele>76.602278</ele>
        <time>2024-05-25T18:33:25.179Z</time>
      </trkpt>
      <trkpt lat="49.142636" lon="2.138159">
        <ele>83.195222</ele>
        <time>2024-05-25T18:35:08.702Z</time>
      </trkpt>
      <trkpt lat="49.144208" lon="2.136703">
        <ele>85.172640</ele>
        <time>2024-05-25T18:36:19.370Z</time>
      </trkpt>
      <trkpt lat="49.144308" lon="2.136668">
        <ele>85.293803</ele>
        <time>2024-05-25T18:36:23.409Z</time>
      </trkpt>
      <trkpt lat="49.144345" lon="2.136684">
        <ele>85.339217</ele>
        <time>2024-05-25T18:36:24.876Z</time>
      </trkpt>
      <trkpt lat="49.145160" lon="2.137038">
        <ele>86.339891</ele>
        <time>2024-05-25T18:37:01.185Z</time>
      </trkpt>
      <trkpt lat="49.145628" lon="2.137121">
        <ele>86.953983</ele>
        <time>2024-05-25T18:37:23.259Z</time>
      </trkpt>
      <trkpt lat="49.147013" lon="2.136895">
        <ele>90.525805</ele>
        <time>2024-05-25T18:38:34.090Z</time>
      </trkpt>
      <trkpt lat="49.147930" lon="2.136314">
        <ele>92.358423</ele>
        <time>2024-05-25T18:39:23.598Z</time>
      </trkpt>
      <trkpt lat="49.149976" lon="2.135384">
        <ele>93.693265</ele>
        <time>2024-05-25T18:40:51.057Z</time>
      </trkpt>
      <trkpt lat="49.150008" lon="2.135500">
        <ele>93.664348</ele>
        <time>2024-05-25T18:40:53.874Z</time>
      </trkpt>
      <trkpt lat="49.150086" lon="2.136451">
        <ele>93.444208</ele>
        <time>2024-05-25T18:41:15.052Z</time>
      </trkpt>
      <trkpt lat="49.150372" lon="2.138990">
        <ele>90.238411</ele>
        <time>2024-05-25T18:42:08.809Z</time>
      </trkpt>
      <trkpt lat="49.150400" lon="2.139544">
        <ele>89.829318</ele>
        <time>2024-05-25T18:42:21.065Z</time>
      </trkpt>
      <trkpt lat="49.150365" lon="2.140423">
        <ele>90.171564</ele>
        <time>2024-05-25T18:42:41.511Z</time>
      </trkpt>
      <trkpt lat="49.150822" lon="2.140129">
        <ele>90.466165</ele>
        <time>2024-05-25T18:43:01.274Z</time>
      </trkpt>
      <trkpt lat="49.152805" lon="2.138056">
        <ele>95.170925</ele>
        <time>2024-05-25T18:44:59.748Z</time>
      </trkpt>
      <trkpt lat="49.153725" lon="2.137505">
        <ele>97.397584</ele>
        <time>2024-05-25T18:45:48.248Z</time>
      </trkpt>
      <trkpt lat="49.153719" lon="2.136273">
        <ele>99.213477</ele>
        <time>2024-05-25T18:46:26.718Z</time>
      </trkpt>
      <trkpt lat="49.153798" lon="2.135043">
        <ele>100.534096</ele>
        <time>2024-05-25T18:47:04.340Z</time>
      </trkpt>
      <trkpt lat="49.154004" lon="2.134138">
        <ele>101.556512</ele>
        <time>2024-05-25T18:47:32.491Z</time>
      </trkpt>
      <trkpt lat="49.154338" lon="2.133418">
        <ele>102.249771</ele>
        <time>2024-05-25T18:47:57.743Z</time>
      </trkpt>
      <trkpt lat="49.157973" lon="2.129869">
        <ele>103.559629</ele>
        <time>2024-05-25T18:50:45.108Z</time>
      </trkpt>
      <trkpt lat="49.158508" lon="2.129412">
        <ele>103.415218</ele>
        <time>2024-05-25T18:51:06.682Z</time>
      </trkpt>
      <trkpt lat="49.158842" lon="2.129209">
        <ele>103.228431</ele>
        <time>2024-05-25T18:51:19.175Z</time>
      </trkpt>
      <trkpt lat="49.159283" lon="2.129087">
        <ele>102.664169</ele>
        <time>2024-05-25T18:51:34.626Z</time>
      </trkpt>
      <trkpt lat="49.159937" lon="2.129060">
        <ele>101.840439</ele>
        <time>2024-05-25T18:51:56.799Z</time>
      </trkpt>
      <trkpt lat="49.160995" lon="2.129115">
        <ele>100.385878</ele>
        <time>2024-05-25T18:52:32.128Z</time>
      </trkpt>
      <trkpt lat="49.161923" lon="2.129110">
        <ele>98.973069</ele>
        <time>2024-05-25T18:53:02.929Z</time>
      </trkpt>
      <trkpt lat="49.162359" lon="2.129000">
        <ele>98.321133</ele>
        <time>2024-05-25T18:53:17.621Z</time>
      </trkpt>
      <trkpt lat="49.163490" lon="2.128623">
        <ele>97.280560</ele>
        <time>2024-05-25T18:53:57.217Z</time>
      </trkpt>
      <trkpt lat="49.164172" lon="2.128330">
        <ele>96.763151</ele>
        <time>2024-05-25T18:54:22.736Z</time>
      </trkpt>
      <trkpt lat="49.164991" lon="2.128198">
        <ele>96.999412</ele>
        <time>2024-05-25T18:54:53.317Z</time>
      </trkpt>
      <trkpt lat="49.165666" lon="2.128141">
        <ele>97.193355</ele>
        <time>2024-05-25T18:55:20.396Z</time>
      </trkpt>
      <trkpt lat="49.166091" lon="2.128273">
        <ele>97.534866</ele>
        <time>2024-05-25T18:55:38.468Z</time>
      </trkpt>
      <trkpt lat="49.166546" lon="2.128735">
        <ele>98.195473</ele>
        <time>2024-05-25T18:56:01.475Z</time>
      </trkpt>
      <trkpt lat="49.166897" lon="2.129273">
        <ele>98.796555</ele>
        <time>2024-05-25T18:56:23.014Z</time>
      </trkpt>
      <trkpt lat="49.167862" lon="2.126959">
        <ele>100.878246</ele>
        <time>2024-05-25T18:57:18.562Z</time>
      </trkpt>
      <trkpt lat="49.168527" lon="2.125570">
        <ele>100.030941</ele>
        <time>2024-05-25T18:58:02.476Z</time>
      </trkpt>
      <trkpt lat="49.168875" lon="2.124599">
        <ele>98.291061</ele>
        <time>2024-05-25T18:58:25.689Z</time>
      </trkpt>
      <trkpt lat="49.168956" lon="2.124193">
        <ele>97.624089</ele>
        <time>2024-05-25T18:58:33.863Z</time>
      </trkpt>
      <trkpt lat="49.168962" lon="2.123793">
        <ele>96.600907</ele>
        <time>2024-05-25T18:58:41.315Z</time>
      </trkpt>
      <trkpt lat="49.168929" lon="2.122246">
        <ele>88.097336</ele>
        <time>2024-05-25T18:59:08.226Z</time>
      </trkpt>
      <trkpt lat="49.168971" lon="2.121601">
        <ele>84.536246</ele>
        <time>2024-05-25T18:59:19.093Z</time>
      </trkpt>
      <trkpt lat="49.169261" lon="2.120213">
        <ele>77.499204</ele>
        <time>2024-05-25T18:59:43.623Z</time>
      </trkpt>
      <trkpt lat="49.169508" lon="2.119541">
        <ele>74.008359</ele>
        <time>2024-05-25T18:59:57.249Z</time>
      </trkpt>
      <trkpt lat="49.169793" lon="2.119096">
        <ele>71.187641</ele>
        <time>2024-05-25T19:00:08.909Z</time>
      </trkpt>
      <trkpt lat="49.169880" lon="2.119013">
        <ele>70.477494</ele>
        <time>2024-05-25T19:00:10.730Z</time>
      </trkpt>
      <trkpt lat="49.169988" lon="2.118815">
        <ele>69.568897</ele>
        <time>2024-05-25T19:00:13.720Z</time>
      </trkpt>
      <trkpt lat="49.170228" lon="2.117662">
        <ele>69.282312</ele>
        <time>2024-05-25T19:00:30.136Z</time>
      </trkpt>
      <trkpt lat="49.170425" lon="2.117331">
        <ele>69.176302</ele>
        <time>2024-05-25T19:00:37.971Z</time>
      </trkpt>
      <trkpt lat="49.170522" lon="2.117274">
        <ele>69.138660</ele>
        <time>2024-05-25T19:00:41.009Z</time>
      </trkpt>
      <trkpt lat="49.170634" lon="2.117262">
        <ele>69.097989</ele>
        <time>2024-05-25T19:00:44.503Z</time>
      </trkpt>
      <trkpt lat="49.170763" lon="2.117227">
        <ele>69.050529</ele>
        <time>2024-05-25T19:00:48.269Z</time>
      </trkpt>
      <trkpt lat="49.171231" lon="2.117000">
        <ele>68.951946</ele>
        <time>2024-05-25T19:01:02.838Z</time>
      </trkpt>
      <trkpt lat="49.171580" lon="2.116887">
        <ele>68.996447</ele>
        <time>2024-05-25T19:01:12.715Z</time>
      </trkpt>
      <trkpt lat="49.172041" lon="2.116843">
        <ele>69.054068</ele>
        <time>2024-05-25T19:01:25.060Z</time>
      </trkpt>
      <trkpt lat="49.172969" lon="2.116857">
        <ele>69.024572</ele>
        <time>2024-05-25T19:01:45.009Z</time>
      </trkpt>
      <trkpt lat="49.173453" lon="2.116806">
        <ele>68.449044</ele>
        <time>2024-05-25T19:01:54.639Z</time>
      </trkpt>
      <trkpt lat="49.173814" lon="2.116768">
        <ele>68.019779</ele>
        <time>2024-05-25T19:02:01.723Z</time>
      </trkpt>
      <trkpt lat="49.174022" lon="2.116783">
        <ele>67.772755</ele>
        <time>2024-05-25T19:02:05.786Z</time>
      </trkpt>
      <trkpt lat="49.174360" lon="2.116942">
        <ele>67.353254</ele>
        <time>2024-05-25T19:02:12.947Z</time>
      </trkpt>
      <trkpt lat="49.174792" lon="2.117068">
        <ele>67.140223</ele>
        <time>2024-05-25T19:02:22.337Z</time>
      </trkpt>
      <trkpt lat="49.175508" lon="2.116946">
        <ele>67.668584</ele>
        <time>2024-05-25T19:02:39.429Z</time>
      </trkpt>
      <trkpt lat="49.175715" lon="2.116903">
        <ele>67.821791</ele>
        <time>2024-05-25T19:02:45.236Z</time>
      </trkpt>
      <trkpt lat="49.176698" lon="2.116840">
        <ele>68.959797</ele>
        <time>2024-05-25T19:03:16.384Z</time>
      </trkpt>
      <trkpt lat="49.177241" lon="2.116951">
        <ele>70.190128</ele>
        <time>2024-05-25T19:03:37.021Z</time>
      </trkpt>
      <trkpt lat="49.177964" lon="2.116955">
        <ele>71.813879</ele>
        <time>2024-05-25T19:04:03.603Z</time>
      </trkpt>
      <trkpt lat="49.178961" lon="2.117376">
        <ele>73.510306</ele>
        <time>2024-05-25T19:04:34.733Z</time>
      </trkpt>
      <trkpt lat="49.179047" lon="2.117368">
        <ele>73.634773</ele>
        <time>2024-05-25T19:04:37.511Z</time>
      </trkpt>
      <trkpt lat="49.180036" lon="2.116979">
        <ele>75.176986</ele>
        <time>2024-05-25T19:05:07.922Z</time>
      </trkpt>
      <trkpt lat="49.180312" lon="2.116867">
        <ele>75.800944</ele>
        <time>2024-05-25T19:05:15.674Z</time>
      </trkpt>
      <trkpt lat="49.180626" lon="2.116682">
        <ele>76.536207</ele>
        <time>2024-05-25T19:05:25.295Z</time>
      </trkpt>
      <trkpt lat="49.180786" lon="2.116497">
        <ele>76.974458</ele>
        <time>2024-05-25T19:05:31.519Z</time>
      </trkpt>
      <trkpt lat="49.180810" lon="2.116504">
        <ele>77.027846</ele>
        <time>2024-05-25T19:05:32.411Z</time>
      </trkpt>
      <trkpt lat="49.180971" lon="2.116000">
        <ele>77.829110</ele>
        <time>2024-05-25T19:05:44.978Z</time>
      </trkpt>
      <trkpt lat="49.180995" lon="2.115825">
        <ele>78.084517</ele>
        <time>2024-05-25T19:05:49.299Z</time>
      </trkpt>
      <trkpt lat="49.180988" lon="2.115696">
        <ele>78.269410</ele>
        <time>2024-05-25T19:05:52.526Z</time>
      </trkpt>
      <trkpt lat="49.180804" lon="2.115049">
        <ele>79.284986</ele>
        <time>2024-05-25T19:06:12.519Z</time>
      </trkpt>
      <trkpt lat="49.180728" lon="2.114593">
        <ele>79.971323</ele>
        <time>2024-05-25T19:06:25.501Z</time>
      </trkpt>
      <trkpt lat="49.180710" lon="2.114437">
        <ele>80.202361</ele>
        <time>2024-05-25T19:06:29.460Z</time>
      </trkpt>
      <trkpt lat="49.180741" lon="2.114485">
        <ele>80.300773</ele>
        <time>2024-05-25T19:06:31.215Z</time>
      </trkpt>
      <trkpt lat="49.180950" lon="2.114042">
        <ele>81.097575</ele>
        <time>2024-05-25T19:06:45.856Z</time>
      </trkpt>
      <trkpt lat="49.180940" lon="2.113963">
        <ele>81.214934</ele>
        <time>2024-05-25T19:06:47.858Z</time>
      </trkpt>
      <trkpt lat="49.181309" lon="2.113798">
        <ele>82.072687</ele>
        <time>2024-05-25T19:07:00.786Z</time>
      </trkpt>
      <trkpt lat="49.181441" lon="2.113688">
        <ele>82.408062</ele>
        <time>2024-05-25T19:07:05.641Z</time>
      </trkpt>
      <trkpt lat="49.181531" lon="2.113484">
        <ele>82.767009</ele>
        <time>2024-05-25T19:07:09.899Z</time>
      </trkpt>
      <trkpt lat="49.181582" lon="2.113226">
        <ele>82.813568</ele>
        <time>2024-05-25T19:07:14.682Z</time>
      </trkpt>
      <trkpt lat="49.181580" lon="2.113034">
        <ele>82.684988</ele>
        <time>2024-05-25T19:07:17.424Z</time>
      </trkpt>
      <trkpt lat="49.181570" lon="2.112422">
        <ele>82.275062</ele>
        <time>2024-05-25T19:07:25.588Z</time>
      </trkpt>
      <trkpt lat="49.181730" lon="2.111852">
        <ele>81.859685</ele>
        <time>2024-05-25T19:07:33.695Z</time>
      </trkpt>
      <trkpt lat="49.182146" lon="2.110783">
        <ele>81.092178</ele>
        <time>2024-05-25T19:07:49.338Z</time>
      </trkpt>
      <trkpt lat="49.182379" lon="2.110393">
        <ele>81.172042</ele>
        <time>2024-05-25T19:07:56.485Z</time>
      </trkpt>
      <trkpt lat="49.182843" lon="2.109866">
        <ele>81.305677</ele>
        <time>2024-05-25T19:08:10.085Z</time>
      </trkpt>
      <trkpt lat="49.183338" lon="2.109547">
        <ele>81.429885</ele>
        <time>2024-05-25T19:08:25.386Z</time>
      </trkpt>
      <trkpt lat="49.183573" lon="2.109439">
        <ele>81.486627</ele>
        <time>2024-05-25T19:08:33.771Z</time>
      </trkpt>
      <trkpt lat="49.183874" lon="2.109292">
        <ele>81.540152</ele>
        <time>2024-05-25T19:08:44.072Z</time>
      </trkpt>
      <trkpt lat="49.184921" lon="2.108437">
        <ele>81.730352</ele>
        <time>2024-05-25T19:09:14.333Z</time>
      </trkpt>
      <trkpt lat="49.185226" lon="2.108337">
        <ele>81.780342</ele>
        <time>2024-05-25T19:09:20.493Z</time>
      </trkpt>
      <trkpt lat="49.185546" lon="2.108337">
        <ele>80.931920</ele>
        <time>2024-05-25T19:09:26.624Z</time>
      </trkpt>
      <trkpt lat="49.186167" lon="2.108709">
        <ele>79.007372</ele>
        <time>2024-05-25T19:09:38.871Z</time>
      </trkpt>
      <trkpt lat="49.186616" lon="2.108810">
        <ele>77.697718</ele>
        <time>2024-05-25T19:09:46.863Z</time>
      </trkpt>
      <trkpt lat="49.189111" lon="2.108952">
        <ele>69.684486</ele>
        <time>2024-05-25T19:10:30.565Z</time>
      </trkpt>
      <trkpt lat="49.190951" lon="2.109109">
        <ele>67.433946</ele>
        <time>2024-05-25T19:11:08.371Z</time>
      </trkpt>
      <trkpt lat="49.191502" lon="2.109427">
        <ele>67.745855</ele>
        <time>2024-05-25T19:11:23.021Z</time>
      </trkpt>
      <trkpt lat="49.192721" lon="2.110376">
        <ele>68.893846</ele>
        <time>2024-05-25T19:12:02.845Z</time>
      </trkpt>
      <trkpt lat="49.193137" lon="2.110665">
        <ele>69.509637</ele>
        <time>2024-05-25T19:12:17.009Z</time>
      </trkpt>
      <trkpt lat="49.193485" lon="2.110811">
        <ele>69.996002</ele>
        <time>2024-05-25T19:12:27.840Z</time>
      </trkpt>
      <trkpt lat="49.194649" lon="2.105173">
        <ele>74.299404</ele>
        <time>2024-05-25T19:15:09.300Z</time>
      </trkpt>
      <trkpt lat="49.197650" lon="2.107286">
        <ele>81.876061</ele>
        <time>2024-05-25T19:17:49.934Z</time>
      </trkpt>
      <trkpt lat="49.200379" lon="2.108966">
        <ele>91.436483</ele>
        <time>2024-05-25T19:20:26.690Z</time>
      </trkpt>
      <trkpt lat="49.202713" lon="2.110408">
        <ele>100.386162</ele>
        <time>2024-05-25T19:22:16.195Z</time>
      </trkpt>
      <trkpt lat="49.202977" lon="2.110600">
        <ele>101.375792</ele>
        <time>2024-05-25T19:22:26.708Z</time>
      </trkpt>
      <trkpt lat="49.203175" lon="2.110799">
        <ele>101.822994</ele>
        <time>2024-05-25T19:22:34.312Z</time>
      </trkpt>
      <trkpt lat="49.203193" lon="2.109269">
        <ele>101.705889</ele>
        <time>2024-05-25T19:22:58.682Z</time>
      </trkpt>
      <trkpt lat="49.205402" lon="2.109740">
        <ele>98.987247</ele>
        <time>2024-05-25T19:24:12.036Z</time>
      </trkpt>
      <trkpt lat="49.205695" lon="2.109777">
        <ele>98.490793</ele>
        <time>2024-05-25T19:24:21.835Z</time>
      </trkpt>
      <trkpt lat="49.205750" lon="2.109463">
        <ele>98.195664</ele>
        <time>2024-05-25T19:24:26.152Z</time>
      </trkpt>
      <trkpt lat="49.205815" lon="2.109243">
        <ele>97.976467</ele>
        <time>2024-05-25T19:24:29.294Z</time>
      </trkpt>
      <trkpt lat="49.206287" lon="2.108240">
        <ele>96.854299</ele>
        <time>2024-05-25T19:24:45.565Z</time>
      </trkpt>
      <trkpt lat="49.206602" lon="2.107319">
        <ele>95.944759</ele>
        <time>2024-05-25T19:24:59.309Z</time>
      </trkpt>
      <trkpt lat="49.206897" lon="2.106608">
        <ele>95.397902</ele>
        <time>2024-05-25T19:25:10.519Z</time>
      </trkpt>
      <trkpt lat="49.207330" lon="2.105752">
        <ele>94.695014</ele>
        <time>2024-05-25T19:25:25.236Z</time>
      </trkpt>
      <trkpt lat="49.208100" lon="2.104463">
        <ele>93.861247</ele>
        <time>2024-05-25T19:25:49.684Z</time>
      </trkpt>
      <trkpt lat="49.209929" lon="2.101233">
        <ele>92.412902</ele>
        <time>2024-05-25T19:26:50.636Z</time>
      </trkpt>
      <trkpt lat="49.210124" lon="2.100934">
        <ele>92.346723</ele>
        <time>2024-05-25T19:26:56.554Z</time>
      </trkpt>
      <trkpt lat="49.211257" lon="2.099669">
        <ele>92.277760</ele>
        <time>2024-05-25T19:27:28.315Z</time>
      </trkpt>
      <trkpt lat="49.213650" lon="2.096992">
        <ele>94.785405</ele>
        <time>2024-05-25T19:28:50.901Z</time>
      </trkpt>
      <trkpt lat="49.213984" lon="2.096507">
        <ele>95.262739</ele>
        <time>2024-05-25T19:29:04.365Z</time>
      </trkpt>
      <trkpt lat="49.214042" lon="2.096363">
        <ele>95.377324</ele>
        <time>2024-05-25T19:29:07.685Z</time>
      </trkpt>
      <trkpt lat="49.214136" lon="2.096121">
        <ele>95.568024</ele>
        <time>2024-05-25T19:29:12.889Z</time>
      </trkpt>
      <trkpt lat="49.214734" lon="2.094144">
        <ele>96.859772</ele>
        <time>2024-05-25T19:29:52.958Z</time>
      </trkpt>
      <trkpt lat="49.214945" lon="2.093592">
        <ele>97.234125</ele>
        <time>2024-05-25T19:30:03.950Z</time>
      </trkpt>
      <trkpt lat="49.215263" lon="2.092988">
        <ele>97.530303</ele>
        <time>2024-05-25T19:30:17.187Z</time>
      </trkpt>
      <trkpt lat="49.216308" lon="2.091402">
        <ele>98.290095</ele>
        <time>2024-05-25T19:30:55.045Z</time>
      </trkpt>
      <trkpt lat="49.216446" lon="2.091285">
        <ele>98.342574</ele>
        <time>2024-05-25T19:30:58.998Z</time>
      </trkpt>
      <trkpt lat="49.216635" lon="2.091194">
        <ele>98.408485</ele>
        <time>2024-05-25T19:31:03.980Z</time>
      </trkpt>
      <trkpt lat="49.217187" lon="2.090995">
        <ele>98.597141</ele>
        <time>2024-05-25T19:31:18.060Z</time>
      </trkpt>
      <trkpt lat="49.219104" lon="2.090131">
        <ele>99.151435</ele>
        <time>2024-05-25T19:32:06.519Z</time>
      </trkpt>
      <trkpt lat="49.219404" lon="2.090034">
        <ele>99.225833</ele>
        <time>2024-05-25T19:32:13.957Z</time>
      </trkpt>
      <trkpt lat="49.223675" lon="2.087416">
        <ele>100.745280</ele>
        <time>2024-05-25T19:34:08.169Z</time>
      </trkpt>
      <trkpt lat="49.224975" lon="2.086640">
        <ele>101.304532</ele>
        <time>2024-05-25T19:34:43.608Z</time>
      </trkpt>
      <trkpt lat="49.225208" lon="2.086501">
        <ele>101.416201</ele>
        <time>2024-05-25T19:34:50.014Z</time>
      </trkpt>
      <trkpt lat="49.227483" lon="2.085371">
        <ele>102.433703</ele>
        <time>2024-05-25T19:35:50.580Z</time>
      </trkpt>
      <trkpt lat="49.228761" lon="2.084859">
        <ele>102.981201</ele>
        <time>2024-05-25T19:36:23.374Z</time>
      </trkpt>
      <trkpt lat="49.229108" lon="2.084676">
        <ele>103.136811</ele>
        <time>2024-05-25T19:36:32.518Z</time>
      </trkpt>
      <trkpt lat="49.229605" lon="2.084342">
        <ele>103.366941</ele>
        <time>2024-05-25T19:36:46.245Z</time>
      </trkpt>
      <trkpt lat="49.232544" lon="2.082201">
        <ele>105.753063</ele>
        <time>2024-05-25T19:38:12.596Z</time>
      </trkpt>
      <trkpt lat="49.233721" lon="2.081340">
        <ele>107.477353</ele>
        <time>2024-05-25T19:38:51.470Z</time>
      </trkpt>
      <trkpt lat="49.233979" lon="2.081205">
        <ele>107.921276</ele>
        <time>2024-05-25T19:39:00.401Z</time>
      </trkpt>
      <trkpt lat="49.234120" lon="2.081169">
        <ele>108.154023</ele>
        <time>2024-05-25T19:39:05.147Z</time>
      </trkpt>
      <trkpt lat="49.234651" lon="2.081218">
        <ele>109.020173</ele>
        <time>2024-05-25T19:39:23.172Z</time>
      </trkpt>
      <trkpt lat="49.235432" lon="2.081366">
        <ele>110.051874</ele>
        <time>2024-05-25T19:39:47.771Z</time>
      </trkpt>
      <trkpt lat="49.236175" lon="2.081461">
        <ele>111.003486</ele>
        <time>2024-05-25T19:40:09.621Z</time>
      </trkpt>
      <trkpt lat="49.236473" lon="2.080745">
        <ele>111.534265</ele>
        <time>2024-05-25T19:40:24.511Z</time>
      </trkpt>
      <trkpt lat="49.236615" lon="2.080403">
        <ele>111.650002</ele>
        <time>2024-05-25T19:40:31.057Z</time>
      </trkpt>
      <trkpt lat="49.237023" lon="2.079200">
        <ele>112.037113</ele>
        <time>2024-05-25T19:40:51.417Z</time>
      </trkpt>
      <trkpt lat="49.237180" lon="2.078739">
        <ele>112.185589</ele>
        <time>2024-05-25T19:40:59.858Z</time>
      </trkpt>
      <trkpt lat="49.237459" lon="2.077742">
        <ele>113.514859</ele>
        <time>2024-05-25T19:41:20.819Z</time>
      </trkpt>
      <trkpt lat="49.237624" lon="2.077197">
        <ele>114.342402</ele>
        <time>2024-05-25T19:41:33.698Z</time>
      </trkpt>
      <trkpt lat="49.237784" lon="2.076771">
        <ele>115.019398</ele>
        <time>2024-05-25T19:41:44.820Z</time>
      </trkpt>
      <trkpt lat="49.238000" lon="2.076981">
        <ele>115.559178</ele>
        <time>2024-05-25T19:41:54.521Z</time>
      </trkpt>
      <trkpt lat="49.238090" lon="2.077126">
        <ele>115.834772</ele>
        <time>2024-05-25T19:41:59.424Z</time>
      </trkpt>
      <trkpt lat="49.238182" lon="2.077194">
        <ele>116.072725</ele>
        <time>2024-05-25T19:42:03.718Z</time>
      </trkpt>
      <trkpt lat="49.238254" lon="2.077228">
        <ele>116.364830</ele>
        <time>2024-05-25T19:42:06.786Z</time>
      </trkpt>
      <trkpt lat="49.238487" lon="2.077345">
        <ele>117.315465</ele>
        <time>2024-05-25T19:42:17.009Z</time>
      </trkpt>
      <trkpt lat="49.240349" lon="2.078725">
        <ele>123.941754</ele>
        <time>2024-05-25T19:43:44.795Z</time>
      </trkpt>
      <trkpt lat="49.240708" lon="2.078913">
        <ele>124.536224</ele>
        <time>2024-05-25T19:43:56.901Z</time>
      </trkpt>
      <trkpt lat="49.241058" lon="2.079093">
        <ele>125.114712</ele>
        <time>2024-05-25T19:44:06.442Z</time>
      </trkpt>
      <trkpt lat="49.241452" lon="2.079230">
        <ele>125.747761</ele>
        <time>2024-05-25T19:44:14.855Z</time>
      </trkpt>
      <trkpt lat="49.242111" lon="2.079337">
        <ele>124.343512</ele>
        <time>2024-05-25T19:44:27.136Z</time>
      </trkpt>
      <trkpt lat="49.243003" lon="2.079400">
        <ele>122.223666</ele>
        <time>2024-05-25T19:44:42.437Z</time>
      </trkpt>
      <trkpt lat="49.244977" lon="2.079064">
        <ele>117.492362</ele>
        <time>2024-05-25T19:45:17.682Z</time>
      </trkpt>
      <trkpt lat="49.245176" lon="2.079129">
        <ele>117.111858</ele>
        <time>2024-05-25T19:45:21.562Z</time>
      </trkpt>
      <trkpt lat="49.245265" lon="2.079240">
        <ele>116.952395</ele>
        <time>2024-05-25T19:45:23.738Z</time>
      </trkpt>
      <trkpt lat="49.245339" lon="2.079245">
        <ele>116.849478</ele>
        <time>2024-05-25T19:45:25.143Z</time>
      </trkpt>
      <trkpt lat="49.245452" lon="2.079194">
        <ele>116.685801</ele>
        <time>2024-05-25T19:45:27.427Z</time>
      </trkpt>
      <trkpt lat="49.245516" lon="2.079033">
        <ele>116.514823</ele>
        <time>2024-05-25T19:45:29.766Z</time>
      </trkpt>
      <trkpt lat="49.245722" lon="2.078843">
        <ele>116.180724</ele>
        <time>2024-05-25T19:45:34.420Z</time>
      </trkpt>
      <trkpt lat="49.247031" lon="2.078474">
        <ele>114.754674</ele>
        <time>2024-05-25T19:46:00.327Z</time>
      </trkpt>
      <trkpt lat="49.247505" lon="2.078405">
        <ele>114.748270</ele>
        <time>2024-05-25T19:46:10.187Z</time>
      </trkpt>
      <trkpt lat="49.248124" lon="2.078401">
        <ele>114.739943</ele>
        <time>2024-05-25T19:46:24.162Z</time>
      </trkpt>
      <trkpt lat="49.249409" lon="2.078697">
        <ele>116.446908</ele>
        <time>2024-05-25T19:47:02.269Z</time>
      </trkpt>
      <trkpt lat="49.250038" lon="2.078799">
        <ele>117.645580</ele>
        <time>2024-05-25T19:47:24.439Z</time>
      </trkpt>
      <trkpt lat="49.250411" lon="2.078778">
        <ele>118.396988</ele>
        <time>2024-05-25T19:47:37.569Z</time>
      </trkpt>
      <trkpt lat="49.252911" lon="2.078471">
        <ele>123.761690</ele>
        <time>2024-05-25T19:49:01.404Z</time>
      </trkpt>
      <trkpt lat="49.253397" lon="2.078435">
        <ele>124.647991</ele>
        <time>2024-05-25T19:49:16.236Z</time>
      </trkpt>
      <trkpt lat="49.253847" lon="2.078465">
        <ele>125.468459</ele>
        <time>2024-05-25T19:49:29.504Z</time>
      </trkpt>
      <trkpt lat="49.254398" lon="2.078573">
        <ele>126.131152</ele>
        <time>2024-05-25T19:49:45.207Z</time>
      </trkpt>
      <trkpt lat="49.256009" lon="2.079133">
        <ele>128.021427</ele>
        <time>2024-05-25T19:50:30.537Z</time>
      </trkpt>
      <trkpt lat="49.256235" lon="2.079167">
        <ele>128.283012</ele>
        <time>2024-05-25T19:50:36.924Z</time>
      </trkpt>
      <trkpt lat="49.256437" lon="2.079168">
        <ele>128.515701</ele>
        <time>2024-05-25T19:50:42.601Z</time>
      </trkpt>
      <trkpt lat="49.257533" lon="2.078983">
        <ele>129.720352</ele>
        <time>2024-05-25T19:51:14.054Z</time>
      </trkpt>
      <trkpt lat="49.258829" lon="2.078857">
        <ele>130.367957</ele>
        <time>2024-05-25T19:51:47.861Z</time>
      </trkpt>
      <trkpt lat="49.258850" lon="2.078966">
        <ele>130.404947</ele>
        <time>2024-05-25T19:51:49.468Z</time>
      </trkpt>
      <trkpt lat="49.258947" lon="2.079041">
        <ele>130.459130</ele>
        <time>2024-05-25T19:51:51.817Z</time>
      </trkpt>
      <trkpt lat="49.259041" lon="2.078960">
        <ele>130.512912</ele>
        <time>2024-05-25T19:51:54.177Z</time>
      </trkpt>
      <trkpt lat="49.259059" lon="2.078850">
        <ele>130.549821</ele>
        <time>2024-05-25T19:51:55.777Z</time>
      </trkpt>
      <trkpt lat="49.259040" lon="2.078765">
        <ele>130.554278</ele>
        <time>2024-05-25T19:51:56.991Z</time>
      </trkpt>
      <trkpt lat="49.258995" lon="2.078706">
        <ele>130.521446</ele>
        <time>2024-05-25T19:51:58.202Z</time>
      </trkpt>
      <trkpt lat="49.258938" lon="2.078688">
        <ele>130.489184</ele>
        <time>2024-05-25T19:51:59.417Z</time>
      </trkpt>
      <trkpt lat="49.258938" lon="2.078555">
        <ele>130.441065</ele>
        <time>2024-05-25T19:52:01.302Z</time>
      </trkpt>
      <trkpt lat="49.258984" lon="2.078386">
        <ele>130.374818</ele>
        <time>2024-05-25T19:52:03.861Z</time>
      </trkpt>
      <trkpt lat="49.259613" lon="2.076232">
        <ele>129.587289</ele>
        <time>2024-05-25T19:52:36.616Z</time>
      </trkpt>
      <trkpt lat="49.259665" lon="2.076169">
        <ele>129.600029</ele>
        <time>2024-05-25T19:52:38.077Z</time>
      </trkpt>
      <trkpt lat="49.259727" lon="2.076185">
        <ele>129.612112</ele>
        <time>2024-05-25T19:52:39.452Z</time>
      </trkpt>
      <trkpt lat="49.260893" lon="2.077115">
        <ele>129.864736</ele>
        <time>2024-05-25T19:53:11.037Z</time>
      </trkpt>
      <trkpt lat="49.260940" lon="2.077205">
        <ele>129.879193</ele>
        <time>2024-05-25T19:53:13.185Z</time>
      </trkpt>
      <trkpt lat="49.261106" lon="2.075997">
        <ele>130.533597</ele>
        <time>2024-05-25T19:53:36.511Z</time>
      </trkpt>
      <trkpt lat="49.261314" lon="2.074578">
        <ele>131.487487</ele>
        <time>2024-05-25T19:54:03.876Z</time>
      </trkpt>
      <trkpt lat="49.261351" lon="2.074456">
        <ele>131.575723</ele>
        <time>2024-05-25T19:54:06.297Z</time>
      </trkpt>
      <trkpt lat="49.262357" lon="2.074851">
        <ele>132.296628</ele>
        <time>2024-05-25T19:54:48.095Z</time>
      </trkpt>
      <trkpt lat="49.262610" lon="2.074975">
        <ele>132.467393</ele>
        <time>2024-05-25T19:54:54.911Z</time>
      </trkpt>
      <trkpt lat="49.263602" lon="2.075645">
        <ele>133.348024</ele>
        <time>2024-05-25T19:55:23.233Z</time>
      </trkpt>
      <trkpt lat="49.263597" lon="2.075712">
        <ele>133.394587</ele>
        <time>2024-05-25T19:55:24.333Z</time>
      </trkpt>
      <trkpt lat="49.263677" lon="2.075733">
        <ele>133.480465</ele>
        <time>2024-05-25T19:55:26.384Z</time>
      </trkpt>
      <trkpt lat="49.264242" lon="2.075329">
        <ele>134.140147</ele>
        <time>2024-05-25T19:55:43.601Z</time>
      </trkpt>
      <trkpt lat="49.264515" lon="2.075148">
        <ele>134.454873</ele>
        <time>2024-05-25T19:55:56.463Z</time>
      </trkpt>
      <trkpt lat="49.266625" lon="2.073569">
        <ele>138.528208</ele>
        <time>2024-05-25T19:57:45.690Z</time>
      </trkpt>
      <trkpt lat="49.267653" lon="2.072656">
        <ele>140.538413</ele>
        <time>2024-05-25T19:58:40.483Z</time>
      </trkpt>
      <trkpt lat="49.271139" lon="2.070367">
        <ele>145.624804</ele>
        <time>2024-05-25T20:01:26.274Z</time>
      </trkpt>
      <trkpt lat="49.272258" lon="2.069640">
        <ele>146.537431</ele>
        <time>2024-05-25T20:02:15.917Z</time>
      </trkpt>
      <trkpt lat="49.272582" lon="2.069301">
        <ele>146.799759</ele>
        <time>2024-05-25T20:02:31.381Z</time>
      </trkpt>
      <trkpt lat="49.274928" lon="2.066180">
        <ele>148.692342</ele>
        <time>2024-05-25T20:04:33.144Z</time>
      </trkpt>
      <trkpt lat="49.277384" lon="2.062955">
        <ele>152.651284</ele>
        <time>2024-05-25T20:06:57.636Z</time>
      </trkpt>
      <trkpt lat="49.277952" lon="2.062171">
        <ele>153.243510</ele>
        <time>2024-05-25T20:07:28.720Z</time>
      </trkpt>
      <trkpt lat="49.281840" lon="2.057082">
        <ele>154.036292</ele>
        <time>2024-05-25T20:10:36.588Z</time>
      </trkpt>
      <trkpt lat="49.283828" lon="2.057088">
        <ele>156.984616</ele>
        <time>2024-05-25T20:11:42.789Z</time>
      </trkpt>
      <trkpt lat="49.284036" lon="2.057320">
        <ele>157.475297</ele>
        <time>2024-05-25T20:11:51.243Z</time>
      </trkpt>
      <trkpt lat="49.284960" lon="2.057272">
        <ele>158.971351</ele>
        <time>2024-05-25T20:12:20.105Z</time>
      </trkpt>
      <trkpt lat="49.285409" lon="2.057180">
        <ele>159.643451</ele>
        <time>2024-05-25T20:12:33.261Z</time>
      </trkpt>
      <trkpt lat="49.285488" lon="2.057118">
        <ele>159.775128</ele>
        <time>2024-05-25T20:12:35.830Z</time>
      </trkpt>
      <trkpt lat="49.287899" lon="2.056071">
        <ele>163.651194</ele>
        <time>2024-05-25T20:14:26.988Z</time>
      </trkpt>
      <trkpt lat="49.291026" lon="2.056506">
        <ele>170.401833</ele>
        <time>2024-05-25T20:17:01.412Z</time>
      </trkpt>
      <trkpt lat="49.291265" lon="2.056461">
        <ele>170.883438</ele>
        <time>2024-05-25T20:17:11.817Z</time>
      </trkpt>
      <trkpt lat="49.291397" lon="2.056346">
        <ele>171.149285</ele>
        <time>2024-05-25T20:17:18.210Z</time>
      </trkpt>
      <trkpt lat="49.291421" lon="2.056326">
        <ele>171.142029</ele>
        <time>2024-05-25T20:17:19.373Z</time>
      </trkpt>
      <trkpt lat="49.292152" lon="2.055176">
        <ele>170.863815</ele>
        <time>2024-05-25T20:17:59.008Z</time>
      </trkpt>
      <trkpt lat="49.292389" lon="2.054948">
        <ele>170.789492</ele>
        <time>2024-05-25T20:18:08.646Z</time>
      </trkpt>
      <trkpt lat="49.292684" lon="2.054732">
        <ele>170.702652</ele>
        <time>2024-05-25T20:18:19.536Z</time>
      </trkpt>
      <trkpt lat="49.293570" lon="2.054382">
        <ele>170.159347</ele>
        <time>2024-05-25T20:18:50.009Z</time>
      </trkpt>
      <trkpt lat="49.293809" lon="2.054368">
        <ele>170.007623</ele>
        <time>2024-05-25T20:18:58.345Z</time>
      </trkpt>
      <trkpt lat="49.294278" lon="2.054627">
        <ele>169.691398</ele>
        <time>2024-05-25T20:19:16.371Z</time>
      </trkpt>
      <trkpt lat="49.294762" lon="2.054754">
        <ele>170.024744</ele>
        <time>2024-05-25T20:19:36.529Z</time>
      </trkpt>
      <trkpt lat="49.295022" lon="2.054749">
        <ele>170.545892</ele>
        <time>2024-05-25T20:19:48.223Z</time>
      </trkpt>
      <trkpt lat="49.295346" lon="2.054602">
        <ele>171.223103</ele>
        <time>2024-05-25T20:20:04.254Z</time>
      </trkpt>
      <trkpt lat="49.295544" lon="2.054450">
        <ele>171.666903</ele>
        <time>2024-05-25T20:20:15.386Z</time>
      </trkpt>
      <trkpt lat="49.296134" lon="2.053652">
        <ele>173.175858</ele>
        <time>2024-05-25T20:20:55.965Z</time>
      </trkpt>
      <trkpt lat="49.296381" lon="2.053374">
        <ele>173.388655</ele>
        <time>2024-05-25T20:21:11.539Z</time>
      </trkpt>
      <trkpt lat="49.297075" lon="2.052775">
        <ele>173.941761</ele>
        <time>2024-05-25T20:21:46.962Z</time>
      </trkpt>
      <trkpt lat="49.297582" lon="2.052131">
        <ele>174.336864</ele>
        <time>2024-05-25T20:22:09.631Z</time>
      </trkpt>
      <trkpt lat="49.297978" lon="2.051794">
        <ele>172.682082</ele>
        <time>2024-05-25T20:22:23.953Z</time>
      </trkpt>
      <trkpt lat="49.298127" lon="2.051723">
        <ele>172.111988</ele>
        <time>2024-05-25T20:22:28.763Z</time>
      </trkpt>
      <trkpt lat="49.298280" lon="2.051744">
        <ele>171.550723</ele>
        <time>2024-05-25T20:22:33.434Z</time>
      </trkpt>
      <trkpt lat="49.298629" lon="2.051794">
        <ele>170.269997</ele>
        <time>2024-05-25T20:22:43.848Z</time>
      </trkpt>
      <trkpt lat="49.299677" lon="2.052092">
        <ele>165.886937</ele>
        <time>2024-05-25T20:23:14.618Z</time>
      </trkpt>
      <trkpt lat="49.301093" lon="2.052210">
        <ele>158.961587</ele>
        <time>2024-05-25T20:23:55.620Z</time>
      </trkpt>
      <trkpt lat="49.301970" lon="2.052368">
        <ele>155.407468</ele>
        <time>2024-05-25T20:24:21.054Z</time>
      </trkpt>
      <trkpt lat="49.302113" lon="2.052353">
        <ele>154.830561</ele>
        <time>2024-05-25T20:24:25.243Z</time>
      </trkpt>
      <trkpt lat="49.302286" lon="2.052224">
        <ele>154.056306</ele>
        <time>2024-05-25T20:24:31.009Z</time>
      </trkpt>
      <trkpt lat="49.302706" lon="2.051524">
        <ele>151.745003</ele>
        <time>2024-05-25T20:24:50.269Z</time>
      </trkpt>
      <trkpt lat="49.303027" lon="2.051758">
        <ele>151.525354</ele>
        <time>2024-05-25T20:24:56.929Z</time>
      </trkpt>
      <trkpt lat="49.303070" lon="2.051778">
        <ele>151.497585</ele>
        <time>2024-05-25T20:24:58.118Z</time>
      </trkpt>
      <trkpt lat="49.303125" lon="2.051790">
        <ele>151.463252</ele>
        <time>2024-05-25T20:24:59.577Z</time>
      </trkpt>
      <trkpt lat="49.303228" lon="2.051825">
        <ele>151.398054</ele>
        <time>2024-05-25T20:25:01.537Z</time>
      </trkpt>
      <trkpt lat="49.303252" lon="2.051664">
        <ele>151.331502</ele>
        <time>2024-05-25T20:25:03.524Z</time>
      </trkpt>
      <trkpt lat="49.303564" lon="2.051786">
        <ele>151.132517</ele>
        <time>2024-05-25T20:25:09.919Z</time>
      </trkpt>
      <trkpt lat="49.304191" lon="2.051763">
        <ele>150.744919</ele>
        <time>2024-05-25T20:25:25.470Z</time>
      </trkpt>
      <trkpt lat="49.304345" lon="2.051492">
        <ele>150.923313</ele>
        <time>2024-05-25T20:25:32.692Z</time>
      </trkpt>
      <trkpt lat="49.304377" lon="2.051321">
        <ele>151.197600</ele>
        <time>2024-05-25T20:25:36.330Z</time>
      </trkpt>
      <trkpt lat="49.304394" lon="2.051026">
        <ele>151.654198</ele>
        <time>2024-05-25T20:25:42.475Z</time>
      </trkpt>
      <trkpt lat="49.304853" lon="2.050967">
        <ele>152.743331</ele>
        <time>2024-05-25T20:25:57.414Z</time>
      </trkpt>
      <trkpt lat="49.305056" lon="2.051048">
        <ele>153.239313</ele>
        <time>2024-05-25T20:26:03.929Z</time>
      </trkpt>
      <trkpt lat="49.305122" lon="2.051153">
        <ele>153.464172</ele>
        <time>2024-05-25T20:26:07.037Z</time>
      </trkpt>
      <trkpt lat="49.305412" lon="2.051458">
        <ele>154.295635</ele>
        <time>2024-05-25T20:26:19.460Z</time>
      </trkpt>
      <trkpt lat="49.305861" lon="2.051697">
        <ele>156.112673</ele>
        <time>2024-05-25T20:26:38.845Z</time>
      </trkpt>
      <trkpt lat="49.305951" lon="2.051124">
        <ele>158.282669</ele>
        <time>2024-05-25T20:26:57.162Z</time>
      </trkpt>
      <trkpt lat="49.306031" lon="2.050789">
        <ele>159.596179</ele>
        <time>2024-05-25T20:27:08.865Z</time>
      </trkpt>
      <trkpt lat="49.306507" lon="2.049626">
        <ele>164.651738</ele>
        <time>2024-05-25T20:27:57.537Z</time>
      </trkpt>
      <trkpt lat="49.306569" lon="2.049435">
        <ele>165.514904</ele>
        <time>2024-05-25T20:28:05.731Z</time>
      </trkpt>
      <trkpt lat="49.306603" lon="2.049041">
        <ele>167.292918</ele>
        <time>2024-05-25T20:28:21.786Z</time>
      </trkpt>
      <trkpt lat="49.306689" lon="2.048870">
        <ele>168.259059</ele>
        <time>2024-05-25T20:28:30.628Z</time>
      </trkpt>
      <trkpt lat="49.307483" lon="2.048092">
        <ele>174.723905</ele>
        <time>2024-05-25T20:29:29.037Z</time>
      </trkpt>
      <trkpt lat="49.308044" lon="2.047454">
        <ele>178.885050</ele>
        <time>2024-05-25T20:30:07.070Z</time>
      </trkpt>
      <trkpt lat="49.309314" lon="2.046256">
        <ele>186.039556</ele>
        <time>2024-05-25T20:31:18.042Z</time>
      </trkpt>
      <trkpt lat="49.309939" lon="2.045588">
        <ele>188.555839</ele>
        <time>2024-05-25T20:31:49.891Z</time>
      </trkpt>
      <trkpt lat="49.310240" lon="2.045260">
        <ele>189.774112</ele>
        <time>2024-05-25T20:32:04.230Z</time>
      </trkpt>
      <trkpt lat="49.310734" lon="2.044684">
        <ele>191.821553</ele>
        <time>2024-05-25T20:32:26.804Z</time>
      </trkpt>
      <trkpt lat="49.310848" lon="2.044602">
        <ele>192.165406</ele>
        <time>2024-05-25T20:32:31.659Z</time>
      </trkpt>
      <trkpt lat="49.311615" lon="2.044107">
        <ele>194.136577</ele>
        <time>2024-05-25T20:33:00.741Z</time>
      </trkpt>
      <trkpt lat="49.311730" lon="2.044034">
        <ele>194.431399</ele>
        <time>2024-05-25T20:33:04.542Z</time>
      </trkpt>
      <trkpt lat="49.312541" lon="2.043517">
        <ele>196.442067</ele>
        <time>2024-05-25T20:33:33.863Z</time>
      </trkpt>
      <trkpt lat="49.313049" lon="2.043257">
        <ele>197.380379</ele>
        <time>2024-05-25T20:33:50.251Z</time>
      </trkpt>
      <trkpt lat="49.313520" lon="2.042906">
        <ele>198.297859</ele>
        <time>2024-05-25T20:34:06.328Z</time>
      </trkpt>
      <trkpt lat="49.314273" lon="2.042001">
        <ele>199.997339</ele>
        <time>2024-05-25T20:34:35.151Z</time>
      </trkpt>
      <trkpt lat="49.314458" lon="2.041815">
        <ele>200.400575</ele>
        <time>2024-05-25T20:34:42.039Z</time>
      </trkpt>
      <trkpt lat="49.314712" lon="2.041558">
        <ele>200.955270</ele>
        <time>2024-05-25T20:34:51.490Z</time>
      </trkpt>
      <trkpt lat="49.315392" lon="2.041074">
        <ele>202.321841</ele>
        <time>2024-05-25T20:35:15.606Z</time>
      </trkpt>
      <trkpt lat="49.315680" lon="2.040918">
        <ele>202.857342</ele>
        <time>2024-05-25T20:35:25.593Z</time>
      </trkpt>
      <trkpt lat="49.316155" lon="2.040747">
        <ele>203.654173</ele>
        <time>2024-05-25T20:35:41.131Z</time>
      </trkpt>
      <trkpt lat="49.317284" lon="2.040230">
        <ele>205.578422</ele>
        <time>2024-05-25T20:36:16.282Z</time>
      </trkpt>
      <trkpt lat="49.318443" lon="2.039273">
        <ele>207.435992</ele>
        <time>2024-05-25T20:36:54.113Z</time>
      </trkpt>
      <trkpt lat="49.320248" lon="2.037408">
        <ele>210.451359</ele>
        <time>2024-05-25T20:37:58.720Z</time>
      </trkpt>
      <trkpt lat="49.320735" lon="2.036951">
        <ele>210.838161</ele>
        <time>2024-05-25T20:38:14.307Z</time>
      </trkpt>
      <trkpt lat="49.320885" lon="2.036740">
        <ele>210.935950</ele>
        <time>2024-05-25T20:38:19.577Z</time>
      </trkpt>
      <trkpt lat="49.322067" lon="2.034594">
        <ele>211.760485</ele>
        <time>2024-05-25T20:39:01.738Z</time>
      </trkpt>
      <trkpt lat="49.322415" lon="2.033817">
        <ele>212.005787</ele>
        <time>2024-05-25T20:39:24.998Z</time>
      </trkpt>
      <trkpt lat="49.324645" lon="2.034013">
        <ele>214.008124</ele>
        <time>2024-05-25T20:40:58.031Z</time>
      </trkpt>
      <trkpt lat="49.325815" lon="2.034330">
        <ele>215.975404</ele>
        <time>2024-05-25T20:41:52.894Z</time>
      </trkpt>
      <trkpt lat="49.327256" lon="2.034945">
        <ele>218.259189</ele>
        <time>2024-05-25T20:43:01.817Z</time>
      </trkpt>
      <trkpt lat="49.328536" lon="2.035045">
        <ele>219.915763</ele>
        <time>2024-05-25T20:43:56.096Z</time>
      </trkpt>
      <trkpt lat="49.329202" lon="2.035173">
        <ele>220.571267</ele>
        <time>2024-05-25T20:44:23.327Z</time>
      </trkpt>
      <trkpt lat="49.330166" lon="2.035521">
        <ele>221.627307</ele>
        <time>2024-05-25T20:45:05.442Z</time>
      </trkpt>
      <trkpt lat="49.330691" lon="2.035664">
        <ele>222.437406</ele>
        <time>2024-05-25T20:45:29.157Z</time>
      </trkpt>
      <trkpt lat="49.331005" lon="2.035676">
        <ele>222.914612</ele>
        <time>2024-05-25T20:45:43.299Z</time>
      </trkpt>
      <trkpt lat="49.331578" lon="2.035662">
        <ele>223.785279</ele>
        <time>2024-05-25T20:46:09.175Z</time>
      </trkpt>
      <trkpt lat="49.332182" lon="2.035528">
        <ele>224.669466</ele>
        <time>2024-05-25T20:46:37.147Z</time>
      </trkpt>
      <trkpt lat="49.332522" lon="2.035507">
        <ele>225.149471</ele>
        <time>2024-05-25T20:46:52.580Z</time>
      </trkpt>
      <trkpt lat="49.332877" lon="2.035624">
        <ele>225.661666</ele>
        <time>2024-05-25T20:47:08.791Z</time>
      </trkpt>
      <trkpt lat="49.333090" lon="2.035774">
        <ele>225.992261</ele>
        <time>2024-05-25T20:47:18.948Z</time>
      </trkpt>
      <trkpt lat="49.333610" lon="2.036311">
        <ele>226.679977</ele>
        <time>2024-05-25T20:47:45.583Z</time>
      </trkpt>
      <trkpt lat="49.333731" lon="2.036173">
        <ele>226.709454</ele>
        <time>2024-05-25T20:47:49.593Z</time>
      </trkpt>
      <trkpt lat="49.333827" lon="2.036393">
        <ele>226.743189</ele>
        <time>2024-05-25T20:47:54.468Z</time>
      </trkpt>
      <trkpt lat="49.334046" lon="2.036640">
        <ele>226.796331</ele>
        <time>2024-05-25T20:48:01.554Z</time>
      </trkpt>
      <trkpt lat="49.335159" lon="2.037186">
        <ele>226.855681</ele>
        <time>2024-05-25T20:48:28.088Z</time>
      </trkpt>
      <trkpt lat="49.335318" lon="2.036196">
        <ele>226.097992</ele>
        <time>2024-05-25T20:48:40.937Z</time>
      </trkpt>
      <trkpt lat="49.335609" lon="2.034388">
        <ele>225.009080</ele>
        <time>2024-05-25T20:49:04.248Z</time>
      </trkpt>
      <trkpt lat="49.335674" lon="2.034040">
        <ele>225.077994</ele>
        <time>2024-05-25T20:49:08.907Z</time>
      </trkpt>
      <trkpt lat="49.335785" lon="2.033662">
        <ele>225.156921</ele>
        <time>2024-05-25T20:49:14.310Z</time>
      </trkpt>
      <trkpt lat="49.339512" lon="2.026854">
        <ele>227.145104</ele>
        <time>2024-05-25T20:51:38.279Z</time>
      </trkpt>
      <trkpt lat="49.339740" lon="2.026275">
        <ele>227.391259</ele>
        <time>2024-05-25T20:51:49.353Z</time>
      </trkpt>
      <trkpt lat="49.339838" lon="2.025833">
        <ele>227.554184</ele>
        <time>2024-05-25T20:51:57.022Z</time>
      </trkpt>
      <trkpt lat="49.339920" lon="2.025290">
        <ele>227.712183</ele>
        <time>2024-05-25T20:52:06.202Z</time>
      </trkpt>
      <trkpt lat="49.340380" lon="2.021218">
        <ele>228.375745</ele>
        <time>2024-05-25T20:53:11.442Z</time>
      </trkpt>
      <trkpt lat="49.340759" lon="2.018287">
        <ele>227.372816</ele>
        <time>2024-05-25T20:53:51.197Z</time>
      </trkpt>
      <trkpt lat="49.340849" lon="2.017850">
        <ele>227.163168</ele>
        <time>2024-05-25T20:53:57.161Z</time>
      </trkpt>
      <trkpt lat="49.340931" lon="2.017641">
        <ele>227.028817</ele>
        <time>2024-05-25T20:54:00.396Z</time>
      </trkpt>
      <trkpt lat="49.340995" lon="2.017610">
        <ele>226.969072</ele>
        <time>2024-05-25T20:54:01.753Z</time>
      </trkpt>
      <trkpt lat="49.341188" lon="2.017644">
        <ele>226.796129</ele>
        <time>2024-05-25T20:54:05.730Z</time>
      </trkpt>
      <trkpt lat="49.341312" lon="2.017730">
        <ele>226.674992</ele>
        <time>2024-05-25T20:54:08.547Z</time>
      </trkpt>
      <trkpt lat="49.341288" lon="2.017317">
        <ele>226.434488</ele>
        <time>2024-05-25T20:54:14.427Z</time>
      </trkpt>
      <trkpt lat="49.341285" lon="2.017084">
        <ele>226.299314</ele>
        <time>2024-05-25T20:54:17.600Z</time>
      </trkpt>
      <trkpt lat="49.341671" lon="2.016802">
        <ele>225.918740</ele>
        <time>2024-05-25T20:54:26.569Z</time>
      </trkpt>
      <trkpt lat="49.342210" lon="2.016527">
        <ele>225.349775</ele>
        <time>2024-05-25T20:54:38.292Z</time>
      </trkpt>
      <trkpt lat="49.342463" lon="2.016280">
        <ele>224.944497</ele>
        <time>2024-05-25T20:54:44.228Z</time>
      </trkpt>
      <trkpt lat="49.342736" lon="2.015937">
        <ele>224.467640</ele>
        <time>2024-05-25T20:54:55.863Z</time>
      </trkpt>
      <trkpt lat="49.342895" lon="2.015794">
        <ele>224.218554</ele>
        <time>2024-05-25T20:55:01.911Z</time>
      </trkpt>
      <trkpt lat="49.343912" lon="2.015284">
        <ele>223.064300</ele>
        <time>2024-05-25T20:55:38.289Z</time>
      </trkpt>
      <trkpt lat="49.344412" lon="2.014820">
        <ele>222.969403</ele>
        <time>2024-05-25T20:55:59.228Z</time>
      </trkpt>
      <trkpt lat="49.344835" lon="2.014427">
        <ele>222.889095</ele>
        <time>2024-05-25T20:56:18.141Z</time>
      </trkpt>
      <trkpt lat="49.345344" lon="2.014080">
        <ele>222.828194</ele>
        <time>2024-05-25T20:56:40.069Z</time>
      </trkpt>
      <trkpt lat="49.345696" lon="2.013593">
        <ele>222.921081</ele>
        <time>2024-05-25T20:56:59.065Z</time>
      </trkpt>
      <trkpt lat="49.346325" lon="2.012617">
        <ele>223.096395</ele>
        <time>2024-05-25T20:57:32.406Z</time>
      </trkpt>
      <trkpt lat="49.346563" lon="2.012066">
        <ele>223.230816</ele>
        <time>2024-05-25T20:57:48.210Z</time>
      </trkpt>
      <trkpt lat="49.346649" lon="2.011500">
        <ele>223.533660</ele>
        <time>2024-05-25T20:58:02.376Z</time>
      </trkpt>
      <trkpt lat="49.346650" lon="2.010954">
        <ele>223.818168</ele>
        <time>2024-05-25T20:58:16.108Z</time>
      </trkpt>
      <trkpt lat="49.348543" lon="2.011723">
        <ele>225.807215</ele>
        <time>2024-05-25T20:59:41.815Z</time>
      </trkpt>
      <trkpt lat="49.348926" lon="2.011890">
        <ele>226.298044</ele>
        <time>2024-05-25T20:59:54.286Z</time>
      </trkpt>
      <trkpt lat="49.349166" lon="2.011552">
        <ele>226.699563</ele>
        <time>2024-05-25T21:00:03.575Z</time>
      </trkpt>
      <trkpt lat="49.349336" lon="2.011312">
        <ele>226.847120</ele>
        <time>2024-05-25T21:00:09.911Z</time>
      </trkpt>
      <trkpt lat="49.350039" lon="2.008991">
        <ele>227.180453</ele>
        <time>2024-05-25T21:00:47.470Z</time>
      </trkpt>
      <trkpt lat="49.350302" lon="2.008583">
        <ele>227.109416</ele>
        <time>2024-05-25T21:00:55.284Z</time>
      </trkpt>
      <trkpt lat="49.351230" lon="2.007557">
        <ele>226.892143</ele>
        <time>2024-05-25T21:01:19.580Z</time>
      </trkpt>
      <trkpt lat="49.353211" lon="2.003280">
        <ele>227.525535</ele>
        <time>2024-05-25T21:02:40.493Z</time>
      </trkpt>
      <trkpt lat="49.353333" lon="2.002969">
        <ele>227.574657</ele>
        <time>2024-05-25T21:02:45.993Z</time>
      </trkpt>
      <trkpt lat="49.353622" lon="2.002232">
        <ele>227.510086</ele>
        <time>2024-05-25T21:02:58.687Z</time>
      </trkpt>
      <trkpt lat="49.354132" lon="2.000418">
        <ele>227.089687</ele>
        <time>2024-05-25T21:03:25.891Z</time>
      </trkpt>
      <trkpt lat="49.354509" lon="1.998303">
        <ele>226.466307</ele>
        <time>2024-05-25T21:03:55.021Z</time>
      </trkpt>
      <trkpt lat="49.354876" lon="1.996974">
        <ele>226.442843</ele>
        <time>2024-05-25T21:04:15.777Z</time>
      </trkpt>
      <trkpt lat="49.354938" lon="1.996553">
        <ele>226.600018</ele>
        <time>2024-05-25T21:04:22.743Z</time>
      </trkpt>
      <trkpt lat="49.355043" lon="1.995325">
        <ele>227.051027</ele>
        <time>2024-05-25T21:04:43.965Z</time>
      </trkpt>
      <trkpt lat="49.355160" lon="1.994584">
        <ele>227.363784</ele>
        <time>2024-05-25T21:04:57.501Z</time>
      </trkpt>
      <trkpt lat="49.355319" lon="1.993975">
        <ele>227.684779</ele>
        <time>2024-05-25T21:05:09.050Z</time>
      </trkpt>
      <trkpt lat="49.355708" lon="1.992892">
        <ele>228.289852</ele>
        <time>2024-05-25T21:05:30.006Z</time>
      </trkpt>
      <trkpt lat="49.355925" lon="1.992079">
        <ele>228.680446</ele>
        <time>2024-05-25T21:05:44.221Z</time>
      </trkpt>
      <trkpt lat="49.356038" lon="1.991432">
        <ele>228.917722</ele>
        <time>2024-05-25T21:05:54.942Z</time>
      </trkpt>
      <trkpt lat="49.356280" lon="1.989307">
        <ele>229.688734</ele>
        <time>2024-05-25T21:06:29.879Z</time>
      </trkpt>
      <trkpt lat="49.356420" lon="1.987690">
        <ele>230.298018</ele>
        <time>2024-05-25T21:06:56.401Z</time>
      </trkpt>
      <trkpt lat="49.356437" lon="1.986975">
        <ele>230.565258</ele>
        <time>2024-05-25T21:07:08.177Z</time>
      </trkpt>
      <trkpt lat="49.356360" lon="1.985567">
        <ele>231.354047</ele>
        <time>2024-05-25T21:07:32.304Z</time>
      </trkpt>
      <trkpt lat="49.356408" lon="1.985217">
        <ele>231.556560</ele>
        <time>2024-05-25T21:07:38.631Z</time>
      </trkpt>
      <trkpt lat="49.356494" lon="1.985016">
        <ele>231.692722</ele>
        <time>2024-05-25T21:07:42.771Z</time>
      </trkpt>
      <trkpt lat="49.356640" lon="1.984821">
        <ele>231.860938</ele>
        <time>2024-05-25T21:07:48.172Z</time>
      </trkpt>
      <trkpt lat="49.358060" lon="1.983476">
        <ele>233.179659</ele>
        <time>2024-05-25T21:08:33.486Z</time>
      </trkpt>
      <trkpt lat="49.358189" lon="1.983316">
        <ele>233.307466</ele>
        <time>2024-05-25T21:08:37.471Z</time>
      </trkpt>
      <trkpt lat="49.358276" lon="1.983138">
        <ele>233.419176</ele>
        <time>2024-05-25T21:08:41.064Z</time>
      </trkpt>
      <trkpt lat="49.358327" lon="1.982970">
        <ele>233.512217</ele>
        <time>2024-05-25T21:08:43.893Z</time>
      </trkpt>
      <trkpt lat="49.358472" lon="1.982703">
        <ele>233.396551</ele>
        <time>2024-05-25T21:08:49.166Z</time>
      </trkpt>
      <trkpt lat="49.358542" lon="1.982650">
        <ele>233.340366</ele>
        <time>2024-05-25T21:08:50.914Z</time>
      </trkpt>
      <trkpt lat="49.358650" lon="1.982536">
        <ele>233.246019</ele>
        <time>2024-05-25T21:08:53.784Z</time>
      </trkpt>
      <trkpt lat="49.358805" lon="1.982468">
        <ele>233.129975</ele>
        <time>2024-05-25T21:08:57.360Z</time>
      </trkpt>
      <trkpt lat="49.358891" lon="1.982446">
        <ele>233.067213</ele>
        <time>2024-05-25T21:08:59.243Z</time>
      </trkpt>
      <trkpt lat="49.358926" lon="1.982637">
        <ele>232.974184</ele>
        <time>2024-05-25T21:09:02.067Z</time>
      </trkpt>
      <trkpt lat="49.358963" lon="1.982701">
        <ele>232.934061</ele>
        <time>2024-05-25T21:09:03.312Z</time>
      </trkpt>
      <trkpt lat="49.359794" lon="1.983350">
        <ele>232.262911</ele>
        <time>2024-05-25T21:09:22.435Z</time>
      </trkpt>
      <trkpt lat="49.360170" lon="1.983854">
        <ele>230.459420</ele>
        <time>2024-05-25T21:09:32.049Z</time>
      </trkpt>
      <trkpt lat="49.360280" lon="1.983964">
        <ele>229.961512</ele>
        <time>2024-05-25T21:09:34.491Z</time>
      </trkpt>
      <trkpt lat="49.360490" lon="1.984270">
        <ele>228.863406</ele>
        <time>2024-05-25T21:09:39.766Z</time>
      </trkpt>
      <trkpt lat="49.360698" lon="1.984513">
        <ele>227.872073</ele>
        <time>2024-05-25T21:09:44.312Z</time>
      </trkpt>
      <trkpt lat="49.360734" lon="1.984555">
        <ele>227.700582</ele>
        <time>2024-05-25T21:09:45.106Z</time>
      </trkpt>
      <trkpt lat="49.361027" lon="1.984933">
        <ele>226.249046</ele>
        <time>2024-05-25T21:09:51.496Z</time>
      </trkpt>
      <trkpt lat="49.361322" lon="1.985186">
        <ele>224.299543</ele>
        <time>2024-05-25T21:09:56.889Z</time>
      </trkpt>
      <trkpt lat="49.361445" lon="1.985351">
        <ele>222.765480</ele>
        <time>2024-05-25T21:09:59.452Z</time>
      </trkpt>
      <trkpt lat="49.361573" lon="1.985747">
        <ele>220.061189</ele>
        <time>2024-05-25T21:10:03.889Z</time>
      </trkpt>
      <trkpt lat="49.361845" lon="1.986760">
        <ele>213.358638</ele>
        <time>2024-05-25T21:10:14.554Z</time>
      </trkpt>
      <trkpt lat="49.362003" lon="1.987083">
        <ele>210.887602</ele>
        <time>2024-05-25T21:10:18.376Z</time>
      </trkpt>
      <trkpt lat="49.362180" lon="1.987284">
        <ele>208.819888</ele>
        <time>2024-05-25T21:10:21.557Z</time>
      </trkpt>
      <trkpt lat="49.362409" lon="1.987544">
        <ele>206.061698</ele>
        <time>2024-05-25T21:10:25.664Z</time>
      </trkpt>
      <trkpt lat="49.363227" lon="1.988162">
        <ele>197.199961</ele>
        <time>2024-05-25T21:10:39.057Z</time>
      </trkpt>
      <trkpt lat="49.363532" lon="1.988328">
        <ele>194.054478</ele>
        <time>2024-05-25T21:10:44.136Z</time>
      </trkpt>
      <trkpt lat="49.363953" lon="1.988469">
        <ele>190.177909</ele>
        <time>2024-05-25T21:10:50.973Z</time>
      </trkpt>
      <trkpt lat="49.363956" lon="1.988574">
        <ele>189.688961</ele>
        <time>2024-05-25T21:10:52.069Z</time>
      </trkpt>
      <trkpt lat="49.363893" lon="1.988606">
        <ele>189.214940</ele>
        <time>2024-05-25T21:10:53.095Z</time>
      </trkpt>
      <trkpt lat="49.363227" lon="1.988594">
        <ele>184.457082</ele>
        <time>2024-05-25T21:11:03.481Z</time>
      </trkpt>
      <trkpt lat="49.362937" lon="1.988549">
        <ele>182.374933</ele>
        <time>2024-05-25T21:11:08.062Z</time>
      </trkpt>
      <trkpt lat="49.362884" lon="1.988580">
        <ele>181.969792</ele>
        <time>2024-05-25T21:11:09.006Z</time>
      </trkpt>
      <trkpt lat="49.362870" lon="1.988638">
        <ele>181.682023</ele>
        <time>2024-05-25T21:11:09.641Z</time>
      </trkpt>
      <trkpt lat="49.362922" lon="1.988735">
        <ele>181.097534</ele>
        <time>2024-05-25T21:11:10.922Z</time>
      </trkpt>
      <trkpt lat="49.363748" lon="1.989275">
        <ele>174.021497</ele>
        <time>2024-05-25T21:11:25.093Z</time>
      </trkpt>
      <trkpt lat="49.364313" lon="1.989595">
        <ele>168.906987</ele>
        <time>2024-05-25T21:11:34.054Z</time>
      </trkpt>
      <trkpt lat="49.364599" lon="1.989738">
        <ele>166.352485</ele>
        <time>2024-05-25T21:11:38.521Z</time>
      </trkpt>
      <trkpt lat="49.365171" lon="1.990031">
        <ele>161.642457</ele>
        <time>2024-05-25T21:11:47.740Z</time>
      </trkpt>
      <trkpt lat="49.365065" lon="1.990270">
        <ele>160.432843</ele>
        <time>2024-05-25T21:11:50.733Z</time>
      </trkpt>
      <trkpt lat="49.365902" lon="1.992083">
        <ele>151.164417</ele>
        <time>2024-05-25T21:12:14.139Z</time>
      </trkpt>
      <trkpt lat="49.366080" lon="1.992490">
        <ele>149.364959</ele>
        <time>2024-05-25T21:12:19.444Z</time>
      </trkpt>
      <trkpt lat="49.366587" lon="1.993685">
        <ele>144.130161</ele>
        <time>2024-05-25T21:12:34.684Z</time>
      </trkpt>
      <trkpt lat="49.366835" lon="1.994138">
        <ele>141.958026</ele>
        <time>2024-05-25T21:12:40.894Z</time>
      </trkpt>
      <trkpt lat="49.367053" lon="1.994553">
        <ele>140.204871</ele>
        <time>2024-05-25T21:12:46.486Z</time>
      </trkpt>
      <trkpt lat="49.367370" lon="1.995149">
        <ele>137.849801</ele>
        <time>2024-05-25T21:12:54.649Z</time>
      </trkpt>
      <trkpt lat="49.367771" lon="1.995930">
        <ele>134.806076</ele>
        <time>2024-05-25T21:13:05.555Z</time>
      </trkpt>
      <trkpt lat="49.367967" lon="1.996330">
        <ele>133.274091</ele>
        <time>2024-05-25T21:13:11.327Z</time>
      </trkpt>
      <trkpt lat="49.367996" lon="1.996529">
        <ele>132.724739</ele>
        <time>2024-05-25T21:13:13.680Z</time>
      </trkpt>
      <trkpt lat="49.368003" lon="1.997287">
        <ele>131.794670</ele>
        <time>2024-05-25T21:13:22.749Z</time>
      </trkpt>
      <trkpt lat="49.368031" lon="1.997448">
        <ele>131.590220</ele>
        <time>2024-05-25T21:13:24.828Z</time>
      </trkpt>
      <trkpt lat="49.368079" lon="1.997558">
        <ele>131.427765</ele>
        <time>2024-05-25T21:13:26.526Z</time>
      </trkpt>
      <trkpt lat="49.368212" lon="1.997718">
        <ele>131.109453</ele>
        <time>2024-05-25T21:13:29.925Z</time>
      </trkpt>
      <trkpt lat="49.368942" lon="1.998628">
        <ele>129.345294</ele>
        <time>2024-05-25T21:13:49.210Z</time>
      </trkpt>
      <trkpt lat="49.369307" lon="1.999041">
        <ele>128.620765</ele>
        <time>2024-05-25T21:13:58.389Z</time>
      </trkpt>
      <trkpt lat="49.369332" lon="1.998987">
        <ele>128.551816</ele>
        <time>2024-05-25T21:13:59.220Z</time>
      </trkpt>
      <trkpt lat="49.369462" lon="1.998575">
        <ele>128.075397</ele>
        <time>2024-05-25T21:14:04.866Z</time>
      </trkpt>
      <trkpt lat="49.369632" lon="1.997896">
        <ele>127.318386</ele>
        <time>2024-05-25T21:14:13.664Z</time>
      </trkpt>
      <trkpt lat="49.369705" lon="1.997282">
        <ele>126.668883</ele>
        <time>2024-05-25T21:14:21.172Z</time>
      </trkpt>
      <trkpt lat="49.369754" lon="1.996868">
        <ele>126.408752</ele>
        <time>2024-05-25T21:14:26.287Z</time>
      </trkpt>
      <trkpt lat="49.369818" lon="1.996439">
        <ele>126.240792</ele>
        <time>2024-05-25T21:14:31.687Z</time>
      </trkpt>
      <trkpt lat="49.369968" lon="1.996056">
        <ele>126.070229</ele>
        <time>2024-05-25T21:14:37.202Z</time>
      </trkpt>
      <trkpt lat="49.370413" lon="1.995246">
        <ele>125.665793</ele>
        <time>2024-05-25T21:14:51.577Z</time>
      </trkpt>
      <trkpt lat="49.370437" lon="1.995205">
        <ele>125.644754</ele>
        <time>2024-05-25T21:14:52.465Z</time>
      </trkpt>
      <trkpt lat="49.370871" lon="1.994342">
        <ele>126.457333</ele>
        <time>2024-05-25T21:15:12.021Z</time>
      </trkpt>
      <trkpt lat="49.370998" lon="1.994025">
        <ele>127.077595</ele>
        <time>2024-05-25T21:15:20.144Z</time>
      </trkpt>
      <trkpt lat="49.371082" lon="1.993727">
        <ele>127.618746</ele>
        <time>2024-05-25T21:15:27.713Z</time>
      </trkpt>
      <trkpt lat="49.371258" lon="1.992955">
        <ele>128.981852</ele>
        <time>2024-05-25T21:15:48.766Z</time>
      </trkpt>
      <trkpt lat="49.371352" lon="1.992570">
        <ele>129.667071</ele>
        <time>2024-05-25T21:15:59.649Z</time>
      </trkpt>
      <trkpt lat="49.371420" lon="1.992292">
        <ele>130.162609</ele>
        <time>2024-05-25T21:16:07.295Z</time>
      </trkpt>
      <trkpt lat="49.371792" lon="1.990829">
        <ele>132.796682</ele>
        <time>2024-05-25T21:16:46.276Z</time>
      </trkpt>
      <trkpt lat="49.371894" lon="1.990446">
        <ele>133.490666</ele>
        <time>2024-05-25T21:16:55.595Z</time>
      </trkpt>
      <trkpt lat="49.372377" lon="1.991026">
        <ele>134.616247</ele>
        <time>2024-05-25T21:17:15.697Z</time>
      </trkpt>
      <trkpt lat="49.372926" lon="1.991533">
        <ele>134.277782</ele>
        <time>2024-05-25T21:17:32.541Z</time>
      </trkpt>
      <trkpt lat="49.373886" lon="1.992238">
        <ele>133.612233</ele>
        <time>2024-05-25T21:17:55.547Z</time>
      </trkpt>
      <trkpt lat="49.374478" lon="1.992564">
        <ele>132.035229</ele>
        <time>2024-05-25T21:18:08.129Z</time>
      </trkpt>
      <trkpt lat="49.375424" lon="1.992958">
        <ele>129.577419</ele>
        <time>2024-05-25T21:18:27.366Z</time>
      </trkpt>
      <trkpt lat="49.375869" lon="1.993079">
        <ele>128.709168</ele>
        <time>2024-05-25T21:18:36.401Z</time>
      </trkpt>
      <trkpt lat="49.376427" lon="1.993110">
        <ele>127.779369</ele>
        <time>2024-05-25T21:18:47.924Z</time>
      </trkpt>
      <trkpt lat="49.376753" lon="1.993073">
        <ele>127.235027</ele>
        <time>2024-05-25T21:18:55.006Z</time>
      </trkpt>
      <trkpt lat="49.377248" lon="1.992948">
        <ele>126.399677</ele>
        <time>2024-05-25T21:19:06.067Z</time>
      </trkpt>
      <trkpt lat="49.377671" lon="1.992831">
        <ele>126.088670</ele>
        <time>2024-05-25T21:19:14.907Z</time>
      </trkpt>
      <trkpt lat="49.378044" lon="1.992710">
        <ele>125.917701</ele>
        <time>2024-05-25T21:19:23.045Z</time>
      </trkpt>
      <trkpt lat="49.378785" lon="1.992493">
        <ele>125.579398</ele>
        <time>2024-05-25T21:19:39.409Z</time>
      </trkpt>
      <trkpt lat="49.379016" lon="1.992454">
        <ele>125.475178</ele>
        <time>2024-05-25T21:19:44.406Z</time>
      </trkpt>
      <trkpt lat="49.379639" lon="1.992438">
        <ele>124.964195</ele>
        <time>2024-05-25T21:19:57.287Z</time>
      </trkpt>
      <trkpt lat="49.380122" lon="1.992510">
        <ele>124.532554</ele>
        <time>2024-05-25T21:20:06.963Z</time>
      </trkpt>
      <trkpt lat="49.380445" lon="1.992590">
        <ele>124.241538</ele>
        <time>2024-05-25T21:20:13.526Z</time>
      </trkpt>
      <trkpt lat="49.380951" lon="1.992836">
        <ele>123.708732</ele>
        <time>2024-05-25T21:20:24.011Z</time>
      </trkpt>
      <trkpt lat="49.381358" lon="1.993104">
        <ele>122.928351</ele>
        <time>2024-05-25T21:20:32.473Z</time>
      </trkpt>
      <trkpt lat="49.381687" lon="1.993394">
        <ele>122.259874</ele>
        <time>2024-05-25T21:20:39.554Z</time>
      </trkpt>
      <trkpt lat="49.382094" lon="1.993809">
        <ele>121.398975</ele>
        <time>2024-05-25T21:20:48.506Z</time>
      </trkpt>
      <trkpt lat="49.382363" lon="1.994143">
        <ele>120.789414</ele>
        <time>2024-05-25T21:20:54.776Z</time>
      </trkpt>
      <trkpt lat="49.384915" lon="1.997603">
        <ele>114.037179</ele>
        <time>2024-05-25T21:21:56.894Z</time>
      </trkpt>
      <trkpt lat="49.384958" lon="1.997661">
        <ele>113.930406</ele>
        <time>2024-05-25T21:21:57.991Z</time>
      </trkpt>
      <trkpt lat="49.384958" lon="1.997661">
        <ele>113.930406</ele>
        <time>2024-05-25T21:21:58.011Z</time>
      </trkpt>
      <trkpt lat="49.384991" lon="1.997709">
        <ele>113.845609</ele>
        <time>2024-05-25T21:21:59.187Z</time>
      </trkpt>
      <trkpt lat="49.384991" lon="1.997709">
        <ele>113.845609</ele>
        <time>2024-05-25T21:21:59.187Z</time>
      </trkpt>
      <trkpt lat="49.384991" lon="1.997709">
        <ele>113.845609</ele>
        <time>2024-05-25T21:21:59.215Z</time>
      </trkpt>
      <trkpt lat="49.385634" lon="1.997175">
        <ele>112.976730</ele>
        <time>2024-05-25T21:22:14.271Z</time>
      </trkpt>
      <trkpt lat="49.386958" lon="1.996116">
        <ele>111.131658</ele>
        <time>2024-05-25T21:22:46.085Z</time>
      </trkpt>
      <trkpt lat="49.387190" lon="1.995915">
        <ele>110.499029</ele>
        <time>2024-05-25T21:22:51.312Z</time>
      </trkpt>
      <trkpt lat="49.387303" lon="1.995747">
        <ele>110.125529</ele>
        <time>2024-05-25T21:22:54.325Z</time>
      </trkpt>
      <trkpt lat="49.387408" lon="1.995440">
        <ele>109.589347</ele>
        <time>2024-05-25T21:22:58.532Z</time>
      </trkpt>
      <trkpt lat="49.387440" lon="1.995140">
        <ele>109.119333</ele>
        <time>2024-05-25T21:23:02.172Z</time>
      </trkpt>
      <trkpt lat="49.387379" lon="1.994638">
        <ele>108.329787</ele>
        <time>2024-05-25T21:23:08.136Z</time>
      </trkpt>
      <trkpt lat="49.387007" lon="1.992811">
        <ele>104.709370</ele>
        <time>2024-05-25T21:23:30.251Z</time>
      </trkpt>
      <trkpt lat="49.386977" lon="1.992669">
        <ele>104.406307</ele>
        <time>2024-05-25T21:23:31.971Z</time>
      </trkpt>
      <trkpt lat="49.386818" lon="1.991897">
        <ele>102.762566</ele>
        <time>2024-05-25T21:23:41.351Z</time>
      </trkpt>
      <trkpt lat="49.386826" lon="1.991561">
        <ele>102.080025</ele>
        <time>2024-05-25T21:23:45.371Z</time>
      </trkpt>
      <trkpt lat="49.387404" lon="1.991870">
        <ele>101.133502</ele>
        <time>2024-05-25T21:23:57.021Z</time>
      </trkpt>
      <trkpt lat="49.388122" lon="1.992286">
        <ele>100.094217</ele>
        <time>2024-05-25T21:24:13.118Z</time>
      </trkpt>
      <trkpt lat="49.388765" lon="1.992606">
        <ele>99.343429</ele>
        <time>2024-05-25T21:24:27.389Z</time>
      </trkpt>
      <trkpt lat="49.388953" lon="1.992732">
        <ele>99.243414</ele>
        <time>2024-05-25T21:24:31.817Z</time>
      </trkpt>
      <trkpt lat="49.389026" lon="1.992834">
        <ele>99.195298</ele>
        <time>2024-05-25T21:24:33.947Z</time>
      </trkpt>
      <trkpt lat="49.389149" lon="1.993035">
        <ele>99.107736</ele>
        <time>2024-05-25T21:24:37.932Z</time>
      </trkpt>
      <trkpt lat="49.389339" lon="1.993188">
        <ele>99.003134</ele>
        <time>2024-05-25T21:24:42.639Z</time>
      </trkpt>
      <trkpt lat="49.390191" lon="1.993489">
        <ele>98.576847</ele>
        <time>2024-05-25T21:25:02.251Z</time>
      </trkpt>
      <trkpt lat="49.390348" lon="1.993593">
        <ele>98.428730</ele>
        <time>2024-05-25T21:25:06.083Z</time>
      </trkpt>
      <trkpt lat="49.391027" lon="1.994799">
        <ele>97.422507</ele>
        <time>2024-05-25T21:25:27.917Z</time>
      </trkpt>
      <trkpt lat="49.391403" lon="1.995319">
        <ele>96.932050</ele>
        <time>2024-05-25T21:25:38.134Z</time>
      </trkpt>
      <trkpt lat="49.391578" lon="1.995582">
        <ele>96.614652</ele>
        <time>2024-05-25T21:25:43.044Z</time>
      </trkpt>
      <trkpt lat="49.391806" lon="1.996217">
        <ele>95.853056</ele>
        <time>2024-05-25T21:25:52.444Z</time>
      </trkpt>
      <trkpt lat="49.392052" lon="1.996751">
        <ele>95.166018</ele>
        <time>2024-05-25T21:26:00.776Z</time>
      </trkpt>
      <trkpt lat="49.392334" lon="1.997334">
        <ele>94.403218</ele>
        <time>2024-05-25T21:26:09.986Z</time>
      </trkpt>
      <trkpt lat="49.392450" lon="1.997473">
        <ele>94.165864</ele>
        <time>2024-05-25T21:26:12.845Z</time>
      </trkpt>
      <trkpt lat="49.392953" lon="1.997889">
        <ele>93.478532</ele>
        <time>2024-05-25T21:26:24.144Z</time>
      </trkpt>
      <trkpt lat="49.393705" lon="1.998351">
        <ele>92.629519</ele>
        <time>2024-05-25T21:26:40.662Z</time>
      </trkpt>
      <trkpt lat="49.395008" lon="1.999310">
        <ele>92.373724</ele>
        <time>2024-05-25T21:27:12.782Z</time>
      </trkpt>
      <trkpt lat="49.395381" lon="1.999588">
        <ele>92.538480</ele>
        <time>2024-05-25T21:27:23.687Z</time>
      </trkpt>
      <trkpt lat="49.395794" lon="1.999844">
        <ele>92.715466</ele>
        <time>2024-05-25T21:27:36.310Z</time>
      </trkpt>
      <trkpt lat="49.398840" lon="2.001251">
        <ele>97.221030</ele>
        <time>2024-05-25T21:29:17.152Z</time>
      </trkpt>
      <trkpt lat="49.399449" lon="2.001649">
        <ele>97.562155</ele>
        <time>2024-05-25T21:29:33.322Z</time>
      </trkpt>
      <trkpt lat="49.400167" lon="2.002238">
        <ele>96.499354</ele>
        <time>2024-05-25T21:29:50.391Z</time>
      </trkpt>
      <trkpt lat="49.401618" lon="2.004366">
        <ele>92.591607</ele>
        <time>2024-05-25T21:30:28.205Z</time>
      </trkpt>
      <trkpt lat="49.401850" lon="2.004638">
        <ele>91.896718</ele>
        <time>2024-05-25T21:30:33.624Z</time>
      </trkpt>
      <trkpt lat="49.401970" lon="2.004710">
        <ele>91.589954</ele>
        <time>2024-05-25T21:30:36.016Z</time>
      </trkpt>
      <trkpt lat="49.402317" lon="2.004820">
        <ele>90.807016</ele>
        <time>2024-05-25T21:30:42.580Z</time>
      </trkpt>
      <trkpt lat="49.402812" lon="2.004925">
        <ele>89.791152</ele>
        <time>2024-05-25T21:30:51.769Z</time>
      </trkpt>
      <trkpt lat="49.403019" lon="2.005014">
        <ele>89.354166</ele>
        <time>2024-05-25T21:30:55.845Z</time>
      </trkpt>
      <trkpt lat="49.403676" lon="2.005390">
        <ele>87.928887</ele>
        <time>2024-05-25T21:31:09.490Z</time>
      </trkpt>
      <trkpt lat="49.403951" lon="2.005572">
        <ele>87.482586</ele>
        <time>2024-05-25T21:31:15.521Z</time>
      </trkpt>
      <trkpt lat="49.404052" lon="2.005673">
        <ele>87.452766</ele>
        <time>2024-05-25T21:31:18.006Z</time>
      </trkpt>
      <trkpt lat="49.404035" lon="2.005754">
        <ele>87.439060</ele>
        <time>2024-05-25T21:31:19.090Z</time>
      </trkpt>
      <trkpt lat="49.404049" lon="2.005807">
        <ele>87.429849</ele>
        <time>2024-05-25T21:31:19.827Z</time>
      </trkpt>
      <trkpt lat="49.404099" lon="2.005849">
        <ele>87.415747</ele>
        <time>2024-05-25T21:31:20.960Z</time>
      </trkpt>
      <trkpt lat="49.404136" lon="2.005838">
        <ele>87.406421</ele>
        <time>2024-05-25T21:31:21.741Z</time>
      </trkpt>
      <trkpt lat="49.404172" lon="2.005770">
        <ele>87.392304</ele>
        <time>2024-05-25T21:31:22.932Z</time>
      </trkpt>
      <trkpt lat="49.404171" lon="2.005712">
        <ele>87.382961</ele>
        <time>2024-05-25T21:31:23.748Z</time>
      </trkpt>
      <trkpt lat="49.404677" lon="2.005760">
        <ele>87.257501</ele>
        <time>2024-05-25T21:31:34.424Z</time>
      </trkpt>
      <trkpt lat="49.405380" lon="2.005611">
        <ele>87.081880</ele>
        <time>2024-05-25T21:31:51.282Z</time>
      </trkpt>
      <trkpt lat="49.405690" lon="2.005587">
        <ele>87.099369</ele>
        <time>2024-05-25T21:31:59.526Z</time>
      </trkpt>
      <trkpt lat="49.406409" lon="2.005686">
        <ele>87.227511</ele>
        <time>2024-05-25T21:32:17.912Z</time>
      </trkpt>
      <trkpt lat="49.407179" lon="2.005785">
        <ele>87.364673</ele>
        <time>2024-05-25T21:32:35.072Z</time>
      </trkpt>
      <trkpt lat="49.407905" lon="2.005540">
        <ele>86.664323</ele>
        <time>2024-05-25T21:32:50.141Z</time>
      </trkpt>
      <trkpt lat="49.408175" lon="2.005436">
        <ele>86.363314</ele>
        <time>2024-05-25T21:32:55.569Z</time>
      </trkpt>
      <trkpt lat="49.408653" lon="2.005311">
        <ele>85.838975</ele>
        <time>2024-05-25T21:33:04.960Z</time>
      </trkpt>
      <trkpt lat="49.408842" lon="2.005303">
        <ele>85.634513</ele>
        <time>2024-05-25T21:33:08.570Z</time>
      </trkpt>
      <trkpt lat="49.409759" lon="2.005529">
        <ele>84.111184</ele>
        <time>2024-05-25T21:33:26.021Z</time>
      </trkpt>
      <trkpt lat="49.410424" lon="2.005519">
        <ele>82.927770</ele>
        <time>2024-05-25T21:33:38.402Z</time>
      </trkpt>
      <trkpt lat="49.410939" lon="2.005622">
        <ele>81.962854</ele>
        <time>2024-05-25T21:33:48.100Z</time>
      </trkpt>
      <trkpt lat="49.412425" lon="2.006064">
        <ele>78.792092</ele>
        <time>2024-05-25T21:34:15.315Z</time>
      </trkpt>
      <trkpt lat="49.412689" lon="2.006229">
        <ele>78.334815</ele>
        <time>2024-05-25T21:34:20.440Z</time>
      </trkpt>
      <trkpt lat="49.413771" lon="2.007179">
        <ele>77.072900</ele>
        <time>2024-05-25T21:34:44.970Z</time>
      </trkpt>
      <trkpt lat="49.414386" lon="2.007431">
        <ele>76.636542</ele>
        <time>2024-05-25T21:34:58.924Z</time>
      </trkpt>
      <trkpt lat="49.414845" lon="2.007660">
        <ele>76.619422</ele>
        <time>2024-05-25T21:35:09.929Z</time>
      </trkpt>
      <trkpt lat="49.415101" lon="2.007613">
        <ele>76.610276</ele>
        <time>2024-05-25T21:35:15.965Z</time>
      </trkpt>
      <trkpt lat="49.415633" lon="2.007239">
        <ele>76.589522</ele>
        <time>2024-05-25T21:35:29.713Z</time>
      </trkpt>
      <trkpt lat="49.416127" lon="2.006972">
        <ele>76.358807</ele>
        <time>2024-05-25T21:35:40.912Z</time>
      </trkpt>
      <trkpt lat="49.416270" lon="2.006927">
        <ele>76.236094</ele>
        <time>2024-05-25T21:35:43.830Z</time>
      </trkpt>
      <trkpt lat="49.416581" lon="2.006910">
        <ele>75.974473</ele>
        <time>2024-05-25T21:35:50.013Z</time>
      </trkpt>
      <trkpt lat="49.416775" lon="2.006829">
        <ele>75.805469</ele>
        <time>2024-05-25T21:35:53.942Z</time>
      </trkpt>
      <trkpt lat="49.416959" lon="2.006599">
        <ele>75.606091</ele>
        <time>2024-05-25T21:35:58.514Z</time>
      </trkpt>
      <trkpt lat="49.417037" lon="2.006408">
        <ele>75.482754</ele>
        <time>2024-05-25T21:36:01.389Z</time>
      </trkpt>
      <trkpt lat="49.417361" lon="2.005273">
        <ele>75.015914</ele>
        <time>2024-05-25T21:36:17.419Z</time>
      </trkpt>
      <trkpt lat="49.417535" lon="2.005440">
        <ele>74.981680</ele>
        <time>2024-05-25T21:36:21.771Z</time>
      </trkpt>
      <trkpt lat="49.417766" lon="2.004646">
        <ele>74.887250</ele>
        <time>2024-05-25T21:36:34.261Z</time>
      </trkpt>
      <trkpt lat="49.417869" lon="2.004158">
        <ele>74.831551</ele>
        <time>2024-05-25T21:36:41.805Z</time>
      </trkpt>
      <trkpt lat="49.419537" lon="1.995097">
        <ele>77.183255</ele>
        <time>2024-05-25T21:39:10.440Z</time>
      </trkpt>
      <trkpt lat="49.419769" lon="1.993591">
        <ele>77.764491</ele>
        <time>2024-05-25T21:39:36.639Z</time>
      </trkpt>
      <trkpt lat="49.419978" lon="1.991918">
        <ele>78.092515</ele>
        <time>2024-05-25T21:40:04.249Z</time>
      </trkpt>
      <trkpt lat="49.420409" lon="1.987234">
        <ele>77.932078</ele>
        <time>2024-05-25T21:41:11.200Z</time>
      </trkpt>
      <trkpt lat="49.420426" lon="1.987008">
        <ele>77.938433</ele>
        <time>2024-05-25T21:41:14.235Z</time>
      </trkpt>
      <trkpt lat="49.420441" lon="1.986808">
        <ele>77.944057</ele>
        <time>2024-05-25T21:41:17.052Z</time>
      </trkpt>
      <trkpt lat="49.420459" lon="1.986585">
        <ele>77.950335</ele>
        <time>2024-05-25T21:41:20.677Z</time>
      </trkpt>
      <trkpt lat="49.420479" lon="1.986368">
        <ele>77.956457</ele>
        <time>2024-05-25T21:41:24.126Z</time>
      </trkpt>
      <trkpt lat="49.420502" lon="1.986145">
        <ele>77.962765</ele>
        <time>2024-05-25T21:41:27.495Z</time>
      </trkpt>
      <trkpt lat="49.420525" lon="1.985945">
        <ele>77.968439</ele>
        <time>2024-05-25T21:41:30.416Z</time>
      </trkpt>
      <trkpt lat="49.420555" lon="1.985703">
        <ele>77.975321</ele>
        <time>2024-05-25T21:41:34.108Z</time>
      </trkpt>
      <trkpt lat="49.420581" lon="1.985498">
        <ele>77.981155</ele>
        <time>2024-05-25T21:41:37.144Z</time>
      </trkpt>
      <trkpt lat="49.420611" lon="1.985272">
        <ele>77.987599</ele>
        <time>2024-05-25T21:41:40.468Z</time>
      </trkpt>
      <trkpt lat="49.420638" lon="1.985072">
        <ele>77.993305</ele>
        <time>2024-05-25T21:41:43.409Z</time>
      </trkpt>
      <trkpt lat="49.420671" lon="1.984849">
        <ele>77.999694</ele>
        <time>2024-05-25T21:41:46.670Z</time>
      </trkpt>
      <trkpt lat="49.420708" lon="1.984639">
        <ele>78.039379</ele>
        <time>2024-05-25T21:41:49.968Z</time>
      </trkpt>
      <trkpt lat="49.420747" lon="1.984408">
        <ele>78.128951</ele>
        <time>2024-05-25T21:41:53.481Z</time>
      </trkpt>
      <trkpt lat="49.420782" lon="1.984222">
        <ele>78.201623</ele>
        <time>2024-05-25T21:41:56.526Z</time>
      </trkpt>
      <trkpt lat="49.420819" lon="1.984020">
        <ele>78.280386</ele>
        <time>2024-05-25T21:41:59.945Z</time>
      </trkpt>
      <trkpt lat="49.420862" lon="1.983802">
        <ele>78.365884</ele>
        <time>2024-05-25T21:42:03.695Z</time>
      </trkpt>
      <trkpt lat="49.420946" lon="1.983405">
        <ele>78.522570</ele>
        <time>2024-05-25T21:42:11.350Z</time>
      </trkpt>
      <trkpt lat="49.420980" lon="1.983034">
        <ele>78.663189</ele>
        <time>2024-05-25T21:42:17.504Z</time>
      </trkpt>
      <trkpt lat="49.421047" lon="1.982788">
        <ele>78.763283</ele>
        <time>2024-05-25T21:42:21.973Z</time>
      </trkpt>
      <trkpt lat="49.421151" lon="1.982607">
        <ele>78.853923</ele>
        <time>2024-05-25T21:42:26.054Z</time>
      </trkpt>
      <trkpt lat="49.421333" lon="1.982052">
        <ele>79.074076</ele>
        <time>2024-05-25T21:42:36.611Z</time>
      </trkpt>
      <trkpt lat="49.421563" lon="1.981351">
        <ele>79.285349</ele>
        <time>2024-05-25T21:42:48.542Z</time>
      </trkpt>
      <trkpt lat="49.421796" lon="1.980666">
        <ele>79.493358</ele>
        <time>2024-05-25T21:43:00.501Z</time>
      </trkpt>
      <trkpt lat="49.422334" lon="1.979121">
        <ele>79.999729</ele>
        <time>2024-05-25T21:43:28.361Z</time>
      </trkpt>
      <trkpt lat="49.422461" lon="1.978895">
        <ele>80.095629</ele>
        <time>2024-05-25T21:43:32.838Z</time>
      </trkpt>
      <trkpt lat="49.422488" lon="1.978776">
        <ele>80.136099</ele>
        <time>2024-05-25T21:43:34.733Z</time>
      </trkpt>
      <trkpt lat="49.422502" lon="1.978643">
        <ele>80.179362</ele>
        <time>2024-05-25T21:43:36.830Z</time>
      </trkpt>
      <trkpt lat="49.422950" lon="1.977208">
        <ele>80.705852</ele>
        <time>2024-05-25T21:44:02.634Z</time>
      </trkpt>
      <trkpt lat="49.423113" lon="1.976616">
        <ele>81.091949</ele>
        <time>2024-05-25T21:44:13.978Z</time>
      </trkpt>
      <trkpt lat="49.423328" lon="1.975546">
        <ele>81.764552</ele>
        <time>2024-05-25T21:44:34.774Z</time>
      </trkpt>
      <trkpt lat="49.423487" lon="1.974215">
        <ele>82.395547</ele>
        <time>2024-05-25T21:44:57.802Z</time>
      </trkpt>
      <trkpt lat="49.423555" lon="1.972596">
        <ele>82.643364</ele>
        <time>2024-05-25T21:45:23.319Z</time>
      </trkpt>
      <trkpt lat="49.423731" lon="1.967199">
        <ele>81.470204</ele>
        <time>2024-05-25T21:46:37.465Z</time>
      </trkpt>
      <trkpt lat="49.423840" lon="1.966039">
        <ele>81.122815</ele>
        <time>2024-05-25T21:46:53.437Z</time>
      </trkpt>
      <trkpt lat="49.423899" lon="1.965607">
        <ele>80.988095</ele>
        <time>2024-05-25T21:46:59.427Z</time>
      </trkpt>
      <trkpt lat="49.424103" lon="1.964518">
        <ele>80.642226</ele>
        <time>2024-05-25T21:47:14.791Z</time>
      </trkpt>
      <trkpt lat="49.425268" lon="1.959080">
        <ele>79.647727</ele>
        <time>2024-05-25T21:48:33.590Z</time>
      </trkpt>
      <trkpt lat="49.426175" lon="1.954887">
        <ele>81.684581</ele>
        <time>2024-05-25T21:49:52.289Z</time>
      </trkpt>
      <trkpt lat="49.426556" lon="1.953371">
        <ele>82.118607</ele>
        <time>2024-05-25T21:50:17.093Z</time>
      </trkpt>
      <trkpt lat="49.427425" lon="1.951182">
        <ele>81.800168</ele>
        <time>2024-05-25T21:50:52.476Z</time>
      </trkpt>
      <trkpt lat="49.428086" lon="1.949773">
        <ele>81.870683</ele>
        <time>2024-05-25T21:51:17.447Z</time>
      </trkpt>
      <trkpt lat="49.429963" lon="1.945559">
        <ele>82.366284</ele>
        <time>2024-05-25T21:52:36.837Z</time>
      </trkpt>
      <trkpt lat="49.431021" lon="1.942979">
        <ele>81.616931</ele>
        <time>2024-05-25T21:53:17.626Z</time>
      </trkpt>
      <trkpt lat="49.431509" lon="1.941623">
        <ele>81.182430</ele>
        <time>2024-05-25T21:53:39.019Z</time>
      </trkpt>
      <trkpt lat="49.431577" lon="1.941413">
        <ele>81.224615</ele>
        <time>2024-05-25T21:53:42.366Z</time>
      </trkpt>
      <trkpt lat="49.431756" lon="1.940862">
        <ele>81.335371</ele>
        <time>2024-05-25T21:53:51.532Z</time>
      </trkpt>
      <trkpt lat="49.432127" lon="1.939482">
        <ele>81.603892</ele>
        <time>2024-05-25T21:54:15.085Z</time>
      </trkpt>
      <trkpt lat="49.432661" lon="1.937283">
        <ele>82.310133</ele>
        <time>2024-05-25T21:54:53.508Z</time>
      </trkpt>
      <trkpt lat="49.434295" lon="1.930763">
        <ele>83.798540</ele>
        <time>2024-05-25T21:56:42.687Z</time>
      </trkpt>
      <trkpt lat="49.435691" lon="1.924914">
        <ele>83.482750</ele>
        <time>2024-05-25T21:58:10.402Z</time>
      </trkpt>
      <trkpt lat="49.436134" lon="1.923358">
        <ele>83.728411</ele>
        <time>2024-05-25T21:58:37.003Z</time>
      </trkpt>
      <trkpt lat="49.436565" lon="1.922192">
        <ele>84.373056</ele>
        <time>2024-05-25T21:58:59.748Z</time>
      </trkpt>
      <trkpt lat="49.437459" lon="1.920607">
        <ele>85.638002</ele>
        <time>2024-05-25T21:59:35.851Z</time>
      </trkpt>
      <trkpt lat="49.437904" lon="1.920026">
        <ele>86.317418</ele>
        <time>2024-05-25T21:59:53.810Z</time>
      </trkpt>
      <trkpt lat="49.438183" lon="1.920272">
        <ele>86.691728</ele>
        <time>2024-05-25T22:00:03.052Z</time>
      </trkpt>
      <trkpt lat="49.438493" lon="1.920612">
        <ele>87.100888</ele>
        <time>2024-05-25T22:00:13.190Z</time>
      </trkpt>
      <trkpt lat="49.439019" lon="1.921436">
        <ele>87.695215</ele>
        <time>2024-05-25T22:00:33.325Z</time>
      </trkpt>
      <trkpt lat="49.439174" lon="1.921488">
        <ele>87.820789</ele>
        <time>2024-05-25T22:00:37.932Z</time>
      </trkpt>
      <trkpt lat="49.439309" lon="1.921347">
        <ele>87.949961</ele>
        <time>2024-05-25T22:00:42.256Z</time>
      </trkpt>
      <trkpt lat="49.439492" lon="1.920926">
        <ele>88.210607</ele>
        <time>2024-05-25T22:00:50.958Z</time>
      </trkpt>
      <trkpt lat="49.439506" lon="1.920676">
        <ele>88.339758</ele>
        <time>2024-05-25T22:00:57.593Z</time>
      </trkpt>
      <trkpt lat="49.439729" lon="1.919710">
        <ele>88.412060</ele>
        <time>2024-05-25T22:01:22.238Z</time>
      </trkpt>
      <trkpt lat="49.439822" lon="1.918937">
        <ele>88.372833</ele>
        <time>2024-05-25T22:01:40.414Z</time>
      </trkpt>
      <trkpt lat="49.440071" lon="1.918247">
        <ele>88.333455</ele>
        <time>2024-05-25T22:01:59.435Z</time>
      </trkpt>
      <trkpt lat="49.440458" lon="1.917460">
        <ele>88.463903</ele>
        <time>2024-05-25T22:02:23.312Z</time>
      </trkpt>
      <trkpt lat="49.440984" lon="1.916907">
        <ele>88.707344</ele>
        <time>2024-05-25T22:02:47.149Z</time>
      </trkpt>
      <trkpt lat="49.441702" lon="1.916462">
        <ele>89.012776</ele>
        <time>2024-05-25T22:03:17.608Z</time>
      </trkpt>
      <trkpt lat="49.442269" lon="1.916117">
        <ele>90.630488</ele>
        <time>2024-05-25T22:03:44.995Z</time>
      </trkpt>
      <trkpt lat="49.442766" lon="1.915412">
        <ele>92.424247</ele>
        <time>2024-05-25T22:04:19.404Z</time>
      </trkpt>
      <trkpt lat="49.443929" lon="1.913251">
        <ele>99.302633</ele>
        <time>2024-05-25T22:06:06.522Z</time>
      </trkpt>
      <trkpt lat="49.444468" lon="1.912328">
        <ele>102.258039</ele>
        <time>2024-05-25T22:06:53.537Z</time>
      </trkpt>
      <trkpt lat="49.444850" lon="1.911491">
        <ele>104.158229</ele>
        <time>2024-05-25T22:07:28.608Z</time>
      </trkpt>
      <trkpt lat="49.445263" lon="1.910762">
        <ele>105.954901</ele>
        <time>2024-05-25T22:07:58.886Z</time>
      </trkpt>
      <trkpt lat="49.445771" lon="1.909350">
        <ele>107.564273</ele>
        <time>2024-05-25T22:08:45.611Z</time>
      </trkpt>
      <trkpt lat="49.445799" lon="1.909281">
        <ele>107.630730</ele>
        <time>2024-05-25T22:08:47.848Z</time>
      </trkpt>
      <trkpt lat="49.446225" lon="1.908123">
        <ele>108.717834</ele>
        <time>2024-05-25T22:09:11.909Z</time>
      </trkpt>
      <trkpt lat="49.446658" lon="1.907457">
        <ele>109.423903</ele>
        <time>2024-05-25T22:09:28.988Z</time>
      </trkpt>
      <trkpt lat="49.447306" lon="1.906216">
        <ele>110.614758</ele>
        <time>2024-05-25T22:09:59.962Z</time>
      </trkpt>
      <trkpt lat="49.447597" lon="1.905548">
        <ele>110.849756</ele>
        <time>2024-05-25T22:10:14.850Z</time>
      </trkpt>
      <trkpt lat="49.447807" lon="1.905075">
        <ele>110.897185</ele>
        <time>2024-05-25T22:10:24.509Z</time>
      </trkpt>
      <trkpt lat="49.448120" lon="1.904598">
        <ele>110.953305</ele>
        <time>2024-05-25T22:10:34.687Z</time>
      </trkpt>
      <trkpt lat="49.448189" lon="1.904499">
        <ele>110.965324</ele>
        <time>2024-05-25T22:10:36.766Z</time>
      </trkpt>
      <trkpt lat="49.448581" lon="1.904110">
        <ele>111.024741</ele>
        <time>2024-05-25T22:10:46.263Z</time>
      </trkpt>
      <trkpt lat="49.448584" lon="1.903997">
        <ele>111.036909</ele>
        <time>2024-05-25T22:10:47.843Z</time>
      </trkpt>
      <trkpt lat="49.449091" lon="1.902962">
        <ele>111.484001</ele>
        <time>2024-05-25T22:11:06.498Z</time>
      </trkpt>
      <trkpt lat="49.449319" lon="1.902408">
        <ele>111.710208</ele>
        <time>2024-05-25T22:11:17.333Z</time>
      </trkpt>
      <trkpt lat="49.449339" lon="1.902358">
        <ele>111.730462</ele>
        <time>2024-05-25T22:11:18.208Z</time>
      </trkpt>
      <trkpt lat="49.449358" lon="1.902274">
        <ele>111.761146</ele>
        <time>2024-05-25T22:11:19.437Z</time>
      </trkpt>
      <trkpt lat="49.449493" lon="1.902416">
        <ele>111.847935</ele>
        <time>2024-05-25T22:11:24.360Z</time>
      </trkpt>
      <trkpt lat="49.449549" lon="1.902558">
        <ele>111.905233</ele>
        <time>2024-05-25T22:11:27.600Z</time>
      </trkpt>
      <trkpt lat="49.449572" lon="1.902805">
        <ele>112.008799</ele>
        <time>2024-05-25T22:11:32.391Z</time>
      </trkpt>
      <trkpt lat="49.449554" lon="1.902916">
        <ele>112.239265</ele>
        <time>2024-05-25T22:11:34.968Z</time>
      </trkpt>
      <trkpt lat="49.449345" lon="1.903485">
        <ele>113.555841</ele>
        <time>2024-05-25T22:11:50.404Z</time>
      </trkpt>
      <trkpt lat="49.449283" lon="1.903866">
        <ele>114.347063</ele>
        <time>2024-05-25T22:12:00.075Z</time>
      </trkpt>
      <trkpt lat="49.449292" lon="1.904002">
        <ele>114.622457</ele>
        <time>2024-05-25T22:12:03.960Z</time>
      </trkpt>
      <trkpt lat="49.449610" lon="1.903902">
        <ele>115.628235</ele>
        <time>2024-05-25T22:12:18.050Z</time>
      </trkpt>
      <trkpt lat="49.449727" lon="1.903903">
        <ele>115.990792</ele>
        <time>2024-05-25T22:12:23.674Z</time>
      </trkpt>
      <trkpt lat="49.450404" lon="1.904219">
        <ele>118.104792</ele>
        <time>2024-05-25T22:12:52.814Z</time>
      </trkpt>
      <trkpt lat="49.450599" lon="1.904250">
        <ele>118.635778</ele>
        <time>2024-05-25T22:12:59.891Z</time>
      </trkpt>
      <trkpt lat="49.450977" lon="1.904247">
        <ele>119.659634</ele>
        <time>2024-05-25T22:13:12.843Z</time>
      </trkpt>
      <trkpt lat="49.451254" lon="1.904254">
        <ele>120.410011</ele>
        <time>2024-05-25T22:13:22.350Z</time>
      </trkpt>
      <trkpt lat="49.451559" lon="1.904110">
        <ele>121.274164</ele>
        <time>2024-05-25T22:13:32.804Z</time>
      </trkpt>
      <trkpt lat="49.452287" lon="1.903640">
        <ele>124.019915</ele>
        <time>2024-05-25T22:14:02.286Z</time>
      </trkpt>
      <trkpt lat="49.452670" lon="1.903515">
        <ele>125.737770</ele>
        <time>2024-05-25T22:14:19.062Z</time>
      </trkpt>
      <trkpt lat="49.452925" lon="1.903479">
        <ele>126.861309</ele>
        <time>2024-05-25T22:14:30.534Z</time>
      </trkpt>
      <trkpt lat="49.453176" lon="1.903909">
        <ele>128.509658</ele>
        <time>2024-05-25T22:14:54.044Z</time>
      </trkpt>
      <trkpt lat="49.453490" lon="1.904581">
        <ele>131.000115</ele>
        <time>2024-05-25T22:15:29.281Z</time>
      </trkpt>
      <trkpt lat="49.453741" lon="1.904802">
        <ele>132.571451</ele>
        <time>2024-05-25T22:15:48.559Z</time>
      </trkpt>
      <trkpt lat="49.454037" lon="1.905301">
        <ele>134.957382</ele>
        <time>2024-05-25T22:16:18.486Z</time>
      </trkpt>
      <trkpt lat="49.454439" lon="1.905833">
        <ele>137.838562</ele>
        <time>2024-05-25T22:16:53.560Z</time>
      </trkpt>
      <trkpt lat="49.455814" lon="1.908022">
        <ele>146.656036</ele>
        <time>2024-05-25T22:18:49.491Z</time>
      </trkpt>
      <trkpt lat="49.457769" lon="1.909834">
        <ele>154.219766</ele>
        <time>2024-05-25T22:20:54.460Z</time>
      </trkpt>
      <trkpt lat="49.459288" lon="1.908469">
        <ele>156.683373</ele>
        <time>2024-05-25T22:22:09.717Z</time>
      </trkpt>
      <trkpt lat="49.461473" lon="1.912548">
        <ele>156.828708</ele>
        <time>2024-05-25T22:24:18.391Z</time>
      </trkpt>
      <trkpt lat="49.462177" lon="1.912008">
        <ele>155.319220</ele>
        <time>2024-05-25T22:24:44.282Z</time>
      </trkpt>
      <trkpt lat="49.462579" lon="1.911550">
        <ele>154.359353</ele>
        <time>2024-05-25T22:25:00.792Z</time>
      </trkpt>
      <trkpt lat="49.462652" lon="1.911788">
        <ele>154.031129</ele>
        <time>2024-05-25T22:25:04.098Z</time>
      </trkpt>
      <trkpt lat="49.462701" lon="1.912091">
        <ele>153.641711</ele>
        <time>2024-05-25T22:25:07.608Z</time>
      </trkpt>
      <trkpt lat="49.462721" lon="1.912422">
        <ele>153.251958</ele>
        <time>2024-05-25T22:25:11.432Z</time>
      </trkpt>
      <trkpt lat="49.462711" lon="1.913226">
        <ele>152.352756</ele>
        <time>2024-05-25T22:25:20.697Z</time>
      </trkpt>
      <trkpt lat="49.462731" lon="1.913428">
        <ele>152.124272</ele>
        <time>2024-05-25T22:25:23.401Z</time>
      </trkpt>
      <trkpt lat="49.462825" lon="1.913623">
        <ele>151.852794</ele>
        <time>2024-05-25T22:25:26.297Z</time>
      </trkpt>
      <trkpt lat="49.463347" lon="1.914444">
        <ele>150.568523</ele>
        <time>2024-05-25T22:25:42.067Z</time>
      </trkpt>
      <trkpt lat="49.463676" lon="1.914753">
        <ele>150.856524</ele>
        <time>2024-05-25T22:25:51.511Z</time>
      </trkpt>
      <trkpt lat="49.464164" lon="1.915011">
        <ele>151.775060</ele>
        <time>2024-05-25T22:26:05.613Z</time>
      </trkpt>
      <trkpt lat="49.464443" lon="1.915075">
        <ele>152.277195</ele>
        <time>2024-05-25T22:26:14.557Z</time>
      </trkpt>
      <trkpt lat="49.464638" lon="1.915225">
        <ele>152.665275</ele>
        <time>2024-05-25T22:26:22.435Z</time>
      </trkpt>
      <trkpt lat="49.465029" lon="1.915676">
        <ele>153.535148</ele>
        <time>2024-05-25T22:26:42.731Z</time>
      </trkpt>
      <trkpt lat="49.465322" lon="1.915832">
        <ele>153.950254</ele>
        <time>2024-05-25T22:26:55.850Z</time>
      </trkpt>
      <trkpt lat="49.465809" lon="1.916204">
        <ele>154.659735</ele>
        <time>2024-05-25T22:27:16.595Z</time>
      </trkpt>
      <trkpt lat="49.465891" lon="1.915941">
        <ele>154.907111</ele>
        <time>2024-05-25T22:27:22.549Z</time>
      </trkpt>
      <trkpt lat="49.466200" lon="1.914667">
        <ele>155.621787</ele>
        <time>2024-05-25T22:27:42.187Z</time>
      </trkpt>
      <trkpt lat="49.466476" lon="1.914198">
        <ele>154.461681</ele>
        <time>2024-05-25T22:27:49.840Z</time>
      </trkpt>
      <trkpt lat="49.467110" lon="1.913410">
        <ele>152.162322</ele>
        <time>2024-05-25T22:28:04.314Z</time>
      </trkpt>
      <trkpt lat="49.467399" lon="1.912994">
        <ele>151.045811</ele>
        <time>2024-05-25T22:28:11.221Z</time>
      </trkpt>
      <trkpt lat="49.467729" lon="1.912655">
        <ele>150.379764</ele>
        <time>2024-05-25T22:28:18.179Z</time>
      </trkpt>
      <trkpt lat="49.468099" lon="1.912362">
        <ele>149.783885</ele>
        <time>2024-05-25T22:28:25.779Z</time>
      </trkpt>
      <trkpt lat="49.468277" lon="1.912264">
        <ele>149.513169</ele>
        <time>2024-05-25T22:28:29.391Z</time>
      </trkpt>
      <trkpt lat="49.468877" lon="1.912092">
        <ele>148.639198</ele>
        <time>2024-05-25T22:28:42.422Z</time>
      </trkpt>
      <trkpt lat="49.469065" lon="1.911966">
        <ele>148.345559</ele>
        <time>2024-05-25T22:28:47.896Z</time>
      </trkpt>
      <trkpt lat="49.469471" lon="1.911350">
        <ele>150.038132</ele>
        <time>2024-05-25T22:29:06.475Z</time>
      </trkpt>
      <trkpt lat="49.469645" lon="1.911131">
        <ele>150.804177</ele>
        <time>2024-05-25T22:29:15.111Z</time>
      </trkpt>
      <trkpt lat="49.470020" lon="1.910741">
        <ele>152.346603</ele>
        <time>2024-05-25T22:29:34.519Z</time>
      </trkpt>
      <trkpt lat="49.470340" lon="1.910427">
        <ele>153.639950</ele>
        <time>2024-05-25T22:29:52.976Z</time>
      </trkpt>
      <trkpt lat="49.471819" lon="1.909135">
        <ele>161.392934</ele>
        <time>2024-05-25T22:31:17.120Z</time>
      </trkpt>
      <trkpt lat="49.471928" lon="1.909007">
        <ele>162.041838</ele>
        <time>2024-05-25T22:31:22.929Z</time>
      </trkpt>
      <trkpt lat="49.472499" lon="1.908359">
        <ele>164.312369</ele>
        <time>2024-05-25T22:31:50.080Z</time>
      </trkpt>
      <trkpt lat="49.472651" lon="1.908241">
        <ele>164.765757</ele>
        <time>2024-05-25T22:31:55.911Z</time>
      </trkpt>
      <trkpt lat="49.473301" lon="1.907915">
        <ele>166.586410</ele>
        <time>2024-05-25T22:32:18.863Z</time>
      </trkpt>
      <trkpt lat="49.473490" lon="1.907748">
        <ele>167.166810</ele>
        <time>2024-05-25T22:32:29.327Z</time>
      </trkpt>
      <trkpt lat="49.473523" lon="1.907697">
        <ele>167.291360</ele>
        <time>2024-05-25T22:32:31.417Z</time>
      </trkpt>
      <trkpt lat="49.473831" lon="1.907217">
        <ele>168.697456</ele>
        <time>2024-05-25T22:32:53.083Z</time>
      </trkpt>
      <trkpt lat="49.474730" lon="1.906067">
        <ele>172.794631</ele>
        <time>2024-05-25T22:33:57.685Z</time>
      </trkpt>
      <trkpt lat="49.475297" lon="1.905476">
        <ele>174.899028</ele>
        <time>2024-05-25T22:34:38.427Z</time>
      </trkpt>
      <trkpt lat="49.476044" lon="1.904907">
        <ele>177.092745</ele>
        <time>2024-05-25T22:35:24.156Z</time>
      </trkpt>
      <trkpt lat="49.476954" lon="1.904294">
        <ele>178.137570</ele>
        <time>2024-05-25T22:36:05.621Z</time>
      </trkpt>
      <trkpt lat="49.479060" lon="1.902240">
        <ele>173.568635</ele>
        <time>2024-05-25T22:37:24.569Z</time>
      </trkpt>
      <trkpt lat="49.479361" lon="1.901761">
        <ele>172.665741</ele>
        <time>2024-05-25T22:37:38.616Z</time>
      </trkpt>
      <trkpt lat="49.479756" lon="1.900845">
        <ele>172.119450</ele>
        <time>2024-05-25T22:38:03.034Z</time>
      </trkpt>
      <trkpt lat="49.480036" lon="1.900063">
        <ele>172.243640</ele>
        <time>2024-05-25T22:38:24.860Z</time>
      </trkpt>
      <trkpt lat="49.480773" lon="1.900211">
        <ele>172.402751</ele>
        <time>2024-05-25T22:38:44.411Z</time>
      </trkpt>
      <trkpt lat="49.485170" lon="1.901127">
        <ele>182.165787</ele>
        <time>2024-05-25T22:41:11.993Z</time>
      </trkpt>
      <trkpt lat="49.485348" lon="1.901142">
        <ele>182.642533</ele>
        <time>2024-05-25T22:41:18.894Z</time>
      </trkpt>
      <trkpt lat="49.487779" lon="1.901186">
        <ele>188.583252</ele>
        <time>2024-05-25T22:42:48.795Z</time>
      </trkpt>
      <trkpt lat="49.489057" lon="1.901213">
        <ele>187.832847</ele>
        <time>2024-05-25T22:43:16.014Z</time>
      </trkpt>
      <trkpt lat="49.489365" lon="1.901209">
        <ele>187.472814</ele>
        <time>2024-05-25T22:43:21.565Z</time>
      </trkpt>
      <trkpt lat="49.489570" lon="1.901166">
        <ele>187.230975</ele>
        <time>2024-05-25T22:43:25.179Z</time>
      </trkpt>
      <trkpt lat="49.489742" lon="1.901048">
        <ele>187.010864</ele>
        <time>2024-05-25T22:43:28.453Z</time>
      </trkpt>
      <trkpt lat="49.491151" lon="1.899555">
        <ele>181.125160</ele>
        <time>2024-05-25T22:43:57.060Z</time>
      </trkpt>
      <trkpt lat="49.492359" lon="1.898276">
        <ele>176.949267</ele>
        <time>2024-05-25T22:44:21.850Z</time>
      </trkpt>
      <trkpt lat="49.492855" lon="1.897874">
        <ele>175.814806</ele>
        <time>2024-05-25T22:44:32.504Z</time>
      </trkpt>
      <trkpt lat="49.493041" lon="1.897800">
        <ele>176.034606</ele>
        <time>2024-05-25T22:44:36.397Z</time>
      </trkpt>
      <trkpt lat="49.493420" lon="1.897368">
        <ele>176.574143</ele>
        <time>2024-05-25T22:44:48.024Z</time>
      </trkpt>
      <trkpt lat="49.493980" lon="1.896463">
        <ele>177.503034</ele>
        <time>2024-05-25T22:45:14.417Z</time>
      </trkpt>
      <trkpt lat="49.493837" lon="1.896336">
        <ele>177.691915</ele>
        <time>2024-05-25T22:45:22.945Z</time>
      </trkpt>
      <trkpt lat="49.493287" lon="1.895598">
        <ele>180.699146</ele>
        <time>2024-05-25T22:46:04.758Z</time>
      </trkpt>
      <trkpt lat="49.492724" lon="1.894575">
        <ele>184.473894</ele>
        <time>2024-05-25T22:46:57.537Z</time>
      </trkpt>
      <trkpt lat="49.492052" lon="1.893478">
        <ele>189.263440</ele>
        <time>2024-05-25T22:47:59.258Z</time>
      </trkpt>
      <trkpt lat="49.491791" lon="1.892955">
        <ele>191.438521</ele>
        <time>2024-05-25T22:48:26.476Z</time>
      </trkpt>
      <trkpt lat="49.491601" lon="1.892660">
        <ele>192.808591</ele>
        <time>2024-05-25T22:48:43.537Z</time>
      </trkpt>
      <trkpt lat="49.491575" lon="1.892633">
        <ele>192.967822</ele>
        <time>2024-05-25T22:48:45.503Z</time>
      </trkpt>
      <trkpt lat="49.491294" lon="1.892346">
        <ele>194.678629</ele>
        <time>2024-05-25T22:49:06.519Z</time>
      </trkpt>
      <trkpt lat="49.490841" lon="1.891545">
        <ele>197.215174</ele>
        <time>2024-05-25T22:49:47.988Z</time>
      </trkpt>
      <trkpt lat="49.491525" lon="1.890624">
        <ele>200.556357</ele>
        <time>2024-05-25T22:50:37.411Z</time>
      </trkpt>
      <trkpt lat="49.492239" lon="1.890161">
        <ele>201.860548</ele>
        <time>2024-05-25T22:51:13.876Z</time>
      </trkpt>
      <trkpt lat="49.492830" lon="1.889594">
        <ele>202.552566</ele>
        <time>2024-05-25T22:51:42.450Z</time>
      </trkpt>
      <trkpt lat="49.493368" lon="1.889194">
        <ele>203.023444</ele>
        <time>2024-05-25T22:52:04.480Z</time>
      </trkpt>
      <trkpt lat="49.493630" lon="1.889110">
        <ele>202.825026</ele>
        <time>2024-05-25T22:52:14.128Z</time>
      </trkpt>
      <trkpt lat="49.494685" lon="1.888942">
        <ele>202.038663</ele>
        <time>2024-05-25T22:52:51.588Z</time>
      </trkpt>
      <trkpt lat="49.495659" lon="1.888382">
        <ele>200.102623</ele>
        <time>2024-05-25T22:53:26.401Z</time>
      </trkpt>
      <trkpt lat="49.496598" lon="1.887815">
        <ele>197.518769</ele>
        <time>2024-05-25T22:53:57.940Z</time>
      </trkpt>
      <trkpt lat="49.496942" lon="1.887550">
        <ele>195.974858</ele>
        <time>2024-05-25T22:54:09.414Z</time>
      </trkpt>
      <trkpt lat="49.497256" lon="1.887309">
        <ele>194.241303</ele>
        <time>2024-05-25T22:54:19.611Z</time>
      </trkpt>
      <trkpt lat="49.497665" lon="1.886870">
        <ele>191.777849</ele>
        <time>2024-05-25T22:54:33.919Z</time>
      </trkpt>
      <trkpt lat="49.497850" lon="1.886564">
        <ele>190.436272</ele>
        <time>2024-05-25T22:54:41.674Z</time>
      </trkpt>
      <trkpt lat="49.498412" lon="1.886319">
        <ele>187.414873</ele>
        <time>2024-05-25T22:54:58.131Z</time>
      </trkpt>
      <trkpt lat="49.498790" lon="1.886288">
        <ele>185.181387</ele>
        <time>2024-05-25T22:55:08.733Z</time>
      </trkpt>
      <trkpt lat="49.499097" lon="1.886436">
        <ele>183.283277</ele>
        <time>2024-05-25T22:55:17.736Z</time>
      </trkpt>
      <trkpt lat="49.499427" lon="1.886418">
        <ele>181.334946</ele>
        <time>2024-05-25T22:55:26.948Z</time>
      </trkpt>
      <trkpt lat="49.500535" lon="1.886015">
        <ele>175.032202</ele>
        <time>2024-05-25T22:55:58.944Z</time>
      </trkpt>
      <trkpt lat="49.500812" lon="1.885958">
        <ele>173.609908</ele>
        <time>2024-05-25T22:56:06.891Z</time>
      </trkpt>
      <trkpt lat="49.501204" lon="1.886158">
        <ele>171.508202</ele>
        <time>2024-05-25T22:56:18.616Z</time>
      </trkpt>
      <trkpt lat="49.501624" lon="1.886605">
        <ele>168.909764</ele>
        <time>2024-05-25T22:56:33.447Z</time>
      </trkpt>
      <trkpt lat="49.501691" lon="1.886626">
        <ele>168.561783</ele>
        <time>2024-05-25T22:56:35.478Z</time>
      </trkpt>
      <trkpt lat="49.502151" lon="1.886548">
        <ele>167.790244</ele>
        <time>2024-05-25T22:56:49.616Z</time>
      </trkpt>
      <trkpt lat="49.502221" lon="1.886419">
        <ele>167.621496</ele>
        <time>2024-05-25T22:56:51.610Z</time>
      </trkpt>
      <trkpt lat="49.502516" lon="1.886348">
        <ele>167.159969</ele>
        <time>2024-05-25T22:56:57.448Z</time>
      </trkpt>
      <trkpt lat="49.503129" lon="1.886445">
        <ele>166.207447</ele>
        <time>2024-05-25T22:57:10.947Z</time>
      </trkpt>
      <trkpt lat="49.503756" lon="1.886370">
        <ele>165.651707</ele>
        <time>2024-05-25T22:57:26.531Z</time>
      </trkpt>
      <trkpt lat="49.504128" lon="1.886262">
        <ele>165.589938</ele>
        <time>2024-05-25T22:57:36.608Z</time>
      </trkpt>
      <trkpt lat="49.504515" lon="1.886030">
        <ele>165.522173</ele>
        <time>2024-05-25T22:57:47.310Z</time>
      </trkpt>
      <trkpt lat="49.504708" lon="1.885994">
        <ele>165.490451</ele>
        <time>2024-05-25T22:57:52.078Z</time>
      </trkpt>
      <trkpt lat="49.505028" lon="1.886051">
        <ele>165.437888</ele>
        <time>2024-05-25T22:57:59.325Z</time>
      </trkpt>
      <trkpt lat="49.505322" lon="1.886011">
        <ele>165.051261</ele>
        <time>2024-05-25T22:58:05.468Z</time>
      </trkpt>
      <trkpt lat="49.506436" lon="1.885397">
        <ele>161.151388</ele>
        <time>2024-05-25T22:58:26.651Z</time>
      </trkpt>
      <trkpt lat="49.507672" lon="1.884580">
        <ele>155.599266</ele>
        <time>2024-05-25T22:58:49.134Z</time>
      </trkpt>
      <trkpt lat="49.507823" lon="1.884557">
        <ele>154.896468</ele>
        <time>2024-05-25T22:58:51.692Z</time>
      </trkpt>
      <trkpt lat="49.508136" lon="1.883998">
        <ele>152.676514</ele>
        <time>2024-05-25T22:58:59.371Z</time>
      </trkpt>
      <trkpt lat="49.508380" lon="1.883671">
        <ele>151.178382</ele>
        <time>2024-05-25T22:59:04.628Z</time>
      </trkpt>
      <trkpt lat="49.509504" lon="1.882937">
        <ele>145.623475</ele>
        <time>2024-05-25T22:59:24.598Z</time>
      </trkpt>
      <trkpt lat="49.510004" lon="1.882358">
        <ele>142.738874</ele>
        <time>2024-05-25T22:59:34.575Z</time>
      </trkpt>
      <trkpt lat="49.510540" lon="1.881415">
        <ele>138.276935</ele>
        <time>2024-05-25T22:59:47.274Z</time>
      </trkpt>
      <trkpt lat="49.510615" lon="1.881317">
        <ele>137.737635</ele>
        <time>2024-05-25T22:59:48.776Z</time>
      </trkpt>
      <trkpt lat="49.510947" lon="1.881075">
        <ele>135.723654</ele>
        <time>2024-05-25T22:59:54.475Z</time>
      </trkpt>
      <trkpt lat="49.511375" lon="1.880483">
        <ele>132.769452</ele>
        <time>2024-05-25T23:00:03.399Z</time>
      </trkpt>
      <trkpt lat="49.511754" lon="1.880041">
        <ele>131.139868</ele>
        <time>2024-05-25T23:00:10.912Z</time>
      </trkpt>
      <trkpt lat="49.511946" lon="1.879926">
        <ele>130.433706</ele>
        <time>2024-05-25T23:00:14.264Z</time>
      </trkpt>
      <trkpt lat="49.512139" lon="1.879802">
        <ele>129.716878</ele>
        <time>2024-05-25T23:00:17.743Z</time>
      </trkpt>
      <trkpt lat="49.512367" lon="1.879534">
        <ele>128.733723</ele>
        <time>2024-05-25T23:00:22.667Z</time>
      </trkpt>
      <trkpt lat="49.512782" lon="1.878947">
        <ele>126.993773</ele>
        <time>2024-05-25T23:00:33.111Z</time>
      </trkpt>
      <trkpt lat="49.512968" lon="1.878510">
        <ele>127.475596</ele>
        <time>2024-05-25T23:00:40.473Z</time>
      </trkpt>
      <trkpt lat="49.513106" lon="1.877870">
        <ele>128.097430</ele>
        <time>2024-05-25T23:00:52.478Z</time>
      </trkpt>
      <trkpt lat="49.513075" lon="1.877638">
        <ele>128.315840</ele>
        <time>2024-05-25T23:00:57.136Z</time>
      </trkpt>
      <trkpt lat="49.512986" lon="1.877376">
        <ele>128.588496</ele>
        <time>2024-05-25T23:01:03.437Z</time>
      </trkpt>
      <trkpt lat="49.513010" lon="1.876898">
        <ele>129.030575</ele>
        <time>2024-05-25T23:01:14.343Z</time>
      </trkpt>
      <trkpt lat="49.513118" lon="1.876636">
        <ele>129.316741</ele>
        <time>2024-05-25T23:01:21.965Z</time>
      </trkpt>
      <trkpt lat="49.513277" lon="1.876374">
        <ele>129.971979</ele>
        <time>2024-05-25T23:01:31.261Z</time>
      </trkpt>
      <trkpt lat="49.513353" lon="1.875897">
        <ele>131.371139</ele>
        <time>2024-05-25T23:01:44.394Z</time>
      </trkpt>
      <trkpt lat="49.513568" lon="1.875311">
        <ele>133.288586</ele>
        <time>2024-05-25T23:02:03.569Z</time>
      </trkpt>
      <trkpt lat="49.514300" lon="1.874092">
        <ele>138.190783</ele>
        <time>2024-05-25T23:02:53.833Z</time>
      </trkpt>
      <trkpt lat="49.514846" lon="1.873220">
        <ele>142.577310</ele>
        <time>2024-05-25T23:03:32.136Z</time>
      </trkpt>
      <trkpt lat="49.515507" lon="1.872212">
        <ele>147.798012</ele>
        <time>2024-05-25T23:04:20.715Z</time>
      </trkpt>
      <trkpt lat="49.516865" lon="1.869953">
        <ele>159.100775</ele>
        <time>2024-05-25T23:06:08.337Z</time>
      </trkpt>
      <trkpt lat="49.517520" lon="1.869036">
        <ele>161.474355</ele>
        <time>2024-05-25T23:06:43.493Z</time>
      </trkpt>
      <trkpt lat="49.517749" lon="1.868812">
        <ele>162.201809</ele>
        <time>2024-05-25T23:06:51.346Z</time>
      </trkpt>
      <trkpt lat="49.518280" lon="1.868200">
        <ele>162.616305</ele>
        <time>2024-05-25T23:07:05.057Z</time>
      </trkpt>
      <trkpt lat="49.518560" lon="1.868110">
        <ele>162.008914</ele>
        <time>2024-05-25T23:07:10.259Z</time>
      </trkpt>
      <trkpt lat="49.518823" lon="1.868152">
        <ele>161.447436</ele>
        <time>2024-05-25T23:07:15.027Z</time>
      </trkpt>
      <trkpt lat="49.519075" lon="1.868054">
        <ele>160.895519</ele>
        <time>2024-05-25T23:07:19.565Z</time>
      </trkpt>
      <trkpt lat="49.519723" lon="1.867503">
        <ele>159.316456</ele>
        <time>2024-05-25T23:07:32.277Z</time>
      </trkpt>
      <trkpt lat="49.519853" lon="1.867326">
        <ele>158.912594</ele>
        <time>2024-05-25T23:07:35.251Z</time>
      </trkpt>
      <trkpt lat="49.519981" lon="1.867151">
        <ele>158.514221</ele>
        <time>2024-05-25T23:07:38.282Z</time>
      </trkpt>
      <trkpt lat="49.521899" lon="1.864530">
        <ele>152.080240</ele>
        <time>2024-05-25T23:08:25.047Z</time>
      </trkpt>
      <trkpt lat="49.522606" lon="1.863787">
        <ele>149.369586</ele>
        <time>2024-05-25T23:08:39.371Z</time>
      </trkpt>
      <trkpt lat="49.523113" lon="1.863219">
        <ele>146.510749</ele>
        <time>2024-05-25T23:08:49.508Z</time>
      </trkpt>
      <trkpt lat="49.525257" lon="1.861123">
        <ele>134.396269</ele>
        <time>2024-05-25T23:09:29.860Z</time>
      </trkpt>
      <trkpt lat="49.525861" lon="1.860584">
        <ele>131.859259</ele>
        <time>2024-05-25T23:09:50.057Z</time>
      </trkpt>
      <trkpt lat="49.526548" lon="1.860027">
        <ele>129.515206</ele>
        <time>2024-05-25T23:10:13.717Z</time>
      </trkpt>
      <trkpt lat="49.526838" lon="1.859930">
        <ele>128.619178</ele>
        <time>2024-05-25T23:10:23.358Z</time>
      </trkpt>
      <trkpt lat="49.527127" lon="1.859834">
        <ele>127.928285</ele>
        <time>2024-05-25T23:10:33.411Z</time>
      </trkpt>
      <trkpt lat="49.527148" lon="1.859803">
        <ele>127.987736</ele>
        <time>2024-05-25T23:10:34.425Z</time>
      </trkpt>
      <trkpt lat="49.527212" lon="1.859711">
        <ele>128.166664</ele>
        <time>2024-05-25T23:10:37.552Z</time>
      </trkpt>
      <trkpt lat="49.527848" lon="1.859012">
        <ele>129.763628</ele>
        <time>2024-05-25T23:11:09.843Z</time>
      </trkpt>
      <trkpt lat="49.528081" lon="1.858596">
        <ele>130.492659</ele>
        <time>2024-05-25T23:11:28.207Z</time>
      </trkpt>
      <trkpt lat="49.528367" lon="1.857299">
        <ele>133.829846</ele>
        <time>2024-05-25T23:12:22.736Z</time>
      </trkpt>
      <trkpt lat="49.528440" lon="1.856654">
        <ele>136.376841</ele>
        <time>2024-05-25T23:12:51.455Z</time>
      </trkpt>
      <trkpt lat="49.528677" lon="1.855938">
        <ele>139.503448</ele>
        <time>2024-05-25T23:13:28.292Z</time>
      </trkpt>
      <trkpt lat="49.529352" lon="1.854393">
        <ele>146.865905</ele>
        <time>2024-05-25T23:14:52.177Z</time>
      </trkpt>
      <trkpt lat="49.529439" lon="1.854398">
        <ele>147.401492</ele>
        <time>2024-05-25T23:14:58.272Z</time>
      </trkpt>
      <trkpt lat="49.529443" lon="1.854032">
        <ele>148.863112</ele>
        <time>2024-05-25T23:15:10.986Z</time>
      </trkpt>
      <trkpt lat="49.529468" lon="1.853685">
        <ele>150.257168</ele>
        <time>2024-05-25T23:15:23.029Z</time>
      </trkpt>
      <trkpt lat="49.529525" lon="1.853368">
        <ele>151.570599</ele>
        <time>2024-05-25T23:15:34.172Z</time>
      </trkpt>
      <trkpt lat="49.529619" lon="1.853243">
        <ele>152.334485</ele>
        <time>2024-05-25T23:15:42.427Z</time>
      </trkpt>
      <trkpt lat="49.529877" lon="1.852649">
        <ele>154.758537</ele>
        <time>2024-05-25T23:16:12.644Z</time>
      </trkpt>
      <trkpt lat="49.531214" lon="1.850079">
        <ele>163.360306</ele>
        <time>2024-05-25T23:18:19.557Z</time>
      </trkpt>
      <trkpt lat="49.531588" lon="1.849606">
        <ele>164.533982</ele>
        <time>2024-05-25T23:18:40.970Z</time>
      </trkpt>
      <trkpt lat="49.531604" lon="1.849584">
        <ele>164.586000</ele>
        <time>2024-05-25T23:18:41.886Z</time>
      </trkpt>
      <trkpt lat="49.531888" lon="1.849108">
        <ele>165.603902</ele>
        <time>2024-05-25T23:18:57.276Z</time>
      </trkpt>
      <trkpt lat="49.532227" lon="1.848538">
        <ele>166.665528</ele>
        <time>2024-05-25T23:19:13.906Z</time>
      </trkpt>
      <trkpt lat="49.532531" lon="1.848218">
        <ele>167.340882</ele>
        <time>2024-05-25T23:19:28.337Z</time>
      </trkpt>
      <trkpt lat="49.533039" lon="1.847963">
        <ele>168.320936</ele>
        <time>2024-05-25T23:19:42.006Z</time>
      </trkpt>
      <trkpt lat="49.533025" lon="1.848035">
        <ele>168.410418</ele>
        <time>2024-05-25T23:19:44.950Z</time>
      </trkpt>
      <trkpt lat="49.533082" lon="1.848804">
        <ele>169.331872</ele>
        <time>2024-05-25T23:20:07.899Z</time>
      </trkpt>
      <trkpt lat="49.533113" lon="1.849235">
        <ele>169.802534</ele>
        <time>2024-05-25T23:20:23.506Z</time>
      </trkpt>
      <trkpt lat="49.533160" lon="1.849109">
        <ele>169.953978</ele>
        <time>2024-05-25T23:20:28.215Z</time>
      </trkpt>
      <trkpt lat="49.533169" lon="1.848706">
        <ele>170.374187</ele>
        <time>2024-05-25T23:20:42.121Z</time>
      </trkpt>
      <trkpt lat="49.533212" lon="1.848643">
        <ele>170.469460</ele>
        <time>2024-05-25T23:20:44.791Z</time>
      </trkpt>
      <trkpt lat="49.533260" lon="1.848642">
        <ele>170.546539</ele>
        <time>2024-05-25T23:20:47.667Z</time>
      </trkpt>
      <trkpt lat="49.533521" lon="1.848664">
        <ele>170.966242</ele>
        <time>2024-05-25T23:20:59.749Z</time>
      </trkpt>
      <trkpt lat="49.533782" lon="1.848686">
        <ele>171.385945</ele>
        <time>2024-05-25T23:21:10.721Z</time>
      </trkpt>
      <trkpt lat="49.533903" lon="1.848732">
        <ele>171.586056</ele>
        <time>2024-05-25T23:21:13.843Z</time>
      </trkpt>
      <trkpt lat="49.534105" lon="1.848926">
        <ele>171.968243</ele>
        <time>2024-05-25T23:21:19.269Z</time>
      </trkpt>
      <trkpt lat="49.534134" lon="1.848961">
        <ele>172.027391</ele>
        <time>2024-05-25T23:21:19.940Z</time>
      </trkpt>
      <trkpt lat="49.534187" lon="1.849035">
        <ele>172.142231</ele>
        <time>2024-05-25T23:21:21.226Z</time>
      </trkpt>
      <trkpt lat="49.534201" lon="1.849057">
        <ele>172.174339</ele>
        <time>2024-05-25T23:21:21.570Z</time>
      </trkpt>
      <trkpt lat="49.534306" lon="1.849201">
        <ele>172.322410</ele>
        <time>2024-05-25T23:21:24.312Z</time>
      </trkpt>
      <trkpt lat="49.534491" lon="1.849369">
        <ele>171.762418</ele>
        <time>2024-05-25T23:21:27.945Z</time>
      </trkpt>
      <trkpt lat="49.534378" lon="1.849805">
        <ele>170.967854</ele>
        <time>2024-05-25T23:21:33.942Z</time>
      </trkpt>
      <trkpt lat="49.534356" lon="1.849994">
        <ele>170.642880</ele>
        <time>2024-05-25T23:21:36.504Z</time>
      </trkpt>
      <trkpt lat="49.534368" lon="1.850116">
        <ele>170.434045</ele>
        <time>2024-05-25T23:21:38.179Z</time>
      </trkpt>
      <trkpt lat="49.534433" lon="1.850235">
        <ele>170.170808</ele>
        <time>2024-05-25T23:21:39.990Z</time>
      </trkpt>
      <trkpt lat="49.534835" lon="1.850517">
        <ele>169.018950</ele>
        <time>2024-05-25T23:21:47.850Z</time>
      </trkpt>
      <trkpt lat="49.535118" lon="1.850701">
        <ele>168.217937</ele>
        <time>2024-05-25T23:21:53.037Z</time>
      </trkpt>
      <trkpt lat="49.535163" lon="1.850731">
        <ele>168.090074</ele>
        <time>2024-05-25T23:21:53.787Z</time>
      </trkpt>
      <trkpt lat="49.535244" lon="1.850434">
        <ele>167.373823</ele>
        <time>2024-05-25T23:22:00.111Z</time>
      </trkpt>
      <trkpt lat="49.535293" lon="1.850080">
        <ele>165.985915</ele>
        <time>2024-05-25T23:22:06.986Z</time>
      </trkpt>
      <trkpt lat="49.535312" lon="1.849667">
        <ele>164.398336</ele>
        <time>2024-05-25T23:22:14.570Z</time>
      </trkpt>
      <trkpt lat="49.535326" lon="1.849209">
        <ele>162.640236</ele>
        <time>2024-05-25T23:22:22.955Z</time>
      </trkpt>
      <trkpt lat="49.535246" lon="1.848119">
        <ele>158.434100</ele>
        <time>2024-05-25T23:22:42.925Z</time>
      </trkpt>
      <trkpt lat="49.534894" lon="1.847406">
        <ele>154.331432</ele>
        <time>2024-05-25T23:22:58.470Z</time>
      </trkpt>
      <trkpt lat="49.534664" lon="1.847158">
        <ele>152.133737</ele>
        <time>2024-05-25T23:23:05.741Z</time>
      </trkpt>
      <trkpt lat="49.534530" lon="1.847054">
        <ele>150.959124</ele>
        <time>2024-05-25T23:23:09.610Z</time>
      </trkpt>
      <trkpt lat="49.534180" lon="1.847026">
        <ele>148.215372</ele>
        <time>2024-05-25T23:23:18.672Z</time>
      </trkpt>
      <trkpt lat="49.534022" lon="1.846901">
        <ele>146.824912</ele>
        <time>2024-05-25T23:23:23.315Z</time>
      </trkpt>
      <trkpt lat="49.533971" lon="1.846804">
        <ele>146.190637</ele>
        <time>2024-05-25T23:23:25.468Z</time>
      </trkpt>
      <trkpt lat="49.533981" lon="1.846615">
        <ele>145.227174</ele>
        <time>2024-05-25T23:23:28.759Z</time>
      </trkpt>
      <trkpt lat="49.534069" lon="1.846459">
        <ele>144.177006</ele>
        <time>2024-05-25T23:23:32.414Z</time>
      </trkpt>
      <trkpt lat="49.534271" lon="1.846211">
        <ele>143.039810</ele>
        <time>2024-05-25T23:23:39.689Z</time>
      </trkpt>
      <trkpt lat="49.534362" lon="1.846036">
        <ele>143.134599</ele>
        <time>2024-05-25T23:23:43.976Z</time>
      </trkpt>
      <trkpt lat="49.534379" lon="1.845788">
        <ele>143.240013</ele>
        <time>2024-05-25T23:23:49.001Z</time>
      </trkpt>
      <trkpt lat="49.534345" lon="1.845608">
        <ele>143.319256</ele>
        <time>2024-05-25T23:23:52.901Z</time>
      </trkpt>
      <trkpt lat="49.534331" lon="1.845535">
        <ele>143.351433</ele>
        <time>2024-05-25T23:23:54.567Z</time>
      </trkpt>
      <trkpt lat="49.534162" lon="1.845201">
        <ele>143.530455</ele>
        <time>2024-05-25T23:24:04.442Z</time>
      </trkpt>
      <trkpt lat="49.533905" lon="1.844463">
        <ele>143.884484</ele>
        <time>2024-05-25T23:24:31.513Z</time>
      </trkpt>
      <trkpt lat="49.533794" lon="1.843589">
        <ele>145.637966</ele>
        <time>2024-05-25T23:25:09.271Z</time>
      </trkpt>
      <trkpt lat="49.533832" lon="1.842684">
        <ele>150.510494</ele>
        <time>2024-05-25T23:25:55.445Z</time>
      </trkpt>
      <trkpt lat="49.533743" lon="1.842328">
        <ele>152.560206</ele>
        <time>2024-05-25T23:26:15.741Z</time>
      </trkpt>
      <trkpt lat="49.533547" lon="1.840357">
        <ele>163.648731</ele>
        <time>2024-05-25T23:28:04.881Z</time>
      </trkpt>
      <trkpt lat="49.534032" lon="1.840350">
        <ele>168.019276</ele>
        <time>2024-05-25T23:28:46.167Z</time>
      </trkpt>
      <trkpt lat="49.534342" lon="1.840381">
        <ele>170.818575</ele>
        <time>2024-05-25T23:29:12.286Z</time>
      </trkpt>
      <trkpt lat="49.535074" lon="1.840531">
        <ele>176.239454</ele>
        <time>2024-05-25T23:30:10.302Z</time>
      </trkpt>
      <trkpt lat="49.535078" lon="1.840532">
        <ele>176.255789</ele>
        <time>2024-05-25T23:30:10.585Z</time>
      </trkpt>
      <trkpt lat="49.535413" lon="1.840639">
        <ele>177.634912</ele>
        <time>2024-05-25T23:30:35.498Z</time>
      </trkpt>
      <trkpt lat="49.535739" lon="1.840742">
        <ele>178.976389</ele>
        <time>2024-05-25T23:30:56.850Z</time>
      </trkpt>
      <trkpt lat="49.536878" lon="1.841252">
        <ele>181.508246</ele>
        <time>2024-05-25T23:31:48.713Z</time>
      </trkpt>
      <trkpt lat="49.537540" lon="1.842155">
        <ele>178.739984</ele>
        <time>2024-05-25T23:32:15.391Z</time>
      </trkpt>
      <trkpt lat="49.537917" lon="1.842670">
        <ele>177.162487</ele>
        <time>2024-05-25T23:32:29.860Z</time>
      </trkpt>
      <trkpt lat="49.538711" lon="1.845090">
        <ele>167.807694</ele>
        <time>2024-05-25T23:33:19.399Z</time>
      </trkpt>
      <trkpt lat="49.539595" lon="1.847134">
        <ele>161.214587</ele>
        <time>2024-05-25T23:34:06.511Z</time>
      </trkpt>
      <trkpt lat="49.540003" lon="1.847880">
        <ele>159.397383</ele>
        <time>2024-05-25T23:34:26.182Z</time>
      </trkpt>
      <trkpt lat="49.540217" lon="1.848188">
        <ele>158.946123</ele>
        <time>2024-05-25T23:34:35.672Z</time>
      </trkpt>
      <trkpt lat="49.540383" lon="1.848295">
        <ele>158.668824</ele>
        <time>2024-05-25T23:34:41.646Z</time>
      </trkpt>
      <trkpt lat="49.540514" lon="1.848274">
        <ele>158.465852</ele>
        <time>2024-05-25T23:34:46.100Z</time>
      </trkpt>
      <trkpt lat="49.540553" lon="1.848184">
        <ele>158.357626</ele>
        <time>2024-05-25T23:34:48.506Z</time>
      </trkpt>
      <trkpt lat="49.540673" lon="1.847736">
        <ele>157.872945</ele>
        <time>2024-05-25T23:34:59.550Z</time>
      </trkpt>
      <trkpt lat="49.540695" lon="1.847574">
        <ele>157.707431</ele>
        <time>2024-05-25T23:35:03.475Z</time>
      </trkpt>
      <trkpt lat="49.540722" lon="1.847368">
        <ele>157.497266</ele>
        <time>2024-05-25T23:35:08.501Z</time>
      </trkpt>
      <trkpt lat="49.540698" lon="1.847066">
        <ele>157.193001</ele>
        <time>2024-05-25T23:35:15.766Z</time>
      </trkpt>
      <trkpt lat="49.540400" lon="1.845448">
        <ele>154.940974</ele>
        <time>2024-05-25T23:35:52.993Z</time>
      </trkpt>
      <trkpt lat="49.540365" lon="1.845139">
        <ele>154.513091</ele>
        <time>2024-05-25T23:35:59.621Z</time>
      </trkpt>
      <trkpt lat="49.540424" lon="1.844966">
        <ele>154.246494</ele>
        <time>2024-05-25T23:36:03.738Z</time>
      </trkpt>
      <trkpt lat="49.540581" lon="1.844878">
        <ele>153.895303</ele>
        <time>2024-05-25T23:36:09.024Z</time>
      </trkpt>
      <trkpt lat="49.541768" lon="1.847457">
        <ele>144.498354</ele>
        <time>2024-05-25T23:36:41.628Z</time>
      </trkpt>
      <trkpt lat="49.543368" lon="1.850715">
        <ele>127.942385</ele>
        <time>2024-05-25T23:37:22.190Z</time>
      </trkpt>
      <trkpt lat="49.543524" lon="1.850971">
        <ele>126.425687</ele>
        <time>2024-05-25T23:37:25.547Z</time>
      </trkpt>
      <trkpt lat="49.543677" lon="1.851104">
        <ele>125.256541</ele>
        <time>2024-05-25T23:37:28.192Z</time>
      </trkpt>
      <trkpt lat="49.543824" lon="1.851183">
        <ele>124.220371</ele>
        <time>2024-05-25T23:37:30.503Z</time>
      </trkpt>
      <trkpt lat="49.544150" lon="1.851174">
        <ele>122.050260</ele>
        <time>2024-05-25T23:37:35.401Z</time>
      </trkpt>
      <trkpt lat="49.544902" lon="1.850857">
        <ele>118.432028</ele>
        <time>2024-05-25T23:37:47.305Z</time>
      </trkpt>
      <trkpt lat="49.545389" lon="1.850712">
        <ele>116.265085</ele>
        <time>2024-05-25T23:37:55.299Z</time>
      </trkpt>
      <trkpt lat="49.545662" lon="1.850682">
        <ele>115.069376</ele>
        <time>2024-05-25T23:38:00.044Z</time>
      </trkpt>
      <trkpt lat="49.545852" lon="1.850706">
        <ele>114.236522</ele>
        <time>2024-05-25T23:38:03.560Z</time>
      </trkpt>
      <trkpt lat="49.545971" lon="1.850741">
        <ele>113.707253</ele>
        <time>2024-05-25T23:38:05.838Z</time>
      </trkpt>
      <trkpt lat="49.546370" lon="1.850876">
        <ele>113.364654</ele>
        <time>2024-05-25T23:38:13.800Z</time>
      </trkpt>
      <trkpt lat="49.546568" lon="1.850979">
        <ele>113.248571</ele>
        <time>2024-05-25T23:38:18.019Z</time>
      </trkpt>
      <trkpt lat="49.546903" lon="1.851247">
        <ele>113.038906</ele>
        <time>2024-05-25T23:38:25.807Z</time>
      </trkpt>
      <trkpt lat="49.547038" lon="1.851387">
        <ele>112.948520</ele>
        <time>2024-05-25T23:38:29.208Z</time>
      </trkpt>
      <trkpt lat="49.547140" lon="1.851487">
        <ele>112.881368</ele>
        <time>2024-05-25T23:38:31.759Z</time>
      </trkpt>
      <trkpt lat="49.547221" lon="1.851570">
        <ele>112.827336</ele>
        <time>2024-05-25T23:38:33.891Z</time>
      </trkpt>
      <trkpt lat="49.547401" lon="1.851757">
        <ele>112.706754</ele>
        <time>2024-05-25T23:38:38.828Z</time>
      </trkpt>
      <trkpt lat="49.547558" lon="1.851992">
        <ele>112.585183</ele>
        <time>2024-05-25T23:38:44.167Z</time>
      </trkpt>
      <trkpt lat="49.547674" lon="1.851905">
        <ele>112.715202</ele>
        <time>2024-05-25T23:38:47.580Z</time>
      </trkpt>
      <trkpt lat="49.547862" lon="1.851629">
        <ele>113.039602</ele>
        <time>2024-05-25T23:38:54.781Z</time>
      </trkpt>
      <trkpt lat="49.547997" lon="1.851438">
        <ele>113.268567</ele>
        <time>2024-05-25T23:39:02.613Z</time>
      </trkpt>
      <trkpt lat="49.548140" lon="1.851367">
        <ele>113.456278</ele>
        <time>2024-05-25T23:39:09.021Z</time>
      </trkpt>
      <trkpt lat="49.548230" lon="1.851268">
        <ele>113.594429</ele>
        <time>2024-05-25T23:39:13.708Z</time>
      </trkpt>
      <trkpt lat="49.548433" lon="1.850952">
        <ele>113.954917</ele>
        <time>2024-05-25T23:39:26.628Z</time>
      </trkpt>
      <trkpt lat="49.548642" lon="1.850834">
        <ele>114.233018</ele>
        <time>2024-05-25T23:39:33.930Z</time>
      </trkpt>
      <trkpt lat="49.548744" lon="1.850841">
        <ele>114.360588</ele>
        <time>2024-05-25T23:39:37.080Z</time>
      </trkpt>
      <trkpt lat="49.549073" lon="1.851020">
        <ele>114.796512</ele>
        <time>2024-05-25T23:39:48.021Z</time>
      </trkpt>
      <trkpt lat="49.549348" lon="1.851098">
        <ele>115.233295</ele>
        <time>2024-05-25T23:39:56.842Z</time>
      </trkpt>
      <trkpt lat="49.549449" lon="1.850770">
        <ele>115.607265</ele>
        <time>2024-05-25T23:40:03.944Z</time>
      </trkpt>
      <trkpt lat="49.549543" lon="1.850604">
        <ele>115.834215</ele>
        <time>2024-05-25T23:40:08.491Z</time>
      </trkpt>
      <trkpt lat="49.549826" lon="1.850319">
        <ele>116.370907</ele>
        <time>2024-05-25T23:40:19.103Z</time>
      </trkpt>
      <trkpt lat="49.550182" lon="1.848423">
        <ele>118.342372</ele>
        <time>2024-05-25T23:40:58.544Z</time>
      </trkpt>
      <trkpt lat="49.550555" lon="1.846663">
        <ele>120.087587</ele>
        <time>2024-05-25T23:41:35.243Z</time>
      </trkpt>
      <trkpt lat="49.550685" lon="1.845678">
        <ele>120.414799</ele>
        <time>2024-05-25T23:41:55.194Z</time>
      </trkpt>
      <trkpt lat="49.550791" lon="1.844790">
        <ele>120.555838</ele>
        <time>2024-05-25T23:42:10.323Z</time>
      </trkpt>
      <trkpt lat="49.550728" lon="1.843653">
        <ele>120.673193</ele>
        <time>2024-05-25T23:42:26.213Z</time>
      </trkpt>
      <trkpt lat="49.550610" lon="1.842409">
        <ele>119.602340</ele>
        <time>2024-05-25T23:42:42.360Z</time>
      </trkpt>
      <trkpt lat="49.550630" lon="1.840703">
        <ele>118.464006</ele>
        <time>2024-05-25T23:43:04.363Z</time>
      </trkpt>
      <trkpt lat="49.550617" lon="1.840263">
        <ele>118.640398</ele>
        <time>2024-05-25T23:43:10.652Z</time>
      </trkpt>
      <trkpt lat="49.550533" lon="1.839651">
        <ele>118.890915</ele>
        <time>2024-05-25T23:43:20.613Z</time>
      </trkpt>
      <trkpt lat="49.550568" lon="1.839018">
        <ele>119.145335</ele>
        <time>2024-05-25T23:43:32.300Z</time>
      </trkpt>
      <trkpt lat="49.550582" lon="1.838149">
        <ele>119.536339</ele>
        <time>2024-05-25T23:43:50.651Z</time>
      </trkpt>
      <trkpt lat="49.550749" lon="1.836454">
        <ele>121.700491</ele>
        <time>2024-05-25T23:44:29.715Z</time>
      </trkpt>
      <trkpt lat="49.550818" lon="1.835424">
        <ele>122.980811</ele>
        <time>2024-05-25T23:44:51.583Z</time>
      </trkpt>
      <trkpt lat="49.550749" lon="1.833128">
        <ele>123.628091</ele>
        <time>2024-05-25T23:45:29.284Z</time>
      </trkpt>
      <trkpt lat="49.550665" lon="1.832248">
        <ele>123.549054</ele>
        <time>2024-05-25T23:45:41.957Z</time>
      </trkpt>
      <trkpt lat="49.550512" lon="1.831261">
        <ele>123.079746</ele>
        <time>2024-05-25T23:45:56.394Z</time>
      </trkpt>
      <trkpt lat="49.550770" lon="1.829933">
        <ele>122.409206</ele>
        <time>2024-05-25T23:46:15.162Z</time>
      </trkpt>
      <trkpt lat="49.550874" lon="1.828818">
        <ele>121.424807</ele>
        <time>2024-05-25T23:46:29.855Z</time>
      </trkpt>
      <trkpt lat="49.550900" lon="1.827926">
        <ele>120.644517</ele>
        <time>2024-05-25T23:46:41.429Z</time>
      </trkpt>
      <trkpt lat="49.551025" lon="1.826713">
        <ele>119.939392</ele>
        <time>2024-05-25T23:46:57.297Z</time>
      </trkpt>
      <trkpt lat="49.551095" lon="1.826306">
        <ele>119.854986</ele>
        <time>2024-05-25T23:47:02.756Z</time>
      </trkpt>
      <trkpt lat="49.551278" lon="1.825521">
        <ele>119.687772</ele>
        <time>2024-05-25T23:47:14.593Z</time>
      </trkpt>
      <trkpt lat="49.551297" lon="1.824911">
        <ele>119.565349</ele>
        <time>2024-05-25T23:47:24.769Z</time>
      </trkpt>
      <trkpt lat="49.551248" lon="1.824196">
        <ele>119.880600</ele>
        <time>2024-05-25T23:47:38.499Z</time>
      </trkpt>
      <trkpt lat="49.551109" lon="1.822175">
        <ele>122.072171</ele>
        <time>2024-05-25T23:48:21.450Z</time>
      </trkpt>
      <trkpt lat="49.550983" lon="1.821327">
        <ele>122.784901</ele>
        <time>2024-05-25T23:48:39.585Z</time>
      </trkpt>
      <trkpt lat="49.550867" lon="1.820907">
        <ele>123.066788</ele>
        <time>2024-05-25T23:48:48.565Z</time>
      </trkpt>
      <trkpt lat="49.550749" lon="1.820479">
        <ele>123.353967</ele>
        <time>2024-05-25T23:48:57.328Z</time>
      </trkpt>
      <trkpt lat="49.550784" lon="1.819842">
        <ele>123.748744</ele>
        <time>2024-05-25T23:49:08.638Z</time>
      </trkpt>
      <trkpt lat="49.550818" lon="1.819256">
        <ele>124.112062</ele>
        <time>2024-05-25T23:49:18.393Z</time>
      </trkpt>
      <trkpt lat="49.550916" lon="1.818902">
        <ele>124.151321</ele>
        <time>2024-05-25T23:49:24.014Z</time>
      </trkpt>
      <trkpt lat="49.551222" lon="1.818118">
        <ele>123.992328</ele>
        <time>2024-05-25T23:49:37.190Z</time>
      </trkpt>
      <trkpt lat="49.551399" lon="1.817222">
        <ele>123.829570</ele>
        <time>2024-05-25T23:49:50.751Z</time>
      </trkpt>
      <trkpt lat="49.551410" lon="1.817164">
        <ele>123.819069</ele>
        <time>2024-05-25T23:49:51.623Z</time>
      </trkpt>
      <trkpt lat="49.551332" lon="1.816939">
        <ele>123.774738</ele>
        <time>2024-05-25T23:49:55.251Z</time>
      </trkpt>
      <trkpt lat="49.551243" lon="1.816681">
        <ele>123.723961</ele>
        <time>2024-05-25T23:49:59.476Z</time>
      </trkpt>
      <trkpt lat="49.551027" lon="1.815876">
        <ele>123.517248</ele>
        <time>2024-05-25T23:50:11.725Z</time>
      </trkpt>
      <trkpt lat="49.550965" lon="1.815501">
        <ele>123.423523</ele>
        <time>2024-05-25T23:50:17.164Z</time>
      </trkpt>
      <trkpt lat="49.550958" lon="1.815161">
        <ele>123.341137</ele>
        <time>2024-05-25T23:50:21.912Z</time>
      </trkpt>
      <trkpt lat="49.551062" lon="1.814732">
        <ele>123.230221</ele>
        <time>2024-05-25T23:50:28.274Z</time>
      </trkpt>
      <trkpt lat="49.551097" lon="1.813781">
        <ele>123.086161</ele>
        <time>2024-05-25T23:50:42.529Z</time>
      </trkpt>
      <trkpt lat="49.551083" lon="1.812704">
        <ele>123.361454</ele>
        <time>2024-05-25T23:50:59.772Z</time>
      </trkpt>
      <trkpt lat="49.550825" lon="1.809969">
        <ele>124.115535</ele>
        <time>2024-05-25T23:51:46.639Z</time>
      </trkpt>
      <trkpt lat="49.550733" lon="1.808367">
        <ele>124.559306</ele>
        <time>2024-05-25T23:52:13.452Z</time>
      </trkpt>
      <trkpt lat="49.550712" lon="1.807648">
        <ele>124.504464</ele>
        <time>2024-05-25T23:52:24.197Z</time>
      </trkpt>
      <trkpt lat="49.550649" lon="1.807229">
        <ele>124.471691</ele>
        <time>2024-05-25T23:52:30.358Z</time>
      </trkpt>
      <trkpt lat="49.550440" lon="1.806360">
        <ele>124.401072</ele>
        <time>2024-05-25T23:52:43.628Z</time>
      </trkpt>
      <trkpt lat="49.550336" lon="1.805749">
        <ele>124.358795</ele>
        <time>2024-05-25T23:52:52.804Z</time>
      </trkpt>
      <trkpt lat="49.550371" lon="1.805255">
        <ele>124.522095</ele>
        <time>2024-05-25T23:53:00.194Z</time>
      </trkpt>
      <trkpt lat="49.550559" lon="1.804011">
        <ele>124.941832</ele>
        <time>2024-05-25T23:53:20.575Z</time>
      </trkpt>
      <trkpt lat="49.550712" lon="1.803474">
        <ele>125.134562</ele>
        <time>2024-05-25T23:53:30.912Z</time>
      </trkpt>
      <trkpt lat="49.550942" lon="1.803045">
        <ele>125.390901</ele>
        <time>2024-05-25T23:53:41.618Z</time>
      </trkpt>
      <trkpt lat="49.551450" lon="1.802466">
        <ele>126.159768</ele>
        <time>2024-05-25T23:54:01.830Z</time>
      </trkpt>
      <trkpt lat="49.552197" lon="1.801460">
        <ele>127.366924</ele>
        <time>2024-05-25T23:54:31.585Z</time>
      </trkpt>
      <trkpt lat="49.552419" lon="1.801257">
        <ele>127.383311</ele>
        <time>2024-05-25T23:54:38.011Z</time>
      </trkpt>
      <trkpt lat="49.553025" lon="1.800860">
        <ele>127.134139</ele>
        <time>2024-05-25T23:54:52.794Z</time>
      </trkpt>
      <trkpt lat="49.553354" lon="1.800123">
        <ele>126.914514</ele>
        <time>2024-05-25T23:55:05.095Z</time>
      </trkpt>
      <trkpt lat="49.553347" lon="1.799899">
        <ele>126.859459</ele>
        <time>2024-05-25T23:55:08.131Z</time>
      </trkpt>
      <trkpt lat="49.553384" lon="1.799746">
        <ele>126.819374</ele>
        <time>2024-05-25T23:55:10.274Z</time>
      </trkpt>
      <trkpt lat="49.553508" lon="1.799537">
        <ele>126.745087</ele>
        <time>2024-05-25T23:55:14.067Z</time>
      </trkpt>
      <trkpt lat="49.553853" lon="1.798960">
        <ele>126.513375</ele>
        <time>2024-05-25T23:55:24.577Z</time>
      </trkpt>
      <trkpt lat="49.554177" lon="1.798250">
        <ele>126.257046</ele>
        <time>2024-05-25T23:55:36.743Z</time>
      </trkpt>
      <trkpt lat="49.554228" lon="1.798140">
        <ele>126.217122</ele>
        <time>2024-05-25T23:55:38.715Z</time>
      </trkpt>
      <trkpt lat="49.554869" lon="1.797523">
        <ele>126.068657</ele>
        <time>2024-05-25T23:55:56.965Z</time>
      </trkpt>
      <trkpt lat="49.555270" lon="1.797102">
        <ele>126.377902</ele>
        <time>2024-05-25T23:56:09.330Z</time>
      </trkpt>
      <trkpt lat="49.555355" lon="1.796960">
        <ele>126.457794</ele>
        <time>2024-05-25T23:56:12.498Z</time>
      </trkpt>
      <trkpt lat="49.556296" lon="1.795441">
        <ele>127.453981</ele>
        <time>2024-05-25T23:56:49.763Z</time>
      </trkpt>
      <trkpt lat="49.557195" lon="1.793865">
        <ele>128.813831</ele>
        <time>2024-05-25T23:57:28.588Z</time>
      </trkpt>
      <trkpt lat="49.557458" lon="1.793403">
        <ele>129.146269</ele>
        <time>2024-05-25T23:57:40.006Z</time>
      </trkpt>
      <trkpt lat="49.558042" lon="1.791509">
        <ele>130.220570</ele>
        <time>2024-05-25T23:58:16.728Z</time>
      </trkpt>
      <trkpt lat="49.558322" lon="1.790880">
        <ele>130.551324</ele>
        <time>2024-05-25T23:58:29.434Z</time>
      </trkpt>
      <trkpt lat="49.558323" lon="1.790790">
        <ele>130.587995</ele>
        <time>2024-05-25T23:58:30.858Z</time>
      </trkpt>
      <trkpt lat="49.558366" lon="1.790437">
        <ele>130.734319</ele>
        <time>2024-05-25T23:58:36.789Z</time>
      </trkpt>
      <trkpt lat="49.558563" lon="1.789529">
        <ele>131.124375</ele>
        <time>2024-05-25T23:58:52.687Z</time>
      </trkpt>
      <trkpt lat="49.559369" lon="1.787714">
        <ele>132.338598</ele>
        <time>2024-05-25T23:59:31.906Z</time>
      </trkpt>
      <trkpt lat="49.559833" lon="1.786957">
        <ele>132.998569</ele>
        <time>2024-05-25T23:59:53.126Z</time>
      </trkpt>
      <trkpt lat="49.560381" lon="1.786235">
        <ele>133.040660</ele>
        <time>2024-05-26T00:00:11.343Z</time>
      </trkpt>
      <trkpt lat="49.560466" lon="1.786016">
        <ele>132.987355</ele>
        <time>2024-05-26T00:00:15.001Z</time>
      </trkpt>
      <trkpt lat="49.560525" lon="1.785666">
        <ele>132.911823</ele>
        <time>2024-05-26T00:00:20.251Z</time>
      </trkpt>
      <trkpt lat="49.560357" lon="1.785346">
        <ele>132.825836</ele>
        <time>2024-05-26T00:00:25.863Z</time>
      </trkpt>
      <trkpt lat="49.559491" lon="1.784357">
        <ele>132.524606</ele>
        <time>2024-05-26T00:00:48.378Z</time>
      </trkpt>
      <trkpt lat="49.559441" lon="1.784335">
        <ele>132.513086</ele>
        <time>2024-05-26T00:00:49.518Z</time>
      </trkpt>
      <trkpt lat="49.559300" lon="1.784194">
        <ele>132.475851</ele>
        <time>2024-05-26T00:00:52.866Z</time>
      </trkpt>
      <trkpt lat="49.559056" lon="1.783911">
        <ele>132.408201</ele>
        <time>2024-05-26T00:00:59.131Z</time>
      </trkpt>
      <trkpt lat="49.558969" lon="1.783712">
        <ele>132.373713</ele>
        <time>2024-05-26T00:01:02.519Z</time>
      </trkpt>
      <trkpt lat="49.558909" lon="1.783467">
        <ele>132.336078</ele>
        <time>2024-05-26T00:01:06.478Z</time>
      </trkpt>
      <trkpt lat="49.558919" lon="1.783255">
        <ele>132.305530</ele>
        <time>2024-05-26T00:01:09.896Z</time>
      </trkpt>
      <trkpt lat="49.558872" lon="1.782750">
        <ele>132.232212</ele>
        <time>2024-05-26T00:01:18.756Z</time>
      </trkpt>
      <trkpt lat="49.558842" lon="1.782650">
        <ele>132.322193</ele>
        <time>2024-05-26T00:01:20.820Z</time>
      </trkpt>
      <trkpt lat="49.558375" lon="1.781590">
        <ele>133.949401</ele>
        <time>2024-05-26T00:01:48.008Z</time>
      </trkpt>
      <trkpt lat="49.558491" lon="1.781349">
        <ele>134.330499</ele>
        <time>2024-05-26T00:01:54.843Z</time>
      </trkpt>
      <trkpt lat="49.558817" lon="1.780434">
        <ele>135.656189</ele>
        <time>2024-05-26T00:02:18.215Z</time>
      </trkpt>
      <trkpt lat="49.558947" lon="1.780147">
        <ele>135.982502</ele>
        <time>2024-05-26T00:02:25.728Z</time>
      </trkpt>
      <trkpt lat="49.559029" lon="1.780084">
        <ele>136.101695</ele>
        <time>2024-05-26T00:02:28.815Z</time>
      </trkpt>
      <trkpt lat="49.559246" lon="1.780015">
        <ele>136.389946</ele>
        <time>2024-05-26T00:02:36.014Z</time>
      </trkpt>
      <trkpt lat="49.559380" lon="1.779835">
        <ele>136.621168</ele>
        <time>2024-05-26T00:02:41.856Z</time>
      </trkpt>
      <trkpt lat="49.559530" lon="1.779690">
        <ele>136.851502</ele>
        <time>2024-05-26T00:02:47.458Z</time>
      </trkpt>
      <trkpt lat="49.560094" lon="1.779379">
        <ele>137.630768</ele>
        <time>2024-05-26T00:03:05.180Z</time>
      </trkpt>
      <trkpt lat="49.561009" lon="1.778226">
        <ele>137.890671</ele>
        <time>2024-05-26T00:03:32.779Z</time>
      </trkpt>
      <trkpt lat="49.561354" lon="1.777997">
        <ele>137.801243</ele>
        <time>2024-05-26T00:03:41.103Z</time>
      </trkpt>
      <trkpt lat="49.561708" lon="1.777877">
        <ele>137.714948</ele>
        <time>2024-05-26T00:03:49.016Z</time>
      </trkpt>
      <trkpt lat="49.561875" lon="1.777726">
        <ele>137.668854</ele>
        <time>2024-05-26T00:03:53.072Z</time>
      </trkpt>
      <trkpt lat="49.562314" lon="1.777274">
        <ele>137.559556</ele>
        <time>2024-05-26T00:04:04.162Z</time>
      </trkpt>
      <trkpt lat="49.562787" lon="1.776630">
        <ele>137.430373</ele>
        <time>2024-05-26T00:04:17.524Z</time>
      </trkpt>
      <trkpt lat="49.563594" lon="1.776330">
        <ele>137.565976</ele>
        <time>2024-05-26T00:04:39.039Z</time>
      </trkpt>
      <trkpt lat="49.563811" lon="1.776137">
        <ele>138.013260</ele>
        <time>2024-05-26T00:04:46.360Z</time>
      </trkpt>
      <trkpt lat="49.563566" lon="1.775149">
        <ele>139.238174</ele>
        <time>2024-05-26T00:05:08.350Z</time>
      </trkpt>
      <trkpt lat="49.563079" lon="1.773562">
        <ele>141.679809</ele>
        <time>2024-05-26T00:05:48.850Z</time>
      </trkpt>
      <trkpt lat="49.562620" lon="1.773004">
        <ele>143.278499</ele>
        <time>2024-05-26T00:06:09.740Z</time>
      </trkpt>
      <trkpt lat="49.561910" lon="1.770922">
        <ele>148.060767</ele>
        <time>2024-05-26T00:07:08.552Z</time>
      </trkpt>
      <trkpt lat="49.561882" lon="1.770766">
        <ele>148.434172</ele>
        <time>2024-05-26T00:07:13.083Z</time>
      </trkpt>
      <trkpt lat="49.561841" lon="1.770536">
        <ele>148.984438</ele>
        <time>2024-05-26T00:07:19.493Z</time>
      </trkpt>
      <trkpt lat="49.561841" lon="1.769842">
        <ele>150.585447</ele>
        <time>2024-05-26T00:07:38.598Z</time>
      </trkpt>
      <trkpt lat="49.561887" lon="1.769159">
        <ele>152.187275</ele>
        <time>2024-05-26T00:07:57.720Z</time>
      </trkpt>
      <trkpt lat="49.562042" lon="1.768561">
        <ele>153.748144</ele>
        <time>2024-05-26T00:08:15.769Z</time>
      </trkpt>
      <trkpt lat="49.562021" lon="1.768347">
        <ele>154.272737</ele>
        <time>2024-05-26T00:08:21.886Z</time>
      </trkpt>
      <trkpt lat="49.561841" lon="1.767832">
        <ele>155.690679</ele>
        <time>2024-05-26T00:08:38.427Z</time>
      </trkpt>
      <trkpt lat="49.561828" lon="1.767670">
        <ele>156.086327</ele>
        <time>2024-05-26T00:08:42.927Z</time>
      </trkpt>
      <trkpt lat="49.561884" lon="1.767425">
        <ele>156.715949</ele>
        <time>2024-05-26T00:08:49.950Z</time>
      </trkpt>
      <trkpt lat="49.561986" lon="1.767241">
        <ele>157.302613</ele>
        <time>2024-05-26T00:08:56.420Z</time>
      </trkpt>
      <trkpt lat="49.562062" lon="1.767042">
        <ele>157.862345</ele>
        <time>2024-05-26T00:09:02.419Z</time>
      </trkpt>
      <trkpt lat="49.562091" lon="1.766802">
        <ele>158.454061</ele>
        <time>2024-05-26T00:09:08.759Z</time>
      </trkpt>
      <trkpt lat="49.561748" lon="1.765390">
        <ele>161.048889</ele>
        <time>2024-05-26T00:09:45.272Z</time>
      </trkpt>
      <trkpt lat="49.561792" lon="1.764840">
        <ele>161.993120</ele>
        <time>2024-05-26T00:09:57.917Z</time>
      </trkpt>
      <trkpt lat="49.561783" lon="1.764682">
        <ele>162.263368</ele>
        <time>2024-05-26T00:10:01.511Z</time>
      </trkpt>
      <trkpt lat="49.561479" lon="1.763991">
        <ele>163.557948</ele>
        <time>2024-05-26T00:10:20.001Z</time>
      </trkpt>
      <trkpt lat="49.561131" lon="1.763283">
        <ele>164.610356</ele>
        <time>2024-05-26T00:10:38.401Z</time>
      </trkpt>
      <trkpt lat="49.559558" lon="1.761502">
        <ele>167.801942</ele>
        <time>2024-05-26T00:11:40.828Z</time>
      </trkpt>
      <trkpt lat="49.559446" lon="1.760794">
        <ele>168.467017</ele>
        <time>2024-05-26T00:11:54.519Z</time>
      </trkpt>
      <trkpt lat="49.559551" lon="1.759852">
        <ele>169.269614</ele>
        <time>2024-05-26T00:12:11.741Z</time>
      </trkpt>
      <trkpt lat="49.559085" lon="1.759614">
        <ele>169.773596</ele>
        <time>2024-05-26T00:12:25.065Z</time>
      </trkpt>
      <trkpt lat="49.558806" lon="1.758863">
        <ele>170.349935</ele>
        <time>2024-05-26T00:12:40.322Z</time>
      </trkpt>
      <trkpt lat="49.557895" lon="1.757685">
        <ele>173.018280</ele>
        <time>2024-05-26T00:13:15.906Z</time>
      </trkpt>
      <trkpt lat="49.557825" lon="1.756505">
        <ele>175.584989</ele>
        <time>2024-05-26T00:13:48.307Z</time>
      </trkpt>
      <trkpt lat="49.556711" lon="1.752321">
        <ele>189.416984</ele>
        <time>2024-05-26T00:16:16.526Z</time>
      </trkpt>
      <trkpt lat="49.556280" lon="1.750776">
        <ele>193.436248</ele>
        <time>2024-05-26T00:16:58.932Z</time>
      </trkpt>
      <trkpt lat="49.555347" lon="1.748780">
        <ele>193.924244</ele>
        <time>2024-05-26T00:17:38.253Z</time>
      </trkpt>
      <trkpt lat="49.554874" lon="1.747493">
        <ele>192.400866</ele>
        <time>2024-05-26T00:17:57.121Z</time>
      </trkpt>
      <trkpt lat="49.554108" lon="1.745133">
        <ele>188.571582</ele>
        <time>2024-05-26T00:18:28.919Z</time>
      </trkpt>
      <trkpt lat="49.553071" lon="1.742748">
        <ele>183.764236</ele>
        <time>2024-05-26T00:19:03.445Z</time>
      </trkpt>
      <trkpt lat="49.552894" lon="1.742233">
        <ele>182.772219</ele>
        <time>2024-05-26T00:19:15.429Z</time>
      </trkpt>
      <trkpt lat="49.551860" lon="1.739960">
        <ele>177.855073</ele>
        <time>2024-05-26T00:20:12.138Z</time>
      </trkpt>
      <trkpt lat="49.551005" lon="1.738253">
        <ele>173.806096</ele>
        <time>2024-05-26T00:20:55.539Z</time>
      </trkpt>
      <trkpt lat="49.550596" lon="1.737380">
        <ele>171.720696</ele>
        <time>2024-05-26T00:21:17.060Z</time>
      </trkpt>
      <trkpt lat="49.550534" lon="1.737305">
        <ele>171.485434</ele>
        <time>2024-05-26T00:21:19.478Z</time>
      </trkpt>
      <trkpt lat="49.550382" lon="1.736229">
        <ele>169.509179</ele>
        <time>2024-05-26T00:21:32.531Z</time>
      </trkpt>
      <trkpt lat="49.550312" lon="1.736016">
        <ele>169.102882</ele>
        <time>2024-05-26T00:21:35.442Z</time>
      </trkpt>
      <trkpt lat="49.550221" lon="1.735843">
        <ele>168.723898</ele>
        <time>2024-05-26T00:21:38.139Z</time>
      </trkpt>
      <trkpt lat="49.550163" lon="1.735596">
        <ele>168.276910</ele>
        <time>2024-05-26T00:21:41.317Z</time>
      </trkpt>
      <trkpt lat="49.550368" lon="1.735408">
        <ele>167.651257</ele>
        <time>2024-05-26T00:21:45.763Z</time>
      </trkpt>
      <trkpt lat="49.550616" lon="1.735357">
        <ele>166.995032</ele>
        <time>2024-05-26T00:21:50.447Z</time>
      </trkpt>
      <trkpt lat="49.550956" lon="1.735411">
        <ele>166.098549</ele>
        <time>2024-05-26T00:21:56.795Z</time>
      </trkpt>
      <trkpt lat="49.551185" lon="1.735401">
        <ele>165.455539</ele>
        <time>2024-05-26T00:22:01.024Z</time>
      </trkpt>
      <trkpt lat="49.551315" lon="1.735342">
        <ele>165.064966</ele>
        <time>2024-05-26T00:22:03.603Z</time>
      </trkpt>
      <trkpt lat="49.550698" lon="1.733651">
        <ele>161.437383</ele>
        <time>2024-05-26T00:22:26.343Z</time>
      </trkpt>
      <trkpt lat="49.550769" lon="1.733330">
        <ele>160.803250</ele>
        <time>2024-05-26T00:22:30.205Z</time>
      </trkpt>
      <trkpt lat="49.549553" lon="1.731621">
        <ele>157.700669</ele>
        <time>2024-05-26T00:22:59.519Z</time>
      </trkpt>
      <trkpt lat="49.549706" lon="1.730671">
        <ele>158.383028</ele>
        <time>2024-05-26T00:23:17.147Z</time>
      </trkpt>
      <trkpt lat="49.549904" lon="1.728505">
        <ele>161.432249</ele>
        <time>2024-05-26T00:24:12.198Z</time>
      </trkpt>
      <trkpt lat="49.549904" lon="1.727636">
        <ele>162.214850</ele>
        <time>2024-05-26T00:24:33.794Z</time>
      </trkpt>
      <trkpt lat="49.549937" lon="1.727091">
        <ele>162.707797</ele>
        <time>2024-05-26T00:24:45.842Z</time>
      </trkpt>
      <trkpt lat="49.550442" lon="1.724864">
        <ele>162.673527</ele>
        <time>2024-05-26T00:25:19.916Z</time>
      </trkpt>
      <trkpt lat="49.550494" lon="1.724454">
        <ele>162.249848</ele>
        <time>2024-05-26T00:25:25.093Z</time>
      </trkpt>
      <trkpt lat="49.550515" lon="1.723991">
        <ele>161.779143</ele>
        <time>2024-05-26T00:25:30.761Z</time>
      </trkpt>
      <trkpt lat="49.550232" lon="1.722017">
        <ele>159.406384</ele>
        <time>2024-05-26T00:25:55.083Z</time>
      </trkpt>
      <trkpt lat="49.550022" lon="1.721013">
        <ele>158.066254</ele>
        <time>2024-05-26T00:26:08.192Z</time>
      </trkpt>
      <trkpt lat="49.549982" lon="1.720497">
        <ele>157.485622</ele>
        <time>2024-05-26T00:26:15.133Z</time>
      </trkpt>
      <trkpt lat="49.549978" lon="1.720175">
        <ele>157.497548</ele>
        <time>2024-05-26T00:26:19.720Z</time>
      </trkpt>
      <trkpt lat="49.550007" lon="1.719812">
        <ele>157.511092</ele>
        <time>2024-05-26T00:26:25.133Z</time>
      </trkpt>
      <trkpt lat="49.550110" lon="1.719486">
        <ele>157.524520</ele>
        <time>2024-05-26T00:26:31.003Z</time>
      </trkpt>
      <trkpt lat="49.550365" lon="1.718968">
        <ele>157.548599</ele>
        <time>2024-05-26T00:26:41.792Z</time>
      </trkpt>
      <trkpt lat="49.550429" lon="1.718526">
        <ele>157.565369</ele>
        <time>2024-05-26T00:26:49.332Z</time>
      </trkpt>
      <trkpt lat="49.550436" lon="1.718145">
        <ele>157.579484</ele>
        <time>2024-05-26T00:26:55.802Z</time>
      </trkpt>
      <trkpt lat="49.550362" lon="1.717668">
        <ele>157.437895</ele>
        <time>2024-05-26T00:27:03.919Z</time>
      </trkpt>
      <trkpt lat="49.550262" lon="1.717279">
        <ele>157.240259</ele>
        <time>2024-05-26T00:27:10.634Z</time>
      </trkpt>
      <trkpt lat="49.550078" lon="1.715841">
        <ele>156.547954</ele>
        <time>2024-05-26T00:27:31.391Z</time>
      </trkpt>
      <trkpt lat="49.549829" lon="1.714363">
        <ele>154.279638</ele>
        <time>2024-05-26T00:27:49.835Z</time>
      </trkpt>
      <trkpt lat="49.549859" lon="1.713474">
        <ele>152.413187</ele>
        <time>2024-05-26T00:28:00.045Z</time>
      </trkpt>
      <trkpt lat="49.548842" lon="1.711106">
        <ele>145.629748</ele>
        <time>2024-05-26T00:28:31.884Z</time>
      </trkpt>
      <trkpt lat="49.548561" lon="1.710361">
        <ele>143.448803</ele>
        <time>2024-05-26T00:28:41.646Z</time>
      </trkpt>
      <trkpt lat="49.548416" lon="1.709813">
        <ele>142.198059</ele>
        <time>2024-05-26T00:28:48.404Z</time>
      </trkpt>
      <trkpt lat="49.548120" lon="1.708887">
        <ele>140.016720</ele>
        <time>2024-05-26T00:29:00.307Z</time>
      </trkpt>
      <trkpt lat="49.547879" lon="1.708409">
        <ele>138.737523</ele>
        <time>2024-05-26T00:29:07.393Z</time>
      </trkpt>
      <trkpt lat="49.547841" lon="1.708261">
        <ele>138.401181</ele>
        <time>2024-05-26T00:29:09.264Z</time>
      </trkpt>
      <trkpt lat="49.547806" lon="1.708264">
        <ele>138.287012</ele>
        <time>2024-05-26T00:29:09.889Z</time>
      </trkpt>
      <trkpt lat="49.547764" lon="1.707731">
        <ele>137.247457</ele>
        <time>2024-05-26T00:29:16.268Z</time>
      </trkpt>
      <trkpt lat="49.547737" lon="1.707631">
        <ele>137.068308</ele>
        <time>2024-05-26T00:29:17.554Z</time>
      </trkpt>
      <trkpt lat="49.547691" lon="1.707457">
        <ele>136.757540</ele>
        <time>2024-05-26T00:29:19.815Z</time>
      </trkpt>
      <trkpt lat="49.547526" lon="1.707135">
        <ele>136.078885</ele>
        <time>2024-05-26T00:29:24.746Z</time>
      </trkpt>
      <trkpt lat="49.546988" lon="1.706484">
        <ele>134.335210</ele>
        <time>2024-05-26T00:29:37.498Z</time>
      </trkpt>
      <trkpt lat="49.546813" lon="1.706204">
        <ele>133.692167</ele>
        <time>2024-05-26T00:29:42.210Z</time>
      </trkpt>
      <trkpt lat="49.546718" lon="1.705937">
        <ele>133.188498</ele>
        <time>2024-05-26T00:29:45.881Z</time>
      </trkpt>
      <trkpt lat="49.546577" lon="1.705057">
        <ele>131.739964</ele>
        <time>2024-05-26T00:29:56.881Z</time>
      </trkpt>
      <trkpt lat="49.545874" lon="1.702764">
        <ele>127.792920</ele>
        <time>2024-05-26T00:30:27.662Z</time>
      </trkpt>
      <trkpt lat="49.545607" lon="1.701824">
        <ele>126.318855</ele>
        <time>2024-05-26T00:30:40.164Z</time>
      </trkpt>
      <trkpt lat="49.545223" lon="1.700331">
        <ele>124.140334</ele>
        <time>2024-05-26T00:31:00.121Z</time>
      </trkpt>
      <trkpt lat="49.545202" lon="1.699908">
        <ele>123.661019</ele>
        <time>2024-05-26T00:31:05.465Z</time>
      </trkpt>
      <trkpt lat="49.545330" lon="1.699372">
        <ele>123.015716</ele>
        <time>2024-05-26T00:31:12.679Z</time>
      </trkpt>
      <trkpt lat="49.545297" lon="1.699123">
        <ele>122.728580</ele>
        <time>2024-05-26T00:31:15.924Z</time>
      </trkpt>
      <trkpt lat="49.544732" lon="1.697430">
        <ele>120.440008</ele>
        <time>2024-05-26T00:31:40.498Z</time>
      </trkpt>
      <trkpt lat="49.544480" lon="1.696195">
        <ele>118.754788</ele>
        <time>2024-05-26T00:31:56.636Z</time>
      </trkpt>
      <trkpt lat="49.544289" lon="1.695780">
        <ele>118.092482</ele>
        <time>2024-05-26T00:32:02.848Z</time>
      </trkpt>
      <trkpt lat="49.543493" lon="1.694432">
        <ele>114.746307</ele>
        <time>2024-05-26T00:32:24.583Z</time>
      </trkpt>
      <trkpt lat="49.543329" lon="1.694108">
        <ele>113.969599</ele>
        <time>2024-05-26T00:32:29.374Z</time>
      </trkpt>
      <trkpt lat="49.542821" lon="1.692949">
        <ele>111.438951</ele>
        <time>2024-05-26T00:32:45.498Z</time>
      </trkpt>
      <trkpt lat="49.542735" lon="1.692801">
        <ele>111.095869</ele>
        <time>2024-05-26T00:32:47.828Z</time>
      </trkpt>
      <trkpt lat="49.542467" lon="1.692550">
        <ele>110.261248</ele>
        <time>2024-05-26T00:32:53.514Z</time>
      </trkpt>
      <trkpt lat="49.542374" lon="1.692412">
        <ele>109.917661</ele>
        <time>2024-05-26T00:32:55.881Z</time>
      </trkpt>
      <trkpt lat="49.542334" lon="1.692182">
        <ele>109.506454</ele>
        <time>2024-05-26T00:32:58.720Z</time>
      </trkpt>
      <trkpt lat="49.542341" lon="1.691682">
        <ele>108.642798</ele>
        <time>2024-05-26T00:33:04.835Z</time>
      </trkpt>
      <trkpt lat="49.542293" lon="1.691482">
        <ele>108.274549</ele>
        <time>2024-05-26T00:33:07.488Z</time>
      </trkpt>
      <trkpt lat="49.542230" lon="1.691393">
        <ele>108.047099</ele>
        <time>2024-05-26T00:33:09.151Z</time>
      </trkpt>
      <trkpt lat="49.542070" lon="1.691374">
        <ele>107.840399</ele>
        <time>2024-05-26T00:33:12.248Z</time>
      </trkpt>
      <trkpt lat="49.541577" lon="1.691652">
        <ele>107.796900</ele>
        <time>2024-05-26T00:33:22.389Z</time>
      </trkpt>
      <trkpt lat="49.541265" lon="1.691675">
        <ele>107.771018</ele>
        <time>2024-05-26T00:33:28.810Z</time>
      </trkpt>
      <trkpt lat="49.539970" lon="1.691556">
        <ele>108.514752</ele>
        <time>2024-05-26T00:34:05.164Z</time>
      </trkpt>
      <trkpt lat="49.539011" lon="1.691560">
        <ele>110.372251</ele>
        <time>2024-05-26T00:34:38.615Z</time>
      </trkpt>
      <trkpt lat="49.538415" lon="1.691656">
        <ele>111.134476</ele>
        <time>2024-05-26T00:34:57.830Z</time>
      </trkpt>
      <trkpt lat="49.537842" lon="1.691890">
        <ele>110.978068</ele>
        <time>2024-05-26T00:35:14.238Z</time>
      </trkpt>
      <trkpt lat="49.537785" lon="1.691640">
        <ele>110.932696</ele>
        <time>2024-05-26T00:35:18.029Z</time>
      </trkpt>
      <trkpt lat="49.537335" lon="1.689957">
        <ele>109.912831</ele>
        <time>2024-05-26T00:35:39.973Z</time>
      </trkpt>
      <trkpt lat="49.537328" lon="1.689930">
        <ele>109.867164</ele>
        <time>2024-05-26T00:35:40.299Z</time>
      </trkpt>
      <trkpt lat="49.536858" lon="1.688114">
        <ele>106.796376</ele>
        <time>2024-05-26T00:36:02.348Z</time>
      </trkpt>
      <trkpt lat="49.536657" lon="1.687464">
        <ele>106.148286</ele>
        <time>2024-05-26T00:36:10.919Z</time>
      </trkpt>
      <trkpt lat="49.536447" lon="1.686982">
        <ele>105.875459</ele>
        <time>2024-05-26T00:36:18.300Z</time>
      </trkpt>
      <trkpt lat="49.536184" lon="1.686509">
        <ele>105.582742</ele>
        <time>2024-05-26T00:36:26.748Z</time>
      </trkpt>
      <trkpt lat="49.536080" lon="1.686327">
        <ele>105.468780</ele>
        <time>2024-05-26T00:36:30.287Z</time>
      </trkpt>
      <trkpt lat="49.535861" lon="1.685943">
        <ele>105.228537</ele>
        <time>2024-05-26T00:36:37.863Z</time>
      </trkpt>
      <trkpt lat="49.535735" lon="1.685584">
        <ele>105.055162</ele>
        <time>2024-05-26T00:36:43.828Z</time>
      </trkpt>
      <trkpt lat="49.535688" lon="1.685387">
        <ele>105.076092</ele>
        <time>2024-05-26T00:36:47.327Z</time>
      </trkpt>
      <trkpt lat="49.535592" lon="1.684798">
        <ele>105.136652</ele>
        <time>2024-05-26T00:36:56.703Z</time>
      </trkpt>
      <trkpt lat="49.535468" lon="1.684338">
        <ele>105.186324</ele>
        <time>2024-05-26T00:37:04.101Z</time>
      </trkpt>
      <trkpt lat="49.535355" lon="1.683965">
        <ele>105.227373</ele>
        <time>2024-05-26T00:37:09.897Z</time>
      </trkpt>
      <trkpt lat="49.535157" lon="1.683463">
        <ele>105.285954</ele>
        <time>2024-05-26T00:37:18.365Z</time>
      </trkpt>
      <trkpt lat="49.531430" lon="1.675107">
        <ele>108.543975</ele>
        <time>2024-05-26T00:39:55.690Z</time>
      </trkpt>
      <trkpt lat="49.531234" lon="1.674440">
        <ele>109.301094</ele>
        <time>2024-05-26T00:40:11.228Z</time>
      </trkpt>
      <trkpt lat="49.531119" lon="1.673801">
        <ele>110.027234</ele>
        <time>2024-05-26T00:40:27.065Z</time>
      </trkpt>
      <trkpt lat="49.530856" lon="1.670572">
        <ele>118.447080</ele>
        <time>2024-05-26T00:42:00.804Z</time>
      </trkpt>
      <trkpt lat="49.530856" lon="1.669970">
        <ele>119.600890</ele>
        <time>2024-05-26T00:42:16.997Z</time>
      </trkpt>
      <trkpt lat="49.530889" lon="1.669413">
        <ele>120.672891</ele>
        <time>2024-05-26T00:42:31.101Z</time>
      </trkpt>
      <trkpt lat="49.531294" lon="1.666684">
        <ele>123.810868</ele>
        <time>2024-05-26T00:43:25.910Z</time>
      </trkpt>
      <trkpt lat="49.531390" lon="1.666637">
        <ele>123.904576</ele>
        <time>2024-05-26T00:43:28.458Z</time>
      </trkpt>
      <trkpt lat="49.531415" lon="1.666487">
        <ele>123.998081</ele>
        <time>2024-05-26T00:43:30.919Z</time>
      </trkpt>
      <trkpt lat="49.531387" lon="1.666413">
        <ele>124.049800</ele>
        <time>2024-05-26T00:43:32.194Z</time>
      </trkpt>
      <trkpt lat="49.531337" lon="1.666371">
        <ele>124.102777</ele>
        <time>2024-05-26T00:43:33.452Z</time>
      </trkpt>
      <trkpt lat="49.532185" lon="1.660937">
        <ele>123.386883</ele>
        <time>2024-05-26T00:44:50.065Z</time>
      </trkpt>
      <trkpt lat="49.532310" lon="1.660023">
        <ele>123.393697</ele>
        <time>2024-05-26T00:45:03.776Z</time>
      </trkpt>
      <trkpt lat="49.532438" lon="1.660202">
        <ele>123.467124</ele>
        <time>2024-05-26T00:45:08.196Z</time>
      </trkpt>
      <trkpt lat="49.532517" lon="1.660313">
        <ele>123.512539</ele>
        <time>2024-05-26T00:45:10.868Z</time>
      </trkpt>
      <trkpt lat="49.533283" lon="1.659612">
        <ele>123.890984</ele>
        <time>2024-05-26T00:45:33.812Z</time>
      </trkpt>
      <trkpt lat="49.534207" lon="1.658901">
        <ele>124.168166</ele>
        <time>2024-05-26T00:46:01.105Z</time>
      </trkpt>
      <trkpt lat="49.534982" lon="1.658251">
        <ele>124.326194</ele>
        <time>2024-05-26T00:46:21.503Z</time>
      </trkpt>
      <trkpt lat="49.535764" lon="1.657687">
        <ele>124.500842</ele>
        <time>2024-05-26T00:46:41.200Z</time>
      </trkpt>
      <trkpt lat="49.536080" lon="1.657655">
        <ele>124.568040</ele>
        <time>2024-05-26T00:46:48.488Z</time>
      </trkpt>
      <trkpt lat="49.536342" lon="1.657594">
        <ele>124.624267</ele>
        <time>2024-05-26T00:46:54.802Z</time>
      </trkpt>
      <trkpt lat="49.536454" lon="1.657535">
        <ele>124.649383</ele>
        <time>2024-05-26T00:46:57.662Z</time>
      </trkpt>
      <trkpt lat="49.536714" lon="1.657396">
        <ele>124.707780</ele>
        <time>2024-05-26T00:47:04.529Z</time>
      </trkpt>
      <trkpt lat="49.537347" lon="1.656980">
        <ele>125.406623</ele>
        <time>2024-05-26T00:47:23.240Z</time>
      </trkpt>
      <trkpt lat="49.537547" lon="1.656991">
        <ele>125.684790</ele>
        <time>2024-05-26T00:47:29.147Z</time>
      </trkpt>
      <trkpt lat="49.538182" lon="1.657158">
        <ele>126.580170</ele>
        <time>2024-05-26T00:47:49.152Z</time>
      </trkpt>
      <trkpt lat="49.538772" lon="1.657384">
        <ele>127.486396</ele>
        <time>2024-05-26T00:48:08.937Z</time>
      </trkpt>
      <trkpt lat="49.539152" lon="1.657572">
        <ele>128.239701</ele>
        <time>2024-05-26T00:48:22.361Z</time>
      </trkpt>
      <trkpt lat="49.539607" lon="1.657893">
        <ele>129.184232</ele>
        <time>2024-05-26T00:48:39.126Z</time>
      </trkpt>
      <trkpt lat="49.540536" lon="1.658801">
        <ele>131.271090</ele>
        <time>2024-05-26T00:49:14.077Z</time>
      </trkpt>
      <trkpt lat="49.540666" lon="1.658812">
        <ele>131.521026</ele>
        <time>2024-05-26T00:49:18.192Z</time>
      </trkpt>
      <trkpt lat="49.540792" lon="1.658779">
        <ele>131.766375</ele>
        <time>2024-05-26T00:49:22.340Z</time>
      </trkpt>
      <trkpt lat="49.541221" lon="1.658326">
        <ele>132.764707</ele>
        <time>2024-05-26T00:49:39.084Z</time>
      </trkpt>
      <trkpt lat="49.541343" lon="1.658189">
        <ele>133.054492</ele>
        <time>2024-05-26T00:49:44.240Z</time>
      </trkpt>
      <trkpt lat="49.541607" lon="1.657989">
        <ele>133.619216</ele>
        <time>2024-05-26T00:49:54.223Z</time>
      </trkpt>
      <trkpt lat="49.541860" lon="1.657900">
        <ele>134.119960</ele>
        <time>2024-05-26T00:50:02.904Z</time>
      </trkpt>
      <trkpt lat="49.542275" lon="1.657827">
        <ele>135.055601</ele>
        <time>2024-05-26T00:50:16.970Z</time>
      </trkpt>
      <trkpt lat="49.542551" lon="1.657833">
        <ele>135.673905</ele>
        <time>2024-05-26T00:50:26.396Z</time>
      </trkpt>
      <trkpt lat="49.542676" lon="1.657889">
        <ele>135.965497</ele>
        <time>2024-05-26T00:50:31.045Z</time>
      </trkpt>
      <trkpt lat="49.542625" lon="1.658086">
        <ele>136.273785</ele>
        <time>2024-05-26T00:50:35.896Z</time>
      </trkpt>
      <trkpt lat="49.542591" lon="1.658341">
        <ele>136.652173</ele>
        <time>2024-05-26T00:50:41.901Z</time>
      </trkpt>
      <trkpt lat="49.542581" lon="1.658691">
        <ele>137.161392</ele>
        <time>2024-05-26T00:50:49.856Z</time>
      </trkpt>
      <trkpt lat="49.543067" lon="1.658626">
        <ele>138.255914</ele>
        <time>2024-05-26T00:51:06.299Z</time>
      </trkpt>
      <trkpt lat="49.544192" lon="1.658404">
        <ele>140.833326</ele>
        <time>2024-05-26T00:51:42.827Z</time>
      </trkpt>
      <trkpt lat="49.545644" lon="1.657948">
        <ele>144.991828</ele>
        <time>2024-05-26T00:52:35.463Z</time>
      </trkpt>
      <trkpt lat="49.545870" lon="1.657949">
        <ele>145.710347</ele>
        <time>2024-05-26T00:52:44.465Z</time>
      </trkpt>
      <trkpt lat="49.546408" lon="1.658051">
        <ele>147.433690</ele>
        <time>2024-05-26T00:53:06.458Z</time>
      </trkpt>
      <trkpt lat="49.546841" lon="1.658015">
        <ele>148.969826</ele>
        <time>2024-05-26T00:53:24.721Z</time>
      </trkpt>
      <trkpt lat="49.550399" lon="1.657004">
        <ele>161.976020</ele>
        <time>2024-05-26T00:55:52.646Z</time>
      </trkpt>
      <trkpt lat="49.550512" lon="1.656971">
        <ele>162.242849</ele>
        <time>2024-05-26T00:55:56.916Z</time>
      </trkpt>
      <trkpt lat="49.551127" lon="1.656802">
        <ele>163.692176</ele>
        <time>2024-05-26T00:56:19.106Z</time>
      </trkpt>
      <trkpt lat="49.552773" lon="1.656581">
        <ele>165.800123</ele>
        <time>2024-05-26T00:57:06.120Z</time>
      </trkpt>
      <trkpt lat="49.553837" lon="1.656367">
        <ele>166.015750</ele>
        <time>2024-05-26T00:57:28.920Z</time>
      </trkpt>
      <trkpt lat="49.554100" lon="1.656329">
        <ele>165.806018</ele>
        <time>2024-05-26T00:57:34.169Z</time>
      </trkpt>
      <trkpt lat="49.554345" lon="1.656344">
        <ele>165.611339</ele>
        <time>2024-05-26T00:57:39.016Z</time>
      </trkpt>
      <trkpt lat="49.555819" lon="1.656522">
        <ele>164.786564</ele>
        <time>2024-05-26T00:58:08.567Z</time>
      </trkpt>
      <trkpt lat="49.557499" lon="1.656809">
        <ele>165.548087</ele>
        <time>2024-05-26T00:58:49.878Z</time>
      </trkpt>
      <trkpt lat="49.558093" lon="1.656926">
        <ele>166.721641</ele>
        <time>2024-05-26T00:59:08.832Z</time>
      </trkpt>
      <trkpt lat="49.558709" lon="1.657114">
        <ele>167.952276</ele>
        <time>2024-05-26T00:59:30.276Z</time>
      </trkpt>
      <trkpt lat="49.559410" lon="1.657384">
        <ele>169.598801</ele>
        <time>2024-05-26T00:59:56.644Z</time>
      </trkpt>
      <trkpt lat="49.559714" lon="1.657457">
        <ele>170.381161</ele>
        <time>2024-05-26T01:00:07.842Z</time>
      </trkpt>
      <trkpt lat="49.561357" lon="1.657577">
        <ele>174.014634</ele>
        <time>2024-05-26T01:01:04.131Z</time>
      </trkpt>
      <trkpt lat="49.562035" lon="1.657597">
        <ele>175.060878</ele>
        <time>2024-05-26T01:01:24.491Z</time>
      </trkpt>
      <trkpt lat="49.562300" lon="1.657551">
        <ele>175.472317</ele>
        <time>2024-05-26T01:01:31.897Z</time>
      </trkpt>
      <trkpt lat="49.562717" lon="1.657331">
        <ele>175.841661</ele>
        <time>2024-05-26T01:01:43.414Z</time>
      </trkpt>
      <trkpt lat="49.563335" lon="1.656795">
        <ele>175.316651</ele>
        <time>2024-05-26T01:02:00.075Z</time>
      </trkpt>
      <trkpt lat="49.563667" lon="1.656383">
        <ele>175.001098</ele>
        <time>2024-05-26T01:02:08.572Z</time>
      </trkpt>
      <trkpt lat="49.563792" lon="1.656265">
        <ele>174.892575</ele>
        <time>2024-05-26T01:02:11.320Z</time>
      </trkpt>
      <trkpt lat="49.563899" lon="1.656230">
        <ele>174.811588</ele>
        <time>2024-05-26T01:02:13.350Z</time>
      </trkpt>
      <trkpt lat="49.564005" lon="1.656237">
        <ele>174.733032</ele>
        <time>2024-05-26T01:02:15.297Z</time>
      </trkpt>
      <trkpt lat="49.564550" lon="1.656457">
        <ele>173.114480</ele>
        <time>2024-05-26T01:02:25.162Z</time>
      </trkpt>
      <trkpt lat="49.564701" lon="1.656643">
        <ele>172.388087</ele>
        <time>2024-05-26T01:02:28.432Z</time>
      </trkpt>
      <trkpt lat="49.564792" lon="1.656811">
        <ele>171.854531</ele>
        <time>2024-05-26T01:02:30.789Z</time>
      </trkpt>
      <trkpt lat="49.564959" lon="1.657326">
        <ele>170.450990</ele>
        <time>2024-05-26T01:02:37.004Z</time>
      </trkpt>
      <trkpt lat="49.565058" lon="1.657540">
        <ele>169.810237</ele>
        <time>2024-05-26T01:02:39.822Z</time>
      </trkpt>
      <trkpt lat="49.565739" lon="1.658407">
        <ele>166.636218</ele>
        <time>2024-05-26T01:02:53.827Z</time>
      </trkpt>
      <trkpt lat="49.566021" lon="1.658883">
        <ele>165.232562</ele>
        <time>2024-05-26T01:03:00.613Z</time>
      </trkpt>
      <trkpt lat="49.566215" lon="1.659341">
        <ele>164.041557</ele>
        <time>2024-05-26T01:03:06.639Z</time>
      </trkpt>
      <trkpt lat="49.566384" lon="1.659602">
        <ele>163.238575</ele>
        <time>2024-05-26T01:03:10.845Z</time>
      </trkpt>
      <trkpt lat="49.566584" lon="1.659785">
        <ele>162.457857</ele>
        <time>2024-05-26T01:03:15.134Z</time>
      </trkpt>
      <trkpt lat="49.566716" lon="1.659857">
        <ele>161.987824</ele>
        <time>2024-05-26T01:03:17.794Z</time>
      </trkpt>
      <trkpt lat="49.568221" lon="1.660429">
        <ele>159.490121</ele>
        <time>2024-05-26T01:03:47.932Z</time>
      </trkpt>
      <trkpt lat="49.569560" lon="1.660954">
        <ele>156.449471</ele>
        <time>2024-05-26T01:04:12.901Z</time>
      </trkpt>
      <trkpt lat="49.569868" lon="1.661161">
        <ele>155.649240</ele>
        <time>2024-05-26T01:04:18.664Z</time>
      </trkpt>
      <trkpt lat="49.570149" lon="1.661463">
        <ele>154.833445</ele>
        <time>2024-05-26T01:04:24.639Z</time>
      </trkpt>
      <trkpt lat="49.570338" lon="1.661761">
        <ele>154.345517</ele>
        <time>2024-05-26T01:04:29.460Z</time>
      </trkpt>
      <trkpt lat="49.570550" lon="1.662201">
        <ele>153.738742</ele>
        <time>2024-05-26T01:04:35.960Z</time>
      </trkpt>
      <trkpt lat="49.571398" lon="1.664449">
        <ele>150.523206</ele>
        <time>2024-05-26T01:05:08.511Z</time>
      </trkpt>
      <trkpt lat="49.571637" lon="1.664933">
        <ele>149.569754</ele>
        <time>2024-05-26T01:05:15.703Z</time>
      </trkpt>
      <trkpt lat="49.571845" lon="1.665201">
        <ele>148.914673</ele>
        <time>2024-05-26T01:05:20.521Z</time>
      </trkpt>
      <trkpt lat="49.572347" lon="1.665585">
        <ele>147.560367</ele>
        <time>2024-05-26T01:05:30.179Z</time>
      </trkpt>
      <trkpt lat="49.572582" lon="1.665676">
        <ele>146.714076</ele>
        <time>2024-05-26T01:05:34.300Z</time>
      </trkpt>
      <trkpt lat="49.573709" lon="1.665866">
        <ele>141.921056</ele>
        <time>2024-05-26T01:05:52.904Z</time>
      </trkpt>
      <trkpt lat="49.573974" lon="1.665862">
        <ele>140.800659</ele>
        <time>2024-05-26T01:05:57.120Z</time>
      </trkpt>
      <trkpt lat="49.574131" lon="1.665810">
        <ele>140.121771</ele>
        <time>2024-05-26T01:05:59.649Z</time>
      </trkpt>
      <trkpt lat="49.574301" lon="1.665692">
        <ele>139.307350</ele>
        <time>2024-05-26T01:06:02.595Z</time>
      </trkpt>
      <trkpt lat="49.574472" lon="1.665498">
        <ele>138.348627</ele>
        <time>2024-05-26T01:06:05.947Z</time>
      </trkpt>
      <trkpt lat="49.574842" lon="1.664937">
        <ele>136.005298</ele>
        <time>2024-05-26T01:06:14.197Z</time>
      </trkpt>
      <trkpt lat="49.574959" lon="1.664830">
        <ele>135.390987</ele>
        <time>2024-05-26T01:06:16.376Z</time>
      </trkpt>
      <trkpt lat="49.575235" lon="1.664753">
        <ele>134.124309</ele>
        <time>2024-05-26T01:06:20.884Z</time>
      </trkpt>
      <trkpt lat="49.575376" lon="1.664769">
        <ele>133.485816</ele>
        <time>2024-05-26T01:06:23.182Z</time>
      </trkpt>
      <trkpt lat="49.575629" lon="1.664862">
        <ele>132.311231</ele>
        <time>2024-05-26T01:06:27.358Z</time>
      </trkpt>
      <trkpt lat="49.578295" lon="1.666040">
        <ele>124.644668</ele>
        <time>2024-05-26T01:07:15.332Z</time>
      </trkpt>
      <trkpt lat="49.578714" lon="1.666188">
        <ele>123.922290</ele>
        <time>2024-05-26T01:07:23.616Z</time>
      </trkpt>
      <trkpt lat="49.579082" lon="1.666272">
        <ele>123.297115</ele>
        <time>2024-05-26T01:07:31.254Z</time>
      </trkpt>
      <trkpt lat="49.579233" lon="1.666274">
        <ele>123.043344</ele>
        <time>2024-05-26T01:07:34.531Z</time>
      </trkpt>
      <trkpt lat="49.579668" lon="1.666152">
        <ele>123.578462</ele>
        <time>2024-05-26T01:07:44.927Z</time>
      </trkpt>
      <trkpt lat="49.579842" lon="1.666069">
        <ele>123.836666</ele>
        <time>2024-05-26T01:07:49.845Z</time>
      </trkpt>
      <trkpt lat="49.579943" lon="1.666022">
        <ele>123.986226</ele>
        <time>2024-05-26T01:07:52.848Z</time>
      </trkpt>
      <trkpt lat="49.580156" lon="1.665922">
        <ele>124.301871</ele>
        <time>2024-05-26T01:07:59.476Z</time>
      </trkpt>
      <trkpt lat="49.580422" lon="1.665880">
        <ele>124.680944</ele>
        <time>2024-05-26T01:08:08.069Z</time>
      </trkpt>
      <trkpt lat="49.580671" lon="1.665914">
        <ele>125.035325</ele>
        <time>2024-05-26T01:08:16.651Z</time>
      </trkpt>
      <trkpt lat="49.581004" lon="1.666010">
        <ele>125.515586</ele>
        <time>2024-05-26T01:08:28.332Z</time>
      </trkpt>
      <trkpt lat="49.581098" lon="1.666010">
        <ele>125.723158</ele>
        <time>2024-05-26T01:08:31.745Z</time>
      </trkpt>
      <trkpt lat="49.581238" lon="1.665956">
        <ele>126.072059</ele>
        <time>2024-05-26T01:08:36.799Z</time>
      </trkpt>
      <trkpt lat="49.581336" lon="1.665837">
        <ele>126.373612</ele>
        <time>2024-05-26T01:08:41.322Z</time>
      </trkpt>
      <trkpt lat="49.581845" lon="1.664879">
        <ele>128.315136</ele>
        <time>2024-05-26T01:09:09.095Z</time>
      </trkpt>
      <trkpt lat="49.582516" lon="1.665234">
        <ele>130.025462</ele>
        <time>2024-05-26T01:09:33.098Z</time>
      </trkpt>
      <trkpt lat="49.582602" lon="1.665345">
        <ele>130.287294</ele>
        <time>2024-05-26T01:09:36.795Z</time>
      </trkpt>
      <trkpt lat="49.582773" lon="1.665672">
        <ele>130.923263</ele>
        <time>2024-05-26T01:09:46.065Z</time>
      </trkpt>
      <trkpt lat="49.582838" lon="1.666039">
        <ele>131.499190</ele>
        <time>2024-05-26T01:09:54.059Z</time>
      </trkpt>
      <trkpt lat="49.583189" lon="1.666074">
        <ele>132.320443</ele>
        <time>2024-05-26T01:10:05.641Z</time>
      </trkpt>
      <trkpt lat="49.583665" lon="1.666381">
        <ele>133.525099</ele>
        <time>2024-05-26T01:10:23.409Z</time>
      </trkpt>
      <trkpt lat="49.583705" lon="1.666448">
        <ele>133.662974</ele>
        <time>2024-05-26T01:10:25.486Z</time>
      </trkpt>
      <trkpt lat="49.583822" lon="1.666382">
        <ele>133.953852</ele>
        <time>2024-05-26T01:10:29.960Z</time>
      </trkpt>
      <trkpt lat="49.584116" lon="1.665425">
        <ele>135.867524</ele>
        <time>2024-05-26T01:10:55.804Z</time>
      </trkpt>
      <trkpt lat="49.584737" lon="1.663966">
        <ele>139.069535</ele>
        <time>2024-05-26T01:11:37.993Z</time>
      </trkpt>
      <trkpt lat="49.584892" lon="1.663672">
        <ele>139.423266</ele>
        <time>2024-05-26T01:11:46.526Z</time>
      </trkpt>
      <trkpt lat="49.585028" lon="1.663475">
        <ele>139.642143</ele>
        <time>2024-05-26T01:11:52.804Z</time>
      </trkpt>
      <trkpt lat="49.585964" lon="1.662451">
        <ele>140.988384</ele>
        <time>2024-05-26T01:12:25.567Z</time>
      </trkpt>
      <trkpt lat="49.587122" lon="1.661385">
        <ele>139.812274</ele>
        <time>2024-05-26T01:12:52.496Z</time>
      </trkpt>
      <trkpt lat="49.588180" lon="1.660865">
        <ele>138.092239</ele>
        <time>2024-05-26T01:13:12.412Z</time>
      </trkpt>
      <trkpt lat="49.589497" lon="1.659919">
        <ele>135.485234</ele>
        <time>2024-05-26T01:13:39.036Z</time>
      </trkpt>
      <trkpt lat="49.589975" lon="1.659469">
        <ele>135.779578</ele>
        <time>2024-05-26T01:13:50.945Z</time>
      </trkpt>
      <trkpt lat="49.590027" lon="1.659410">
        <ele>135.813508</ele>
        <time>2024-05-26T01:13:52.420Z</time>
      </trkpt>
      <trkpt lat="49.590627" lon="1.658644">
        <ele>136.222883</ele>
        <time>2024-05-26T01:14:13.300Z</time>
      </trkpt>
      <trkpt lat="49.591694" lon="1.657160">
        <ele>139.289486</ele>
        <time>2024-05-26T01:15:01.944Z</time>
      </trkpt>
      <trkpt lat="49.592297" lon="1.655844">
        <ele>142.829953</ele>
        <time>2024-05-26T01:15:41.590Z</time>
      </trkpt>
      <trkpt lat="49.592859" lon="1.654805">
        <ele>147.158989</ele>
        <time>2024-05-26T01:16:20.861Z</time>
      </trkpt>
      <trkpt lat="49.593378" lon="1.653985">
        <ele>151.330453</ele>
        <time>2024-05-26T01:17:01.246Z</time>
      </trkpt>
      <trkpt lat="49.593562" lon="1.653378">
        <ele>154.805301</ele>
        <time>2024-05-26T01:17:27.707Z</time>
      </trkpt>
      <trkpt lat="49.593642" lon="1.652709">
        <ele>158.333008</ele>
        <time>2024-05-26T01:17:56.164Z</time>
      </trkpt>
      <trkpt lat="49.593597" lon="1.651339">
        <ele>165.212203</ele>
        <time>2024-05-26T01:18:55.044Z</time>
      </trkpt>
      <trkpt lat="49.593639" lon="1.650986">
        <ele>166.656424</ele>
        <time>2024-05-26T01:19:09.830Z</time>
      </trkpt>
      <trkpt lat="49.593711" lon="1.650750">
        <ele>167.706028</ele>
        <time>2024-05-26T01:19:20.452Z</time>
      </trkpt>
      <trkpt lat="49.594199" lon="1.649877">
        <ele>172.344868</ele>
        <time>2024-05-26T01:20:01.592Z</time>
      </trkpt>
      <trkpt lat="49.594330" lon="1.649431">
        <ele>174.315231</ele>
        <time>2024-05-26T01:20:16.235Z</time>
      </trkpt>
      <trkpt lat="49.594526" lon="1.648535">
        <ele>175.961216</ele>
        <time>2024-05-26T01:20:39.848Z</time>
      </trkpt>
      <trkpt lat="49.594978" lon="1.645585">
        <ele>176.785990</ele>
        <time>2024-05-26T01:21:23.179Z</time>
      </trkpt>
      <trkpt lat="49.595488" lon="1.643365">
        <ele>175.916951</ele>
        <time>2024-05-26T01:21:52.554Z</time>
      </trkpt>
      <trkpt lat="49.595666" lon="1.642716">
        <ele>176.214738</ele>
        <time>2024-05-26T01:22:02.202Z</time>
      </trkpt>
      <trkpt lat="49.595894" lon="1.642049">
        <ele>176.533382</ele>
        <time>2024-05-26T01:22:14.430Z</time>
      </trkpt>
      <trkpt lat="49.596035" lon="1.641251">
        <ele>176.882893</ele>
        <time>2024-05-26T01:22:31.361Z</time>
      </trkpt>
      <trkpt lat="49.596396" lon="1.639791">
        <ele>181.138697</ele>
        <time>2024-05-26T01:23:14.820Z</time>
      </trkpt>
      <trkpt lat="49.597036" lon="1.639148">
        <ele>184.378621</ele>
        <time>2024-05-26T01:23:53.129Z</time>
      </trkpt>
      <trkpt lat="49.597898" lon="1.637903">
        <ele>188.030551</ele>
        <time>2024-05-26T01:24:42.924Z</time>
      </trkpt>
      <trkpt lat="49.598185" lon="1.635717">
        <ele>190.337025</ele>
        <time>2024-05-26T01:25:22.240Z</time>
      </trkpt>
      <trkpt lat="49.604236" lon="1.633419">
        <ele>192.521612</ele>
        <time>2024-05-26T01:27:49.370Z</time>
      </trkpt>
      <trkpt lat="49.604672" lon="1.633324">
        <ele>192.524381</ele>
        <time>2024-05-26T01:27:59.236Z</time>
      </trkpt>
      <trkpt lat="49.605137" lon="1.633294">
        <ele>192.464185</ele>
        <time>2024-05-26T01:28:09.720Z</time>
      </trkpt>
      <trkpt lat="49.605418" lon="1.633331">
        <ele>192.427708</ele>
        <time>2024-05-26T01:28:15.897Z</time>
      </trkpt>
      <trkpt lat="49.605902" lon="1.633513">
        <ele>192.363275</ele>
        <time>2024-05-26T01:28:26.595Z</time>
      </trkpt>
      <trkpt lat="49.606564" lon="1.633892">
        <ele>192.151806</ele>
        <time>2024-05-26T01:28:41.641Z</time>
      </trkpt>
      <trkpt lat="49.607505" lon="1.634867">
        <ele>191.684559</ele>
        <time>2024-05-26T01:29:05.774Z</time>
      </trkpt>
      <trkpt lat="49.607956" lon="1.635157">
        <ele>191.523032</ele>
        <time>2024-05-26T01:29:15.726Z</time>
      </trkpt>
      <trkpt lat="49.608348" lon="1.635347">
        <ele>191.419716</ele>
        <time>2024-05-26T01:29:24.162Z</time>
      </trkpt>
      <trkpt lat="49.608728" lon="1.635382">
        <ele>191.323995</ele>
        <time>2024-05-26T01:29:32.220Z</time>
      </trkpt>
      <trkpt lat="49.609439" lon="1.635310">
        <ele>191.144830</ele>
        <time>2024-05-26T01:29:47.917Z</time>
      </trkpt>
      <trkpt lat="49.611127" lon="1.634816">
        <ele>192.069169</ele>
        <time>2024-05-26T01:30:30.805Z</time>
      </trkpt>
      <trkpt lat="49.612990" lon="1.634430">
        <ele>194.065487</ele>
        <time>2024-05-26T01:31:23.202Z</time>
      </trkpt>
      <trkpt lat="49.614510" lon="1.634614">
        <ele>196.519349</ele>
        <time>2024-05-26T01:32:07.730Z</time>
      </trkpt>
      <trkpt lat="49.616093" lon="1.634448">
        <ele>200.789858</ele>
        <time>2024-05-26T01:33:03.457Z</time>
      </trkpt>
      <trkpt lat="49.616354" lon="1.634350">
        <ele>201.585174</ele>
        <time>2024-05-26T01:33:14.388Z</time>
      </trkpt>
      <trkpt lat="49.617306" lon="1.633505">
        <ele>205.815741</ele>
        <time>2024-05-26T01:34:01.011Z</time>
      </trkpt>
      <trkpt lat="49.617447" lon="1.633325">
        <ele>206.572080</ele>
        <time>2024-05-26T01:34:09.620Z</time>
      </trkpt>
      <trkpt lat="49.617535" lon="1.633081">
        <ele>207.319940</ele>
        <time>2024-05-26T01:34:17.817Z</time>
      </trkpt>
      <trkpt lat="49.617602" lon="1.632509">
        <ele>208.876604</ele>
        <time>2024-05-26T01:34:34.537Z</time>
      </trkpt>
      <trkpt lat="49.617705" lon="1.631925">
        <ele>210.255514</ele>
        <time>2024-05-26T01:34:50.932Z</time>
      </trkpt>
      <trkpt lat="49.617858" lon="1.631574">
        <ele>210.995682</ele>
        <time>2024-05-26T01:35:01.907Z</time>
      </trkpt>
      <trkpt lat="49.618038" lon="1.631340">
        <ele>211.631211</ele>
        <time>2024-05-26T01:35:10.919Z</time>
      </trkpt>
      <trkpt lat="49.618135" lon="1.631280">
        <ele>211.913412</ele>
        <time>2024-05-26T01:35:14.736Z</time>
      </trkpt>
      <trkpt lat="49.618660" lon="1.630970">
        <ele>213.431376</ele>
        <time>2024-05-26T01:35:34.603Z</time>
      </trkpt>
      <trkpt lat="49.619941" lon="1.630205">
        <ele>215.494829</ele>
        <time>2024-05-26T01:36:14.843Z</time>
      </trkpt>
      <trkpt lat="49.623305" lon="1.628379">
        <ele>216.933290</ele>
        <time>2024-05-26T01:37:40.149Z</time>
      </trkpt>
      <trkpt lat="49.625523" lon="1.627240">
        <ele>216.146702</ele>
        <time>2024-05-26T01:38:30.330Z</time>
      </trkpt>
      <trkpt lat="49.625681" lon="1.627176">
        <ele>216.052895</ele>
        <time>2024-05-26T01:38:33.376Z</time>
      </trkpt>
      <trkpt lat="49.626764" lon="1.626752">
        <ele>215.525592</ele>
        <time>2024-05-26T01:38:54.666Z</time>
      </trkpt>
      <trkpt lat="49.626983" lon="1.626693">
        <ele>215.425877</ele>
        <time>2024-05-26T01:38:59.271Z</time>
      </trkpt>
      <trkpt lat="49.627377" lon="1.626520">
        <ele>215.242144</ele>
        <time>2024-05-26T01:39:08.276Z</time>
      </trkpt>
      <trkpt lat="49.627512" lon="1.626451">
        <ele>215.178358</ele>
        <time>2024-05-26T01:39:11.838Z</time>
      </trkpt>
      <trkpt lat="49.628042" lon="1.626094">
        <ele>216.440978</ele>
        <time>2024-05-26T01:39:29.402Z</time>
      </trkpt>
      <trkpt lat="49.629551" lon="1.624980">
        <ele>221.101063</ele>
        <time>2024-05-26T01:40:36.707Z</time>
      </trkpt>
      <trkpt lat="49.630274" lon="1.624495">
        <ele>223.133310</ele>
        <time>2024-05-26T01:41:05.605Z</time>
      </trkpt>
      <trkpt lat="49.631161" lon="1.623993">
        <ele>224.918929</ele>
        <time>2024-05-26T01:41:35.274Z</time>
      </trkpt>
      <trkpt lat="49.631909" lon="1.623674">
        <ele>225.061323</ele>
        <time>2024-05-26T01:41:55.080Z</time>
      </trkpt>
      <trkpt lat="49.633145" lon="1.623191">
        <ele>223.907528</ele>
        <time>2024-05-26T01:42:20.488Z</time>
      </trkpt>
      <trkpt lat="49.634535" lon="1.622511">
        <ele>220.090679</ele>
        <time>2024-05-26T01:42:45.587Z</time>
      </trkpt>
      <trkpt lat="49.637103" lon="1.620941">
        <ele>210.258429</ele>
        <time>2024-05-26T01:43:31.473Z</time>
      </trkpt>
      <trkpt lat="49.638144" lon="1.620357">
        <ele>206.532793</ele>
        <time>2024-05-26T01:43:50.945Z</time>
      </trkpt>
      <trkpt lat="49.638767" lon="1.620080">
        <ele>204.387300</ele>
        <time>2024-05-26T01:44:02.133Z</time>
      </trkpt>
      <trkpt lat="49.638969" lon="1.620030">
        <ele>203.710277</ele>
        <time>2024-05-26T01:44:05.603Z</time>
      </trkpt>
      <trkpt lat="49.641041" lon="1.619672">
        <ele>195.622567</ele>
        <time>2024-05-26T01:44:39.636Z</time>
      </trkpt>
      <trkpt lat="49.641768" lon="1.619541">
        <ele>193.466120</ele>
        <time>2024-05-26T01:44:51.965Z</time>
      </trkpt>
      <trkpt lat="49.641865" lon="1.619575">
        <ele>193.215654</ele>
        <time>2024-05-26T01:44:53.710Z</time>
      </trkpt>
      <trkpt lat="49.641892" lon="1.619640">
        <ele>193.089733</ele>
        <time>2024-05-26T01:44:54.592Z</time>
      </trkpt>
      <trkpt lat="49.642097" lon="1.619550">
        <ele>192.553071</ele>
        <time>2024-05-26T01:44:58.338Z</time>
      </trkpt>
      <trkpt lat="49.642497" lon="1.619440">
        <ele>191.529995</ele>
        <time>2024-05-26T01:45:05.702Z</time>
      </trkpt>
      <trkpt lat="49.643906" lon="1.619185">
        <ele>189.335541</ele>
        <time>2024-05-26T01:45:33.029Z</time>
      </trkpt>
      <trkpt lat="49.643986" lon="1.619171">
        <ele>189.253798</ele>
        <time>2024-05-26T01:45:34.633Z</time>
      </trkpt>
      <trkpt lat="49.646057" lon="1.618821">
        <ele>187.903769</ele>
        <time>2024-05-26T01:46:17.835Z</time>
      </trkpt>
      <trkpt lat="49.646079" lon="1.619375">
        <ele>187.753382</ele>
        <time>2024-05-26T01:46:26.493Z</time>
      </trkpt>
      <trkpt lat="49.646126" lon="1.619526">
        <ele>187.707987</ele>
        <time>2024-05-26T01:46:29.175Z</time>
      </trkpt>
      <trkpt lat="49.646500" lon="1.619592">
        <ele>187.425926</ele>
        <time>2024-05-26T01:46:37.636Z</time>
      </trkpt>
      <trkpt lat="49.646761" lon="1.619580">
        <ele>187.217433</ele>
        <time>2024-05-26T01:46:43.024Z</time>
      </trkpt>
      <trkpt lat="49.647018" lon="1.619623">
        <ele>187.011025</ele>
        <time>2024-05-26T01:46:48.384Z</time>
      </trkpt>
      <trkpt lat="49.647545" lon="1.619958">
        <ele>186.555982</ele>
        <time>2024-05-26T01:47:00.223Z</time>
      </trkpt>
      <trkpt lat="49.647775" lon="1.620102">
        <ele>186.357818</ele>
        <time>2024-05-26T01:47:05.399Z</time>
      </trkpt>
      <trkpt lat="49.648182" lon="1.620143">
        <ele>185.863517</ele>
        <time>2024-05-26T01:47:13.995Z</time>
      </trkpt>
      <trkpt lat="49.648942" lon="1.620127">
        <ele>184.789932</ele>
        <time>2024-05-26T01:47:29.639Z</time>
      </trkpt>
      <trkpt lat="49.649669" lon="1.620221">
        <ele>183.759466</ele>
        <time>2024-05-26T01:47:43.457Z</time>
      </trkpt>
      <trkpt lat="49.650188" lon="1.620133">
        <ele>182.835983</ele>
        <time>2024-05-26T01:47:53.957Z</time>
      </trkpt>
      <trkpt lat="49.650419" lon="1.620025">
        <ele>182.403036</ele>
        <time>2024-05-26T01:47:58.845Z</time>
      </trkpt>
      <trkpt lat="49.650994" lon="1.619651">
        <ele>181.283846</ele>
        <time>2024-05-26T01:48:11.139Z</time>
      </trkpt>
      <trkpt lat="49.651875" lon="1.618904">
        <ele>179.213153</ele>
        <time>2024-05-26T01:48:30.238Z</time>
      </trkpt>
      <trkpt lat="49.652663" lon="1.617843">
        <ele>176.837354</ele>
        <time>2024-05-26T01:48:49.792Z</time>
      </trkpt>
      <trkpt lat="49.652760" lon="1.617754">
        <ele>176.580942</ele>
        <time>2024-05-26T01:48:51.965Z</time>
      </trkpt>
      <trkpt lat="49.653157" lon="1.617553">
        <ele>175.617004</ele>
        <time>2024-05-26T01:48:59.884Z</time>
      </trkpt>
      <trkpt lat="49.653394" lon="1.617353">
        <ele>174.991644</ele>
        <time>2024-05-26T01:49:04.909Z</time>
      </trkpt>
      <trkpt lat="49.653377" lon="1.617294">
        <ele>174.894830</ele>
        <time>2024-05-26T01:49:05.629Z</time>
      </trkpt>
      <trkpt lat="49.653703" lon="1.617141">
        <ele>174.105869</ele>
        <time>2024-05-26T01:49:11.916Z</time>
      </trkpt>
      <trkpt lat="49.653953" lon="1.617070">
        <ele>173.517266</ele>
        <time>2024-05-26T01:49:16.498Z</time>
      </trkpt>
      <trkpt lat="49.654064" lon="1.617741">
        <ele>172.479036</ele>
        <time>2024-05-26T01:49:24.664Z</time>
      </trkpt>
      <trkpt lat="49.654201" lon="1.617950">
        <ele>172.353429</ele>
        <time>2024-05-26T01:49:28.075Z</time>
      </trkpt>
      <trkpt lat="49.654810" lon="1.618440">
        <ele>173.327964</ele>
        <time>2024-05-26T01:49:41.955Z</time>
      </trkpt>
      <trkpt lat="49.655003" lon="1.618588">
        <ele>173.633771</ele>
        <time>2024-05-26T01:49:48.942Z</time>
      </trkpt>
      <trkpt lat="49.655058" lon="1.618629">
        <ele>173.720443</ele>
        <time>2024-05-26T01:49:50.807Z</time>
      </trkpt>
      <trkpt lat="49.655091" lon="1.618655">
        <ele>173.773018</ele>
        <time>2024-05-26T01:49:51.851Z</time>
      </trkpt>
      <trkpt lat="49.655223" lon="1.618729">
        <ele>173.972312</ele>
        <time>2024-05-26T01:49:57.034Z</time>
      </trkpt>
      <trkpt lat="49.655323" lon="1.618703">
        <ele>174.116231</ele>
        <time>2024-05-26T01:50:01.156Z</time>
      </trkpt>
      <trkpt lat="49.655506" lon="1.619079">
        <ele>174.548432</ele>
        <time>2024-05-26T01:50:11.955Z</time>
      </trkpt>
      <trkpt lat="49.655587" lon="1.619243">
        <ele>174.737957</ele>
        <time>2024-05-26T01:50:18.006Z</time>
      </trkpt>
      <trkpt lat="49.655610" lon="1.619310">
        <ele>174.926305</ele>
        <time>2024-05-26T01:50:19.965Z</time>
      </trkpt>
      <trkpt lat="49.655805" lon="1.619064">
        <ele>177.109218</ele>
        <time>2024-05-26T01:50:33.054Z</time>
      </trkpt>
      <trkpt lat="49.655911" lon="1.619046">
        <ele>178.033810</ele>
        <time>2024-05-26T01:50:38.741Z</time>
      </trkpt>
      <trkpt lat="49.655943" lon="1.619044">
        <ele>178.311487</ele>
        <time>2024-05-26T01:50:40.434Z</time>
      </trkpt>
      <trkpt lat="49.656213" lon="1.619034">
        <ele>180.653148</ele>
        <time>2024-05-26T01:50:57.702Z</time>
      </trkpt>
      <trkpt lat="49.656561" lon="1.619091">
        <ele>183.687337</ele>
        <time>2024-05-26T01:51:21.638Z</time>
      </trkpt>
      <trkpt lat="49.656809" lon="1.619168">
        <ele>185.880583</ele>
        <time>2024-05-26T01:51:39.866Z</time>
      </trkpt>
      <trkpt lat="49.657650" lon="1.619812">
        <ele>195.080789</ele>
        <time>2024-05-26T01:52:56.708Z</time>
      </trkpt>
      <trkpt lat="49.657776" lon="1.619876">
        <ele>196.566234</ele>
        <time>2024-05-26T01:53:07.621Z</time>
      </trkpt>
      <trkpt lat="49.657954" lon="1.619903">
        <ele>198.569307</ele>
        <time>2024-05-26T01:53:22.485Z</time>
      </trkpt>
      <trkpt lat="49.659185" lon="1.620026">
        <ele>211.845918</ele>
        <time>2024-05-26T01:55:17.740Z</time>
      </trkpt>
      <trkpt lat="49.660213" lon="1.619790">
        <ele>220.117825</ele>
        <time>2024-05-26T01:56:40.674Z</time>
      </trkpt>
      <trkpt lat="49.660428" lon="1.619683">
        <ele>221.915658</ele>
        <time>2024-05-26T01:56:56.662Z</time>
      </trkpt>
      <trkpt lat="49.661289" lon="1.619103">
        <ele>226.748857</ele>
        <time>2024-05-26T01:57:55.422Z</time>
      </trkpt>
      <trkpt lat="49.662151" lon="1.618631">
        <ele>229.802755</ele>
        <time>2024-05-26T01:58:42.432Z</time>
      </trkpt>
      <trkpt lat="49.663039" lon="1.618320">
        <ele>231.360733</ele>
        <time>2024-05-26T01:59:22.335Z</time>
      </trkpt>
      <trkpt lat="49.664206" lon="1.618159">
        <ele>232.370833</ele>
        <time>2024-05-26T02:00:08.868Z</time>
      </trkpt>
      <trkpt lat="49.668372" lon="1.617998">
        <ele>234.060974</ele>
        <time>2024-05-26T02:02:52.116Z</time>
      </trkpt>
      <trkpt lat="49.670664" lon="1.618020">
        <ele>234.374162</ele>
        <time>2024-05-26T02:04:17.848Z</time>
      </trkpt>
      <trkpt lat="49.671400" lon="1.618116">
        <ele>234.420171</ele>
        <time>2024-05-26T02:04:45.243Z</time>
      </trkpt>
      <trkpt lat="49.672459" lon="1.618363">
        <ele>234.517236</ele>
        <time>2024-05-26T02:05:25.616Z</time>
      </trkpt>
      <trkpt lat="49.673323" lon="1.618427">
        <ele>234.606431</ele>
        <time>2024-05-26T02:05:58.177Z</time>
      </trkpt>
      <trkpt lat="49.674212" lon="1.618792">
        <ele>234.774125</ele>
        <time>2024-05-26T02:06:33.016Z</time>
      </trkpt>
      <trkpt lat="49.675094" lon="1.619264">
        <ele>235.025154</ele>
        <time>2024-05-26T02:07:08.565Z</time>
      </trkpt>
      <trkpt lat="49.675830" lon="1.619264">
        <ele>235.516120</ele>
        <time>2024-05-26T02:07:37.659Z</time>
      </trkpt>
      <trkpt lat="49.676473" lon="1.619358">
        <ele>235.946962</ele>
        <time>2024-05-26T02:08:04.264Z</time>
      </trkpt>
      <trkpt lat="49.678561" lon="1.619334">
        <ele>237.964960</ele>
        <time>2024-05-26T02:09:33.045Z</time>
      </trkpt>
      <trkpt lat="49.678978" lon="1.619398">
        <ele>238.130043</ele>
        <time>2024-05-26T02:09:49.950Z</time>
      </trkpt>
      <trkpt lat="49.680478" lon="1.619404">
        <ele>238.685009</ele>
        <time>2024-05-26T02:10:47.243Z</time>
      </trkpt>
      <trkpt lat="49.681223" lon="1.619483">
        <ele>238.811254</ele>
        <time>2024-05-26T02:11:15.562Z</time>
      </trkpt>
      <trkpt lat="49.682817" lon="1.619592">
        <ele>238.777237</ele>
        <time>2024-05-26T02:11:52.098Z</time>
      </trkpt>
      <trkpt lat="49.683689" lon="1.619681">
        <ele>238.547661</ele>
        <time>2024-05-26T02:12:10.715Z</time>
      </trkpt>
      <trkpt lat="49.683903" lon="1.619711">
        <ele>238.491211</ele>
        <time>2024-05-26T02:12:15.116Z</time>
      </trkpt>
      <trkpt lat="49.683957" lon="1.619751">
        <ele>238.429682</ele>
        <time>2024-05-26T02:12:16.335Z</time>
      </trkpt>
      <trkpt lat="49.684357" lon="1.619903">
        <ele>237.969202</ele>
        <time>2024-05-26T02:12:30.552Z</time>
      </trkpt>
      <trkpt lat="49.686322" lon="1.620804">
        <ele>235.900882</ele>
        <time>2024-05-26T02:13:40.149Z</time>
      </trkpt>
      <trkpt lat="49.687016" lon="1.621136">
        <ele>235.314856</ele>
        <time>2024-05-26T02:14:05.708Z</time>
      </trkpt>
      <trkpt lat="49.687301" lon="1.621126">
        <ele>235.084897</ele>
        <time>2024-05-26T02:14:15.942Z</time>
      </trkpt>
      <trkpt lat="49.687599" lon="1.621222">
        <ele>235.026534</ele>
        <time>2024-05-26T02:14:27.021Z</time>
      </trkpt>
      <trkpt lat="49.688064" lon="1.621437">
        <ele>235.023645</ele>
        <time>2024-05-26T02:14:44.856Z</time>
      </trkpt>
      <trkpt lat="49.688800" lon="1.621984">
        <ele>235.018784</ele>
        <time>2024-05-26T02:15:15.789Z</time>
      </trkpt>
      <trkpt lat="49.690285" lon="1.623186">
        <ele>235.289226</ele>
        <time>2024-05-26T02:16:19.123Z</time>
      </trkpt>
      <trkpt lat="49.690563" lon="1.623475">
        <ele>235.353699</ele>
        <time>2024-05-26T02:16:31.807Z</time>
      </trkpt>
      <trkpt lat="49.691410" lon="1.624001">
        <ele>236.038268</ele>
        <time>2024-05-26T02:17:07.741Z</time>
      </trkpt>
      <trkpt lat="49.692077" lon="1.624484">
        <ele>236.614562</ele>
        <time>2024-05-26T02:17:38.748Z</time>
      </trkpt>
      <trkpt lat="49.694082" lon="1.625675">
        <ele>239.522368</ele>
        <time>2024-05-26T02:19:14.373Z</time>
      </trkpt>
      <trkpt lat="49.694894" lon="1.625986">
        <ele>240.487641</ele>
        <time>2024-05-26T02:19:50.873Z</time>
      </trkpt>
      <trkpt lat="49.695545" lon="1.626022">
        <ele>241.239294</ele>
        <time>2024-05-26T02:20:18.238Z</time>
      </trkpt>
      <trkpt lat="49.696354" lon="1.626073">
        <ele>241.746555</ele>
        <time>2024-05-26T02:20:44.680Z</time>
      </trkpt>
      <trkpt lat="49.696516" lon="1.627366">
        <ele>242.168865</ele>
        <time>2024-05-26T02:21:11.190Z</time>
      </trkpt>
      <trkpt lat="49.696728" lon="1.628020">
        <ele>242.378442</ele>
        <time>2024-05-26T02:21:25.771Z</time>
      </trkpt>
      <trkpt lat="49.697485" lon="1.628954">
        <ele>242.720436</ele>
        <time>2024-05-26T02:21:55.776Z</time>
      </trkpt>
      <trkpt lat="49.698410" lon="1.630435">
        <ele>243.161670</ele>
        <time>2024-05-26T02:22:37.350Z</time>
      </trkpt>
      <trkpt lat="49.698516" lon="1.630355">
        <ele>243.198270</ele>
        <time>2024-05-26T02:22:40.304Z</time>
      </trkpt>
      <trkpt lat="49.699524" lon="1.629399">
        <ele>243.512360</ele>
        <time>2024-05-26T02:23:08.174Z</time>
      </trkpt>
      <trkpt lat="49.701015" lon="1.628000">
        <ele>243.546496</ele>
        <time>2024-05-26T02:23:46.598Z</time>
      </trkpt>
      <trkpt lat="49.703139" lon="1.625610">
        <ele>243.864440</ele>
        <time>2024-05-26T02:24:46.697Z</time>
      </trkpt>
      <trkpt lat="49.703274" lon="1.625644">
        <ele>243.889316</ele>
        <time>2024-05-26T02:24:50.019Z</time>
      </trkpt>
      <trkpt lat="49.703807" lon="1.625623">
        <ele>243.986282</ele>
        <time>2024-05-26T02:25:02.894Z</time>
      </trkpt>
      <trkpt lat="49.705666" lon="1.624957">
        <ele>244.291784</ele>
        <time>2024-05-26T02:25:48.809Z</time>
      </trkpt>
      <trkpt lat="49.706158" lon="1.624839">
        <ele>244.260918</ele>
        <time>2024-05-26T02:26:00.573Z</time>
      </trkpt>
      <trkpt lat="49.706998" lon="1.624829">
        <ele>244.180243</ele>
        <time>2024-05-26T02:26:19.942Z</time>
      </trkpt>
      <trkpt lat="49.708011" lon="1.624882">
        <ele>243.925379</ele>
        <time>2024-05-26T02:26:42.621Z</time>
      </trkpt>
      <trkpt lat="49.709107" lon="1.625058">
        <ele>243.462478</ele>
        <time>2024-05-26T02:27:06.669Z</time>
      </trkpt>
      <trkpt lat="49.709513" lon="1.625211">
        <ele>243.252480</ele>
        <time>2024-05-26T02:27:15.736Z</time>
      </trkpt>
      <trkpt lat="49.710287" lon="1.625322">
        <ele>242.796712</ele>
        <time>2024-05-26T02:27:32.557Z</time>
      </trkpt>
      <trkpt lat="49.710932" lon="1.625494">
        <ele>242.412947</ele>
        <time>2024-05-26T02:27:46.697Z</time>
      </trkpt>
      <trkpt lat="49.711778" lon="1.625912">
        <ele>242.029221</ele>
        <time>2024-05-26T02:28:05.952Z</time>
      </trkpt>
      <trkpt lat="49.712611" lon="1.626395">
        <ele>241.674911</ele>
        <time>2024-05-26T02:28:25.802Z</time>
      </trkpt>
      <trkpt lat="49.714019" lon="1.626760">
        <ele>241.407656</ele>
        <time>2024-05-26T02:28:58.279Z</time>
      </trkpt>
      <trkpt lat="49.714303" lon="1.626867">
        <ele>241.361864</ele>
        <time>2024-05-26T02:29:05.039Z</time>
      </trkpt>
      <trkpt lat="49.715996" lon="1.627758">
        <ele>241.085348</ele>
        <time>2024-05-26T02:29:45.241Z</time>
      </trkpt>
      <trkpt lat="49.716530" lon="1.627919">
        <ele>241.121570</ele>
        <time>2024-05-26T02:29:57.766Z</time>
      </trkpt>
      <trkpt lat="49.717044" lon="1.628305">
        <ele>241.283454</ele>
        <time>2024-05-26T02:30:11.567Z</time>
      </trkpt>
      <trkpt lat="49.717349" lon="1.628348">
        <ele>241.370224</ele>
        <time>2024-05-26T02:30:19.263Z</time>
      </trkpt>
      <trkpt lat="49.717945" lon="1.628176">
        <ele>241.541996</ele>
        <time>2024-05-26T02:30:34.968Z</time>
      </trkpt>
      <trkpt lat="49.718251" lon="1.628187">
        <ele>241.666753</ele>
        <time>2024-05-26T02:30:43.050Z</time>
      </trkpt>
      <trkpt lat="49.718937" lon="1.628326">
        <ele>241.961719</ele>
        <time>2024-05-26T02:31:01.192Z</time>
      </trkpt>
      <trkpt lat="49.719763" lon="1.628155">
        <ele>242.317015</ele>
        <time>2024-05-26T02:31:21.687Z</time>
      </trkpt>
      <trkpt lat="49.720362" lon="1.628088">
        <ele>242.275687</ele>
        <time>2024-05-26T02:31:35.784Z</time>
      </trkpt>
      <trkpt lat="49.720824" lon="1.628037">
        <ele>242.240931</ele>
        <time>2024-05-26T02:31:46.378Z</time>
      </trkpt>
      <trkpt lat="49.721273" lon="1.627943">
        <ele>242.206932</ele>
        <time>2024-05-26T02:31:56.583Z</time>
      </trkpt>
      <trkpt lat="49.722016" lon="1.628154">
        <ele>242.102170</ele>
        <time>2024-05-26T02:32:13.442Z</time>
      </trkpt>
      <trkpt lat="49.722311" lon="1.628259">
        <ele>242.048235</ele>
        <time>2024-05-26T02:32:20.241Z</time>
      </trkpt>
      <trkpt lat="49.722855" lon="1.628068">
        <ele>241.948842</ele>
        <time>2024-05-26T02:32:32.922Z</time>
      </trkpt>
      <trkpt lat="49.723960" lon="1.627591">
        <ele>241.754362</ele>
        <time>2024-05-26T02:32:59.266Z</time>
      </trkpt>
      <trkpt lat="49.724016" lon="1.627590">
        <ele>241.745206</ele>
        <time>2024-05-26T02:33:00.564Z</time>
      </trkpt>
      <trkpt lat="49.724080" lon="1.627544">
        <ele>241.733670</ele>
        <time>2024-05-26T02:33:02.177Z</time>
      </trkpt>
      <trkpt lat="49.724590" lon="1.627366">
        <ele>241.648200</ele>
        <time>2024-05-26T02:33:14.236Z</time>
      </trkpt>
      <trkpt lat="49.724951" lon="1.627371">
        <ele>241.589183</ele>
        <time>2024-05-26T02:33:22.440Z</time>
      </trkpt>
      <trkpt lat="49.725823" lon="1.627221">
        <ele>241.107344</ele>
        <time>2024-05-26T02:33:41.526Z</time>
      </trkpt>
      <trkpt lat="49.726388" lon="1.627053">
        <ele>240.758585</ele>
        <time>2024-05-26T02:33:53.689Z</time>
      </trkpt>
      <trkpt lat="49.726782" lon="1.627033">
        <ele>240.519624</ele>
        <time>2024-05-26T02:34:02.073Z</time>
      </trkpt>
      <trkpt lat="49.727046" lon="1.626942">
        <ele>240.419099</ele>
        <time>2024-05-26T02:34:07.838Z</time>
      </trkpt>
      <trkpt lat="49.727232" lon="1.626770">
        <ele>240.354528</ele>
        <time>2024-05-26T02:34:12.521Z</time>
      </trkpt>
      <trkpt lat="49.727606" lon="1.626281">
        <ele>240.208613</ele>
        <time>2024-05-26T02:34:23.223Z</time>
      </trkpt>
      <trkpt lat="49.729431" lon="1.625036">
        <ele>240.000151</ele>
        <time>2024-05-26T02:35:10.018Z</time>
      </trkpt>
      <trkpt lat="49.729706" lon="1.624857">
        <ele>240.015141</ele>
        <time>2024-05-26T02:35:17.144Z</time>
      </trkpt>
      <trkpt lat="49.731522" lon="1.623297">
        <ele>239.834923</ele>
        <time>2024-05-26T02:36:04.749Z</time>
      </trkpt>
      <trkpt lat="49.732110" lon="1.622764">
        <ele>239.546100</ele>
        <time>2024-05-26T02:36:19.901Z</time>
      </trkpt>
      <trkpt lat="49.732836" lon="1.621938">
        <ele>239.109137</ele>
        <time>2024-05-26T02:36:39.373Z</time>
      </trkpt>
      <trkpt lat="49.733622" lon="1.621043">
        <ele>238.872918</ele>
        <time>2024-05-26T02:37:00.651Z</time>
      </trkpt>
      <trkpt lat="49.733942" lon="1.620748">
        <ele>238.828889</ele>
        <time>2024-05-26T02:37:08.958Z</time>
      </trkpt>
      <trkpt lat="49.736781" lon="1.619279">
        <ele>239.245603</ele>
        <time>2024-05-26T02:38:22.526Z</time>
      </trkpt>
      <trkpt lat="49.737241" lon="1.619171">
        <ele>239.234405</ele>
        <time>2024-05-26T02:38:33.365Z</time>
      </trkpt>
      <trkpt lat="49.737793" lon="1.619150">
        <ele>239.221116</ele>
        <time>2024-05-26T02:38:46.093Z</time>
      </trkpt>
      <trkpt lat="49.738233" lon="1.619182">
        <ele>239.188049</ele>
        <time>2024-05-26T02:38:56.011Z</time>
      </trkpt>
      <trkpt lat="49.738757" lon="1.619153">
        <ele>239.016995</ele>
        <time>2024-05-26T02:39:07.703Z</time>
      </trkpt>
      <trkpt lat="49.739535" lon="1.618884">
        <ele>238.756928</ele>
        <time>2024-05-26T02:39:25.146Z</time>
      </trkpt>
      <trkpt lat="49.740435" lon="1.618573">
        <ele>238.448024</ele>
        <time>2024-05-26T02:39:45.947Z</time>
      </trkpt>
      <trkpt lat="49.743777" lon="1.617608">
        <ele>237.120339</ele>
        <time>2024-05-26T02:41:01.251Z</time>
      </trkpt>
      <trkpt lat="49.745366" lon="1.616824">
        <ele>236.127804</ele>
        <time>2024-05-26T02:41:37.154Z</time>
      </trkpt>
      <trkpt lat="49.746170" lon="1.616427">
        <ele>235.444422</ele>
        <time>2024-05-26T02:41:55.072Z</time>
      </trkpt>
      <trkpt lat="49.747096" lon="1.615834">
        <ele>234.700310</ele>
        <time>2024-05-26T02:42:16.049Z</time>
      </trkpt>
      <trkpt lat="49.747394" lon="1.615638">
        <ele>234.529636</ele>
        <time>2024-05-26T02:42:22.904Z</time>
      </trkpt>
      <trkpt lat="49.747633" lon="1.615537">
        <ele>234.399046</ele>
        <time>2024-05-26T02:42:28.233Z</time>
      </trkpt>
      <trkpt lat="49.747888" lon="1.615524">
        <ele>234.264562</ele>
        <time>2024-05-26T02:42:33.776Z</time>
      </trkpt>
      <trkpt lat="49.748412" lon="1.615673">
        <ele>233.983737</ele>
        <time>2024-05-26T02:42:45.463Z</time>
      </trkpt>
      <trkpt lat="49.748645" lon="1.615815">
        <ele>233.886585</ele>
        <time>2024-05-26T02:42:51.170Z</time>
      </trkpt>
      <trkpt lat="49.749388" lon="1.616425">
        <ele>234.033775</ele>
        <time>2024-05-26T02:43:11.113Z</time>
      </trkpt>
      <trkpt lat="49.749573" lon="1.616513">
        <ele>234.067645</ele>
        <time>2024-05-26T02:43:16.016Z</time>
      </trkpt>
      <trkpt lat="49.749780" lon="1.616539">
        <ele>234.103990</ele>
        <time>2024-05-26T02:43:21.200Z</time>
      </trkpt>
      <trkpt lat="49.749975" lon="1.616441">
        <ele>234.139869</ele>
        <time>2024-05-26T02:43:26.508Z</time>
      </trkpt>
      <trkpt lat="49.751052" lon="1.615706">
        <ele>234.332625</ele>
        <time>2024-05-26T02:43:54.664Z</time>
      </trkpt>
      <trkpt lat="49.751482" lon="1.615515">
        <ele>234.404151</ele>
        <time>2024-05-26T02:44:04.855Z</time>
      </trkpt>
      <trkpt lat="49.752467" lon="1.615309">
        <ele>234.325085</ele>
        <time>2024-05-26T02:44:26.524Z</time>
      </trkpt>
      <trkpt lat="49.752820" lon="1.615142">
        <ele>234.214522</ele>
        <time>2024-05-26T02:44:34.480Z</time>
      </trkpt>
      <trkpt lat="49.754267" lon="1.614252">
        <ele>233.373944</ele>
        <time>2024-05-26T02:45:07.485Z</time>
      </trkpt>
      <trkpt lat="49.754410" lon="1.614280">
        <ele>233.247221</ele>
        <time>2024-05-26T02:45:10.460Z</time>
      </trkpt>
      <trkpt lat="49.755409" lon="1.616307">
        <ele>231.341107</ele>
        <time>2024-05-26T02:45:42.509Z</time>
      </trkpt>
      <trkpt lat="49.755721" lon="1.616814">
        <ele>230.618728</ele>
        <time>2024-05-26T02:45:50.789Z</time>
      </trkpt>
      <trkpt lat="49.757413" lon="1.618884">
        <ele>227.422047</ele>
        <time>2024-05-26T02:46:31.200Z</time>
      </trkpt>
      <trkpt lat="49.757617" lon="1.619083">
        <ele>227.078155</ele>
        <time>2024-05-26T02:46:36.174Z</time>
      </trkpt>
      <trkpt lat="49.757818" lon="1.619168">
        <ele>226.902189</ele>
        <time>2024-05-26T02:46:40.434Z</time>
      </trkpt>
      <trkpt lat="49.758141" lon="1.619140">
        <ele>226.835282</ele>
        <time>2024-05-26T02:46:47.223Z</time>
      </trkpt>
      <trkpt lat="49.758279" lon="1.619178">
        <ele>226.806293</ele>
        <time>2024-05-26T02:46:50.287Z</time>
      </trkpt>
      <trkpt lat="49.758405" lon="1.619315">
        <ele>226.774447</ele>
        <time>2024-05-26T02:46:53.590Z</time>
      </trkpt>
      <trkpt lat="49.758482" lon="1.619458">
        <ele>226.749575</ele>
        <time>2024-05-26T02:46:56.302Z</time>
      </trkpt>
      <trkpt lat="49.759276" lon="1.618992">
        <ele>226.573954</ele>
        <time>2024-05-26T02:47:16.830Z</time>
      </trkpt>
      <trkpt lat="49.759997" lon="1.618649">
        <ele>226.432431</ele>
        <time>2024-05-26T02:47:33.557Z</time>
      </trkpt>
      <trkpt lat="49.762944" lon="1.616717">
        <ele>226.091227</ele>
        <time>2024-05-26T02:48:46.332Z</time>
      </trkpt>
      <trkpt lat="49.764510" lon="1.615730">
        <ele>226.608766</ele>
        <time>2024-05-26T02:49:29.221Z</time>
      </trkpt>
      <trkpt lat="49.766130" lon="1.614574">
        <ele>226.802295</ele>
        <time>2024-05-26T02:50:12.399Z</time>
      </trkpt>
      <trkpt lat="49.766617" lon="1.614314">
        <ele>226.447624</ele>
        <time>2024-05-26T02:50:23.738Z</time>
      </trkpt>
      <trkpt lat="49.766697" lon="1.614289">
        <ele>226.391433</ele>
        <time>2024-05-26T02:50:25.501Z</time>
      </trkpt>
      <trkpt lat="49.766824" lon="1.614212">
        <ele>226.297529</ele>
        <time>2024-05-26T02:50:28.399Z</time>
      </trkpt>
      <trkpt lat="49.767773" lon="1.613842">
        <ele>225.627937</ele>
        <time>2024-05-26T02:50:48.675Z</time>
      </trkpt>
      <trkpt lat="49.768210" lon="1.613627">
        <ele>225.366105</ele>
        <time>2024-05-26T02:50:58.019Z</time>
      </trkpt>
      <trkpt lat="49.768702" lon="1.613198">
        <ele>225.043674</ele>
        <time>2024-05-26T02:51:09.687Z</time>
      </trkpt>
      <trkpt lat="49.769714" lon="1.612501">
        <ele>225.019546</ele>
        <time>2024-05-26T02:51:35.522Z</time>
      </trkpt>
      <trkpt lat="49.770424" lon="1.612082">
        <ele>225.842477</ele>
        <time>2024-05-26T02:51:58.284Z</time>
      </trkpt>
      <trkpt lat="49.770663" lon="1.611908">
        <ele>226.128514</ele>
        <time>2024-05-26T02:52:06.644Z</time>
      </trkpt>
      <trkpt lat="49.770811" lon="1.611747">
        <ele>226.324413</ele>
        <time>2024-05-26T02:52:12.368Z</time>
      </trkpt>
      <trkpt lat="49.770890" lon="1.611541">
        <ele>226.491995</ele>
        <time>2024-05-26T02:52:17.116Z</time>
      </trkpt>
      <trkpt lat="49.771012" lon="1.611569">
        <ele>226.603963</ele>
        <time>2024-05-26T02:52:20.685Z</time>
      </trkpt>
      <trkpt lat="49.771757" lon="1.611129">
        <ele>227.136229</ele>
        <time>2024-05-26T02:52:43.501Z</time>
      </trkpt>
      <trkpt lat="49.771889" lon="1.611125">
        <ele>227.224361</ele>
        <time>2024-05-26T02:52:46.963Z</time>
      </trkpt>
      <trkpt lat="49.771997" lon="1.611165">
        <ele>227.298489</ele>
        <time>2024-05-26T02:52:49.720Z</time>
      </trkpt>
      <trkpt lat="49.772132" lon="1.611290">
        <ele>227.403490</ele>
        <time>2024-05-26T02:52:53.666Z</time>
      </trkpt>
      <trkpt lat="49.772306" lon="1.611522">
        <ele>227.556771</ele>
        <time>2024-05-26T02:52:58.851Z</time>
      </trkpt>
      <trkpt lat="49.772431" lon="1.611774">
        <ele>227.693758</ele>
        <time>2024-05-26T02:53:03.391Z</time>
      </trkpt>
      <trkpt lat="49.773121" lon="1.613880">
        <ele>226.775514</ele>
        <time>2024-05-26T02:53:34.547Z</time>
      </trkpt>
      <trkpt lat="49.773773" lon="1.615854">
        <ele>225.488016</ele>
        <time>2024-05-26T02:54:03.103Z</time>
      </trkpt>
      <trkpt lat="49.774546" lon="1.618060">
        <ele>223.896241</ele>
        <time>2024-05-26T02:54:35.440Z</time>
      </trkpt>
      <trkpt lat="49.775290" lon="1.620277">
        <ele>222.188906</ele>
        <time>2024-05-26T02:55:07.373Z</time>
      </trkpt>
      <trkpt lat="49.776227" lon="1.620538">
        <ele>221.094556</ele>
        <time>2024-05-26T02:55:25.919Z</time>
      </trkpt>
      <trkpt lat="49.776595" lon="1.620746">
        <ele>220.744543</ele>
        <time>2024-05-26T02:55:33.570Z</time>
      </trkpt>
      <trkpt lat="49.777147" lon="1.621161">
        <ele>220.310951</ele>
        <time>2024-05-26T02:55:45.610Z</time>
      </trkpt>
      <trkpt lat="49.778602" lon="1.622789">
        <ele>219.647303</ele>
        <time>2024-05-26T02:56:24.143Z</time>
      </trkpt>
      <trkpt lat="49.778919" lon="1.623042">
        <ele>219.653139</ele>
        <time>2024-05-26T02:56:32.578Z</time>
      </trkpt>
      <trkpt lat="49.779513" lon="1.623353">
        <ele>219.658282</ele>
        <time>2024-05-26T02:56:47.430Z</time>
      </trkpt>
      <trkpt lat="49.779922" lon="1.623448">
        <ele>219.566581</ele>
        <time>2024-05-26T02:56:57.212Z</time>
      </trkpt>
      <trkpt lat="49.779959" lon="1.623451">
        <ele>219.558366</ele>
        <time>2024-05-26T02:56:58.049Z</time>
      </trkpt>
      <trkpt lat="49.779976" lon="1.623535">
        <ele>219.545763</ele>
        <time>2024-05-26T02:56:59.363Z</time>
      </trkpt>
      <trkpt lat="49.780032" lon="1.623610">
        <ele>219.529347</ele>
        <time>2024-05-26T02:57:01.138Z</time>
      </trkpt>
      <trkpt lat="49.780797" lon="1.624276">
        <ele>219.334761</ele>
        <time>2024-05-26T02:57:21.297Z</time>
      </trkpt>
      <trkpt lat="49.781016" lon="1.624508">
        <ele>219.275929</ele>
        <time>2024-05-26T02:57:26.917Z</time>
      </trkpt>
      <trkpt lat="49.781223" lon="1.624763">
        <ele>218.829922</ele>
        <time>2024-05-26T02:57:32.274Z</time>
      </trkpt>
      <trkpt lat="49.781405" lon="1.625063">
        <ele>218.284851</ele>
        <time>2024-05-26T02:57:37.504Z</time>
      </trkpt>
      <trkpt lat="49.781466" lon="1.625180">
        <ele>218.085728</ele>
        <time>2024-05-26T02:57:39.358Z</time>
      </trkpt>
      <trkpt lat="49.781518" lon="1.625380">
        <ele>217.800235</ele>
        <time>2024-05-26T02:57:42.016Z</time>
      </trkpt>
      <trkpt lat="49.781599" lon="1.626536">
        <ele>216.260538</ele>
        <time>2024-05-26T02:57:55.907Z</time>
      </trkpt>
      <trkpt lat="49.782245" lon="1.626513">
        <ele>215.362964</ele>
        <time>2024-05-26T02:58:07.401Z</time>
      </trkpt>
      <trkpt lat="49.782540" lon="1.626564">
        <ele>215.160672</ele>
        <time>2024-05-26T02:58:12.953Z</time>
      </trkpt>
      <trkpt lat="49.782756" lon="1.626702">
        <ele>215.001434</ele>
        <time>2024-05-26T02:58:17.473Z</time>
      </trkpt>
      <trkpt lat="49.783090" lon="1.627030">
        <ele>214.731909</ele>
        <time>2024-05-26T02:58:25.745Z</time>
      </trkpt>
      <trkpt lat="49.783363" lon="1.627233">
        <ele>214.525526</ele>
        <time>2024-05-26T02:58:32.807Z</time>
      </trkpt>
      <trkpt lat="49.783839" lon="1.627523">
        <ele>214.818457</ele>
        <time>2024-05-26T02:58:47.136Z</time>
      </trkpt>
      <trkpt lat="49.784653" lon="1.627872">
        <ele>216.376751</ele>
        <time>2024-05-26T02:59:15.419Z</time>
      </trkpt>
      <trkpt lat="49.785350" lon="1.628243">
        <ele>217.690840</ele>
        <time>2024-05-26T02:59:40.378Z</time>
      </trkpt>
      <trkpt lat="49.786027" lon="1.628553">
        <ele>218.119427</ele>
        <time>2024-05-26T03:00:00.289Z</time>
      </trkpt>
      <trkpt lat="49.786234" lon="1.628601">
        <ele>218.246496</ele>
        <time>2024-05-26T03:00:05.185Z</time>
      </trkpt>
      <trkpt lat="49.786674" lon="1.628599">
        <ele>218.513618</ele>
        <time>2024-05-26T03:00:14.812Z</time>
      </trkpt>
      <trkpt lat="49.786819" lon="1.628694">
        <ele>218.609198</ele>
        <time>2024-05-26T03:00:18.167Z</time>
      </trkpt>
      <trkpt lat="49.786819" lon="1.628694">
        <ele>218.609198</ele>
        <time>2024-05-26T03:00:18.169Z</time>
      </trkpt>
      <trkpt lat="49.786886" lon="1.628841">
        <ele>218.679726</ele>
        <time>2024-05-26T03:00:20.761Z</time>
      </trkpt>
      <trkpt lat="49.786910" lon="1.629002">
        <ele>218.744492</ele>
        <time>2024-05-26T03:00:23.087Z</time>
      </trkpt>
      <trkpt lat="49.786904" lon="1.630534">
        <ele>218.537568</ele>
        <time>2024-05-26T03:00:44.820Z</time>
      </trkpt>
      <trkpt lat="49.787019" lon="1.630657">
        <ele>218.505231</ele>
        <time>2024-05-26T03:00:47.723Z</time>
      </trkpt>
      <trkpt lat="49.787092" lon="1.630690">
        <ele>218.487636</ele>
        <time>2024-05-26T03:00:49.332Z</time>
      </trkpt>
      <trkpt lat="49.787216" lon="1.630688">
        <ele>218.458943</ele>
        <time>2024-05-26T03:00:52.049Z</time>
      </trkpt>
      <trkpt lat="49.787335" lon="1.630645">
        <ele>218.430669</ele>
        <time>2024-05-26T03:00:54.575Z</time>
      </trkpt>
      <trkpt lat="49.787510" lon="1.630522">
        <ele>218.386203</ele>
        <time>2024-05-26T03:00:58.629Z</time>
      </trkpt>
      <trkpt lat="49.787824" lon="1.630225">
        <ele>218.314485</ele>
        <time>2024-05-26T03:01:06.388Z</time>
      </trkpt>
      <trkpt lat="49.789132" lon="1.628646">
        <ele>218.069437</ele>
        <time>2024-05-26T03:01:42.746Z</time>
      </trkpt>
      <trkpt lat="49.789703" lon="1.627903">
        <ele>218.263582</ele>
        <time>2024-05-26T03:01:59.376Z</time>
      </trkpt>
      <trkpt lat="49.790046" lon="1.627523">
        <ele>218.373367</ele>
        <time>2024-05-26T03:02:09.610Z</time>
      </trkpt>
      <trkpt lat="49.790232" lon="1.627132">
        <ele>218.454996</ele>
        <time>2024-05-26T03:02:17.473Z</time>
      </trkpt>
      <trkpt lat="49.790491" lon="1.626155">
        <ele>218.418091</ele>
        <time>2024-05-26T03:02:34.751Z</time>
      </trkpt>
      <trkpt lat="49.790747" lon="1.624969">
        <ele>218.206380</ele>
        <time>2024-05-26T03:02:52.664Z</time>
      </trkpt>
      <trkpt lat="49.790847" lon="1.624635">
        <ele>218.144050</ele>
        <time>2024-05-26T03:02:57.434Z</time>
      </trkpt>
      <trkpt lat="49.791076" lon="1.623873">
        <ele>217.789984</ele>
        <time>2024-05-26T03:03:07.986Z</time>
      </trkpt>
      <trkpt lat="49.791312" lon="1.624076">
        <ele>217.432342</ele>
        <time>2024-05-26T03:03:13.067Z</time>
      </trkpt>
      <trkpt lat="49.792208" lon="1.624617">
        <ele>216.158267</ele>
        <time>2024-05-26T03:03:31.036Z</time>
      </trkpt>
      <trkpt lat="49.792800" lon="1.624890">
        <ele>215.975991</ele>
        <time>2024-05-26T03:03:43.409Z</time>
      </trkpt>
      <trkpt lat="49.793323" lon="1.625028">
        <ele>216.623297</ele>
        <time>2024-05-26T03:03:55.784Z</time>
      </trkpt>
      <trkpt lat="49.794613" lon="1.625092">
        <ele>218.549730</ele>
        <time>2024-05-26T03:04:39.608Z</time>
      </trkpt>
      <trkpt lat="49.794902" lon="1.625166">
        <ele>219.285200</ele>
        <time>2024-05-26T03:04:51.268Z</time>
      </trkpt>
      <trkpt lat="49.796196" lon="1.624452">
        <ele>222.413979</ele>
        <time>2024-05-26T03:06:01.105Z</time>
      </trkpt>
      <trkpt lat="49.802087" lon="1.621534">
        <ele>223.409038</ele>
        <time>2024-05-26T03:09:52.781Z</time>
      </trkpt>
      <trkpt lat="49.808088" lon="1.618308">
        <ele>219.930660</ele>
        <time>2024-05-26T03:13:38.356Z</time>
      </trkpt>
      <trkpt lat="49.812855" lon="1.615745">
        <ele>215.128787</ele>
        <time>2024-05-26T03:16:30.124Z</time>
      </trkpt>
      <trkpt lat="49.813993" lon="1.616568">
        <ele>216.440653</ele>
        <time>2024-05-26T03:17:13.868Z</time>
      </trkpt>
      <trkpt lat="49.815154" lon="1.617307">
        <ele>217.207252</ele>
        <time>2024-05-26T03:17:49.432Z</time>
      </trkpt>
      <trkpt lat="49.815404" lon="1.617509">
        <ele>216.955266</ele>
        <time>2024-05-26T03:17:55.192Z</time>
      </trkpt>
      <trkpt lat="49.815544" lon="1.618092">
        <ele>216.596520</ele>
        <time>2024-05-26T03:18:03.060Z</time>
      </trkpt>
      <trkpt lat="49.815771" lon="1.619755">
        <ele>215.606563</ele>
        <time>2024-05-26T03:18:24.373Z</time>
      </trkpt>
      <trkpt lat="49.815797" lon="1.619950">
        <ele>215.488840</ele>
        <time>2024-05-26T03:18:26.917Z</time>
      </trkpt>
      <trkpt lat="49.815949" lon="1.619871">
        <ele>215.341945</ele>
        <time>2024-05-26T03:18:30.110Z</time>
      </trkpt>
      <trkpt lat="49.816101" lon="1.619792">
        <ele>215.195050</ele>
        <time>2024-05-26T03:18:33.414Z</time>
      </trkpt>
      <trkpt lat="49.817268" lon="1.619444">
        <ele>214.388701</ele>
        <time>2024-05-26T03:18:59.868Z</time>
      </trkpt>
      <trkpt lat="49.818151" lon="1.619358">
        <ele>214.507106</ele>
        <time>2024-05-26T03:19:21.360Z</time>
      </trkpt>
      <trkpt lat="49.818378" lon="1.619390">
        <ele>214.537610</ele>
        <time>2024-05-26T03:19:27.029Z</time>
      </trkpt>
      <trkpt lat="49.818676" lon="1.619358">
        <ele>214.577587</ele>
        <time>2024-05-26T03:19:34.462Z</time>
      </trkpt>
      <trkpt lat="49.819006" lon="1.619141">
        <ele>214.614989</ele>
        <time>2024-05-26T03:19:43.473Z</time>
      </trkpt>
      <trkpt lat="49.820734" lon="1.618059">
        <ele>214.684577</ele>
        <time>2024-05-26T03:20:27.346Z</time>
      </trkpt>
      <trkpt lat="49.821523" lon="1.617616">
        <ele>214.491087</ele>
        <time>2024-05-26T03:20:46.223Z</time>
      </trkpt>
      <trkpt lat="49.822075" lon="1.617243">
        <ele>214.352242</ele>
        <time>2024-05-26T03:20:59.539Z</time>
      </trkpt>
      <trkpt lat="49.822643" lon="1.616911">
        <ele>214.089199</ele>
        <time>2024-05-26T03:21:12.878Z</time>
      </trkpt>
      <trkpt lat="49.823217" lon="1.616631">
        <ele>213.817027</ele>
        <time>2024-05-26T03:21:25.980Z</time>
      </trkpt>
      <trkpt lat="49.824269" lon="1.616243">
        <ele>213.460098</ele>
        <time>2024-05-26T03:21:49.623Z</time>
      </trkpt>
      <trkpt lat="49.825585" lon="1.615751">
        <ele>213.254865</ele>
        <time>2024-05-26T03:22:20.580Z</time>
      </trkpt>
      <trkpt lat="49.826682" lon="1.614964">
        <ele>213.533421</ele>
        <time>2024-05-26T03:22:49.871Z</time>
      </trkpt>
      <trkpt lat="49.826846" lon="1.614991">
        <ele>213.571706</ele>
        <time>2024-05-26T03:22:54.077Z</time>
      </trkpt>
      <trkpt lat="49.826914" lon="1.615036">
        <ele>213.588869</ele>
        <time>2024-05-26T03:22:55.909Z</time>
      </trkpt>
      <trkpt lat="49.827081" lon="1.614674">
        <ele>213.655515</ele>
        <time>2024-05-26T03:23:03.108Z</time>
      </trkpt>
      <trkpt lat="49.827281" lon="1.614363">
        <ele>213.674687</ele>
        <time>2024-05-26T03:23:10.054Z</time>
      </trkpt>
      <trkpt lat="49.828030" lon="1.613476">
        <ele>213.688325</ele>
        <time>2024-05-26T03:23:31.720Z</time>
      </trkpt>
      <trkpt lat="49.828474" lon="1.613023">
        <ele>213.696015</ele>
        <time>2024-05-26T03:23:43.161Z</time>
      </trkpt>
      <trkpt lat="49.828976" lon="1.612614">
        <ele>213.290120</ele>
        <time>2024-05-26T03:23:55.072Z</time>
      </trkpt>
      <trkpt lat="49.829272" lon="1.612430">
        <ele>213.005501</ele>
        <time>2024-05-26T03:24:01.590Z</time>
      </trkpt>
      <trkpt lat="49.829578" lon="1.612288">
        <ele>212.720432</ele>
        <time>2024-05-26T03:24:07.983Z</time>
      </trkpt>
      <trkpt lat="49.830453" lon="1.612009">
        <ele>211.820696</ele>
        <time>2024-05-26T03:24:25.373Z</time>
      </trkpt>
      <trkpt lat="49.830838" lon="1.611849">
        <ele>211.249517</ele>
        <time>2024-05-26T03:24:32.988Z</time>
      </trkpt>
      <trkpt lat="49.832284" lon="1.611016">
        <ele>209.206506</ele>
        <time>2024-05-26T03:25:02.261Z</time>
      </trkpt>
      <trkpt lat="49.832504" lon="1.610938">
        <ele>208.996931</ele>
        <time>2024-05-26T03:25:06.598Z</time>
      </trkpt>
      <trkpt lat="49.832930" lon="1.610866">
        <ele>208.598986</ele>
        <time>2024-05-26T03:25:14.983Z</time>
      </trkpt>
      <trkpt lat="49.833279" lon="1.610787">
        <ele>208.271454</ele>
        <time>2024-05-26T03:25:22.141Z</time>
      </trkpt>
      <trkpt lat="49.833478" lon="1.610740">
        <ele>208.084522</ele>
        <time>2024-05-26T03:25:26.370Z</time>
      </trkpt>
      <trkpt lat="49.833663" lon="1.610640">
        <ele>207.902581</ele>
        <time>2024-05-26T03:25:30.537Z</time>
      </trkpt>
      <trkpt lat="49.833791" lon="1.610512">
        <ele>207.891226</ele>
        <time>2024-05-26T03:25:33.868Z</time>
      </trkpt>
      <trkpt lat="49.833891" lon="1.610353">
        <ele>207.965395</ele>
        <time>2024-05-26T03:25:37.014Z</time>
      </trkpt>
      <trkpt lat="49.834014" lon="1.610074">
        <ele>208.078262</ele>
        <time>2024-05-26T03:25:42.083Z</time>
      </trkpt>
      <trkpt lat="49.834240" lon="1.609534">
        <ele>208.293250</ele>
        <time>2024-05-26T03:25:52.391Z</time>
      </trkpt>
      <trkpt lat="49.834329" lon="1.609338">
        <ele>208.373305</ele>
        <time>2024-05-26T03:25:56.457Z</time>
      </trkpt>
      <trkpt lat="49.834431" lon="1.609368">
        <ele>208.427062</ele>
        <time>2024-05-26T03:25:59.223Z</time>
      </trkpt>
      <trkpt lat="49.836139" lon="1.608804">
        <ele>209.613503</ele>
        <time>2024-05-26T03:26:45.539Z</time>
      </trkpt>
      <trkpt lat="49.837181" lon="1.608572">
        <ele>210.327513</ele>
        <time>2024-05-26T03:27:12.828Z</time>
      </trkpt>
      <trkpt lat="49.837251" lon="1.608691">
        <ele>210.374249</ele>
        <time>2024-05-26T03:27:15.478Z</time>
      </trkpt>
      <trkpt lat="49.837282" lon="1.608952">
        <ele>210.451259</ele>
        <time>2024-05-26T03:27:19.784Z</time>
      </trkpt>
      <trkpt lat="49.837358" lon="1.610520">
        <ele>210.907538</ele>
        <time>2024-05-26T03:27:44.279Z</time>
      </trkpt>
      <trkpt lat="49.837415" lon="1.610775">
        <ele>210.985851</ele>
        <time>2024-05-26T03:27:48.363Z</time>
      </trkpt>
      <trkpt lat="49.837542" lon="1.610919">
        <ele>210.987681</ele>
        <time>2024-05-26T03:27:52.093Z</time>
      </trkpt>
      <trkpt lat="49.838043" lon="1.611306">
        <ele>210.979484</ele>
        <time>2024-05-26T03:28:04.802Z</time>
      </trkpt>
      <trkpt lat="49.838432" lon="1.611697">
        <ele>210.972694</ele>
        <time>2024-05-26T03:28:15.031Z</time>
      </trkpt>
      <trkpt lat="49.839093" lon="1.612437">
        <ele>210.871765</ele>
        <time>2024-05-26T03:28:32.748Z</time>
      </trkpt>
      <trkpt lat="49.840233" lon="1.613979">
        <ele>210.135052</ele>
        <time>2024-05-26T03:29:04.374Z</time>
      </trkpt>
      <trkpt lat="49.840969" lon="1.614877">
        <ele>209.283019</ele>
        <time>2024-05-26T03:29:23.440Z</time>
      </trkpt>
      <trkpt lat="49.841756" lon="1.616142">
        <ele>208.269625</ele>
        <time>2024-05-26T03:29:45.529Z</time>
      </trkpt>
      <trkpt lat="49.842026" lon="1.616474">
        <ele>208.084813</ele>
        <time>2024-05-26T03:29:52.228Z</time>
      </trkpt>
      <trkpt lat="49.843859" lon="1.618065">
        <ele>208.042000</ele>
        <time>2024-05-26T03:30:37.577Z</time>
      </trkpt>
      <trkpt lat="49.844705" lon="1.618920">
        <ele>208.866737</ele>
        <time>2024-05-26T03:31:07.845Z</time>
      </trkpt>
      <trkpt lat="49.845923" lon="1.620091">
        <ele>211.461691</ele>
        <time>2024-05-26T03:31:55.455Z</time>
      </trkpt>
      <trkpt lat="49.846844" lon="1.620877">
        <ele>212.388176</ele>
        <time>2024-05-26T03:32:23.601Z</time>
      </trkpt>
      <trkpt lat="49.846875" lon="1.620896">
        <ele>212.403136</ele>
        <time>2024-05-26T03:32:24.425Z</time>
      </trkpt>
      <trkpt lat="49.847265" lon="1.621143">
        <ele>212.592213</ele>
        <time>2024-05-26T03:32:34.616Z</time>
      </trkpt>
      <trkpt lat="49.849852" lon="1.622108">
        <ele>212.522493</ele>
        <time>2024-05-26T03:33:32.230Z</time>
      </trkpt>
      <trkpt lat="49.850222" lon="1.622253">
        <ele>212.492540</ele>
        <time>2024-05-26T03:33:40.624Z</time>
      </trkpt>
      <trkpt lat="49.850664" lon="1.622492">
        <ele>212.455800</ele>
        <time>2024-05-26T03:33:50.968Z</time>
      </trkpt>
      <trkpt lat="49.852087" lon="1.623302">
        <ele>212.369720</ele>
        <time>2024-05-26T03:34:24.761Z</time>
      </trkpt>
      <trkpt lat="49.852878" lon="1.621603">
        <ele>212.325919</ele>
        <time>2024-05-26T03:34:54.322Z</time>
      </trkpt>
      <trkpt lat="49.853578" lon="1.620100">
        <ele>212.304207</ele>
        <time>2024-05-26T03:35:21.003Z</time>
      </trkpt>
      <trkpt lat="49.853680" lon="1.619761">
        <ele>212.299826</ele>
        <time>2024-05-26T03:35:26.388Z</time>
      </trkpt>
      <trkpt lat="49.853768" lon="1.619359">
        <ele>212.286911</ele>
        <time>2024-05-26T03:35:32.480Z</time>
      </trkpt>
      <trkpt lat="49.853890" lon="1.618575">
        <ele>212.261975</ele>
        <time>2024-05-26T03:35:44.093Z</time>
      </trkpt>
      <trkpt lat="49.854435" lon="1.615048">
        <ele>211.875889</ele>
        <time>2024-05-26T03:36:35.432Z</time>
      </trkpt>
      <trkpt lat="49.854603" lon="1.614584">
        <ele>211.788572</ele>
        <time>2024-05-26T03:36:42.661Z</time>
      </trkpt>
      <trkpt lat="49.855144" lon="1.613931">
        <ele>211.254960</ele>
        <time>2024-05-26T03:36:56.672Z</time>
      </trkpt>
      <trkpt lat="49.855257" lon="1.613750">
        <ele>211.108755</ele>
        <time>2024-05-26T03:36:59.922Z</time>
      </trkpt>
      <trkpt lat="49.855339" lon="1.613500">
        <ele>210.945990</ele>
        <time>2024-05-26T03:37:03.468Z</time>
      </trkpt>
      <trkpt lat="49.855389" lon="1.613173">
        <ele>210.750975</ele>
        <time>2024-05-26T03:37:07.792Z</time>
      </trkpt>
      <trkpt lat="49.855418" lon="1.612520">
        <ele>210.371154</ele>
        <time>2024-05-26T03:37:16.138Z</time>
      </trkpt>
      <trkpt lat="49.855302" lon="1.611358">
        <ele>209.701637</ele>
        <time>2024-05-26T03:37:31.031Z</time>
      </trkpt>
      <trkpt lat="49.855249" lon="1.611084">
        <ele>209.540383</ele>
        <time>2024-05-26T03:37:34.669Z</time>
      </trkpt>
      <trkpt lat="49.855383" lon="1.610838">
        <ele>209.358847</ele>
        <time>2024-05-26T03:37:38.838Z</time>
      </trkpt>
      <trkpt lat="49.856566" lon="1.609635">
        <ele>208.221715</ele>
        <time>2024-05-26T03:38:07.837Z</time>
      </trkpt>
      <trkpt lat="49.857338" lon="1.608896">
        <ele>207.607329</ele>
        <time>2024-05-26T03:38:26.577Z</time>
      </trkpt>
      <trkpt lat="49.857523" lon="1.608759">
        <ele>207.468491</ele>
        <time>2024-05-26T03:38:30.768Z</time>
      </trkpt>
      <trkpt lat="49.859969" lon="1.608254">
        <ele>205.402447</ele>
        <time>2024-05-26T03:39:20.649Z</time>
      </trkpt>
      <trkpt lat="49.861402" lon="1.608067">
        <ele>203.977026</ele>
        <time>2024-05-26T03:39:49.088Z</time>
      </trkpt>
      <trkpt lat="49.862594" lon="1.609268">
        <ele>202.520619</ele>
        <time>2024-05-26T03:40:16.998Z</time>
      </trkpt>
      <trkpt lat="49.862888" lon="1.609317">
        <ele>202.262059</ele>
        <time>2024-05-26T03:40:23.018Z</time>
      </trkpt>
      <trkpt lat="49.863098" lon="1.609156">
        <ele>202.248128</ele>
        <time>2024-05-26T03:40:27.886Z</time>
      </trkpt>
      <trkpt lat="49.863243" lon="1.608850">
        <ele>202.233568</ele>
        <time>2024-05-26T03:40:33.095Z</time>
      </trkpt>
      <trkpt lat="49.863883" lon="1.607872">
        <ele>202.180138</ele>
        <time>2024-05-26T03:40:53.496Z</time>
      </trkpt>
      <trkpt lat="49.864232" lon="1.607641">
        <ele>202.157566</ele>
        <time>2024-05-26T03:41:02.866Z</time>
      </trkpt>
      <trkpt lat="49.865199" lon="1.607451">
        <ele>202.098233</ele>
        <time>2024-05-26T03:41:25.453Z</time>
      </trkpt>
      <trkpt lat="49.865334" lon="1.607426">
        <ele>202.089958</ele>
        <time>2024-05-26T03:41:28.373Z</time>
      </trkpt>
      <trkpt lat="49.865657" lon="1.607368">
        <ele>202.070165</ele>
        <time>2024-05-26T03:41:35.203Z</time>
      </trkpt>
      <trkpt lat="49.867354" lon="1.607104">
        <ele>202.230222</ele>
        <time>2024-05-26T03:42:11.264Z</time>
      </trkpt>
      <trkpt lat="49.870905" lon="1.606597">
        <ele>207.417130</ele>
        <time>2024-05-26T03:43:57.573Z</time>
      </trkpt>
      <trkpt lat="49.873458" lon="1.606202">
        <ele>213.376523</ele>
        <time>2024-05-26T03:45:31.435Z</time>
      </trkpt>
      <trkpt lat="49.876747" lon="1.605751">
        <ele>214.885952</ele>
        <time>2024-05-26T03:46:50.381Z</time>
      </trkpt>
      <trkpt lat="49.878368" lon="1.605513">
        <ele>212.701605</ele>
        <time>2024-05-26T03:47:21.376Z</time>
      </trkpt>
      <trkpt lat="49.879602" lon="1.605324">
        <ele>210.451885</ele>
        <time>2024-05-26T03:47:44.077Z</time>
      </trkpt>
      <trkpt lat="49.880880" lon="1.605128">
        <ele>208.479709</ele>
        <time>2024-05-26T03:48:07.924Z</time>
      </trkpt>
      <trkpt lat="49.882245" lon="1.604918">
        <ele>207.286926</ele>
        <time>2024-05-26T03:48:35.276Z</time>
      </trkpt>
      <trkpt lat="49.890430" lon="1.603688">
        <ele>215.628078</ele>
        <time>2024-05-26T03:52:24.672Z</time>
      </trkpt>
      <trkpt lat="49.890522" lon="1.603755">
        <ele>215.710012</ele>
        <time>2024-05-26T03:52:27.192Z</time>
      </trkpt>
      <trkpt lat="49.890642" lon="1.603842">
        <ele>215.816796</ele>
        <time>2024-05-26T03:52:30.802Z</time>
      </trkpt>
      <trkpt lat="49.890703" lon="1.603837">
        <ele>215.866046</ele>
        <time>2024-05-26T03:52:32.241Z</time>
      </trkpt>
      <trkpt lat="49.890760" lon="1.603763">
        <ele>215.925958</ele>
        <time>2024-05-26T03:52:33.891Z</time>
      </trkpt>
      <trkpt lat="49.890948" lon="1.603058">
        <ele>216.068457</ele>
        <time>2024-05-26T03:52:45.218Z</time>
      </trkpt>
      <trkpt lat="49.891182" lon="1.602465">
        <ele>215.882622</ele>
        <time>2024-05-26T03:52:54.986Z</time>
      </trkpt>
      <trkpt lat="49.891250" lon="1.602306">
        <ele>215.831621</ele>
        <time>2024-05-26T03:52:57.480Z</time>
      </trkpt>
      <trkpt lat="49.892691" lon="1.599700">
        <ele>214.640608</ele>
        <time>2024-05-26T03:53:42.853Z</time>
      </trkpt>
      <trkpt lat="49.893367" lon="1.598420">
        <ele>213.902834</ele>
        <time>2024-05-26T03:54:05.044Z</time>
      </trkpt>
      <trkpt lat="49.897766" lon="1.590288">
        <ele>208.389961</ele>
        <time>2024-05-26T03:56:23.976Z</time>
      </trkpt>
      <trkpt lat="49.898334" lon="1.589204">
        <ele>206.551461</ele>
        <time>2024-05-26T03:56:40.705Z</time>
      </trkpt>
      <trkpt lat="49.898609" lon="1.588989">
        <ele>205.922556</ele>
        <time>2024-05-26T03:56:46.197Z</time>
      </trkpt>
      <trkpt lat="49.898782" lon="1.588343">
        <ele>205.002096</ele>
        <time>2024-05-26T03:57:00.333Z</time>
      </trkpt>
      <trkpt lat="49.899309" lon="1.587405">
        <ele>203.716775</ele>
        <time>2024-05-26T03:57:25.238Z</time>
      </trkpt>
      <trkpt lat="49.900040" lon="1.586105">
        <ele>202.201581</ele>
        <time>2024-05-26T03:58:03.228Z</time>
      </trkpt>
      <trkpt lat="49.901352" lon="1.583555">
        <ele>204.902315</ele>
        <time>2024-05-26T03:59:12.610Z</time>
      </trkpt>
      <trkpt lat="49.903480" lon="1.579692">
        <ele>205.125856</ele>
        <time>2024-05-26T04:00:29.447Z</time>
      </trkpt>
      <trkpt lat="49.904140" lon="1.578474">
        <ele>202.709835</ele>
        <time>2024-05-26T04:01:01.751Z</time>
      </trkpt>
      <trkpt lat="49.904815" lon="1.577229">
        <ele>200.326343</ele>
        <time>2024-05-26T04:01:34.177Z</time>
      </trkpt>
      <trkpt lat="49.906288" lon="1.574439">
        <ele>196.361021</ele>
        <time>2024-05-26T04:02:50.572Z</time>
      </trkpt>
      <trkpt lat="49.907086" lon="1.572930">
        <ele>195.807499</ele>
        <time>2024-05-26T04:03:35.504Z</time>
      </trkpt>
      <trkpt lat="49.908102" lon="1.571086">
        <ele>198.001469</ele>
        <time>2024-05-26T04:04:46.327Z</time>
      </trkpt>
      <trkpt lat="49.908724" lon="1.571580">
        <ele>200.002333</ele>
        <time>2024-05-26T04:05:23.386Z</time>
      </trkpt>
      <trkpt lat="49.908709" lon="1.570382">
        <ele>202.212341</ele>
        <time>2024-05-26T04:05:53.930Z</time>
      </trkpt>
      <trkpt lat="49.908787" lon="1.569843">
        <ele>202.959221</ele>
        <time>2024-05-26T04:06:07.384Z</time>
      </trkpt>
      <trkpt lat="49.909202" lon="1.569077">
        <ele>203.228778</ele>
        <time>2024-05-26T04:06:29.161Z</time>
      </trkpt>
      <trkpt lat="49.912546" lon="1.562910">
        <ele>203.979504</ele>
        <time>2024-05-26T04:08:27.323Z</time>
      </trkpt>
      <trkpt lat="49.912504" lon="1.562376">
        <ele>203.866468</ele>
        <time>2024-05-26T04:08:34.827Z</time>
      </trkpt>
      <trkpt lat="49.911795" lon="1.556933">
        <ele>203.215882</ele>
        <time>2024-05-26T04:09:54.072Z</time>
      </trkpt>
      <trkpt lat="49.911382" lon="1.554425">
        <ele>203.121200</ele>
        <time>2024-05-26T04:11:04.463Z</time>
      </trkpt>
      <trkpt lat="49.915253" lon="1.546063">
        <ele>198.826573</ele>
        <time>2024-05-26T04:13:18.967Z</time>
      </trkpt>
      <trkpt lat="49.916551" lon="1.543722">
        <ele>196.579086</ele>
        <time>2024-05-26T04:13:57.116Z</time>
      </trkpt>
      <trkpt lat="49.916857" lon="1.543171">
        <ele>196.341100</ele>
        <time>2024-05-26T04:14:06.498Z</time>
      </trkpt>
      <trkpt lat="49.919063" lon="1.538984">
        <ele>196.330855</ele>
        <time>2024-05-26T04:15:25.200Z</time>
      </trkpt>
      <trkpt lat="49.922795" lon="1.531903">
        <ele>199.661007</ele>
        <time>2024-05-26T04:17:58.578Z</time>
      </trkpt>
      <trkpt lat="49.923185" lon="1.531163">
        <ele>200.176245</ele>
        <time>2024-05-26T04:18:16.162Z</time>
      </trkpt>
      <trkpt lat="49.923609" lon="1.530357">
        <ele>201.177596</ele>
        <time>2024-05-26T04:18:36.295Z</time>
      </trkpt>
      <trkpt lat="49.924894" lon="1.527995">
        <ele>203.925858</ele>
        <time>2024-05-26T04:19:38.986Z</time>
      </trkpt>
      <trkpt lat="49.926147" lon="1.525698">
        <ele>204.968992</ele>
        <time>2024-05-26T04:20:31.718Z</time>
      </trkpt>
      <trkpt lat="49.927989" lon="1.522251">
        <ele>202.179034</ele>
        <time>2024-05-26T04:21:30.271Z</time>
      </trkpt>
      <trkpt lat="49.928909" lon="1.520530">
        <ele>200.254159</ele>
        <time>2024-05-26T04:21:59.264Z</time>
      </trkpt>
      <trkpt lat="49.929584" lon="1.519265">
        <ele>198.440353</ele>
        <time>2024-05-26T04:22:20.462Z</time>
      </trkpt>
      <trkpt lat="49.930794" lon="1.517002">
        <ele>194.277196</ele>
        <time>2024-05-26T04:22:56.639Z</time>
      </trkpt>
      <trkpt lat="49.931809" lon="1.515102">
        <ele>190.648897</ele>
        <time>2024-05-26T04:23:25.067Z</time>
      </trkpt>
      <trkpt lat="49.932991" lon="1.512896">
        <ele>190.074752</ele>
        <time>2024-05-26T04:24:03.713Z</time>
      </trkpt>
      <trkpt lat="49.933995" lon="1.511027">
        <ele>193.038543</ele>
        <time>2024-05-26T04:25:10.774Z</time>
      </trkpt>
      <trkpt lat="49.935998" lon="1.507273">
        <ele>198.225206</ele>
        <time>2024-05-26T04:26:47.797Z</time>
      </trkpt>
      <trkpt lat="49.937955" lon="1.503598">
        <ele>197.215275</ele>
        <time>2024-05-26T04:27:54.333Z</time>
      </trkpt>
      <trkpt lat="49.938155" lon="1.503417">
        <ele>197.089396</ele>
        <time>2024-05-26T04:27:59.378Z</time>
      </trkpt>
      <trkpt lat="49.944284" lon="1.501402">
        <ele>194.801612</ele>
        <time>2024-05-26T04:30:19.029Z</time>
      </trkpt>
      <trkpt lat="49.945019" lon="1.501112">
        <ele>194.304359</ele>
        <time>2024-05-26T04:30:35.231Z</time>
      </trkpt>
      <trkpt lat="49.944856" lon="1.500937">
        <ele>194.171285</ele>
        <time>2024-05-26T04:30:42.034Z</time>
      </trkpt>
      <trkpt lat="49.944629" lon="1.500581">
        <ele>193.652448</ele>
        <time>2024-05-26T04:30:52.917Z</time>
      </trkpt>
      <trkpt lat="49.944596" lon="1.500428">
        <ele>193.485392</ele>
        <time>2024-05-26T04:30:56.351Z</time>
      </trkpt>
      <trkpt lat="49.944673" lon="1.500299">
        <ele>193.303239</ele>
        <time>2024-05-26T04:31:00.136Z</time>
      </trkpt>
      <trkpt lat="49.944690" lon="1.500254">
        <ele>193.249218</ele>
        <time>2024-05-26T04:31:01.256Z</time>
      </trkpt>
      <trkpt lat="49.944734" lon="1.500133">
        <ele>193.105335</ele>
        <time>2024-05-26T04:31:04.228Z</time>
      </trkpt>
      <trkpt lat="49.944843" lon="1.500092">
        <ele>192.924918</ele>
        <time>2024-05-26T04:31:07.901Z</time>
      </trkpt>
      <trkpt lat="49.944932" lon="1.500001">
        <ele>192.753526</ele>
        <time>2024-05-26T04:31:11.444Z</time>
      </trkpt>
      <trkpt lat="49.945009" lon="1.500017">
        <ele>192.628551</ele>
        <time>2024-05-26T04:31:14.022Z</time>
      </trkpt>
      <trkpt lat="49.945112" lon="1.500039">
        <ele>192.461293</ele>
        <time>2024-05-26T04:31:17.445Z</time>
      </trkpt>
      <trkpt lat="49.945284" lon="1.500312">
        <ele>192.065766</ele>
        <time>2024-05-26T04:31:25.559Z</time>
      </trkpt>
      <trkpt lat="49.945726" lon="1.500833">
        <ele>191.164938</ele>
        <time>2024-05-26T04:31:43.626Z</time>
      </trkpt>
      <trkpt lat="49.947609" lon="1.493599">
        <ele>182.634262</ele>
        <time>2024-05-26T04:33:17.695Z</time>
      </trkpt>
      <trkpt lat="49.947751" lon="1.493052">
        <ele>182.021384</ele>
        <time>2024-05-26T04:33:25.113Z</time>
      </trkpt>
      <trkpt lat="49.949618" lon="1.485969">
        <ele>174.086392</ele>
        <time>2024-05-26T04:34:58.106Z</time>
      </trkpt>
      <trkpt lat="49.950013" lon="1.485121">
        <ele>172.899344</ele>
        <time>2024-05-26T04:35:10.529Z</time>
      </trkpt>
      <trkpt lat="49.950459" lon="1.484292">
        <ele>171.596949</ele>
        <time>2024-05-26T04:35:23.386Z</time>
      </trkpt>
      <trkpt lat="49.950951" lon="1.483538">
        <ele>170.302677</ele>
        <time>2024-05-26T04:35:36.111Z</time>
      </trkpt>
      <trkpt lat="49.951141" lon="1.483326">
        <ele>169.914824</ele>
        <time>2024-05-26T04:35:40.447Z</time>
      </trkpt>
      <trkpt lat="49.951313" lon="1.483068">
        <ele>169.589808</ele>
        <time>2024-05-26T04:35:44.945Z</time>
      </trkpt>
      <trkpt lat="49.951990" lon="1.481942">
        <ele>168.241608</ele>
        <time>2024-05-26T04:36:03.968Z</time>
      </trkpt>
      <trkpt lat="49.952191" lon="1.481666">
        <ele>167.876935</ele>
        <time>2024-05-26T04:36:09.090Z</time>
      </trkpt>
      <trkpt lat="49.955627" lon="1.478061">
        <ele>165.555206</ele>
        <time>2024-05-26T04:37:35.019Z</time>
      </trkpt>
      <trkpt lat="49.955700" lon="1.478058">
        <ele>165.571147</ele>
        <time>2024-05-26T04:37:36.725Z</time>
      </trkpt>
      <trkpt lat="49.955774" lon="1.477398">
        <ele>165.665240</ele>
        <time>2024-05-26T04:37:47.465Z</time>
      </trkpt>
      <trkpt lat="49.955849" lon="1.477199">
        <ele>165.697631</ele>
        <time>2024-05-26T04:37:51.194Z</time>
      </trkpt>
      <trkpt lat="49.956590" lon="1.475821">
        <ele>165.892794</ele>
        <time>2024-05-26T04:38:19.690Z</time>
      </trkpt>
      <trkpt lat="49.957416" lon="1.474515">
        <ele>165.960940</ele>
        <time>2024-05-26T04:38:46.123Z</time>
      </trkpt>
      <trkpt lat="49.957869" lon="1.475660">
        <ele>165.668936</ele>
        <time>2024-05-26T04:39:04.514Z</time>
      </trkpt>
      <trkpt lat="49.957928" lon="1.475937">
        <ele>165.572793</ele>
        <time>2024-05-26T04:39:08.499Z</time>
      </trkpt>
      <trkpt lat="49.958014" lon="1.476551">
        <ele>165.365744</ele>
        <time>2024-05-26T04:39:16.983Z</time>
      </trkpt>
      <trkpt lat="49.958104" lon="1.476462">
        <ele>165.311112</ele>
        <time>2024-05-26T04:39:19.287Z</time>
      </trkpt>
      <trkpt lat="49.958608" lon="1.475517">
        <ele>164.697978</ele>
        <time>2024-05-26T04:39:36.095Z</time>
      </trkpt>
      <trkpt lat="49.960032" lon="1.472912">
        <ele>161.735047</ele>
        <time>2024-05-26T04:40:20.424Z</time>
      </trkpt>
      <trkpt lat="49.960512" lon="1.472037">
        <ele>160.552469</ele>
        <time>2024-05-26T04:40:34.978Z</time>
      </trkpt>
      <trkpt lat="49.960994" lon="1.471640">
        <ele>159.581168</ele>
        <time>2024-05-26T04:40:45.644Z</time>
      </trkpt>
      <trkpt lat="49.962471" lon="1.470730">
        <ele>156.149468</ele>
        <time>2024-05-26T04:41:15.884Z</time>
      </trkpt>
      <trkpt lat="49.963991" lon="1.470222">
        <ele>151.984216</ele>
        <time>2024-05-26T04:41:44.309Z</time>
      </trkpt>
      <trkpt lat="49.964597" lon="1.470150">
        <ele>150.490245</ele>
        <time>2024-05-26T04:41:55.399Z</time>
      </trkpt>
      <trkpt lat="49.967137" lon="1.470708">
        <ele>145.745190</ele>
        <time>2024-05-26T04:42:44.473Z</time>
      </trkpt>
      <trkpt lat="49.967234" lon="1.470765">
        <ele>145.610801</ele>
        <time>2024-05-26T04:42:46.679Z</time>
      </trkpt>
      <trkpt lat="49.968587" lon="1.471648">
        <ele>144.647363</ele>
        <time>2024-05-26T04:43:20.439Z</time>
      </trkpt>
      <trkpt lat="49.969029" lon="1.471829">
        <ele>144.547983</ele>
        <time>2024-05-26T04:43:37.860Z</time>
      </trkpt>
      <trkpt lat="49.969291" lon="1.471829">
        <ele>144.491017</ele>
        <time>2024-05-26T04:43:47.345Z</time>
      </trkpt>
      <trkpt lat="49.970379" lon="1.471626">
        <ele>142.402566</ele>
        <time>2024-05-26T04:44:24.971Z</time>
      </trkpt>
      <trkpt lat="49.971926" lon="1.471224">
        <ele>136.882233</ele>
        <time>2024-05-26T04:45:12.462Z</time>
      </trkpt>
      <trkpt lat="49.974907" lon="1.470860">
        <ele>119.751102</ele>
        <time>2024-05-26T04:46:35.708Z</time>
      </trkpt>
      <trkpt lat="49.975514" lon="1.470860">
        <ele>117.031566</ele>
        <time>2024-05-26T04:46:53.008Z</time>
      </trkpt>
      <trkpt lat="49.976011" lon="1.471203">
        <ele>114.595393</ele>
        <time>2024-05-26T04:47:08.968Z</time>
      </trkpt>
      <trkpt lat="49.978922" lon="1.474036">
        <ele>101.280422</ele>
        <time>2024-05-26T04:48:54.623Z</time>
      </trkpt>
      <trkpt lat="49.980109" lon="1.475151">
        <ele>93.917078</ele>
        <time>2024-05-26T04:49:32.753Z</time>
      </trkpt>
      <trkpt lat="49.980722" lon="1.475529">
        <ele>89.900184</ele>
        <time>2024-05-26T04:49:50.804Z</time>
      </trkpt>
      <trkpt lat="49.981723" lon="1.475731">
        <ele>84.979002</ele>
        <time>2024-05-26T04:50:20.060Z</time>
      </trkpt>
      <trkpt lat="49.982413" lon="1.475688">
        <ele>82.485866</ele>
        <time>2024-05-26T04:50:41.409Z</time>
      </trkpt>
      <trkpt lat="49.983310" lon="1.475065">
        <ele>79.152729</ele>
        <time>2024-05-26T04:51:11.975Z</time>
      </trkpt>
      <trkpt lat="49.984138" lon="1.474829">
        <ele>76.600881</ele>
        <time>2024-05-26T04:51:37.870Z</time>
      </trkpt>
      <trkpt lat="49.984883" lon="1.474958">
        <ele>74.561127</ele>
        <time>2024-05-26T04:52:01.087Z</time>
      </trkpt>
      <trkpt lat="49.985504" lon="1.475280">
        <ele>73.518033</ele>
        <time>2024-05-26T04:52:21.942Z</time>
      </trkpt>
      <trkpt lat="49.986111" lon="1.475774">
        <ele>72.426372</ele>
        <time>2024-05-26T04:52:44.855Z</time>
      </trkpt>
      <trkpt lat="49.986580" lon="1.476546">
        <ele>72.857897</ele>
        <time>2024-05-26T04:53:10.343Z</time>
      </trkpt>
      <trkpt lat="49.987103" lon="1.477524">
        <ele>74.777037</ele>
        <time>2024-05-26T04:53:48.746Z</time>
      </trkpt>
      <trkpt lat="49.987175" lon="1.477782">
        <ele>75.201358</ele>
        <time>2024-05-26T04:53:58.124Z</time>
      </trkpt>
      <trkpt lat="49.991335" lon="1.480475">
        <ele>97.022839</ele>
        <time>2024-05-26T04:57:37.513Z</time>
      </trkpt>
      <trkpt lat="49.991516" lon="1.480508">
        <ele>97.773619</ele>
        <time>2024-05-26T04:57:46.287Z</time>
      </trkpt>
      <trkpt lat="49.991665" lon="1.480457">
        <ele>98.402149</ele>
        <time>2024-05-26T04:57:53.243Z</time>
      </trkpt>
      <trkpt lat="49.991847" lon="1.480259">
        <ele>99.317139</ele>
        <time>2024-05-26T04:58:03.509Z</time>
      </trkpt>
      <trkpt lat="49.994448" lon="1.475655">
        <ele>109.830394</ele>
        <time>2024-05-26T05:00:24.531Z</time>
      </trkpt>
      <trkpt lat="49.994495" lon="1.475377">
        <ele>110.172508</ele>
        <time>2024-05-26T05:00:28.687Z</time>
      </trkpt>
      <trkpt lat="49.994450" lon="1.473777">
        <ele>109.902470</ele>
        <time>2024-05-26T05:00:49.810Z</time>
      </trkpt>
      <trkpt lat="49.996308" lon="1.473711">
        <ele>108.915238</ele>
        <time>2024-05-26T05:01:52.896Z</time>
      </trkpt>
      <trkpt lat="49.997092" lon="1.473696">
        <ele>108.769532</ele>
        <time>2024-05-26T05:02:12.195Z</time>
      </trkpt>
      <trkpt lat="50.001873" lon="1.473601">
        <ele>116.851536</ele>
        <time>2024-05-26T05:04:48.878Z</time>
      </trkpt>
      <trkpt lat="50.005533" lon="1.473519">
        <ele>120.321028</ele>
        <time>2024-05-26T05:06:25.963Z</time>
      </trkpt>
      <trkpt lat="50.006942" lon="1.473485">
        <ele>123.122467</ele>
        <time>2024-05-26T05:07:10.003Z</time>
      </trkpt>
      <trkpt lat="50.011896" lon="1.473364">
        <ele>136.008985</ele>
        <time>2024-05-26T05:10:24.342Z</time>
      </trkpt>
      <trkpt lat="50.014528" lon="1.470213">
        <ele>127.047852</ele>
        <time>2024-05-26T05:11:23.718Z</time>
      </trkpt>
      <trkpt lat="50.017338" lon="1.466776">
        <ele>113.400828</ele>
        <time>2024-05-26T05:12:24.624Z</time>
      </trkpt>
      <trkpt lat="50.021204" lon="1.462200">
        <ele>125.380787</ele>
        <time>2024-05-26T05:15:26.817Z</time>
      </trkpt>
      <trkpt lat="50.021566" lon="1.461757">
        <ele>126.616690</ele>
        <time>2024-05-26T05:15:43.687Z</time>
      </trkpt>
      <trkpt lat="50.022227" lon="1.460948">
        <ele>127.521879</ele>
        <time>2024-05-26T05:16:10.669Z</time>
      </trkpt>
      <trkpt lat="50.022363" lon="1.460784">
        <ele>127.666988</ele>
        <time>2024-05-26T05:16:15.600Z</time>
      </trkpt>
      <trkpt lat="50.022476" lon="1.460553">
        <ele>127.824322</ele>
        <time>2024-05-26T05:16:20.647Z</time>
      </trkpt>
      <trkpt lat="50.022580" lon="1.460189">
        <ele>128.040199</ele>
        <time>2024-05-26T05:16:27.233Z</time>
      </trkpt>
      <trkpt lat="50.024138" lon="1.453561">
        <ele>125.507412</ele>
        <time>2024-05-26T05:18:04.059Z</time>
      </trkpt>
      <trkpt lat="50.024335" lon="1.452867">
        <ele>125.076231</ele>
        <time>2024-05-26T05:18:14.320Z</time>
      </trkpt>
      <trkpt lat="50.024535" lon="1.452563">
        <ele>124.828956</ele>
        <time>2024-05-26T05:18:20.101Z</time>
      </trkpt>
      <trkpt lat="50.024957" lon="1.452150">
        <ele>124.388016</ele>
        <time>2024-05-26T05:18:30.373Z</time>
      </trkpt>
      <trkpt lat="50.025762" lon="1.450832">
        <ele>123.446582</ele>
        <time>2024-05-26T05:18:55.166Z</time>
      </trkpt>
      <trkpt lat="50.026754" lon="1.448811">
        <ele>121.941653</ele>
        <time>2024-05-26T05:19:29.937Z</time>
      </trkpt>
      <trkpt lat="50.027160" lon="1.448344">
        <ele>121.434491</ele>
        <time>2024-05-26T05:19:40.424Z</time>
      </trkpt>
      <trkpt lat="50.027518" lon="1.448055">
        <ele>120.983108</ele>
        <time>2024-05-26T05:19:48.504Z</time>
      </trkpt>
      <trkpt lat="50.027827" lon="1.447573">
        <ele>120.243315</ele>
        <time>2024-05-26T05:19:57.057Z</time>
      </trkpt>
      <trkpt lat="50.028373" lon="1.446717">
        <ele>118.932793</ele>
        <time>2024-05-26T05:20:12.180Z</time>
      </trkpt>
      <trkpt lat="50.028687" lon="1.445809">
        <ele>117.655932</ele>
        <time>2024-05-26T05:20:25.442Z</time>
      </trkpt>
      <trkpt lat="50.029582" lon="1.443900">
        <ele>113.432432</ele>
        <time>2024-05-26T05:20:53.598Z</time>
      </trkpt>
      <trkpt lat="50.030459" lon="1.442027">
        <ele>106.620578</ele>
        <time>2024-05-26T05:21:18.495Z</time>
      </trkpt>
      <trkpt lat="50.030506" lon="1.441928">
        <ele>106.244423</ele>
        <time>2024-05-26T05:21:19.771Z</time>
      </trkpt>
      <trkpt lat="50.031272" lon="1.440361">
        <ele>100.886799</ele>
        <time>2024-05-26T05:21:40.741Z</time>
      </trkpt>
      <trkpt lat="50.031398" lon="1.440308">
        <ele>100.361843</ele>
        <time>2024-05-26T05:21:42.978Z</time>
      </trkpt>
      <trkpt lat="50.032964" lon="1.436510">
        <ele>92.334040</ele>
        <time>2024-05-26T05:22:36.424Z</time>
      </trkpt>
      <trkpt lat="50.033703" lon="1.434781">
        <ele>91.010864</ele>
        <time>2024-05-26T05:23:05.251Z</time>
      </trkpt>
      <trkpt lat="50.034865" lon="1.433423">
        <ele>89.529339</ele>
        <time>2024-05-26T05:23:38.570Z</time>
      </trkpt>
      <trkpt lat="50.035764" lon="1.432627">
        <ele>86.337240</ele>
        <time>2024-05-26T05:23:57.345Z</time>
      </trkpt>
      <trkpt lat="50.036355" lon="1.432018">
        <ele>82.879281</ele>
        <time>2024-05-26T05:24:08.980Z</time>
      </trkpt>
      <trkpt lat="50.036873" lon="1.431432">
        <ele>79.595223</ele>
        <time>2024-05-26T05:24:19.149Z</time>
      </trkpt>
      <trkpt lat="50.037962" lon="1.430303">
        <ele>71.197405</ele>
        <time>2024-05-26T05:24:40.039Z</time>
      </trkpt>
      <trkpt lat="50.038174" lon="1.430128">
        <ele>69.657222</ele>
        <time>2024-05-26T05:24:43.901Z</time>
      </trkpt>
      <trkpt lat="50.038505" lon="1.429830">
        <ele>67.263856</ele>
        <time>2024-05-26T05:24:49.983Z</time>
      </trkpt>
      <trkpt lat="50.039055" lon="1.429731">
        <ele>63.852871</ele>
        <time>2024-05-26T05:24:58.805Z</time>
      </trkpt>
      <trkpt lat="50.039458" lon="1.429416">
        <ele>61.074790</ele>
        <time>2024-05-26T05:25:06.166Z</time>
      </trkpt>
      <trkpt lat="50.039986" lon="1.428975">
        <ele>57.385287</ele>
        <time>2024-05-26T05:25:15.840Z</time>
      </trkpt>
      <trkpt lat="50.040285" lon="1.428767">
        <ele>55.382464</ele>
        <time>2024-05-26T05:25:21.075Z</time>
      </trkpt>
      <trkpt lat="50.040778" lon="1.428523">
        <ele>52.218739</ele>
        <time>2024-05-26T05:25:29.320Z</time>
      </trkpt>
      <trkpt lat="50.040950" lon="1.428438">
        <ele>51.115118</ele>
        <time>2024-05-26T05:25:32.205Z</time>
      </trkpt>
      <trkpt lat="50.041757" lon="1.427841">
        <ele>45.511873</ele>
        <time>2024-05-26T05:25:46.835Z</time>
      </trkpt>
      <trkpt lat="50.041801" lon="1.427804">
        <ele>45.162853</ele>
        <time>2024-05-26T05:25:47.626Z</time>
      </trkpt>
      <trkpt lat="50.042576" lon="1.427192">
        <ele>39.097904</ele>
        <time>2024-05-26T05:26:01.289Z</time>
      </trkpt>
      <trkpt lat="50.042755" lon="1.426824">
        <ele>37.028684</ele>
        <time>2024-05-26T05:26:05.906Z</time>
      </trkpt>
      <trkpt lat="50.042943" lon="1.426614">
        <ele>35.413833</ele>
        <time>2024-05-26T05:26:09.506Z</time>
      </trkpt>
      <trkpt lat="50.043306" lon="1.426460">
        <ele>32.863510</ele>
        <time>2024-05-26T05:26:15.337Z</time>
      </trkpt>
      <trkpt lat="50.043730" lon="1.426279">
        <ele>29.974178</ele>
        <time>2024-05-26T05:26:22.210Z</time>
      </trkpt>
      <trkpt lat="50.044165" lon="1.426231">
        <ele>27.108202</ele>
        <time>2024-05-26T05:26:29.082Z</time>
      </trkpt>
      <trkpt lat="50.044655" lon="1.426421">
        <ele>23.789597</ele>
        <time>2024-05-26T05:26:37.187Z</time>
      </trkpt>
      <trkpt lat="50.045022" lon="1.426691">
        <ele>21.465631</ele>
        <time>2024-05-26T05:26:43.929Z</time>
      </trkpt>
      <trkpt lat="50.045120" lon="1.426524">
        <ele>20.798702</ele>
        <time>2024-05-26T05:26:46.274Z</time>
      </trkpt>
      <trkpt lat="50.045364" lon="1.426109">
        <ele>19.139919</ele>
        <time>2024-05-26T05:26:51.986Z</time>
      </trkpt>
      <trkpt lat="50.045925" lon="1.425418">
        <ele>15.856243</ele>
        <time>2024-05-26T05:27:03.412Z</time>
      </trkpt>
      <trkpt lat="50.046722" lon="1.424488">
        <ele>13.044270</ele>
        <time>2024-05-26T05:27:20.246Z</time>
      </trkpt>
      <trkpt lat="50.046912" lon="1.424152">
        <ele>12.578340</ele>
        <time>2024-05-26T05:27:25.442Z</time>
      </trkpt>
      <trkpt lat="50.046976" lon="1.424019">
        <ele>12.405376</ele>
        <time>2024-05-26T05:27:27.406Z</time>
      </trkpt>
      <trkpt lat="50.047066" lon="1.423871">
        <ele>12.193249</ele>
        <time>2024-05-26T05:27:29.850Z</time>
      </trkpt>
      <trkpt lat="50.047160" lon="1.423440">
        <ele>11.719541</ele>
        <time>2024-05-26T05:27:35.549Z</time>
      </trkpt>
      <trkpt lat="50.047323" lon="1.422609">
        <ele>11.524525</ele>
        <time>2024-05-26T05:27:49.506Z</time>
      </trkpt>
      <trkpt lat="50.047583" lon="1.421818">
        <ele>12.989720</ele>
        <time>2024-05-26T05:28:09.878Z</time>
      </trkpt>
      <trkpt lat="50.047855" lon="1.421392">
        <ele>13.980267</ele>
        <time>2024-05-26T05:28:25.261Z</time>
      </trkpt>
      <trkpt lat="50.047934" lon="1.421283">
        <ele>14.251283</ele>
        <time>2024-05-26T05:28:29.585Z</time>
      </trkpt>
      <trkpt lat="50.048390" lon="1.420319">
        <ele>16.276714</ele>
        <time>2024-05-26T05:28:58.325Z</time>
      </trkpt>
      <trkpt lat="50.048425" lon="1.420215">
        <ele>16.489489</ele>
        <time>2024-05-26T05:29:01.221Z</time>
      </trkpt>
      <trkpt lat="50.048448" lon="1.420106">
        <ele>16.697402</ele>
        <time>2024-05-26T05:29:03.927Z</time>
      </trkpt>
      <trkpt lat="50.048455" lon="1.419910">
        <ele>17.053128</ele>
        <time>2024-05-26T05:29:09.511Z</time>
      </trkpt>
      <trkpt lat="50.048632" lon="1.419193">
        <ele>18.445126</ele>
        <time>2024-05-26T05:29:31.560Z</time>
      </trkpt>
      <trkpt lat="50.048753" lon="1.418748">
        <ele>19.320835</ele>
        <time>2024-05-26T05:29:45.162Z</time>
      </trkpt>
      <trkpt lat="50.048880" lon="1.418241">
        <ele>20.307006</ele>
        <time>2024-05-26T05:30:00.018Z</time>
      </trkpt>
      <trkpt lat="50.048754" lon="1.418184">
        <ele>20.677279</ele>
        <time>2024-05-26T05:30:05.661Z</time>
      </trkpt>
      <trkpt lat="50.048773" lon="1.417582">
        <ele>20.738054</ele>
        <time>2024-05-26T05:30:21.478Z</time>
      </trkpt>
      <trkpt lat="50.048796" lon="1.416837">
        <ele>20.675134</ele>
        <time>2024-05-26T05:30:38.077Z</time>
      </trkpt>
      <trkpt lat="50.048933" lon="1.415257">
        <ele>20.392050</ele>
        <time>2024-05-26T05:31:04.228Z</time>
      </trkpt>
      <trkpt lat="50.048977" lon="1.415048">
        <ele>19.979904</ele>
        <time>2024-05-26T05:31:07.891Z</time>
      </trkpt>
      <trkpt lat="50.049324" lon="1.415072">
        <ele>18.966302</ele>
        <time>2024-05-26T05:31:16.284Z</time>
      </trkpt>
      <trkpt lat="50.049889" lon="1.415112">
        <ele>17.315834</ele>
        <time>2024-05-26T05:31:29.429Z</time>
      </trkpt>
      <trkpt lat="50.049874" lon="1.416514">
        <ele>14.998376</ele>
        <time>2024-05-26T05:31:50.060Z</time>
      </trkpt>
      <trkpt lat="50.049911" lon="1.416843">
        <ele>14.690298</ele>
        <time>2024-05-26T05:31:55.345Z</time>
      </trkpt>
      <trkpt lat="50.049978" lon="1.417652">
        <ele>13.937923</ele>
        <time>2024-05-26T05:32:10.100Z</time>
      </trkpt>
      <trkpt lat="50.049968" lon="1.417995">
        <ele>13.621225</ele>
        <time>2024-05-26T05:32:17.320Z</time>
      </trkpt>
      <trkpt lat="50.049932" lon="1.418201">
        <ele>13.424306</ele>
        <time>2024-05-26T05:32:21.065Z</time>
      </trkpt>
      <trkpt lat="50.049656" lon="1.418999">
        <ele>12.540192</ele>
        <time>2024-05-26T05:32:36.254Z</time>
      </trkpt>
      <trkpt lat="50.049436" lon="1.420028">
        <ele>11.161039</ele>
        <time>2024-05-26T05:32:49.677Z</time>
      </trkpt>
      <trkpt lat="50.049456" lon="1.420122">
        <ele>11.035113</ele>
        <time>2024-05-26T05:32:50.886Z</time>
      </trkpt>
      <trkpt lat="50.049835" lon="1.420209">
        <ele>10.276440</ele>
        <time>2024-05-26T05:32:57.981Z</time>
      </trkpt>
      <trkpt lat="50.050131" lon="1.420381">
        <ele>9.650773</ele>
        <time>2024-05-26T05:33:03.746Z</time>
      </trkpt>
      <trkpt lat="50.050146" lon="1.420390">
        <ele>9.618939</ele>
        <time>2024-05-26T05:33:04.031Z</time>
      </trkpt>
      <trkpt lat="50.050251" lon="1.420443">
        <ele>9.400350</ele>
        <time>2024-05-26T05:33:05.935Z</time>
      </trkpt>
      <trkpt lat="50.051056" lon="1.420838">
        <ele>7.916552</ele>
        <time>2024-05-26T05:33:20.835Z</time>
      </trkpt>
      <trkpt lat="50.051329" lon="1.420009">
        <ele>6.887924</ele>
        <time>2024-05-26T05:33:32.753Z</time>
      </trkpt>
      <trkpt lat="50.051387" lon="1.419932">
        <ele>6.756878</ele>
        <time>2024-05-26T05:33:34.386Z</time>
      </trkpt>
      <trkpt lat="50.051481" lon="1.419807">
        <ele>6.544345</ele>
        <time>2024-05-26T05:33:37.037Z</time>
      </trkpt>
      <trkpt lat="50.051502" lon="1.419783">
        <ele>6.499557</ele>
        <time>2024-05-26T05:33:37.588Z</time>
      </trkpt>
      <trkpt lat="50.051640" lon="1.419623">
        <ele>6.203737</ele>
        <time>2024-05-26T05:33:41.271Z</time>
      </trkpt>
      <trkpt lat="50.052604" lon="1.418524">
        <ele>5.260327</ele>
        <time>2024-05-26T05:34:06.411Z</time>
      </trkpt>
      <trkpt lat="50.052693" lon="1.418427">
        <ele>5.182112</ele>
        <time>2024-05-26T05:34:08.708Z</time>
      </trkpt>
      <trkpt lat="50.052721" lon="1.418351">
        <ele>5.141603</ele>
        <time>2024-05-26T05:34:09.884Z</time>
      </trkpt>
      <trkpt lat="50.052900" lon="1.417873">
        <ele>4.885780</ele>
        <time>2024-05-26T05:34:17.585Z</time>
      </trkpt>
      <trkpt lat="50.052964" lon="1.417750">
        <ele>4.812588</ele>
        <time>2024-05-26T05:34:19.837Z</time>
      </trkpt>
      <trkpt lat="50.053044" lon="1.417594">
        <ele>4.759286</ele>
        <time>2024-05-26T05:34:22.708Z</time>
      </trkpt>
      <trkpt lat="50.053081" lon="1.417519">
        <ele>4.753272</ele>
        <time>2024-05-26T05:34:24.041Z</time>
      </trkpt>
      <trkpt lat="50.053182" lon="1.417349">
        <ele>4.738547</ele>
        <time>2024-05-26T05:34:27.304Z</time>
      </trkpt>
      <trkpt lat="50.053146" lon="1.417231">
        <ele>4.730241</ele>
        <time>2024-05-26T05:34:29.208Z</time>
      </trkpt>
      <trkpt lat="50.053141" lon="1.416995">
        <ele>4.715228</ele>
        <time>2024-05-26T05:34:32.583Z</time>
      </trkpt>
      <trkpt lat="50.053042" lon="1.414968">
        <ele>4.591515</ele>
        <time>2024-05-26T05:35:02.652Z</time>
      </trkpt>
      <trkpt lat="50.053058" lon="1.414640">
        <ele>4.652112</ele>
        <time>2024-05-26T05:35:07.922Z</time>
      </trkpt>
      <trkpt lat="50.052861" lon="1.414477">
        <ele>4.716113</ele>
        <time>2024-05-26T05:35:13.743Z</time>
      </trkpt>
      <trkpt lat="50.052661" lon="1.414310">
        <ele>4.781221</ele>
        <time>2024-05-26T05:35:19.514Z</time>
      </trkpt>
      <trkpt lat="50.052461" lon="1.414143">
        <ele>4.846329</ele>
        <time>2024-05-26T05:35:25.220Z</time>
      </trkpt>
      <trkpt lat="50.053016" lon="1.412804">
        <ele>5.093062</ele>
        <time>2024-05-26T05:35:57.022Z</time>
      </trkpt>
      <trkpt lat="50.053857" lon="1.410775">
        <ele>4.966512</ele>
        <time>2024-05-26T05:36:53.990Z</time>
      </trkpt>
      <trkpt lat="50.054278" lon="1.409831">
        <ele>4.728349</ele>
        <time>2024-05-26T05:37:10.037Z</time>
      </trkpt>
      <trkpt lat="50.054547" lon="1.409229">
        <ele>4.554143</ele>
        <time>2024-05-26T05:37:20.342Z</time>
      </trkpt>
      <trkpt lat="50.055516" lon="1.407069">
        <ele>4.014840</ele>
        <time>2024-05-26T05:37:58.279Z</time>
      </trkpt>
      <trkpt lat="50.055937" lon="1.406141">
        <ele>3.809314</ele>
        <time>2024-05-26T05:38:14.019Z</time>
      </trkpt>
      <trkpt lat="50.056089" lon="1.405919">
        <ele>3.743568</ele>
        <time>2024-05-26T05:38:18.486Z</time>
      </trkpt>
      <trkpt lat="50.056249" lon="1.405577">
        <ele>3.651150</ele>
        <time>2024-05-26T05:38:24.253Z</time>
      </trkpt>
      <trkpt lat="50.056331" lon="1.405250">
        <ele>3.574480</ele>
        <time>2024-05-26T05:38:28.988Z</time>
      </trkpt>
      <trkpt lat="50.058218" lon="1.401001">
        <ele>2.623355</ele>
        <time>2024-05-26T05:39:42.506Z</time>
      </trkpt>
      <trkpt lat="50.059434" lon="1.398325">
        <ele>2.992303</ele>
        <time>2024-05-26T05:40:34.363Z</time>
      </trkpt>
      <trkpt lat="50.060510" lon="1.395970">
        <ele>3.370233</ele>
        <time>2024-05-26T05:41:19.996Z</time>
      </trkpt>
      <trkpt lat="50.060644" lon="1.395565">
        <ele>3.396095</ele>
        <time>2024-05-26T05:41:26.881Z</time>
      </trkpt>
      <trkpt lat="50.060690" lon="1.395333">
        <ele>3.409877</ele>
        <time>2024-05-26T05:41:30.570Z</time>
      </trkpt>
      <trkpt lat="50.060716" lon="1.395034">
        <ele>3.427004</ele>
        <time>2024-05-26T05:41:35.042Z</time>
      </trkpt>
      <trkpt lat="50.060968" lon="1.392631">
        <ele>3.394569</ele>
        <time>2024-05-26T05:42:20.269Z</time>
      </trkpt>
      <trkpt lat="50.061029" lon="1.391952">
        <ele>3.365641</ele>
        <time>2024-05-26T05:42:33.042Z</time>
      </trkpt>
      <trkpt lat="50.061468" lon="1.387333">
        <ele>3.355157</ele>
        <time>2024-05-26T05:44:01.865Z</time>
      </trkpt>
      <trkpt lat="50.061532" lon="1.387031">
        <ele>3.337568</ele>
        <time>2024-05-26T05:44:07.425Z</time>
      </trkpt>
      <trkpt lat="50.061782" lon="1.386339">
        <ele>3.293652</ele>
        <time>2024-05-26T05:44:22.044Z</time>
      </trkpt>
      <trkpt lat="50.062094" lon="1.385635">
        <ele>3.310346</ele>
        <time>2024-05-26T05:44:37.812Z</time>
      </trkpt>
      <trkpt lat="50.062124" lon="1.385084">
        <ele>3.334924</ele>
        <time>2024-05-26T05:44:48.100Z</time>
      </trkpt>
      <trkpt lat="50.062212" lon="1.385079">
        <ele>3.341021</ele>
        <time>2024-05-26T05:44:50.167Z</time>
      </trkpt>
      <trkpt lat="50.062577" lon="1.385060">
        <ele>3.366306</ele>
        <time>2024-05-26T05:44:58.412Z</time>
      </trkpt>
      <trkpt lat="50.062675" lon="1.385047">
        <ele>3.373116</ele>
        <time>2024-05-26T05:45:00.810Z</time>
      </trkpt>
      <trkpt lat="50.062937" lon="1.384930">
        <ele>3.391987</ele>
        <time>2024-05-26T05:45:06.940Z</time>
      </trkpt>
      <trkpt lat="50.063258" lon="1.384624">
        <ele>3.453879</ele>
        <time>2024-05-26T05:45:16.118Z</time>
      </trkpt>
      <trkpt lat="50.063410" lon="1.384363">
        <ele>3.517579</ele>
        <time>2024-05-26T05:45:21.850Z</time>
      </trkpt>
      <trkpt lat="50.063535" lon="1.384023">
        <ele>3.588401</ele>
        <time>2024-05-26T05:45:28.503Z</time>
      </trkpt>
      <trkpt lat="50.063615" lon="1.383631">
        <ele>3.662753</ele>
        <time>2024-05-26T05:45:35.195Z</time>
      </trkpt>
      <trkpt lat="50.063638" lon="1.383324">
        <ele>3.718622</ele>
        <time>2024-05-26T05:45:39.902Z</time>
      </trkpt>
      <trkpt lat="50.063603" lon="1.382710">
        <ele>3.830043</ele>
        <time>2024-05-26T05:45:48.791Z</time>
      </trkpt>
      <trkpt lat="50.063430" lon="1.381136">
        <ele>3.594889</ele>
        <time>2024-05-26T05:46:10.899Z</time>
      </trkpt>
      <trkpt lat="50.063359" lon="1.380690">
        <ele>3.466620</ele>
        <time>2024-05-26T05:46:17.016Z</time>
      </trkpt>
      <trkpt lat="50.063170" lon="1.379875">
        <ele>3.224727</ele>
        <time>2024-05-26T05:46:28.501Z</time>
      </trkpt>
      <trkpt lat="50.062971" lon="1.378801">
        <ele>2.830964</ele>
        <time>2024-05-26T05:46:43.450Z</time>
      </trkpt>
      <trkpt lat="50.062770" lon="1.378324">
        <ele>2.611981</ele>
        <time>2024-05-26T05:46:50.863Z</time>
      </trkpt>
      <trkpt lat="50.062553" lon="1.377927">
        <ele>2.411866</ele>
        <time>2024-05-26T05:46:57.519Z</time>
      </trkpt>
      <trkpt lat="50.062398" lon="1.377500">
        <ele>2.223602</ele>
        <time>2024-05-26T05:47:03.909Z</time>
      </trkpt>
      <trkpt lat="50.062340" lon="1.377230">
        <ele>2.114330</ele>
        <time>2024-05-26T05:47:07.830Z</time>
      </trkpt>
      <trkpt lat="50.062092" lon="1.375946">
        <ele>2.118646</ele>
        <time>2024-05-26T05:47:27.310Z</time>
      </trkpt>
      <trkpt lat="50.062130" lon="1.375647">
        <ele>2.134891</ele>
        <time>2024-05-26T05:47:32.335Z</time>
      </trkpt>
      <trkpt lat="50.062240" lon="1.375371">
        <ele>2.152205</ele>
        <time>2024-05-26T05:47:37.032Z</time>
      </trkpt>
      <trkpt lat="50.062357" lon="1.375231">
        <ele>2.164453</ele>
        <time>2024-05-26T05:47:40.677Z</time>
      </trkpt>
      <trkpt lat="50.062449" lon="1.375167">
        <ele>2.172818</ele>
        <time>2024-05-26T05:47:42.840Z</time>
      </trkpt>
      <trkpt lat="50.062480" lon="1.375146">
        <ele>2.175625</ele>
        <time>2024-05-26T05:47:43.550Z</time>
      </trkpt>
      <trkpt lat="50.062685" lon="1.375132">
        <ele>2.192660</ele>
        <time>2024-05-26T05:47:48.198Z</time>
      </trkpt>
      <trkpt lat="50.062736" lon="1.375156">
        <ele>2.197083</ele>
        <time>2024-05-26T05:47:49.351Z</time>
      </trkpt>
      <trkpt lat="50.062948" lon="1.375362">
        <ele>2.244643</ele>
        <time>2024-05-26T05:47:54.940Z</time>
      </trkpt>
      <trkpt lat="50.063086" lon="1.375635">
        <ele>2.300981</ele>
        <time>2024-05-26T05:47:59.865Z</time>
      </trkpt>
      <trkpt lat="50.063192" lon="1.375929">
        <ele>2.355652</ele>
        <time>2024-05-26T05:48:05.139Z</time>
      </trkpt>
      <trkpt lat="50.063271" lon="1.376179">
        <ele>2.400830</ele>
        <time>2024-05-26T05:48:09.310Z</time>
      </trkpt>
      <trkpt lat="50.063679" lon="1.377490">
        <ele>2.637048</ele>
        <time>2024-05-26T05:48:31.822Z</time>
      </trkpt>
      <trkpt lat="50.063946" lon="1.378336">
        <ele>3.302359</ele>
        <time>2024-05-26T05:48:46.307Z</time>
      </trkpt>
      <trkpt lat="50.064159" lon="1.379010">
        <ele>3.900940</ele>
        <time>2024-05-26T05:48:59.342Z</time>
      </trkpt>
      <trkpt lat="50.064295" lon="1.379442">
        <ele>4.284313</ele>
        <time>2024-05-26T05:49:08.809Z</time>
      </trkpt>
      <trkpt lat="50.064367" lon="1.379410">
        <ele>4.377248</ele>
        <time>2024-05-26T05:49:11.113Z</time>
      </trkpt>
      <trkpt lat="50.064506" lon="1.379520">
        <ele>4.570764</ele>
        <time>2024-05-26T05:49:16.228Z</time>
      </trkpt>
      <trkpt lat="50.065078" lon="1.380550">
        <ele>5.955344</ele>
        <time>2024-05-26T05:49:45.396Z</time>
      </trkpt>
      <trkpt lat="50.065434" lon="1.381220">
        <ele>6.919765</ele>
        <time>2024-05-26T05:50:03.649Z</time>
      </trkpt>
      <trkpt lat="50.065812" lon="1.381864">
        <ele>7.887381</ele>
        <time>2024-05-26T05:50:19.555Z</time>
      </trkpt>
      <trkpt lat="50.066048" lon="1.382253">
        <ele>8.004143</ele>
        <time>2024-05-26T05:50:28.603Z</time>
      </trkpt>
      <trkpt lat="50.066209" lon="1.382552">
        <ele>8.009223</ele>
        <time>2024-05-26T05:50:34.932Z</time>
      </trkpt>
      <trkpt lat="50.066485" lon="1.382994">
        <ele>8.017250</ele>
        <time>2024-05-26T05:50:43.736Z</time>
      </trkpt>
      <trkpt lat="50.066799" lon="1.383435">
        <ele>8.025823</ele>
        <time>2024-05-26T05:50:52.626Z</time>
      </trkpt>
      <trkpt lat="50.066981" lon="1.383653">
        <ele>8.030478</ele>
        <time>2024-05-26T05:50:57.552Z</time>
      </trkpt>
      <trkpt lat="50.067062" lon="1.383803">
        <ele>8.033030</ele>
        <time>2024-05-26T05:51:00.009Z</time>
      </trkpt>
      <trkpt lat="50.067113" lon="1.383889">
        <ele>8.034554</ele>
        <time>2024-05-26T05:51:01.598Z</time>
      </trkpt>
      <trkpt lat="50.067290" lon="1.384125">
        <ele>8.034954</ele>
        <time>2024-05-26T05:51:06.519Z</time>
      </trkpt>
      <trkpt lat="50.067590" lon="1.384508">
        <ele>8.034954</ele>
        <time>2024-05-26T05:51:14.220Z</time>
      </trkpt>
      <trkpt lat="50.068007" lon="1.384932">
        <ele>8.034954</ele>
        <time>2024-05-26T05:51:24.416Z</time>
      </trkpt>
      <trkpt lat="50.068073" lon="1.385004">
        <ele>8.034954</ele>
        <time>2024-05-26T05:51:26.175Z</time>
      </trkpt>
      <trkpt lat="50.068073" lon="1.385004">
        <ele>8.034954</ele>
        <time>2024-05-26T05:51:26.180Z</time>
      </trkpt>
      <trkpt lat="50.068103" lon="1.384929">
        <ele>8.034954</ele>
        <time>2024-05-26T05:51:27.647Z</time>
      </trkpt>
      <trkpt lat="50.068103" lon="1.384929">
        <ele>8.034954</ele>
        <time>2024-05-26T05:51:27.647Z</time>
      </trkpt>
      <trkpt lat="50.068103" lon="1.384929">
        <ele>8.034954</ele>
        <time>2024-05-26T05:51:27.647Z</time>
      </trkpt>
      <trkpt lat="50.068135" lon="1.384837">
        <ele>8.034954</ele>
        <time>2024-05-26T05:51:29.384Z</time>
      </trkpt>
      <trkpt lat="50.068135" lon="1.384837">
        <ele>8.034954</ele>
        <time>2024-05-26T05:51:29.384Z</time>
      </trkpt>
      <trkpt lat="50.068135" lon="1.384837">
        <ele>8.034954</ele>
        <time>2024-05-26T05:51:29.394Z</time>
      </trkpt>
    </trkseg>
  </trk>
</gpx>